<?xml version='1.0' encoding='UTF-8'?><gpx version="1.1" creator="JPX - https://github.com/jenetics/jpx" xmlns="http://www.topografix.com/GPX/1/1"><trk><trkseg><trkpt lat="43.6243567" lon="11.4668567"><ele>122.0</ele><time>2026-04-18T07:43:52.011Z</time></trkpt><trkpt lat="43.62446" lon="11.466905"><ele>122.0</ele><time>2026-04-18T07:43:54.01Z</time></trkpt><trkpt lat="43.624565" lon="11.46697"><ele>122.0</ele><time>2026-04-18T07:43:56.01Z</time></trkpt><trkpt lat="43.624675" lon="11.46705"><ele>122.0</ele><time>2026-04-18T07:43:58.011Z</time></trkpt><trkpt lat="43.6247867" lon="11.46713"><ele>121.7142857142857</ele><time>2026-04-18T07:44:00.01Z</time></trkpt><trkpt lat="43.6248433" lon="11.4671717"><ele>121.42857142857142</ele><time>2026-04-18T07:44:01.011Z</time></trkpt><trkpt lat="43.6249017" lon="11.46721"><ele>121.14285714285714</ele><time>2026-04-18T07:44:02.01Z</time></trkpt><trkpt lat="43.6249617" lon="11.4672467"><ele>120.85714285714285</ele><time>2026-04-18T07:44:03.011Z</time></trkpt><trkpt lat="43.6250267" lon="11.46729"><ele>120.57142857142856</ele><time>2026-04-18T07:44:04.01Z</time></trkpt><trkpt lat="43.6250867" lon="11.4673317"><ele>120.28571428571429</ele><time>2026-04-18T07:44:05.011Z</time></trkpt><trkpt lat="43.62515" lon="11.4673683"><ele>120.0</ele><time>2026-04-18T07:44:06.011Z</time></trkpt><trkpt lat="43.6252117" lon="11.467405"><ele>120.0</ele><time>2026-04-18T07:44:07.01Z</time></trkpt><trkpt lat="43.6252733" lon="11.4674433"><ele>120.0</ele><time>2026-04-18T07:44:08.01Z</time></trkpt><trkpt lat="43.6253333" lon="11.467485"><ele>120.0</ele><time>2026-04-18T07:44:09.011Z</time></trkpt><trkpt lat="43.6253933" lon="11.4675217"><ele>120.0</ele><time>2026-04-18T07:44:10.011Z</time></trkpt><trkpt lat="43.6254533" lon="11.4675583"><ele>120.0</ele><time>2026-04-18T07:44:11.01Z</time></trkpt><trkpt lat="43.6255133" lon="11.4675983"><ele>120.0</ele><time>2026-04-18T07:44:12.01Z</time></trkpt><trkpt lat="43.625575" lon="11.4676417"><ele>120.0</ele><time>2026-04-18T07:44:13.011Z</time></trkpt><trkpt lat="43.6256283" lon="11.4676967"><ele>120.14285714285714</ele><time>2026-04-18T07:44:14.01Z</time></trkpt><trkpt lat="43.6256683" lon="11.4677667"><ele>120.28571428571428</ele><time>2026-04-18T07:44:15.012Z</time></trkpt><trkpt lat="43.62571" lon="11.4678517"><ele>120.42857142857142</ele><time>2026-04-18T07:44:16.011Z</time></trkpt><trkpt lat="43.6257417" lon="11.4679333"><ele>120.57142857142857</ele><time>2026-04-18T07:44:17.012Z</time></trkpt><trkpt lat="43.6257667" lon="11.4680217"><ele>120.7142857142857</ele><time>2026-04-18T07:44:18.01Z</time></trkpt><trkpt lat="43.6257783" lon="11.4681183"><ele>120.85714285714285</ele><time>2026-04-18T07:44:19.01Z</time></trkpt><trkpt lat="43.62578" lon="11.4682233"><ele>121.0</ele><time>2026-04-18T07:44:20.011Z</time></trkpt><trkpt lat="43.6257833" lon="11.46833"><ele>121.00000000000001</ele><time>2026-04-18T07:44:21.01Z</time></trkpt><trkpt lat="43.6257917" lon="11.4684483"><ele>121.0</ele><time>2026-04-18T07:44:22.011Z</time></trkpt><trkpt lat="43.6258017" lon="11.46856"><ele>121.0</ele><time>2026-04-18T07:44:23.012Z</time></trkpt><trkpt lat="43.6258167" lon="11.46867"><ele>121.0</ele><time>2026-04-18T07:44:24.012Z</time></trkpt><trkpt lat="43.6258367" lon="11.4687817"><ele>121.00000000000001</ele><time>2026-04-18T07:44:25.01Z</time></trkpt><trkpt lat="43.6258633" lon="11.4688917"><ele>121.0</ele><time>2026-04-18T07:44:26.01Z</time></trkpt><trkpt lat="43.6258883" lon="11.469005"><ele>121.00000000000001</ele><time>2026-04-18T07:44:27.012Z</time></trkpt><trkpt lat="43.625915" lon="11.4691183"><ele>121.0</ele><time>2026-04-18T07:44:28.01Z</time></trkpt><trkpt lat="43.6259467" lon="11.4692367"><ele>121.0</ele><time>2026-04-18T07:44:29.011Z</time></trkpt><trkpt lat="43.6259767" lon="11.4693467"><ele>121.0</ele><time>2026-04-18T07:44:30.011Z</time></trkpt><trkpt lat="43.6260067" lon="11.4694583"><ele>121.00000000000001</ele><time>2026-04-18T07:44:31.011Z</time></trkpt><trkpt lat="43.62604" lon="11.4695733"><ele>121.0</ele><time>2026-04-18T07:44:32.01Z</time></trkpt><trkpt lat="43.626075" lon="11.4697033"><ele>121.00000000000001</ele><time>2026-04-18T07:44:33.011Z</time></trkpt><trkpt lat="43.62611" lon="11.4698133"><ele>121.0</ele><time>2026-04-18T07:44:34.012Z</time></trkpt><trkpt lat="43.6261317" lon="11.4699233"><ele>121.0</ele><time>2026-04-18T07:44:35.009Z</time></trkpt><trkpt lat="43.6261533" lon="11.4700283"><ele>121.0</ele><time>2026-04-18T07:44:36.012Z</time></trkpt><trkpt lat="43.626175" lon="11.4701283"><ele>121.00000000000001</ele><time>2026-04-18T07:44:37.012Z</time></trkpt><trkpt lat="43.6261983" lon="11.4702283"><ele>121.0</ele><time>2026-04-18T07:44:38.01Z</time></trkpt><trkpt lat="43.6262233" lon="11.47033"><ele>121.00000000000001</ele><time>2026-04-18T07:44:39.011Z</time></trkpt><trkpt lat="43.6262433" lon="11.47043"><ele>121.0</ele><time>2026-04-18T07:44:40.011Z</time></trkpt><trkpt lat="43.6262617" lon="11.4705283"><ele>121.0</ele><time>2026-04-18T07:44:41.01Z</time></trkpt><trkpt lat="43.6262717" lon="11.4706217"><ele>121.0</ele><time>2026-04-18T07:44:42.013Z</time></trkpt><trkpt lat="43.62628" lon="11.4707117"><ele>121.00000000000001</ele><time>2026-04-18T07:44:43.011Z</time></trkpt><trkpt lat="43.62629" lon="11.4708033"><ele>121.0</ele><time>2026-04-18T07:44:44.011Z</time></trkpt><trkpt lat="43.6262967" lon="11.470975"><ele>121.0</ele><time>2026-04-18T07:44:46.009Z</time></trkpt><trkpt lat="43.6263067" lon="11.4711267"><ele>121.0</ele><time>2026-04-18T07:44:48.011Z</time></trkpt><trkpt lat="43.6263033" lon="11.4712917"><ele>121.0</ele><time>2026-04-18T07:44:50.01Z</time></trkpt><trkpt lat="43.6262917" lon="11.4714317"><ele>121.0</ele><time>2026-04-18T07:44:52.01Z</time></trkpt><trkpt lat="43.6262733" lon="11.471565"><ele>121.0</ele><time>2026-04-18T07:44:54.011Z</time></trkpt><trkpt lat="43.6262483" lon="11.4717"><ele>121.00000000000001</ele><time>2026-04-18T07:44:56.01Z</time></trkpt><trkpt lat="43.6262083" lon="11.47185"><ele>121.0</ele><time>2026-04-18T07:44:58.012Z</time></trkpt><trkpt lat="43.6261883" lon="11.4719333"><ele>121.0</ele><time>2026-04-18T07:44:59.011Z</time></trkpt><trkpt lat="43.6261417" lon="11.47209"><ele>121.0</ele><time>2026-04-18T07:45:01.01Z</time></trkpt><trkpt lat="43.6261117" lon="11.4721683"><ele>121.00000000000001</ele><time>2026-04-18T07:45:02.012Z</time></trkpt><trkpt lat="43.6260817" lon="11.4722467"><ele>121.0</ele><time>2026-04-18T07:45:03.01Z</time></trkpt><trkpt lat="43.62605" lon="11.4723267"><ele>121.14285714285714</ele><time>2026-04-18T07:45:04.012Z</time></trkpt><trkpt lat="43.6260183" lon="11.472405"><ele>121.28571428571428</ele><time>2026-04-18T07:45:05.01Z</time></trkpt><trkpt lat="43.625985" lon="11.4724867"><ele>121.42857142857142</ele><time>2026-04-18T07:45:06.012Z</time></trkpt><trkpt lat="43.6259483" lon="11.4725617"><ele>121.57142857142856</ele><time>2026-04-18T07:45:07.01Z</time></trkpt><trkpt lat="43.62591" lon="11.47264"><ele>121.71428571428571</ele><time>2026-04-18T07:45:08.012Z</time></trkpt><trkpt lat="43.6258717" lon="11.47272"><ele>121.85714285714283</ele><time>2026-04-18T07:45:09.012Z</time></trkpt><trkpt lat="43.6258333" lon="11.4728017"><ele>121.99999999999999</ele><time>2026-04-18T07:45:10.01Z</time></trkpt><trkpt lat="43.6257983" lon="11.4728833"><ele>122.14285714285712</ele><time>2026-04-18T07:45:11.01Z</time></trkpt><trkpt lat="43.62576" lon="11.4729617"><ele>122.28571428571428</ele><time>2026-04-18T07:45:12.011Z</time></trkpt><trkpt lat="43.6257233" lon="11.4730433"><ele>122.42857142857143</ele><time>2026-04-18T07:45:13.011Z</time></trkpt><trkpt lat="43.6256833" lon="11.473125"><ele>122.57142857142857</ele><time>2026-04-18T07:45:14.01Z</time></trkpt><trkpt lat="43.625645" lon="11.4732033"><ele>122.71428571428572</ele><time>2026-04-18T07:45:15.011Z</time></trkpt><trkpt lat="43.625605" lon="11.473285"><ele>122.85714285714288</ele><time>2026-04-18T07:45:16.009Z</time></trkpt><trkpt lat="43.6255683" lon="11.4733683"><ele>123.00000000000001</ele><time>2026-04-18T07:45:17.01Z</time></trkpt><trkpt lat="43.6255333" lon="11.47345"><ele>123.00000000000001</ele><time>2026-04-18T07:45:18.009Z</time></trkpt><trkpt lat="43.625495" lon="11.4735283"><ele>123.0</ele><time>2026-04-18T07:45:19.011Z</time></trkpt><trkpt lat="43.6254583" lon="11.473605"><ele>123.00000000000001</ele><time>2026-04-18T07:45:20.01Z</time></trkpt><trkpt lat="43.6254217" lon="11.47368"><ele>123.00000000000001</ele><time>2026-04-18T07:45:21.011Z</time></trkpt><trkpt lat="43.6253833" lon="11.4737633"><ele>123.0</ele><time>2026-04-18T07:45:22.009Z</time></trkpt><trkpt lat="43.625345" lon="11.4738467"><ele>123.00000000000001</ele><time>2026-04-18T07:45:23.01Z</time></trkpt><trkpt lat="43.6253083" lon="11.473935"><ele>123.00000000000001</ele><time>2026-04-18T07:45:24.01Z</time></trkpt><trkpt lat="43.62527" lon="11.4740167"><ele>122.71428571428572</ele><time>2026-04-18T07:45:25.013Z</time></trkpt><trkpt lat="43.6252333" lon="11.474095"><ele>122.42857142857143</ele><time>2026-04-18T07:45:26.012Z</time></trkpt><trkpt lat="43.6251967" lon="11.4741733"><ele>122.14285714285714</ele><time>2026-04-18T07:45:27.012Z</time></trkpt><trkpt lat="43.6251583" lon="11.474255"><ele>121.85714285714286</ele><time>2026-04-18T07:45:28.013Z</time></trkpt><trkpt lat="43.6251183" lon="11.4743333"><ele>121.57142857142856</ele><time>2026-04-18T07:45:29.012Z</time></trkpt><trkpt lat="43.6250817" lon="11.4744133"><ele>121.28571428571428</ele><time>2026-04-18T07:45:30.011Z</time></trkpt><trkpt lat="43.6250417" lon="11.4744917"><ele>121.0</ele><time>2026-04-18T07:45:31.011Z</time></trkpt><trkpt lat="43.6250033" lon="11.474575"><ele>121.28571428571428</ele><time>2026-04-18T07:45:32.012Z</time></trkpt><trkpt lat="43.6249667" lon="11.47466"><ele>121.57142857142856</ele><time>2026-04-18T07:45:33.011Z</time></trkpt><trkpt lat="43.6249267" lon="11.4747433"><ele>121.85714285714286</ele><time>2026-04-18T07:45:34.012Z</time></trkpt><trkpt lat="43.6248883" lon="11.474825"><ele>122.14285714285714</ele><time>2026-04-18T07:45:35.009Z</time></trkpt><trkpt lat="43.62485" lon="11.4749083"><ele>122.42857142857143</ele><time>2026-04-18T07:45:36.011Z</time></trkpt><trkpt lat="43.6248117" lon="11.4749883"><ele>122.71428571428572</ele><time>2026-04-18T07:45:37.009Z</time></trkpt><trkpt lat="43.6247733" lon="11.4750717"><ele>123.00000000000001</ele><time>2026-04-18T07:45:38.013Z</time></trkpt><trkpt lat="43.6247333" lon="11.475155"><ele>123.00000000000001</ele><time>2026-04-18T07:45:39.01Z</time></trkpt><trkpt lat="43.624695" lon="11.47524"><ele>123.0</ele><time>2026-04-18T07:45:40.01Z</time></trkpt><trkpt lat="43.624655" lon="11.4753233"><ele>123.00000000000001</ele><time>2026-04-18T07:45:41.01Z</time></trkpt><trkpt lat="43.624615" lon="11.4754083"><ele>123.00000000000001</ele><time>2026-04-18T07:45:42.013Z</time></trkpt><trkpt lat="43.624575" lon="11.4754917"><ele>123.0</ele><time>2026-04-18T07:45:43.012Z</time></trkpt><trkpt lat="43.624535" lon="11.4755783"><ele>123.00000000000001</ele><time>2026-04-18T07:45:44.01Z</time></trkpt><trkpt lat="43.6244917" lon="11.47566"><ele>123.00000000000001</ele><time>2026-04-18T07:45:45.011Z</time></trkpt><trkpt lat="43.6244483" lon="11.4757417"><ele>123.00000000000001</ele><time>2026-04-18T07:45:46.01Z</time></trkpt><trkpt lat="43.6244033" lon="11.4758233"><ele>123.0</ele><time>2026-04-18T07:45:47.009Z</time></trkpt><trkpt lat="43.62436" lon="11.47591"><ele>123.00000000000001</ele><time>2026-04-18T07:45:48.009Z</time></trkpt><trkpt lat="43.6243183" lon="11.4759933"><ele>123.00000000000001</ele><time>2026-04-18T07:45:49.011Z</time></trkpt><trkpt lat="43.624275" lon="11.4760733"><ele>123.0</ele><time>2026-04-18T07:45:50.011Z</time></trkpt><trkpt lat="43.6242317" lon="11.4761533"><ele>123.00000000000001</ele><time>2026-04-18T07:45:51.01Z</time></trkpt><trkpt lat="43.6241867" lon="11.476235"><ele>123.00000000000001</ele><time>2026-04-18T07:45:52.011Z</time></trkpt><trkpt lat="43.6241433" lon="11.4763167"><ele>122.85714285714288</ele><time>2026-04-18T07:45:53.012Z</time></trkpt><trkpt lat="43.6240967" lon="11.4763933"><ele>122.71428571428572</ele><time>2026-04-18T07:45:54.011Z</time></trkpt><trkpt lat="43.6240517" lon="11.4764683"><ele>122.57142857142857</ele><time>2026-04-18T07:45:55.012Z</time></trkpt><trkpt lat="43.6240083" lon="11.4765417"><ele>122.42857142857143</ele><time>2026-04-18T07:45:56.011Z</time></trkpt><trkpt lat="43.623965" lon="11.4766133"><ele>122.28571428571428</ele><time>2026-04-18T07:45:57.009Z</time></trkpt><trkpt lat="43.6239217" lon="11.4766833"><ele>122.14285714285712</ele><time>2026-04-18T07:45:58.01Z</time></trkpt><trkpt lat="43.623875" lon="11.4767567"><ele>121.99999999999999</ele><time>2026-04-18T07:45:59.01Z</time></trkpt><trkpt lat="43.6238283" lon="11.4768283"><ele>121.99999999999999</ele><time>2026-04-18T07:46:00.011Z</time></trkpt><trkpt lat="43.62378" lon="11.4768967"><ele>122.0</ele><time>2026-04-18T07:46:01.011Z</time></trkpt><trkpt lat="43.6237283" lon="11.4769667"><ele>121.99999999999999</ele><time>2026-04-18T07:46:02.011Z</time></trkpt><trkpt lat="43.623675" lon="11.4770367"><ele>121.99999999999999</ele><time>2026-04-18T07:46:03.011Z</time></trkpt><trkpt lat="43.6236233" lon="11.4771033"><ele>122.0</ele><time>2026-04-18T07:46:04.01Z</time></trkpt><trkpt lat="43.6235733" lon="11.47717"><ele>121.99999999999999</ele><time>2026-04-18T07:46:05.01Z</time></trkpt><trkpt lat="43.62352" lon="11.4772383"><ele>121.99999999999999</ele><time>2026-04-18T07:46:06.011Z</time></trkpt><trkpt lat="43.6234683" lon="11.4773083"><ele>122.14285714285712</ele><time>2026-04-18T07:46:07.011Z</time></trkpt><trkpt lat="43.623415" lon="11.4773767"><ele>122.28571428571428</ele><time>2026-04-18T07:46:08.01Z</time></trkpt><trkpt lat="43.6233617" lon="11.4774433"><ele>122.42857142857143</ele><time>2026-04-18T07:46:09.01Z</time></trkpt><trkpt lat="43.62331" lon="11.4775117"><ele>122.57142857142857</ele><time>2026-04-18T07:46:10.009Z</time></trkpt><trkpt lat="43.6232567" lon="11.4775783"><ele>122.71428571428572</ele><time>2026-04-18T07:46:11.011Z</time></trkpt><trkpt lat="43.6232017" lon="11.4776433"><ele>122.85714285714288</ele><time>2026-04-18T07:46:12.01Z</time></trkpt><trkpt lat="43.623145" lon="11.477705"><ele>123.00000000000001</ele><time>2026-04-18T07:46:13.01Z</time></trkpt><trkpt lat="43.62309" lon="11.477765"><ele>123.00000000000001</ele><time>2026-04-18T07:46:14.014Z</time></trkpt><trkpt lat="43.6230317" lon="11.4778233"><ele>123.0</ele><time>2026-04-18T07:46:15.01Z</time></trkpt><trkpt lat="43.6229717" lon="11.4778833"><ele>123.00000000000001</ele><time>2026-04-18T07:46:16.008Z</time></trkpt><trkpt lat="43.6229133" lon="11.4779417"><ele>123.00000000000001</ele><time>2026-04-18T07:46:17.01Z</time></trkpt><trkpt lat="43.6228583" lon="11.4780033"><ele>123.0</ele><time>2026-04-18T07:46:18.012Z</time></trkpt><trkpt lat="43.6228067" lon="11.47806"><ele>123.00000000000001</ele><time>2026-04-18T07:46:19.011Z</time></trkpt><trkpt lat="43.6227517" lon="11.4781133"><ele>123.00000000000001</ele><time>2026-04-18T07:46:20.01Z</time></trkpt><trkpt lat="43.6226967" lon="11.4781633"><ele>123.0</ele><time>2026-04-18T07:46:21.01Z</time></trkpt><trkpt lat="43.6226417" lon="11.4782067"><ele>123.00000000000001</ele><time>2026-04-18T07:46:22.011Z</time></trkpt><trkpt lat="43.6225817" lon="11.4782467"><ele>123.00000000000001</ele><time>2026-04-18T07:46:23.011Z</time></trkpt><trkpt lat="43.622455" lon="11.47828"><ele>123.0</ele><time>2026-04-18T07:46:25.009Z</time></trkpt><trkpt lat="43.6223383" lon="11.4783033"><ele>123.0</ele><time>2026-04-18T07:46:27.01Z</time></trkpt><trkpt lat="43.62225" lon="11.4783983"><ele>123.0</ele><time>2026-04-18T07:46:29.01Z</time></trkpt><trkpt lat="43.62223" lon="11.47854"><ele>123.0</ele><time>2026-04-18T07:46:31.011Z</time></trkpt><trkpt lat="43.6222833" lon="11.4786917"><ele>123.0</ele><time>2026-04-18T07:46:33.011Z</time></trkpt><trkpt lat="43.6223617" lon="11.4788183"><ele>123.0</ele><time>2026-04-18T07:46:35.01Z</time></trkpt><trkpt lat="43.6224333" lon="11.4789583"><ele>122.75</ele><time>2026-04-18T07:46:37.01Z</time></trkpt><trkpt lat="43.6225017" lon="11.47909"><ele>122.5</ele><time>2026-04-18T07:46:39.011Z</time></trkpt><trkpt lat="43.6225733" lon="11.4792083"><ele>122.25</ele><time>2026-04-18T07:46:41.011Z</time></trkpt><trkpt lat="43.6226433" lon="11.4793333"><ele>122.0</ele><time>2026-04-18T07:46:43.012Z</time></trkpt><trkpt lat="43.6227217" lon="11.4794683"><ele>121.99999999999999</ele><time>2026-04-18T07:46:45.013Z</time></trkpt><trkpt lat="43.6227617" lon="11.4795367"><ele>122.0</ele><time>2026-04-18T07:46:46.011Z</time></trkpt><trkpt lat="43.6228017" lon="11.4796067"><ele>122.0</ele><time>2026-04-18T07:46:47.01Z</time></trkpt><trkpt lat="43.622845" lon="11.479675"><ele>122.0</ele><time>2026-04-18T07:46:48.011Z</time></trkpt><trkpt lat="43.6229283" lon="11.4798117"><ele>121.99999999999999</ele><time>2026-04-18T07:46:50.013Z</time></trkpt><trkpt lat="43.6230083" lon="11.479945"><ele>122.0</ele><time>2026-04-18T07:46:52.012Z</time></trkpt><trkpt lat="43.62305" lon="11.4800133"><ele>122.14285714285712</ele><time>2026-04-18T07:46:53.011Z</time></trkpt><trkpt lat="43.6230917" lon="11.4800833"><ele>122.28571428571428</ele><time>2026-04-18T07:46:54.01Z</time></trkpt><trkpt lat="43.6231367" lon="11.480155"><ele>122.42857142857143</ele><time>2026-04-18T07:46:55.01Z</time></trkpt><trkpt lat="43.62318" lon="11.48022"><ele>122.57142857142857</ele><time>2026-04-18T07:46:56.012Z</time></trkpt><trkpt lat="43.6232267" lon="11.4802967"><ele>122.71428571428572</ele><time>2026-04-18T07:46:57.011Z</time></trkpt><trkpt lat="43.6232717" lon="11.4803733"><ele>122.85714285714288</ele><time>2026-04-18T07:46:58.011Z</time></trkpt><trkpt lat="43.6233183" lon="11.48046"><ele>123.00000000000001</ele><time>2026-04-18T07:46:59.011Z</time></trkpt><trkpt lat="43.6233683" lon="11.4805483"><ele>123.0</ele><time>2026-04-18T07:47:00.012Z</time></trkpt><trkpt lat="43.6234233" lon="11.4806383"><ele>123.0</ele><time>2026-04-18T07:47:01.011Z</time></trkpt><trkpt lat="43.6234817" lon="11.4807317"><ele>123.0</ele><time>2026-04-18T07:47:02.011Z</time></trkpt><trkpt lat="43.6235433" lon="11.48083"><ele>123.0</ele><time>2026-04-18T07:47:03.012Z</time></trkpt><trkpt lat="43.6236033" lon="11.4809283"><ele>123.0</ele><time>2026-04-18T07:47:04.01Z</time></trkpt><trkpt lat="43.6236567" lon="11.4810233"><ele>123.0</ele><time>2026-04-18T07:47:05.01Z</time></trkpt><trkpt lat="43.6237067" lon="11.4811183"><ele>123.5</ele><time>2026-04-18T07:47:06.012Z</time></trkpt><trkpt lat="43.623765" lon="11.4812183"><ele>124.0</ele><time>2026-04-18T07:47:07.012Z</time></trkpt><trkpt lat="43.6238017" lon="11.4813333"><ele>124.5</ele><time>2026-04-18T07:47:08.015Z</time></trkpt><trkpt lat="43.6238267" lon="11.481445"><ele>125.0</ele><time>2026-04-18T07:47:09.013Z</time></trkpt><trkpt lat="43.6238283" lon="11.4815617"><ele>125.5</ele><time>2026-04-18T07:47:10.009Z</time></trkpt><trkpt lat="43.623825" lon="11.4816783"><ele>126.0</ele><time>2026-04-18T07:47:11.011Z</time></trkpt><trkpt lat="43.623825" lon="11.4817983"><ele>126.0</ele><time>2026-04-18T07:47:12.011Z</time></trkpt><trkpt lat="43.6238433" lon="11.4819267"><ele>126.0</ele><time>2026-04-18T07:47:13.012Z</time></trkpt><trkpt lat="43.6238683" lon="11.4820217"><ele>126.0</ele><time>2026-04-18T07:47:14.012Z</time></trkpt><trkpt lat="43.6239033" lon="11.4821683"><ele>126.0</ele><time>2026-04-18T07:47:16.01Z</time></trkpt><trkpt lat="43.62391" lon="11.4822717"><ele>126.0</ele><time>2026-04-18T07:47:18.01Z</time></trkpt><trkpt lat="43.6239" lon="11.4823833"><ele>126.0</ele><time>2026-04-18T07:47:20.011Z</time></trkpt><trkpt lat="43.6238583" lon="11.4825083"><ele>126.0</ele><time>2026-04-18T07:47:22.01Z</time></trkpt><trkpt lat="43.6238" lon="11.48264"><ele>126.0</ele><time>2026-04-18T07:47:24.011Z</time></trkpt><trkpt lat="43.6237283" lon="11.48277"><ele>126.0</ele><time>2026-04-18T07:47:26.012Z</time></trkpt><trkpt lat="43.62369" lon="11.48284"><ele>126.0</ele><time>2026-04-18T07:47:27.011Z</time></trkpt><trkpt lat="43.6236517" lon="11.4829133"><ele>126.0</ele><time>2026-04-18T07:47:28.011Z</time></trkpt><trkpt lat="43.623615" lon="11.48299"><ele>126.0</ele><time>2026-04-18T07:47:29.012Z</time></trkpt><trkpt lat="43.6235383" lon="11.48314"><ele>125.71428571428572</ele><time>2026-04-18T07:47:31.011Z</time></trkpt><trkpt lat="43.6234983" lon="11.48322"><ele>125.42857142857143</ele><time>2026-04-18T07:47:32.011Z</time></trkpt><trkpt lat="43.6234583" lon="11.4832983"><ele>125.14285714285714</ele><time>2026-04-18T07:47:33.01Z</time></trkpt><trkpt lat="43.6234167" lon="11.483375"><ele>124.85714285714286</ele><time>2026-04-18T07:47:34.012Z</time></trkpt><trkpt lat="43.6233733" lon="11.4834583"><ele>124.57142857142858</ele><time>2026-04-18T07:47:35.01Z</time></trkpt><trkpt lat="43.6233333" lon="11.4835433"><ele>124.28571428571429</ele><time>2026-04-18T07:47:36.01Z</time></trkpt><trkpt lat="43.623295" lon="11.4836233"><ele>124.0</ele><time>2026-04-18T07:47:37.011Z</time></trkpt><trkpt lat="43.6232567" lon="11.4837033"><ele>124.0</ele><time>2026-04-18T07:47:38.012Z</time></trkpt><trkpt lat="43.623215" lon="11.483785"><ele>124.00000000000001</ele><time>2026-04-18T07:47:39.012Z</time></trkpt><trkpt lat="43.6231733" lon="11.4838667"><ele>124.0</ele><time>2026-04-18T07:47:40.012Z</time></trkpt><trkpt lat="43.62313" lon="11.4839433"><ele>124.0</ele><time>2026-04-18T07:47:41.009Z</time></trkpt><trkpt lat="43.6230883" lon="11.4840233"><ele>124.00000000000001</ele><time>2026-04-18T07:47:42.011Z</time></trkpt><trkpt lat="43.6230467" lon="11.48411"><ele>124.0</ele><time>2026-04-18T07:47:43.013Z</time></trkpt><trkpt lat="43.6230033" lon="11.484195"><ele>124.0</ele><time>2026-04-18T07:47:44.011Z</time></trkpt><trkpt lat="43.62296" lon="11.4842833"><ele>124.00000000000001</ele><time>2026-04-18T07:47:45.011Z</time></trkpt><trkpt lat="43.6229167" lon="11.4843717"><ele>124.0</ele><time>2026-04-18T07:47:46.011Z</time></trkpt><trkpt lat="43.6228733" lon="11.4844583"><ele>124.0</ele><time>2026-04-18T07:47:47.011Z</time></trkpt><trkpt lat="43.62283" lon="11.484545"><ele>124.0</ele><time>2026-04-18T07:47:48.012Z</time></trkpt><trkpt lat="43.6227867" lon="11.4846333"><ele>124.00000000000001</ele><time>2026-04-18T07:47:49.011Z</time></trkpt><trkpt lat="43.6227433" lon="11.4847183"><ele>124.0</ele><time>2026-04-18T07:47:50.011Z</time></trkpt><trkpt lat="43.6227017" lon="11.4848083"><ele>123.83333333333334</ele><time>2026-04-18T07:47:51.011Z</time></trkpt><trkpt lat="43.6226567" lon="11.4848883"><ele>123.66666666666667</ele><time>2026-04-18T07:47:52.01Z</time></trkpt><trkpt lat="43.6226133" lon="11.4849733"><ele>123.5</ele><time>2026-04-18T07:47:53.012Z</time></trkpt><trkpt lat="43.6225733" lon="11.4850667"><ele>123.33333333333334</ele><time>2026-04-18T07:47:54.012Z</time></trkpt><trkpt lat="43.6225317" lon="11.4851567"><ele>123.16666666666667</ele><time>2026-04-18T07:47:55.009Z</time></trkpt><trkpt lat="43.6224867" lon="11.4852467"><ele>123.0</ele><time>2026-04-18T07:47:56.011Z</time></trkpt><trkpt lat="43.6224433" lon="11.4853367"><ele>123.00000000000001</ele><time>2026-04-18T07:47:57.011Z</time></trkpt><trkpt lat="43.6223983" lon="11.4854167"><ele>123.0</ele><time>2026-04-18T07:47:58.01Z</time></trkpt><trkpt lat="43.622355" lon="11.4854983"><ele>123.00000000000001</ele><time>2026-04-18T07:47:59.011Z</time></trkpt><trkpt lat="43.6223117" lon="11.4855817"><ele>123.00000000000001</ele><time>2026-04-18T07:48:00.011Z</time></trkpt><trkpt lat="43.6222667" lon="11.4856667"><ele>123.0</ele><time>2026-04-18T07:48:01.011Z</time></trkpt><trkpt lat="43.6222217" lon="11.48575"><ele>123.00000000000001</ele><time>2026-04-18T07:48:02.012Z</time></trkpt><trkpt lat="43.6221767" lon="11.485835"><ele>123.00000000000001</ele><time>2026-04-18T07:48:03.012Z</time></trkpt><trkpt lat="43.6221333" lon="11.4859217"><ele>123.16666666666667</ele><time>2026-04-18T07:48:04.011Z</time></trkpt><trkpt lat="43.62209" lon="11.48601"><ele>123.33333333333334</ele><time>2026-04-18T07:48:05.01Z</time></trkpt><trkpt lat="43.6220483" lon="11.4861"><ele>123.5</ele><time>2026-04-18T07:48:06.011Z</time></trkpt><trkpt lat="43.622005" lon="11.486185"><ele>123.66666666666667</ele><time>2026-04-18T07:48:07.011Z</time></trkpt><trkpt lat="43.6219617" lon="11.4862733"><ele>123.83333333333334</ele><time>2026-04-18T07:48:08.012Z</time></trkpt><trkpt lat="43.6219167" lon="11.48636"><ele>124.0</ele><time>2026-04-18T07:48:09.01Z</time></trkpt><trkpt lat="43.6218733" lon="11.4864483"><ele>124.0</ele><time>2026-04-18T07:48:10.01Z</time></trkpt><trkpt lat="43.6218317" lon="11.4865367"><ele>124.00000000000001</ele><time>2026-04-18T07:48:11.011Z</time></trkpt><trkpt lat="43.6217917" lon="11.4866167"><ele>124.0</ele><time>2026-04-18T07:48:12.01Z</time></trkpt><trkpt lat="43.6217533" lon="11.4867017"><ele>124.0</ele><time>2026-04-18T07:48:13.01Z</time></trkpt><trkpt lat="43.62172" lon="11.486795"><ele>124.00000000000001</ele><time>2026-04-18T07:48:14.011Z</time></trkpt><trkpt lat="43.62169" lon="11.4868933"><ele>124.0</ele><time>2026-04-18T07:48:15.011Z</time></trkpt><trkpt lat="43.6216617" lon="11.4869933"><ele>124.0</ele><time>2026-04-18T07:48:16.01Z</time></trkpt><trkpt lat="43.6216383" lon="11.4870933"><ele>124.16666666666667</ele><time>2026-04-18T07:48:17.012Z</time></trkpt><trkpt lat="43.6216183" lon="11.487195"><ele>124.33333333333334</ele><time>2026-04-18T07:48:18.011Z</time></trkpt><trkpt lat="43.6215967" lon="11.4872983"><ele>124.5</ele><time>2026-04-18T07:48:19.012Z</time></trkpt><trkpt lat="43.6215783" lon="11.4874017"><ele>124.66666666666666</ele><time>2026-04-18T07:48:20.011Z</time></trkpt><trkpt lat="43.621565" lon="11.48751"><ele>124.83333333333333</ele><time>2026-04-18T07:48:21.011Z</time></trkpt><trkpt lat="43.621555" lon="11.4876167"><ele>125.0</ele><time>2026-04-18T07:48:22.012Z</time></trkpt><trkpt lat="43.6215483" lon="11.487725"><ele>124.99999999999999</ele><time>2026-04-18T07:48:23.011Z</time></trkpt><trkpt lat="43.6215467" lon="11.4878333"><ele>125.0</ele><time>2026-04-18T07:48:24.013Z</time></trkpt><trkpt lat="43.6215467" lon="11.487935"><ele>125.0</ele><time>2026-04-18T07:48:25.012Z</time></trkpt><trkpt lat="43.6215533" lon="11.4880383"><ele>125.0</ele><time>2026-04-18T07:48:26.011Z</time></trkpt><trkpt lat="43.6215617" lon="11.4881417"><ele>124.99999999999999</ele><time>2026-04-18T07:48:27.011Z</time></trkpt><trkpt lat="43.62157" lon="11.488245"><ele>125.0</ele><time>2026-04-18T07:48:28.011Z</time></trkpt><trkpt lat="43.6215817" lon="11.4883467"><ele>124.66666666666666</ele><time>2026-04-18T07:48:29.011Z</time></trkpt><trkpt lat="43.6215967" lon="11.4884517"><ele>124.33333333333333</ele><time>2026-04-18T07:48:30.013Z</time></trkpt><trkpt lat="43.621615" lon="11.48856"><ele>124.0</ele><time>2026-04-18T07:48:31.012Z</time></trkpt><trkpt lat="43.6216367" lon="11.48866"><ele>123.66666666666666</ele><time>2026-04-18T07:48:32.01Z</time></trkpt><trkpt lat="43.6216583" lon="11.48877"><ele>123.33333333333333</ele><time>2026-04-18T07:48:33.01Z</time></trkpt><trkpt lat="43.6216833" lon="11.48888"><ele>123.0</ele><time>2026-04-18T07:48:34.01Z</time></trkpt><trkpt lat="43.6217083" lon="11.488985"><ele>123.0</ele><time>2026-04-18T07:48:35.01Z</time></trkpt><trkpt lat="43.6217333" lon="11.4890917"><ele>123.0</ele><time>2026-04-18T07:48:36.011Z</time></trkpt><trkpt lat="43.6217633" lon="11.4891933"><ele>123.0</ele><time>2026-04-18T07:48:37.011Z</time></trkpt><trkpt lat="43.62179" lon="11.4893033"><ele>123.0</ele><time>2026-04-18T07:48:38.011Z</time></trkpt><trkpt lat="43.6218133" lon="11.4894067"><ele>123.0</ele><time>2026-04-18T07:48:39.01Z</time></trkpt><trkpt lat="43.6218383" lon="11.4895117"><ele>123.0</ele><time>2026-04-18T07:48:40.012Z</time></trkpt><trkpt lat="43.6218617" lon="11.4896167"><ele>122.83333333333333</ele><time>2026-04-18T07:48:41.011Z</time></trkpt><trkpt lat="43.621885" lon="11.4897217"><ele>122.66666666666666</ele><time>2026-04-18T07:48:42.011Z</time></trkpt><trkpt lat="43.6219083" lon="11.489825"><ele>122.5</ele><time>2026-04-18T07:48:43.01Z</time></trkpt><trkpt lat="43.621935" lon="11.48993"><ele>122.33333333333333</ele><time>2026-04-18T07:48:44.009Z</time></trkpt><trkpt lat="43.6219633" lon="11.4900367"><ele>122.16666666666666</ele><time>2026-04-18T07:48:45.01Z</time></trkpt><trkpt lat="43.6219883" lon="11.4901367"><ele>122.0</ele><time>2026-04-18T07:48:46.009Z</time></trkpt><trkpt lat="43.6220117" lon="11.4902333"><ele>122.16666666666666</ele><time>2026-04-18T07:48:47.01Z</time></trkpt><trkpt lat="43.622035" lon="11.4903283"><ele>122.33333333333333</ele><time>2026-04-18T07:48:48.009Z</time></trkpt><trkpt lat="43.6220583" lon="11.4904283"><ele>122.5</ele><time>2026-04-18T07:48:49.011Z</time></trkpt><trkpt lat="43.6220833" lon="11.49053"><ele>122.66666666666666</ele><time>2026-04-18T07:48:50.009Z</time></trkpt><trkpt lat="43.6221067" lon="11.4906283"><ele>122.83333333333333</ele><time>2026-04-18T07:48:51.011Z</time></trkpt><trkpt lat="43.62213" lon="11.4907267"><ele>123.0</ele><time>2026-04-18T07:48:52.009Z</time></trkpt><trkpt lat="43.6221533" lon="11.4908317"><ele>123.0</ele><time>2026-04-18T07:48:53.009Z</time></trkpt><trkpt lat="43.6221783" lon="11.4909317"><ele>123.0</ele><time>2026-04-18T07:48:54.009Z</time></trkpt><trkpt lat="43.6222017" lon="11.4910317"><ele>123.0</ele><time>2026-04-18T07:48:55.009Z</time></trkpt><trkpt lat="43.6222267" lon="11.491135"><ele>123.0</ele><time>2026-04-18T07:48:56.01Z</time></trkpt><trkpt lat="43.62225" lon="11.4912367"><ele>123.0</ele><time>2026-04-18T07:48:57.009Z</time></trkpt><trkpt lat="43.622275" lon="11.49134"><ele>123.0</ele><time>2026-04-18T07:48:58.009Z</time></trkpt><trkpt lat="43.6223" lon="11.491445"><ele>123.0</ele><time>2026-04-18T07:48:59.01Z</time></trkpt><trkpt lat="43.622325" lon="11.4915517"><ele>123.0</ele><time>2026-04-18T07:49:00.01Z</time></trkpt><trkpt lat="43.6223467" lon="11.4916517"><ele>123.0</ele><time>2026-04-18T07:49:01.01Z</time></trkpt><trkpt lat="43.6223717" lon="11.491755"><ele>123.0</ele><time>2026-04-18T07:49:02.01Z</time></trkpt><trkpt lat="43.622395" lon="11.4918567"><ele>123.0</ele><time>2026-04-18T07:49:03.011Z</time></trkpt><trkpt lat="43.62242" lon="11.4919583"><ele>123.0</ele><time>2026-04-18T07:49:04.01Z</time></trkpt><trkpt lat="43.622445" lon="11.4920583"><ele>123.0</ele><time>2026-04-18T07:49:05.011Z</time></trkpt><trkpt lat="43.62247" lon="11.4921617"><ele>123.0</ele><time>2026-04-18T07:49:06.011Z</time></trkpt><trkpt lat="43.6224933" lon="11.4922583"><ele>123.0</ele><time>2026-04-18T07:49:07.009Z</time></trkpt><trkpt lat="43.6225167" lon="11.4923583"><ele>123.0</ele><time>2026-04-18T07:49:08.01Z</time></trkpt><trkpt lat="43.62254" lon="11.4924583"><ele>123.0</ele><time>2026-04-18T07:49:09.011Z</time></trkpt><trkpt lat="43.622565" lon="11.4925617"><ele>123.0</ele><time>2026-04-18T07:49:10.01Z</time></trkpt><trkpt lat="43.6225867" lon="11.4926667"><ele>123.0</ele><time>2026-04-18T07:49:11.011Z</time></trkpt><trkpt lat="43.6226067" lon="11.4927767"><ele>123.0</ele><time>2026-04-18T07:49:12.009Z</time></trkpt><trkpt lat="43.6226233" lon="11.4928817"><ele>123.0</ele><time>2026-04-18T07:49:13.009Z</time></trkpt><trkpt lat="43.6226383" lon="11.4929817"><ele>123.0</ele><time>2026-04-18T07:49:14.009Z</time></trkpt><trkpt lat="43.6226483" lon="11.493085"><ele>123.0</ele><time>2026-04-18T07:49:15.01Z</time></trkpt><trkpt lat="43.6226533" lon="11.4931917"><ele>123.0</ele><time>2026-04-18T07:49:16.011Z</time></trkpt><trkpt lat="43.6226567" lon="11.4932983"><ele>123.0</ele><time>2026-04-18T07:49:17.011Z</time></trkpt><trkpt lat="43.6226567" lon="11.493405"><ele>123.0</ele><time>2026-04-18T07:49:18.009Z</time></trkpt><trkpt lat="43.6226533" lon="11.4935117"><ele>123.0</ele><time>2026-04-18T07:49:19.009Z</time></trkpt><trkpt lat="43.6226467" lon="11.49362"><ele>123.0</ele><time>2026-04-18T07:49:20.009Z</time></trkpt><trkpt lat="43.6226333" lon="11.4937233"><ele>123.0</ele><time>2026-04-18T07:49:21.01Z</time></trkpt><trkpt lat="43.6226183" lon="11.4938283"><ele>123.0</ele><time>2026-04-18T07:49:22.01Z</time></trkpt><trkpt lat="43.6225983" lon="11.49393"><ele>123.0</ele><time>2026-04-18T07:49:23.011Z</time></trkpt><trkpt lat="43.6225767" lon="11.4940333"><ele>123.0</ele><time>2026-04-18T07:49:24.009Z</time></trkpt><trkpt lat="43.6225517" lon="11.4941417"><ele>123.0</ele><time>2026-04-18T07:49:25.011Z</time></trkpt><trkpt lat="43.6225233" lon="11.494245"><ele>123.0</ele><time>2026-04-18T07:49:26.011Z</time></trkpt><trkpt lat="43.62249" lon="11.4943467"><ele>123.0</ele><time>2026-04-18T07:49:27.009Z</time></trkpt><trkpt lat="43.6224517" lon="11.49445"><ele>123.0</ele><time>2026-04-18T07:49:28.011Z</time></trkpt><trkpt lat="43.6224133" lon="11.4945467"><ele>123.66666666666667</ele><time>2026-04-18T07:49:29.009Z</time></trkpt><trkpt lat="43.6223733" lon="11.4946433"><ele>124.33333333333334</ele><time>2026-04-18T07:49:30.01Z</time></trkpt><trkpt lat="43.62233" lon="11.4947383"><ele>125.0</ele><time>2026-04-18T07:49:31.008Z</time></trkpt><trkpt lat="43.6222833" lon="11.4948317"><ele>125.66666666666667</ele><time>2026-04-18T07:49:32.011Z</time></trkpt><trkpt lat="43.622235" lon="11.494925"><ele>126.33333333333334</ele><time>2026-04-18T07:49:33.01Z</time></trkpt><trkpt lat="43.6221883" lon="11.4950067"><ele>127.0</ele><time>2026-04-18T07:49:34.01Z</time></trkpt><trkpt lat="43.6221367" lon="11.4950883"><ele>127.00000000000001</ele><time>2026-04-18T07:49:35.009Z</time></trkpt><trkpt lat="43.6220833" lon="11.4951617"><ele>127.0</ele><time>2026-04-18T07:49:36.01Z</time></trkpt><trkpt lat="43.6220233" lon="11.4952317"><ele>127.0</ele><time>2026-04-18T07:49:37.009Z</time></trkpt><trkpt lat="43.6219617" lon="11.4952983"><ele>127.0</ele><time>2026-04-18T07:49:38.009Z</time></trkpt><trkpt lat="43.6218983" lon="11.4953633"><ele>127.00000000000001</ele><time>2026-04-18T07:49:39.009Z</time></trkpt><trkpt lat="43.6218333" lon="11.4954217"><ele>127.0</ele><time>2026-04-18T07:49:40.011Z</time></trkpt><trkpt lat="43.6217633" lon="11.4954767"><ele>127.00000000000001</ele><time>2026-04-18T07:49:41.01Z</time></trkpt><trkpt lat="43.6216933" lon="11.4955267"><ele>127.0</ele><time>2026-04-18T07:49:42.01Z</time></trkpt><trkpt lat="43.621625" lon="11.49557"><ele>127.0</ele><time>2026-04-18T07:49:43.011Z</time></trkpt><trkpt lat="43.62156" lon="11.4956133"><ele>127.0</ele><time>2026-04-18T07:49:44.01Z</time></trkpt><trkpt lat="43.62149" lon="11.4956633"><ele>127.00000000000001</ele><time>2026-04-18T07:49:45.01Z</time></trkpt><trkpt lat="43.62142" lon="11.49571"><ele>127.0</ele><time>2026-04-18T07:49:46.01Z</time></trkpt><trkpt lat="43.6213483" lon="11.4957567"><ele>127.0</ele><time>2026-04-18T07:49:47.01Z</time></trkpt><trkpt lat="43.6212783" lon="11.4958033"><ele>127.0</ele><time>2026-04-18T07:49:48.01Z</time></trkpt><trkpt lat="43.62121" lon="11.4958467"><ele>127.0</ele><time>2026-04-18T07:49:49.01Z</time></trkpt><trkpt lat="43.6211433" lon="11.4958883"><ele>127.0</ele><time>2026-04-18T07:49:50.012Z</time></trkpt><trkpt lat="43.6210783" lon="11.49593"><ele>127.0</ele><time>2026-04-18T07:49:51.012Z</time></trkpt><trkpt lat="43.6210117" lon="11.49597"><ele>127.0</ele><time>2026-04-18T07:49:52.011Z</time></trkpt><trkpt lat="43.620945" lon="11.4960033"><ele>127.0</ele><time>2026-04-18T07:49:53.011Z</time></trkpt><trkpt lat="43.620875" lon="11.496035"><ele>126.71428571428572</ele><time>2026-04-18T07:49:54.01Z</time></trkpt><trkpt lat="43.620805" lon="11.496065"><ele>126.42857142857142</ele><time>2026-04-18T07:49:55.01Z</time></trkpt><trkpt lat="43.6207283" lon="11.4960867"><ele>126.14285714285714</ele><time>2026-04-18T07:49:56.01Z</time></trkpt><trkpt lat="43.6206583" lon="11.4961033"><ele>125.85714285714286</ele><time>2026-04-18T07:49:57.012Z</time></trkpt><trkpt lat="43.6205867" lon="11.496115"><ele>125.57142857142858</ele><time>2026-04-18T07:49:58.01Z</time></trkpt><trkpt lat="43.6205133" lon="11.49612"><ele>125.28571428571428</ele><time>2026-04-18T07:49:59.01Z</time></trkpt><trkpt lat="43.62044" lon="11.4961283"><ele>125.0</ele><time>2026-04-18T07:50:00.011Z</time></trkpt><trkpt lat="43.6203617" lon="11.496135"><ele>125.0</ele><time>2026-04-18T07:50:01.011Z</time></trkpt><trkpt lat="43.6202867" lon="11.4961417"><ele>125.0</ele><time>2026-04-18T07:50:02.012Z</time></trkpt><trkpt lat="43.6202117" lon="11.4961483"><ele>125.0</ele><time>2026-04-18T07:50:03.01Z</time></trkpt><trkpt lat="43.6201383" lon="11.496155"><ele>125.0</ele><time>2026-04-18T07:50:04.01Z</time></trkpt><trkpt lat="43.6200667" lon="11.4961633"><ele>125.0</ele><time>2026-04-18T07:50:05.012Z</time></trkpt><trkpt lat="43.619995" lon="11.49617"><ele>125.0</ele><time>2026-04-18T07:50:06.01Z</time></trkpt><trkpt lat="43.6199267" lon="11.4961767"><ele>125.0</ele><time>2026-04-18T07:50:07.011Z</time></trkpt><trkpt lat="43.6198533" lon="11.4961833"><ele>124.99999999999999</ele><time>2026-04-18T07:50:08.012Z</time></trkpt><trkpt lat="43.6197717" lon="11.4961967"><ele>125.0</ele><time>2026-04-18T07:50:09.011Z</time></trkpt><trkpt lat="43.619695" lon="11.4962067"><ele>125.0</ele><time>2026-04-18T07:50:10.01Z</time></trkpt><trkpt lat="43.6196183" lon="11.4962167"><ele>125.0</ele><time>2026-04-18T07:50:11.009Z</time></trkpt><trkpt lat="43.6195383" lon="11.496225"><ele>124.99999999999999</ele><time>2026-04-18T07:50:12.011Z</time></trkpt><trkpt lat="43.6194633" lon="11.4962333"><ele>125.0</ele><time>2026-04-18T07:50:13.01Z</time></trkpt><trkpt lat="43.6193833" lon="11.4962433"><ele>125.83333333333333</ele><time>2026-04-18T07:50:14.011Z</time></trkpt><trkpt lat="43.619305" lon="11.496255"><ele>126.66666666666666</ele><time>2026-04-18T07:50:15.01Z</time></trkpt><trkpt lat="43.619225" lon="11.496265"><ele>127.5</ele><time>2026-04-18T07:50:16.009Z</time></trkpt><trkpt lat="43.6191467" lon="11.4962733"><ele>128.33333333333334</ele><time>2026-04-18T07:50:17.009Z</time></trkpt><trkpt lat="43.61907" lon="11.4962833"><ele>129.16666666666669</ele><time>2026-04-18T07:50:18.011Z</time></trkpt><trkpt lat="43.61899" lon="11.4962967"><ele>130.0</ele><time>2026-04-18T07:50:19.009Z</time></trkpt><trkpt lat="43.6189083" lon="11.4963067"><ele>130.0</ele><time>2026-04-18T07:50:20.01Z</time></trkpt><trkpt lat="43.61883" lon="11.4963183"><ele>130.0</ele><time>2026-04-18T07:50:21.01Z</time></trkpt><trkpt lat="43.61875" lon="11.49633"><ele>130.0</ele><time>2026-04-18T07:50:22.01Z</time></trkpt><trkpt lat="43.61867" lon="11.4963417"><ele>130.0</ele><time>2026-04-18T07:50:23.011Z</time></trkpt><trkpt lat="43.61859" lon="11.4963567"><ele>130.0</ele><time>2026-04-18T07:50:24.011Z</time></trkpt><trkpt lat="43.618515" lon="11.4963767"><ele>130.0</ele><time>2026-04-18T07:50:25.011Z</time></trkpt><trkpt lat="43.61844" lon="11.4963983"><ele>129.16666666666669</ele><time>2026-04-18T07:50:26.01Z</time></trkpt><trkpt lat="43.618365" lon="11.4964233"><ele>128.33333333333334</ele><time>2026-04-18T07:50:27.011Z</time></trkpt><trkpt lat="43.61829" lon="11.49645"><ele>127.5</ele><time>2026-04-18T07:50:28.009Z</time></trkpt><trkpt lat="43.61822" lon="11.4964767"><ele>126.66666666666666</ele><time>2026-04-18T07:50:29.008Z</time></trkpt><trkpt lat="43.6181433" lon="11.4965067"><ele>125.83333333333333</ele><time>2026-04-18T07:50:30.011Z</time></trkpt><trkpt lat="43.6180683" lon="11.4965417"><ele>125.0</ele><time>2026-04-18T07:50:31.009Z</time></trkpt><trkpt lat="43.6179983" lon="11.496585"><ele>124.99999999999999</ele><time>2026-04-18T07:50:32.01Z</time></trkpt><trkpt lat="43.6179283" lon="11.49663"><ele>125.0</ele><time>2026-04-18T07:50:33.009Z</time></trkpt><trkpt lat="43.617855" lon="11.4966783"><ele>125.0</ele><time>2026-04-18T07:50:34.009Z</time></trkpt><trkpt lat="43.617785" lon="11.49673"><ele>125.0</ele><time>2026-04-18T07:50:35.01Z</time></trkpt><trkpt lat="43.6177167" lon="11.496785"><ele>124.99999999999999</ele><time>2026-04-18T07:50:36.008Z</time></trkpt><trkpt lat="43.6176483" lon="11.4968417"><ele>125.0</ele><time>2026-04-18T07:50:37.009Z</time></trkpt><trkpt lat="43.617585" lon="11.4968967"><ele>125.16666666666666</ele><time>2026-04-18T07:50:38.008Z</time></trkpt><trkpt lat="43.6175183" lon="11.4969583"><ele>125.33333333333333</ele><time>2026-04-18T07:50:39.008Z</time></trkpt><trkpt lat="43.6174533" lon="11.497025"><ele>125.5</ele><time>2026-04-18T07:50:40.009Z</time></trkpt><trkpt lat="43.6173883" lon="11.497095"><ele>125.66666666666666</ele><time>2026-04-18T07:50:41.012Z</time></trkpt><trkpt lat="43.6173267" lon="11.4971667"><ele>125.83333333333333</ele><time>2026-04-18T07:50:42.01Z</time></trkpt><trkpt lat="43.6172667" lon="11.4972383"><ele>126.0</ele><time>2026-04-18T07:50:43.009Z</time></trkpt><trkpt lat="43.6172033" lon="11.4973117"><ele>126.0</ele><time>2026-04-18T07:50:44.011Z</time></trkpt><trkpt lat="43.61714" lon="11.497385"><ele>126.0</ele><time>2026-04-18T07:50:45.01Z</time></trkpt><trkpt lat="43.6170767" lon="11.4974583"><ele>126.0</ele><time>2026-04-18T07:50:46.009Z</time></trkpt><trkpt lat="43.6170133" lon="11.4975333"><ele>126.0</ele><time>2026-04-18T07:50:47.01Z</time></trkpt><trkpt lat="43.6169517" lon="11.497605"><ele>126.0</ele><time>2026-04-18T07:50:48.01Z</time></trkpt><trkpt lat="43.6168917" lon="11.4976767"><ele>126.0</ele><time>2026-04-18T07:50:49.011Z</time></trkpt><trkpt lat="43.6168317" lon="11.4977483"><ele>125.83333333333333</ele><time>2026-04-18T07:50:50.013Z</time></trkpt><trkpt lat="43.6167717" lon="11.49782"><ele>125.66666666666666</ele><time>2026-04-18T07:50:51.011Z</time></trkpt><trkpt lat="43.61671" lon="11.4978917"><ele>125.5</ele><time>2026-04-18T07:50:52.01Z</time></trkpt><trkpt lat="43.6166467" lon="11.4979667"><ele>125.33333333333333</ele><time>2026-04-18T07:50:53.009Z</time></trkpt><trkpt lat="43.6165867" lon="11.4980383"><ele>125.16666666666666</ele><time>2026-04-18T07:50:54.009Z</time></trkpt><trkpt lat="43.616525" lon="11.4981083"><ele>125.0</ele><time>2026-04-18T07:50:55.011Z</time></trkpt><trkpt lat="43.616465" lon="11.4981783"><ele>124.99999999999999</ele><time>2026-04-18T07:50:56.01Z</time></trkpt><trkpt lat="43.6164033" lon="11.4982483"><ele>125.0</ele><time>2026-04-18T07:50:57.013Z</time></trkpt><trkpt lat="43.6163417" lon="11.498315"><ele>125.0</ele><time>2026-04-18T07:50:58.01Z</time></trkpt><trkpt lat="43.6162817" lon="11.4983833"><ele>125.0</ele><time>2026-04-18T07:50:59.011Z</time></trkpt><trkpt lat="43.6162233" lon="11.4984517"><ele>124.99999999999999</ele><time>2026-04-18T07:51:00.012Z</time></trkpt><trkpt lat="43.6161667" lon="11.4985233"><ele>125.0</ele><time>2026-04-18T07:51:01.013Z</time></trkpt><trkpt lat="43.6161083" lon="11.49859"><ele>124.99999999999999</ele><time>2026-04-18T07:51:02.011Z</time></trkpt><trkpt lat="43.61605" lon="11.49866"><ele>125.0</ele><time>2026-04-18T07:51:03.01Z</time></trkpt><trkpt lat="43.6159917" lon="11.4987283"><ele>125.0</ele><time>2026-04-18T07:51:04.009Z</time></trkpt><trkpt lat="43.6159317" lon="11.4987983"><ele>125.0</ele><time>2026-04-18T07:51:05.013Z</time></trkpt><trkpt lat="43.615875" lon="11.4988633"><ele>124.99999999999999</ele><time>2026-04-18T07:51:06.01Z</time></trkpt><trkpt lat="43.6158167" lon="11.498935"><ele>125.0</ele><time>2026-04-18T07:51:07.01Z</time></trkpt><trkpt lat="43.6157583" lon="11.499005"><ele>124.99999999999999</ele><time>2026-04-18T07:51:08.011Z</time></trkpt><trkpt lat="43.6157" lon="11.4990733"><ele>125.0</ele><time>2026-04-18T07:51:09.01Z</time></trkpt><trkpt lat="43.6156433" lon="11.4991433"><ele>125.0</ele><time>2026-04-18T07:51:10.01Z</time></trkpt><trkpt lat="43.6155867" lon="11.49921"><ele>125.0</ele><time>2026-04-18T07:51:11.01Z</time></trkpt><trkpt lat="43.61553" lon="11.4992783"><ele>124.99999999999999</ele><time>2026-04-18T07:51:12.01Z</time></trkpt><trkpt lat="43.6154733" lon="11.499345"><ele>125.0</ele><time>2026-04-18T07:51:13.009Z</time></trkpt><trkpt lat="43.6154133" lon="11.4994067"><ele>124.99999999999999</ele><time>2026-04-18T07:51:14.013Z</time></trkpt><trkpt lat="43.6153483" lon="11.49946"><ele>125.0</ele><time>2026-04-18T07:51:15.01Z</time></trkpt><trkpt lat="43.615275" lon="11.4995067"><ele>125.0</ele><time>2026-04-18T07:51:16.01Z</time></trkpt><trkpt lat="43.615195" lon="11.4995483"><ele>125.0</ele><time>2026-04-18T07:51:17.009Z</time></trkpt><trkpt lat="43.61512" lon="11.499585"><ele>124.99999999999999</ele><time>2026-04-18T07:51:18.011Z</time></trkpt><trkpt lat="43.61504" lon="11.4996283"><ele>125.0</ele><time>2026-04-18T07:51:19.011Z</time></trkpt><trkpt lat="43.6149633" lon="11.4996683"><ele>124.99999999999999</ele><time>2026-04-18T07:51:20.01Z</time></trkpt><trkpt lat="43.6148883" lon="11.4997117"><ele>125.0</ele><time>2026-04-18T07:51:21.009Z</time></trkpt><trkpt lat="43.6148183" lon="11.49976"><ele>125.0</ele><time>2026-04-18T07:51:22.01Z</time></trkpt><trkpt lat="43.61474" lon="11.499805"><ele>125.0</ele><time>2026-04-18T07:51:23.009Z</time></trkpt><trkpt lat="43.6146633" lon="11.499845"><ele>124.99999999999999</ele><time>2026-04-18T07:51:24.01Z</time></trkpt><trkpt lat="43.6145867" lon="11.499885"><ele>125.0</ele><time>2026-04-18T07:51:25.011Z</time></trkpt><trkpt lat="43.6145133" lon="11.499925"><ele>124.85714285714286</ele><time>2026-04-18T07:51:26.011Z</time></trkpt><trkpt lat="43.61444" lon="11.49996"><ele>124.71428571428572</ele><time>2026-04-18T07:51:27.01Z</time></trkpt><trkpt lat="43.614365" lon="11.4999983"><ele>124.57142857142858</ele><time>2026-04-18T07:51:28.01Z</time></trkpt><trkpt lat="43.6142967" lon="11.500035"><ele>124.42857142857143</ele><time>2026-04-18T07:51:29.011Z</time></trkpt><trkpt lat="43.61423" lon="11.50007"><ele>124.2857142857143</ele><time>2026-04-18T07:51:30.012Z</time></trkpt><trkpt lat="43.6141633" lon="11.5001"><ele>124.14285714285715</ele><time>2026-04-18T07:51:31.009Z</time></trkpt><trkpt lat="43.6140983" lon="11.5001283"><ele>124.0</ele><time>2026-04-18T07:51:32.01Z</time></trkpt><trkpt lat="43.614035" lon="11.50016"><ele>124.0</ele><time>2026-04-18T07:51:33.009Z</time></trkpt><trkpt lat="43.6139233" lon="11.5002233"><ele>124.0</ele><time>2026-04-18T07:51:35.01Z</time></trkpt><trkpt lat="43.61381" lon="11.50028"><ele>124.0</ele><time>2026-04-18T07:51:37.01Z</time></trkpt><trkpt lat="43.6137" lon="11.500335"><ele>124.0</ele><time>2026-04-18T07:51:39.009Z</time></trkpt><trkpt lat="43.6135767" lon="11.5003883"><ele>124.33333333333334</ele><time>2026-04-18T07:51:41.009Z</time></trkpt><trkpt lat="43.6135033" lon="11.50042"><ele>124.66666666666667</ele><time>2026-04-18T07:51:42.009Z</time></trkpt><trkpt lat="43.6134333" lon="11.500445"><ele>125.0</ele><time>2026-04-18T07:51:43.008Z</time></trkpt><trkpt lat="43.6133567" lon="11.50047"><ele>125.33333333333334</ele><time>2026-04-18T07:51:44.009Z</time></trkpt><trkpt lat="43.61328" lon="11.500495"><ele>125.66666666666667</ele><time>2026-04-18T07:51:45.009Z</time></trkpt><trkpt lat="43.6132" lon="11.50052"><ele>126.0</ele><time>2026-04-18T07:51:46.01Z</time></trkpt><trkpt lat="43.6131217" lon="11.50054"><ele>126.0</ele><time>2026-04-18T07:51:47.011Z</time></trkpt><trkpt lat="43.6130383" lon="11.5005617"><ele>126.0</ele><time>2026-04-18T07:51:48.01Z</time></trkpt><trkpt lat="43.6129583" lon="11.5005833"><ele>126.0</ele><time>2026-04-18T07:51:49.01Z</time></trkpt><trkpt lat="43.612885" lon="11.5006067"><ele>126.0</ele><time>2026-04-18T07:51:50.01Z</time></trkpt><trkpt lat="43.6128083" lon="11.5006317"><ele>126.0</ele><time>2026-04-18T07:51:51.01Z</time></trkpt><trkpt lat="43.61273" lon="11.5006583"><ele>126.0</ele><time>2026-04-18T07:51:52.01Z</time></trkpt><trkpt lat="43.61265" lon="11.5006833"><ele>126.0</ele><time>2026-04-18T07:51:53.01Z</time></trkpt><trkpt lat="43.61257" lon="11.5007067"><ele>126.0</ele><time>2026-04-18T07:51:54.01Z</time></trkpt><trkpt lat="43.61249" lon="11.5007267"><ele>126.0</ele><time>2026-04-18T07:51:55.01Z</time></trkpt><trkpt lat="43.6124067" lon="11.5007467"><ele>126.0</ele><time>2026-04-18T07:51:56.01Z</time></trkpt><trkpt lat="43.6123317" lon="11.5007683"><ele>126.0</ele><time>2026-04-18T07:51:57.009Z</time></trkpt><trkpt lat="43.612255" lon="11.5007933"><ele>126.0</ele><time>2026-04-18T07:51:58.01Z</time></trkpt><trkpt lat="43.6121817" lon="11.5008167"><ele>126.0</ele><time>2026-04-18T07:51:59.011Z</time></trkpt><trkpt lat="43.6120983" lon="11.50084"><ele>126.0</ele><time>2026-04-18T07:52:00.01Z</time></trkpt><trkpt lat="43.6120233" lon="11.50086"><ele>126.0</ele><time>2026-04-18T07:52:01.01Z</time></trkpt><trkpt lat="43.61195" lon="11.5008833"><ele>126.0</ele><time>2026-04-18T07:52:02.011Z</time></trkpt><trkpt lat="43.6118783" lon="11.5009067"><ele>126.0</ele><time>2026-04-18T07:52:03.009Z</time></trkpt><trkpt lat="43.6118083" lon="11.5009317"><ele>126.0</ele><time>2026-04-18T07:52:04.013Z</time></trkpt><trkpt lat="43.6117417" lon="11.5009583"><ele>125.66666666666667</ele><time>2026-04-18T07:52:05.01Z</time></trkpt><trkpt lat="43.6116117" lon="11.5010083"><ele>125.33333333333334</ele><time>2026-04-18T07:52:07.009Z</time></trkpt><trkpt lat="43.6115417" lon="11.5010367"><ele>125.0</ele><time>2026-04-18T07:52:08.01Z</time></trkpt><trkpt lat="43.6114667" lon="11.5010633"><ele>124.66666666666667</ele><time>2026-04-18T07:52:09.011Z</time></trkpt><trkpt lat="43.6113933" lon="11.5010833"><ele>124.33333333333334</ele><time>2026-04-18T07:52:10.01Z</time></trkpt><trkpt lat="43.61131" lon="11.50111"><ele>124.0</ele><time>2026-04-18T07:52:11.014Z</time></trkpt><trkpt lat="43.6112333" lon="11.5011417"><ele>124.16666666666667</ele><time>2026-04-18T07:52:12.011Z</time></trkpt><trkpt lat="43.611145" lon="11.5011817"><ele>124.33333333333334</ele><time>2026-04-18T07:52:13.009Z</time></trkpt><trkpt lat="43.611055" lon="11.5012233"><ele>124.5</ele><time>2026-04-18T07:52:14.01Z</time></trkpt><trkpt lat="43.6109683" lon="11.5012633"><ele>124.66666666666666</ele><time>2026-04-18T07:52:15.009Z</time></trkpt><trkpt lat="43.610885" lon="11.5013033"><ele>124.83333333333333</ele><time>2026-04-18T07:52:16.01Z</time></trkpt><trkpt lat="43.6108083" lon="11.50134"><ele>125.0</ele><time>2026-04-18T07:52:17.01Z</time></trkpt><trkpt lat="43.6107283" lon="11.5013783"><ele>125.16666666666666</ele><time>2026-04-18T07:52:18.01Z</time></trkpt><trkpt lat="43.6106533" lon="11.5014183"><ele>125.33333333333333</ele><time>2026-04-18T07:52:19.011Z</time></trkpt><trkpt lat="43.6105733" lon="11.5014567"><ele>125.5</ele><time>2026-04-18T07:52:20.01Z</time></trkpt><trkpt lat="43.610495" lon="11.5014933"><ele>125.66666666666666</ele><time>2026-04-18T07:52:21.011Z</time></trkpt><trkpt lat="43.61042" lon="11.5015267"><ele>125.83333333333333</ele><time>2026-04-18T07:52:22.01Z</time></trkpt><trkpt lat="43.610345" lon="11.5015633"><ele>126.0</ele><time>2026-04-18T07:52:23.009Z</time></trkpt><trkpt lat="43.61027" lon="11.5016"><ele>126.0</ele><time>2026-04-18T07:52:24.01Z</time></trkpt><trkpt lat="43.610195" lon="11.501635"><ele>126.0</ele><time>2026-04-18T07:52:25.01Z</time></trkpt><trkpt lat="43.6101183" lon="11.50167"><ele>126.0</ele><time>2026-04-18T07:52:26.01Z</time></trkpt><trkpt lat="43.6100383" lon="11.5017067"><ele>126.0</ele><time>2026-04-18T07:52:27.011Z</time></trkpt><trkpt lat="43.6099667" lon="11.5017433"><ele>126.0</ele><time>2026-04-18T07:52:28.012Z</time></trkpt><trkpt lat="43.6098917" lon="11.5017817"><ele>126.0</ele><time>2026-04-18T07:52:29.01Z</time></trkpt><trkpt lat="43.6098133" lon="11.5018167"><ele>126.0</ele><time>2026-04-18T07:52:30.012Z</time></trkpt><trkpt lat="43.6097267" lon="11.50185"><ele>126.0</ele><time>2026-04-18T07:52:31.01Z</time></trkpt><trkpt lat="43.609655" lon="11.5018867"><ele>126.0</ele><time>2026-04-18T07:52:32.01Z</time></trkpt><trkpt lat="43.6095883" lon="11.501925"><ele>126.0</ele><time>2026-04-18T07:52:33.01Z</time></trkpt><trkpt lat="43.6095267" lon="11.5019617"><ele>126.0</ele><time>2026-04-18T07:52:34.011Z</time></trkpt><trkpt lat="43.6094617" lon="11.5019967"><ele>126.0</ele><time>2026-04-18T07:52:35.007Z</time></trkpt><trkpt lat="43.6093967" lon="11.5020383"><ele>126.0</ele><time>2026-04-18T07:52:36.01Z</time></trkpt><trkpt lat="43.6093333" lon="11.50208"><ele>126.14285714285714</ele><time>2026-04-18T07:52:37.011Z</time></trkpt><trkpt lat="43.6092667" lon="11.502125"><ele>126.28571428571428</ele><time>2026-04-18T07:52:38.011Z</time></trkpt><trkpt lat="43.609205" lon="11.5021767"><ele>126.42857142857143</ele><time>2026-04-18T07:52:39.011Z</time></trkpt><trkpt lat="43.6091433" lon="11.5022333"><ele>126.57142857142857</ele><time>2026-04-18T07:52:40.009Z</time></trkpt><trkpt lat="43.60908" lon="11.5022933"><ele>126.71428571428571</ele><time>2026-04-18T07:52:41.011Z</time></trkpt><trkpt lat="43.6090183" lon="11.5023617"><ele>126.85714285714286</ele><time>2026-04-18T07:52:42.012Z</time></trkpt><trkpt lat="43.6089633" lon="11.5024283"><ele>127.0</ele><time>2026-04-18T07:52:43.01Z</time></trkpt><trkpt lat="43.60891" lon="11.5024967"><ele>127.00000000000001</ele><time>2026-04-18T07:52:44.011Z</time></trkpt><trkpt lat="43.6088517" lon="11.5025667"><ele>127.0</ele><time>2026-04-18T07:52:45.011Z</time></trkpt><trkpt lat="43.6087883" lon="11.5026383"><ele>127.0</ele><time>2026-04-18T07:52:46.01Z</time></trkpt><trkpt lat="43.6087283" lon="11.5027033"><ele>127.0</ele><time>2026-04-18T07:52:47.01Z</time></trkpt><trkpt lat="43.6086667" lon="11.5027667"><ele>127.00000000000001</ele><time>2026-04-18T07:52:48.01Z</time></trkpt><trkpt lat="43.6086033" lon="11.5028267"><ele>127.0</ele><time>2026-04-18T07:52:49.011Z</time></trkpt><trkpt lat="43.6085417" lon="11.5028883"><ele>127.00000000000001</ele><time>2026-04-18T07:52:50.011Z</time></trkpt><trkpt lat="43.6084767" lon="11.5029467"><ele>127.0</ele><time>2026-04-18T07:52:51.01Z</time></trkpt><trkpt lat="43.60841" lon="11.5030033"><ele>127.0</ele><time>2026-04-18T07:52:52.009Z</time></trkpt><trkpt lat="43.6083467" lon="11.5030567"><ele>127.0</ele><time>2026-04-18T07:52:53.011Z</time></trkpt><trkpt lat="43.6082817" lon="11.5031067"><ele>127.00000000000001</ele><time>2026-04-18T07:52:54.012Z</time></trkpt><trkpt lat="43.6082167" lon="11.5031583"><ele>127.0</ele><time>2026-04-18T07:52:55.01Z</time></trkpt><trkpt lat="43.6081533" lon="11.5032117"><ele>127.00000000000001</ele><time>2026-04-18T07:52:56.01Z</time></trkpt><trkpt lat="43.6080883" lon="11.50326"><ele>127.0</ele><time>2026-04-18T07:52:57.009Z</time></trkpt><trkpt lat="43.6080267" lon="11.5033083"><ele>127.0</ele><time>2026-04-18T07:52:58.01Z</time></trkpt><trkpt lat="43.6079683" lon="11.5033467"><ele>127.0</ele><time>2026-04-18T07:52:59.012Z</time></trkpt><trkpt lat="43.6079067" lon="11.5033767"><ele>127.00000000000001</ele><time>2026-04-18T07:53:00.009Z</time></trkpt><trkpt lat="43.6077933" lon="11.5034233"><ele>127.0</ele><time>2026-04-18T07:53:02.012Z</time></trkpt><trkpt lat="43.607675" lon="11.5034483"><ele>127.50000000000001</ele><time>2026-04-18T07:53:04.009Z</time></trkpt><trkpt lat="43.607555" lon="11.50346"><ele>128.0</ele><time>2026-04-18T07:53:06.009Z</time></trkpt><trkpt lat="43.60749" lon="11.5034617"><ele>128.5</ele><time>2026-04-18T07:53:07.012Z</time></trkpt><trkpt lat="43.6074233" lon="11.5034617"><ele>129.0</ele><time>2026-04-18T07:53:08.011Z</time></trkpt><trkpt lat="43.6073567" lon="11.5034633"><ele>129.5</ele><time>2026-04-18T07:53:09.009Z</time></trkpt><trkpt lat="43.60729" lon="11.5034683"><ele>130.0</ele><time>2026-04-18T07:53:10.011Z</time></trkpt><trkpt lat="43.60722" lon="11.5034733"><ele>130.00000000000003</ele><time>2026-04-18T07:53:11.013Z</time></trkpt><trkpt lat="43.60715" lon="11.5034817"><ele>130.0</ele><time>2026-04-18T07:53:12.012Z</time></trkpt><trkpt lat="43.60708" lon="11.5034883"><ele>130.0</ele><time>2026-04-18T07:53:13.012Z</time></trkpt><trkpt lat="43.6070083" lon="11.5035"><ele>130.0</ele><time>2026-04-18T07:53:14.01Z</time></trkpt><trkpt lat="43.606935" lon="11.5035133"><ele>130.0</ele><time>2026-04-18T07:53:15.011Z</time></trkpt><trkpt lat="43.6068567" lon="11.50353"><ele>130.00000000000003</ele><time>2026-04-18T07:53:16.011Z</time></trkpt><trkpt lat="43.6067783" lon="11.5035467"><ele>130.0</ele><time>2026-04-18T07:53:17.012Z</time></trkpt><trkpt lat="43.606705" lon="11.503575"><ele>129.83333333333334</ele><time>2026-04-18T07:53:18.011Z</time></trkpt><trkpt lat="43.6066333" lon="11.5036117"><ele>129.66666666666669</ele><time>2026-04-18T07:53:19.01Z</time></trkpt><trkpt lat="43.6065683" lon="11.5036567"><ele>129.5</ele><time>2026-04-18T07:53:20.01Z</time></trkpt><trkpt lat="43.6065" lon="11.5037033"><ele>129.33333333333334</ele><time>2026-04-18T07:53:21.012Z</time></trkpt><trkpt lat="43.6064283" lon="11.50375"><ele>129.16666666666666</ele><time>2026-04-18T07:53:22.01Z</time></trkpt><trkpt lat="43.6063583" lon="11.5038033"><ele>129.0</ele><time>2026-04-18T07:53:23.011Z</time></trkpt><trkpt lat="43.6062883" lon="11.50386"><ele>129.33333333333334</ele><time>2026-04-18T07:53:24.011Z</time></trkpt><trkpt lat="43.6062217" lon="11.5039167"><ele>129.66666666666666</ele><time>2026-04-18T07:53:25.009Z</time></trkpt><trkpt lat="43.6061533" lon="11.503975"><ele>130.0</ele><time>2026-04-18T07:53:26.011Z</time></trkpt><trkpt lat="43.6060867" lon="11.5040333"><ele>130.33333333333331</ele><time>2026-04-18T07:53:27.01Z</time></trkpt><trkpt lat="43.6060217" lon="11.5040933"><ele>130.66666666666666</ele><time>2026-04-18T07:53:28.011Z</time></trkpt><trkpt lat="43.6059567" lon="11.5041517"><ele>131.0</ele><time>2026-04-18T07:53:29.01Z</time></trkpt><trkpt lat="43.6058983" lon="11.50421"><ele>131.0</ele><time>2026-04-18T07:53:30.011Z</time></trkpt><trkpt lat="43.60584" lon="11.504275"><ele>131.0</ele><time>2026-04-18T07:53:31.01Z</time></trkpt><trkpt lat="43.6057833" lon="11.5043383"><ele>131.0</ele><time>2026-04-18T07:53:32.01Z</time></trkpt><trkpt lat="43.6057283" lon="11.5044083"><ele>131.0</ele><time>2026-04-18T07:53:33.009Z</time></trkpt><trkpt lat="43.6056717" lon="11.5044733"><ele>131.0</ele><time>2026-04-18T07:53:34.01Z</time></trkpt><trkpt lat="43.6056183" lon="11.5045433"><ele>131.0</ele><time>2026-04-18T07:53:35.011Z</time></trkpt><trkpt lat="43.605565" lon="11.5046133"><ele>131.0</ele><time>2026-04-18T07:53:36.01Z</time></trkpt><trkpt lat="43.6055133" lon="11.5046767"><ele>130.57142857142858</ele><time>2026-04-18T07:53:37.009Z</time></trkpt><trkpt lat="43.6054617" lon="11.504745"><ele>130.14285714285717</ele><time>2026-04-18T07:53:38.009Z</time></trkpt><trkpt lat="43.60541" lon="11.5048117"><ele>129.71428571428572</ele><time>2026-04-18T07:53:39.012Z</time></trkpt><trkpt lat="43.6053583" lon="11.504885"><ele>129.28571428571428</ele><time>2026-04-18T07:53:40.01Z</time></trkpt><trkpt lat="43.6053083" lon="11.5049517"><ele>128.85714285714283</ele><time>2026-04-18T07:53:41.01Z</time></trkpt><trkpt lat="43.6052567" lon="11.5050133"><ele>128.42857142857142</ele><time>2026-04-18T07:53:42.011Z</time></trkpt><trkpt lat="43.605205" lon="11.5050783"><ele>128.0</ele><time>2026-04-18T07:53:43.01Z</time></trkpt><trkpt lat="43.6051533" lon="11.505145"><ele>128.0</ele><time>2026-04-18T07:53:44.01Z</time></trkpt><trkpt lat="43.6051033" lon="11.5052167"><ele>127.99999999999999</ele><time>2026-04-18T07:53:45.011Z</time></trkpt><trkpt lat="43.605055" lon="11.5052883"><ele>128.0</ele><time>2026-04-18T07:53:46.011Z</time></trkpt><trkpt lat="43.6050067" lon="11.5053617"><ele>128.0</ele><time>2026-04-18T07:53:47.011Z</time></trkpt><trkpt lat="43.604955" lon="11.5054367"><ele>127.99999999999999</ele><time>2026-04-18T07:53:48.011Z</time></trkpt><trkpt lat="43.6049033" lon="11.505515"><ele>128.0</ele><time>2026-04-18T07:53:49.013Z</time></trkpt><trkpt lat="43.604855" lon="11.5055883"><ele>128.0</ele><time>2026-04-18T07:53:50.01Z</time></trkpt><trkpt lat="43.604805" lon="11.5056617"><ele>127.66666666666666</ele><time>2026-04-18T07:53:51.011Z</time></trkpt><trkpt lat="43.604755" lon="11.505735"><ele>127.33333333333333</ele><time>2026-04-18T07:53:52.01Z</time></trkpt><trkpt lat="43.6047" lon="11.5058167"><ele>127.0</ele><time>2026-04-18T07:53:53.009Z</time></trkpt><trkpt lat="43.6046433" lon="11.5058983"><ele>126.66666666666666</ele><time>2026-04-18T07:53:54.01Z</time></trkpt><trkpt lat="43.60459" lon="11.5059717"><ele>126.33333333333333</ele><time>2026-04-18T07:53:55.01Z</time></trkpt><trkpt lat="43.6045367" lon="11.5060517"><ele>126.0</ele><time>2026-04-18T07:53:56.011Z</time></trkpt><trkpt lat="43.6044867" lon="11.5061333"><ele>126.0</ele><time>2026-04-18T07:53:57.01Z</time></trkpt><trkpt lat="43.6044383" lon="11.50621"><ele>126.0</ele><time>2026-04-18T07:53:58.01Z</time></trkpt><trkpt lat="43.604395" lon="11.5062983"><ele>126.0</ele><time>2026-04-18T07:53:59.011Z</time></trkpt><trkpt lat="43.6043567" lon="11.50638"><ele>126.0</ele><time>2026-04-18T07:54:00.01Z</time></trkpt><trkpt lat="43.6043283" lon="11.5064683"><ele>126.0</ele><time>2026-04-18T07:54:01.011Z</time></trkpt><trkpt lat="43.6043033" lon="11.5065667"><ele>126.0</ele><time>2026-04-18T07:54:02.012Z</time></trkpt><trkpt lat="43.6042783" lon="11.506665"><ele>126.0</ele><time>2026-04-18T07:54:03.01Z</time></trkpt><trkpt lat="43.6042583" lon="11.5067633"><ele>126.33333333333333</ele><time>2026-04-18T07:54:04.01Z</time></trkpt><trkpt lat="43.6042367" lon="11.506865"><ele>126.66666666666666</ele><time>2026-04-18T07:54:05.01Z</time></trkpt><trkpt lat="43.60422" lon="11.5069667"><ele>127.0</ele><time>2026-04-18T07:54:06.013Z</time></trkpt><trkpt lat="43.6042017" lon="11.5070667"><ele>127.33333333333333</ele><time>2026-04-18T07:54:07.01Z</time></trkpt><trkpt lat="43.604185" lon="11.5071683"><ele>127.66666666666666</ele><time>2026-04-18T07:54:08.01Z</time></trkpt><trkpt lat="43.6041683" lon="11.50727"><ele>128.0</ele><time>2026-04-18T07:54:09.012Z</time></trkpt><trkpt lat="43.6041517" lon="11.5073733"><ele>128.42857142857142</ele><time>2026-04-18T07:54:10.01Z</time></trkpt><trkpt lat="43.6041317" lon="11.5074733"><ele>128.85714285714283</ele><time>2026-04-18T07:54:11.012Z</time></trkpt><trkpt lat="43.6041117" lon="11.5075683"><ele>129.28571428571428</ele><time>2026-04-18T07:54:12.011Z</time></trkpt><trkpt lat="43.60409" lon="11.5076633"><ele>129.71428571428572</ele><time>2026-04-18T07:54:13.014Z</time></trkpt><trkpt lat="43.6040667" lon="11.50776"><ele>130.14285714285717</ele><time>2026-04-18T07:54:14.012Z</time></trkpt><trkpt lat="43.6040433" lon="11.5078567"><ele>130.57142857142858</ele><time>2026-04-18T07:54:15.01Z</time></trkpt><trkpt lat="43.60402" lon="11.5079567"><ele>131.0</ele><time>2026-04-18T07:54:16.009Z</time></trkpt><trkpt lat="43.603995" lon="11.508065"><ele>131.16666666666666</ele><time>2026-04-18T07:54:17.012Z</time></trkpt><trkpt lat="43.6039667" lon="11.5081567"><ele>131.33333333333331</ele><time>2026-04-18T07:54:18.011Z</time></trkpt><trkpt lat="43.603935" lon="11.50825"><ele>131.5</ele><time>2026-04-18T07:54:19.01Z</time></trkpt><trkpt lat="43.6039" lon="11.5083483"><ele>131.66666666666666</ele><time>2026-04-18T07:54:20.011Z</time></trkpt><trkpt lat="43.6038633" lon="11.5084467"><ele>131.83333333333334</ele><time>2026-04-18T07:54:21.011Z</time></trkpt><trkpt lat="43.6038233" lon="11.5085417"><ele>132.0</ele><time>2026-04-18T07:54:22.011Z</time></trkpt><trkpt lat="43.60378" lon="11.5086283"><ele>132.0</ele><time>2026-04-18T07:54:23.01Z</time></trkpt><trkpt lat="43.60373" lon="11.508715"><ele>132.0</ele><time>2026-04-18T07:54:24.011Z</time></trkpt><trkpt lat="43.6036783" lon="11.508795"><ele>132.0</ele><time>2026-04-18T07:54:25.013Z</time></trkpt><trkpt lat="43.6036217" lon="11.50887"><ele>132.0</ele><time>2026-04-18T07:54:26.012Z</time></trkpt><trkpt lat="43.6035633" lon="11.5089417"><ele>132.0</ele><time>2026-04-18T07:54:27.011Z</time></trkpt><trkpt lat="43.6035033" lon="11.509005"><ele>132.0</ele><time>2026-04-18T07:54:28.01Z</time></trkpt><trkpt lat="43.6034433" lon="11.5090733"><ele>131.66666666666666</ele><time>2026-04-18T07:54:29.011Z</time></trkpt><trkpt lat="43.603385" lon="11.5091433"><ele>131.33333333333334</ele><time>2026-04-18T07:54:30.013Z</time></trkpt><trkpt lat="43.60333" lon="11.5092167"><ele>131.0</ele><time>2026-04-18T07:54:31.011Z</time></trkpt><trkpt lat="43.6032767" lon="11.5092917"><ele>130.66666666666669</ele><time>2026-04-18T07:54:32.011Z</time></trkpt><trkpt lat="43.60323" lon="11.5093717"><ele>130.33333333333334</ele><time>2026-04-18T07:54:33.011Z</time></trkpt><trkpt lat="43.603185" lon="11.5094583"><ele>130.0</ele><time>2026-04-18T07:54:34.011Z</time></trkpt><trkpt lat="43.60314" lon="11.5095417"><ele>130.85714285714286</ele><time>2026-04-18T07:54:35.012Z</time></trkpt><trkpt lat="43.6031" lon="11.5096333"><ele>131.71428571428572</ele><time>2026-04-18T07:54:36.011Z</time></trkpt><trkpt lat="43.60306" lon="11.5097167"><ele>132.57142857142856</ele><time>2026-04-18T07:54:37.012Z</time></trkpt><trkpt lat="43.6030233" lon="11.5098017"><ele>133.42857142857144</ele><time>2026-04-18T07:54:38.012Z</time></trkpt><trkpt lat="43.6029867" lon="11.5098883"><ele>134.28571428571428</ele><time>2026-04-18T07:54:39.01Z</time></trkpt><trkpt lat="43.6029517" lon="11.5099767"><ele>135.14285714285714</ele><time>2026-04-18T07:54:40.009Z</time></trkpt><trkpt lat="43.602915" lon="11.5100617"><ele>136.0</ele><time>2026-04-18T07:54:41.01Z</time></trkpt><trkpt lat="43.6028767" lon="11.5101467"><ele>135.99999999999997</ele><time>2026-04-18T07:54:42.012Z</time></trkpt><trkpt lat="43.6028367" lon="11.5102283"><ele>136.0</ele><time>2026-04-18T07:54:43.011Z</time></trkpt><trkpt lat="43.6027917" lon="11.510305"><ele>136.0</ele><time>2026-04-18T07:54:44.009Z</time></trkpt><trkpt lat="43.60274" lon="11.5103733"><ele>136.0</ele><time>2026-04-18T07:54:45.011Z</time></trkpt><trkpt lat="43.6026817" lon="11.51044"><ele>136.0</ele><time>2026-04-18T07:54:46.01Z</time></trkpt><trkpt lat="43.6026183" lon="11.5105033"><ele>135.99999999999997</ele><time>2026-04-18T07:54:47.011Z</time></trkpt><trkpt lat="43.6025533" lon="11.5105633"><ele>136.0</ele><time>2026-04-18T07:54:48.012Z</time></trkpt><trkpt lat="43.602485" lon="11.5106217"><ele>135.16666666666669</ele><time>2026-04-18T07:54:49.01Z</time></trkpt><trkpt lat="43.602415" lon="11.5106767"><ele>134.33333333333334</ele><time>2026-04-18T07:54:50.013Z</time></trkpt><trkpt lat="43.602345" lon="11.5107317"><ele>133.5</ele><time>2026-04-18T07:54:51.01Z</time></trkpt><trkpt lat="43.60228" lon="11.5107867"><ele>132.66666666666666</ele><time>2026-04-18T07:54:52.011Z</time></trkpt><trkpt lat="43.602215" lon="11.5108433"><ele>131.83333333333331</ele><time>2026-04-18T07:54:53.012Z</time></trkpt><trkpt lat="43.6021483" lon="11.5109"><ele>131.0</ele><time>2026-04-18T07:54:54.012Z</time></trkpt><trkpt lat="43.6020783" lon="11.5109567"><ele>131.0</ele><time>2026-04-18T07:54:55.011Z</time></trkpt><trkpt lat="43.6020083" lon="11.5110133"><ele>131.0</ele><time>2026-04-18T07:54:56.013Z</time></trkpt><trkpt lat="43.6019383" lon="11.5110717"><ele>131.0</ele><time>2026-04-18T07:54:57.011Z</time></trkpt><trkpt lat="43.6018733" lon="11.5111283"><ele>131.0</ele><time>2026-04-18T07:54:58.01Z</time></trkpt><trkpt lat="43.6018067" lon="11.5111817"><ele>131.0</ele><time>2026-04-18T07:54:59.01Z</time></trkpt><trkpt lat="43.60174" lon="11.5112333"><ele>131.0</ele><time>2026-04-18T07:55:00.009Z</time></trkpt><trkpt lat="43.6016767" lon="11.5112833"><ele>131.16666666666666</ele><time>2026-04-18T07:55:01.01Z</time></trkpt><trkpt lat="43.60161" lon="11.5113367"><ele>131.33333333333331</ele><time>2026-04-18T07:55:02.01Z</time></trkpt><trkpt lat="43.6015417" lon="11.5113933"><ele>131.5</ele><time>2026-04-18T07:55:03.011Z</time></trkpt><trkpt lat="43.6014717" lon="11.5114483"><ele>131.66666666666666</ele><time>2026-04-18T07:55:04.01Z</time></trkpt><trkpt lat="43.601405" lon="11.5115017"><ele>131.83333333333334</ele><time>2026-04-18T07:55:05.011Z</time></trkpt><trkpt lat="43.6013367" lon="11.5115517"><ele>132.0</ele><time>2026-04-18T07:55:06.01Z</time></trkpt><trkpt lat="43.60127" lon="11.511605"><ele>132.0</ele><time>2026-04-18T07:55:07.012Z</time></trkpt><trkpt lat="43.6012067" lon="11.511665"><ele>132.0</ele><time>2026-04-18T07:55:08.01Z</time></trkpt><trkpt lat="43.6011467" lon="11.5117317"><ele>132.0</ele><time>2026-04-18T07:55:09.012Z</time></trkpt><trkpt lat="43.6010883" lon="11.5118017"><ele>132.0</ele><time>2026-04-18T07:55:10.012Z</time></trkpt><trkpt lat="43.6010283" lon="11.5118733"><ele>132.0</ele><time>2026-04-18T07:55:11.009Z</time></trkpt><trkpt lat="43.6009717" lon="11.5119483"><ele>132.0</ele><time>2026-04-18T07:55:12.009Z</time></trkpt><trkpt lat="43.600915" lon="11.512025"><ele>132.33333333333334</ele><time>2026-04-18T07:55:13.011Z</time></trkpt><trkpt lat="43.6008583" lon="11.5121083"><ele>132.66666666666666</ele><time>2026-04-18T07:55:14.012Z</time></trkpt><trkpt lat="43.6008" lon="11.5121933"><ele>133.0</ele><time>2026-04-18T07:55:15.009Z</time></trkpt><trkpt lat="43.600745" lon="11.5122783"><ele>133.33333333333331</ele><time>2026-04-18T07:55:16.01Z</time></trkpt><trkpt lat="43.60069" lon="11.51236"><ele>133.66666666666666</ele><time>2026-04-18T07:55:17.01Z</time></trkpt><trkpt lat="43.6006333" lon="11.51244"><ele>134.0</ele><time>2026-04-18T07:55:18.01Z</time></trkpt><trkpt lat="43.600575" lon="11.512515"><ele>134.0</ele><time>2026-04-18T07:55:19.01Z</time></trkpt><trkpt lat="43.6005117" lon="11.5125833"><ele>134.0</ele><time>2026-04-18T07:55:20.01Z</time></trkpt><trkpt lat="43.6004483" lon="11.5126417"><ele>134.0</ele><time>2026-04-18T07:55:21.01Z</time></trkpt><trkpt lat="43.600385" lon="11.5127"><ele>134.0</ele><time>2026-04-18T07:55:22.009Z</time></trkpt><trkpt lat="43.6003217" lon="11.5127583"><ele>134.0</ele><time>2026-04-18T07:55:23.01Z</time></trkpt><trkpt lat="43.6002533" lon="11.512815"><ele>134.0</ele><time>2026-04-18T07:55:24.012Z</time></trkpt><trkpt lat="43.6001867" lon="11.5128733"><ele>134.16666666666666</ele><time>2026-04-18T07:55:25.012Z</time></trkpt><trkpt lat="43.60012" lon="11.512935"><ele>134.33333333333331</ele><time>2026-04-18T07:55:26.013Z</time></trkpt><trkpt lat="43.6000533" lon="11.512995"><ele>134.5</ele><time>2026-04-18T07:55:27.012Z</time></trkpt><trkpt lat="43.5999883" lon="11.5130567"><ele>134.66666666666666</ele><time>2026-04-18T07:55:28.01Z</time></trkpt><trkpt lat="43.5999233" lon="11.5131083"><ele>134.83333333333334</ele><time>2026-04-18T07:55:29.012Z</time></trkpt><trkpt lat="43.5998583" lon="11.51317"><ele>135.0</ele><time>2026-04-18T07:55:30.012Z</time></trkpt><trkpt lat="43.5997967" lon="11.5132283"><ele>135.0</ele><time>2026-04-18T07:55:31.01Z</time></trkpt><trkpt lat="43.5997367" lon="11.5132867"><ele>135.0</ele><time>2026-04-18T07:55:32.01Z</time></trkpt><trkpt lat="43.599675" lon="11.513345"><ele>135.0</ele><time>2026-04-18T07:55:33.011Z</time></trkpt><trkpt lat="43.5996133" lon="11.5134083"><ele>135.0</ele><time>2026-04-18T07:55:34.009Z</time></trkpt><trkpt lat="43.5995517" lon="11.513465"><ele>135.0</ele><time>2026-04-18T07:55:35.012Z</time></trkpt><trkpt lat="43.5994917" lon="11.513525"><ele>135.0</ele><time>2026-04-18T07:55:36.011Z</time></trkpt><trkpt lat="43.5994317" lon="11.5135817"><ele>135.0</ele><time>2026-04-18T07:55:37.01Z</time></trkpt><trkpt lat="43.5993733" lon="11.5136433"><ele>135.28571428571428</ele><time>2026-04-18T07:55:38.01Z</time></trkpt><trkpt lat="43.5993167" lon="11.5137017"><ele>135.57142857142856</ele><time>2026-04-18T07:55:39.011Z</time></trkpt><trkpt lat="43.59926" lon="11.5137567"><ele>135.85714285714286</ele><time>2026-04-18T07:55:40.013Z</time></trkpt><trkpt lat="43.5992017" lon="11.5138133"><ele>136.14285714285714</ele><time>2026-04-18T07:55:41.011Z</time></trkpt><trkpt lat="43.5991433" lon="11.5138683"><ele>136.42857142857144</ele><time>2026-04-18T07:55:42.012Z</time></trkpt><trkpt lat="43.599085" lon="11.5139217"><ele>136.71428571428572</ele><time>2026-04-18T07:55:43.011Z</time></trkpt><trkpt lat="43.5990217" lon="11.5139783"><ele>137.0</ele><time>2026-04-18T07:55:44.011Z</time></trkpt><trkpt lat="43.5989617" lon="11.5140317"><ele>137.0</ele><time>2026-04-18T07:55:45.011Z</time></trkpt><trkpt lat="43.59889" lon="11.5140867"><ele>137.0</ele><time>2026-04-18T07:55:46.013Z</time></trkpt><trkpt lat="43.5988233" lon="11.5141317"><ele>137.0</ele><time>2026-04-18T07:55:47.011Z</time></trkpt><trkpt lat="43.5987567" lon="11.5141717"><ele>137.0</ele><time>2026-04-18T07:55:48.011Z</time></trkpt><trkpt lat="43.5986833" lon="11.5142133"><ele>137.0</ele><time>2026-04-18T07:55:49.013Z</time></trkpt><trkpt lat="43.59861" lon="11.5142583"><ele>137.0</ele><time>2026-04-18T07:55:50.011Z</time></trkpt><trkpt lat="43.5985417" lon="11.5143083"><ele>136.85714285714286</ele><time>2026-04-18T07:55:51.01Z</time></trkpt><trkpt lat="43.5984833" lon="11.5143683"><ele>136.71428571428572</ele><time>2026-04-18T07:55:52.011Z</time></trkpt><trkpt lat="43.5984317" lon="11.5144317"><ele>136.57142857142856</ele><time>2026-04-18T07:55:53.012Z</time></trkpt><trkpt lat="43.5983767" lon="11.5144983"><ele>136.42857142857144</ele><time>2026-04-18T07:55:54.012Z</time></trkpt><trkpt lat="43.5983167" lon="11.5145583"><ele>136.28571428571428</ele><time>2026-04-18T07:55:55.011Z</time></trkpt><trkpt lat="43.5982567" lon="11.5146183"><ele>136.14285714285714</ele><time>2026-04-18T07:55:56.011Z</time></trkpt><trkpt lat="43.5981933" lon="11.5146783"><ele>136.0</ele><time>2026-04-18T07:55:57.012Z</time></trkpt><trkpt lat="43.59813" lon="11.5147367"><ele>136.0</ele><time>2026-04-18T07:55:58.012Z</time></trkpt><trkpt lat="43.5980667" lon="11.5147967"><ele>136.0</ele><time>2026-04-18T07:55:59.011Z</time></trkpt><trkpt lat="43.5980033" lon="11.5148567"><ele>136.0</ele><time>2026-04-18T07:56:00.011Z</time></trkpt><trkpt lat="43.5979383" lon="11.514915"><ele>136.0</ele><time>2026-04-18T07:56:01.011Z</time></trkpt><trkpt lat="43.5978733" lon="11.5149783"><ele>136.0</ele><time>2026-04-18T07:56:02.01Z</time></trkpt><trkpt lat="43.59781" lon="11.51504"><ele>136.0</ele><time>2026-04-18T07:56:03.011Z</time></trkpt><trkpt lat="43.5977483" lon="11.5151083"><ele>135.5</ele><time>2026-04-18T07:56:04.013Z</time></trkpt><trkpt lat="43.5976867" lon="11.5151733"><ele>135.0</ele><time>2026-04-18T07:56:05.01Z</time></trkpt><trkpt lat="43.5976167" lon="11.515235"><ele>134.5</ele><time>2026-04-18T07:56:06.011Z</time></trkpt><trkpt lat="43.5975533" lon="11.5152967"><ele>134.0</ele><time>2026-04-18T07:56:07.01Z</time></trkpt><trkpt lat="43.5974883" lon="11.51536"><ele>133.5</ele><time>2026-04-18T07:56:08.012Z</time></trkpt><trkpt lat="43.5974283" lon="11.5154133"><ele>133.0</ele><time>2026-04-18T07:56:09.011Z</time></trkpt><trkpt lat="43.5973667" lon="11.515465"><ele>134.0</ele><time>2026-04-18T07:56:10.01Z</time></trkpt><trkpt lat="43.5973117" lon="11.515515"><ele>135.0</ele><time>2026-04-18T07:56:11.011Z</time></trkpt><trkpt lat="43.597255" lon="11.5155617"><ele>136.0</ele><time>2026-04-18T07:56:12.01Z</time></trkpt><trkpt lat="43.597195" lon="11.5156067"><ele>137.0</ele><time>2026-04-18T07:56:13.01Z</time></trkpt><trkpt lat="43.5971067" lon="11.5156983"><ele>138.0</ele><time>2026-04-18T07:56:15.009Z</time></trkpt><trkpt lat="43.5970167" lon="11.515785"><ele>139.0</ele><time>2026-04-18T07:56:17.01Z</time></trkpt><trkpt lat="43.596925" lon="11.5158667"><ele>139.0</ele><time>2026-04-18T07:56:19.011Z</time></trkpt><trkpt lat="43.5968383" lon="11.515945"><ele>139.0</ele><time>2026-04-18T07:56:21.011Z</time></trkpt><trkpt lat="43.5967383" lon="11.51605"><ele>139.0</ele><time>2026-04-18T07:56:23.011Z</time></trkpt><trkpt lat="43.59668" lon="11.5161033"><ele>139.0</ele><time>2026-04-18T07:56:24.01Z</time></trkpt><trkpt lat="43.59662" lon="11.51615"><ele>139.0</ele><time>2026-04-18T07:56:25.012Z</time></trkpt><trkpt lat="43.5965567" lon="11.51619"><ele>139.0</ele><time>2026-04-18T07:56:26.012Z</time></trkpt><trkpt lat="43.596495" lon="11.5162233"><ele>139.0</ele><time>2026-04-18T07:56:27.011Z</time></trkpt><trkpt lat="43.596435" lon="11.5162633"><ele>139.0</ele><time>2026-04-18T07:56:28.011Z</time></trkpt><trkpt lat="43.596375" lon="11.5162967"><ele>139.0</ele><time>2026-04-18T07:56:29.01Z</time></trkpt><trkpt lat="43.5963083" lon="11.51633"><ele>139.0</ele><time>2026-04-18T07:56:30.013Z</time></trkpt><trkpt lat="43.5962467" lon="11.5163633"><ele>139.0</ele><time>2026-04-18T07:56:31.011Z</time></trkpt><trkpt lat="43.5961833" lon="11.5163983"><ele>139.0</ele><time>2026-04-18T07:56:32.012Z</time></trkpt><trkpt lat="43.5961183" lon="11.5164317"><ele>139.0</ele><time>2026-04-18T07:56:33.01Z</time></trkpt><trkpt lat="43.596055" lon="11.5164633"><ele>139.0</ele><time>2026-04-18T07:56:34.01Z</time></trkpt><trkpt lat="43.5959917" lon="11.5164917"><ele>139.0</ele><time>2026-04-18T07:56:35.01Z</time></trkpt><trkpt lat="43.5959317" lon="11.51652"><ele>139.0</ele><time>2026-04-18T07:56:36.011Z</time></trkpt><trkpt lat="43.59587" lon="11.51654"><ele>139.0</ele><time>2026-04-18T07:56:37.011Z</time></trkpt><trkpt lat="43.5957967" lon="11.516555"><ele>139.0</ele><time>2026-04-18T07:56:38.012Z</time></trkpt><trkpt lat="43.59572" lon="11.5165667"><ele>139.0</ele><time>2026-04-18T07:56:39.01Z</time></trkpt><trkpt lat="43.595645" lon="11.5165783"><ele>139.0</ele><time>2026-04-18T07:56:40.011Z</time></trkpt><trkpt lat="43.595575" lon="11.5165883"><ele>139.0</ele><time>2026-04-18T07:56:41.01Z</time></trkpt><trkpt lat="43.5955083" lon="11.5166"><ele>139.0</ele><time>2026-04-18T07:56:42.009Z</time></trkpt><trkpt lat="43.5954433" lon="11.5166083"><ele>139.0</ele><time>2026-04-18T07:56:43.011Z</time></trkpt><trkpt lat="43.5953783" lon="11.516615"><ele>139.0</ele><time>2026-04-18T07:56:44.011Z</time></trkpt><trkpt lat="43.59531" lon="11.5166217"><ele>139.0</ele><time>2026-04-18T07:56:45.011Z</time></trkpt><trkpt lat="43.59524" lon="11.51663"><ele>139.0</ele><time>2026-04-18T07:56:46.012Z</time></trkpt><trkpt lat="43.5951683" lon="11.51664"><ele>139.0</ele><time>2026-04-18T07:56:47.011Z</time></trkpt><trkpt lat="43.5950967" lon="11.5166467"><ele>138.66666666666669</ele><time>2026-04-18T07:56:48.012Z</time></trkpt><trkpt lat="43.5950233" lon="11.5166567"><ele>138.33333333333334</ele><time>2026-04-18T07:56:49.011Z</time></trkpt><trkpt lat="43.59495" lon="11.5166667"><ele>138.0</ele><time>2026-04-18T07:56:50.012Z</time></trkpt><trkpt lat="43.5948633" lon="11.51668"><ele>137.66666666666666</ele><time>2026-04-18T07:56:51.01Z</time></trkpt><trkpt lat="43.5947633" lon="11.51669"><ele>137.33333333333331</ele><time>2026-04-18T07:56:52.009Z</time></trkpt><trkpt lat="43.5946683" lon="11.5166983"><ele>137.0</ele><time>2026-04-18T07:56:53.012Z</time></trkpt><trkpt lat="43.5945683" lon="11.5167067"><ele>136.4</ele><time>2026-04-18T07:56:54.011Z</time></trkpt><trkpt lat="43.5944733" lon="11.5167083"><ele>135.79999999999998</ele><time>2026-04-18T07:56:55.011Z</time></trkpt><trkpt lat="43.594375" lon="11.5166983"><ele>135.2</ele><time>2026-04-18T07:56:56.01Z</time></trkpt><trkpt lat="43.594285" lon="11.5166867"><ele>134.6</ele><time>2026-04-18T07:56:57.01Z</time></trkpt><trkpt lat="43.5941917" lon="11.5166667"><ele>134.0</ele><time>2026-04-18T07:56:58.01Z</time></trkpt><trkpt lat="43.5941017" lon="11.5166517"><ele>134.0</ele><time>2026-04-18T07:56:59.012Z</time></trkpt><trkpt lat="43.5940117" lon="11.516625"><ele>134.0</ele><time>2026-04-18T07:57:00.011Z</time></trkpt><trkpt lat="43.5939117" lon="11.516585"><ele>134.0</ele><time>2026-04-18T07:57:01.011Z</time></trkpt><trkpt lat="43.59381" lon="11.5165367"><ele>134.0</ele><time>2026-04-18T07:57:02.011Z</time></trkpt><trkpt lat="43.593715" lon="11.5164867"><ele>134.0</ele><time>2026-04-18T07:57:03.01Z</time></trkpt><trkpt lat="43.5936317" lon="11.516435"><ele>133.66666666666666</ele><time>2026-04-18T07:57:04.009Z</time></trkpt><trkpt lat="43.59355" lon="11.51638"><ele>133.33333333333331</ele><time>2026-04-18T07:57:05.011Z</time></trkpt><trkpt lat="43.5934717" lon="11.5163283"><ele>133.0</ele><time>2026-04-18T07:57:06.01Z</time></trkpt><trkpt lat="43.593395" lon="11.5162883"><ele>132.66666666666666</ele><time>2026-04-18T07:57:07.011Z</time></trkpt><trkpt lat="43.5933167" lon="11.516255"><ele>132.33333333333334</ele><time>2026-04-18T07:57:08.01Z</time></trkpt><trkpt lat="43.5932233" lon="11.5162517"><ele>132.0</ele><time>2026-04-18T07:57:09.01Z</time></trkpt><trkpt lat="43.593135" lon="11.51628"><ele>132.0</ele><time>2026-04-18T07:57:10.009Z</time></trkpt><trkpt lat="43.5930633" lon="11.5163333"><ele>132.0</ele><time>2026-04-18T07:57:11.01Z</time></trkpt><trkpt lat="43.5929967" lon="11.516395"><ele>132.0</ele><time>2026-04-18T07:57:12.01Z</time></trkpt><trkpt lat="43.5929367" lon="11.51646"><ele>132.0</ele><time>2026-04-18T07:57:13.01Z</time></trkpt><trkpt lat="43.592875" lon="11.5165183"><ele>132.0</ele><time>2026-04-18T07:57:14.01Z</time></trkpt><trkpt lat="43.5928083" lon="11.5165633"><ele>132.0</ele><time>2026-04-18T07:57:15.009Z</time></trkpt><trkpt lat="43.59274" lon="11.5165933"><ele>132.14285714285714</ele><time>2026-04-18T07:57:16.009Z</time></trkpt><trkpt lat="43.592665" lon="11.5166083"><ele>132.28571428571428</ele><time>2026-04-18T07:57:17.012Z</time></trkpt><trkpt lat="43.59259" lon="11.5166033"><ele>132.42857142857144</ele><time>2026-04-18T07:57:18.011Z</time></trkpt><trkpt lat="43.5925217" lon="11.5165783"><ele>132.57142857142856</ele><time>2026-04-18T07:57:19.01Z</time></trkpt><trkpt lat="43.5924583" lon="11.5165317"><ele>132.71428571428572</ele><time>2026-04-18T07:57:20.011Z</time></trkpt><trkpt lat="43.5924133" lon="11.5164533"><ele>132.85714285714286</ele><time>2026-04-18T07:57:21.013Z</time></trkpt><trkpt lat="43.592385" lon="11.51636"><ele>133.0</ele><time>2026-04-18T07:57:22.012Z</time></trkpt><trkpt lat="43.5923567" lon="11.51626"><ele>133.28571428571428</ele><time>2026-04-18T07:57:23.011Z</time></trkpt><trkpt lat="43.59232" lon="11.5161667"><ele>133.57142857142856</ele><time>2026-04-18T07:57:24.009Z</time></trkpt><trkpt lat="43.5922683" lon="11.5161017"><ele>133.85714285714286</ele><time>2026-04-18T07:57:25.009Z</time></trkpt><trkpt lat="43.5922067" lon="11.5160617"><ele>134.14285714285714</ele><time>2026-04-18T07:57:26.011Z</time></trkpt><trkpt lat="43.59214" lon="11.5160517"><ele>134.42857142857142</ele><time>2026-04-18T07:57:27.011Z</time></trkpt><trkpt lat="43.5920767" lon="11.5160717"><ele>134.71428571428572</ele><time>2026-04-18T07:57:28.011Z</time></trkpt><trkpt lat="43.592015" lon="11.5161033"><ele>135.0</ele><time>2026-04-18T07:57:29.012Z</time></trkpt><trkpt lat="43.5919433" lon="11.516125"><ele>135.0</ele><time>2026-04-18T07:57:30.009Z</time></trkpt><trkpt lat="43.59187" lon="11.5161217"><ele>135.0</ele><time>2026-04-18T07:57:31.01Z</time></trkpt><trkpt lat="43.5917933" lon="11.5160867"><ele>135.0</ele><time>2026-04-18T07:57:32.011Z</time></trkpt><trkpt lat="43.5917333" lon="11.51602"><ele>135.0</ele><time>2026-04-18T07:57:33.01Z</time></trkpt><trkpt lat="43.591675" lon="11.5159467"><ele>135.0</ele><time>2026-04-18T07:57:34.011Z</time></trkpt><trkpt lat="43.5916133" lon="11.5158833"><ele>135.0</ele><time>2026-04-18T07:57:35.009Z</time></trkpt><trkpt lat="43.5915517" lon="11.515815"><ele>135.0</ele><time>2026-04-18T07:57:36.01Z</time></trkpt><trkpt lat="43.5914933" lon="11.5157433"><ele>135.0</ele><time>2026-04-18T07:57:37.01Z</time></trkpt><trkpt lat="43.5914383" lon="11.5156817"><ele>135.0</ele><time>2026-04-18T07:57:38.011Z</time></trkpt><trkpt lat="43.5913783" lon="11.515615"><ele>135.0</ele><time>2026-04-18T07:57:39.01Z</time></trkpt><trkpt lat="43.5913167" lon="11.5155483"><ele>135.0</ele><time>2026-04-18T07:57:40.01Z</time></trkpt><trkpt lat="43.5912533" lon="11.5154883"><ele>135.0</ele><time>2026-04-18T07:57:41.01Z</time></trkpt><trkpt lat="43.591195" lon="11.5154333"><ele>134.33333333333334</ele><time>2026-04-18T07:57:42.009Z</time></trkpt><trkpt lat="43.59113" lon="11.5153783"><ele>133.66666666666666</ele><time>2026-04-18T07:57:43.011Z</time></trkpt><trkpt lat="43.5910633" lon="11.5153233"><ele>133.0</ele><time>2026-04-18T07:57:44.012Z</time></trkpt><trkpt lat="43.5909983" lon="11.515275"><ele>132.33333333333331</ele><time>2026-04-18T07:57:45.011Z</time></trkpt><trkpt lat="43.5909317" lon="11.5152317"><ele>131.66666666666666</ele><time>2026-04-18T07:57:46.01Z</time></trkpt><trkpt lat="43.5908617" lon="11.51519"><ele>131.0</ele><time>2026-04-18T07:57:47.011Z</time></trkpt><trkpt lat="43.5907917" lon="11.5151483"><ele>131.0</ele><time>2026-04-18T07:57:48.009Z</time></trkpt><trkpt lat="43.59072" lon="11.5151117"><ele>131.0</ele><time>2026-04-18T07:57:49.009Z</time></trkpt><trkpt lat="43.5906483" lon="11.5150833"><ele>131.0</ele><time>2026-04-18T07:57:50.011Z</time></trkpt><trkpt lat="43.59058" lon="11.5150617"><ele>131.0</ele><time>2026-04-18T07:57:51.01Z</time></trkpt><trkpt lat="43.5905117" lon="11.5150467"><ele>131.0</ele><time>2026-04-18T07:57:52.009Z</time></trkpt><trkpt lat="43.59044" lon="11.5150317"><ele>131.0</ele><time>2026-04-18T07:57:53.009Z</time></trkpt><trkpt lat="43.5903667" lon="11.5150267"><ele>131.0</ele><time>2026-04-18T07:57:54.01Z</time></trkpt><trkpt lat="43.5902967" lon="11.515025"><ele>131.16666666666666</ele><time>2026-04-18T07:57:55.01Z</time></trkpt><trkpt lat="43.5902267" lon="11.5150283"><ele>131.33333333333331</ele><time>2026-04-18T07:57:56.011Z</time></trkpt><trkpt lat="43.590155" lon="11.5150383"><ele>131.5</ele><time>2026-04-18T07:57:57.011Z</time></trkpt><trkpt lat="43.5900783" lon="11.5150517"><ele>131.66666666666666</ele><time>2026-04-18T07:57:58.008Z</time></trkpt><trkpt lat="43.5900033" lon="11.5150683"><ele>131.83333333333334</ele><time>2026-04-18T07:57:59.01Z</time></trkpt><trkpt lat="43.5899283" lon="11.5150917"><ele>132.0</ele><time>2026-04-18T07:58:00.011Z</time></trkpt><trkpt lat="43.58985" lon="11.5151217"><ele>132.0</ele><time>2026-04-18T07:58:01.012Z</time></trkpt><trkpt lat="43.589775" lon="11.51516"><ele>132.0</ele><time>2026-04-18T07:58:02.012Z</time></trkpt><trkpt lat="43.589705" lon="11.515205"><ele>132.0</ele><time>2026-04-18T07:58:03.01Z</time></trkpt><trkpt lat="43.5896333" lon="11.5152567"><ele>132.0</ele><time>2026-04-18T07:58:04.01Z</time></trkpt><trkpt lat="43.589565" lon="11.5153067"><ele>132.0</ele><time>2026-04-18T07:58:05.011Z</time></trkpt><trkpt lat="43.589495" lon="11.515365"><ele>132.0</ele><time>2026-04-18T07:58:06.011Z</time></trkpt><trkpt lat="43.5894283" lon="11.51543"><ele>132.33333333333334</ele><time>2026-04-18T07:58:07.01Z</time></trkpt><trkpt lat="43.589365" lon="11.5154983"><ele>132.66666666666666</ele><time>2026-04-18T07:58:08.011Z</time></trkpt><trkpt lat="43.5893033" lon="11.515575"><ele>133.0</ele><time>2026-04-18T07:58:09.012Z</time></trkpt><trkpt lat="43.58924" lon="11.5156467"><ele>133.33333333333331</ele><time>2026-04-18T07:58:10.011Z</time></trkpt><trkpt lat="43.5891767" lon="11.5157183"><ele>133.66666666666666</ele><time>2026-04-18T07:58:11.012Z</time></trkpt><trkpt lat="43.589115" lon="11.51579"><ele>134.0</ele><time>2026-04-18T07:58:12.01Z</time></trkpt><trkpt lat="43.5890583" lon="11.5158617"><ele>134.0</ele><time>2026-04-18T07:58:13.009Z</time></trkpt><trkpt lat="43.5890033" lon="11.51594"><ele>134.0</ele><time>2026-04-18T07:58:14.009Z</time></trkpt><trkpt lat="43.588945" lon="11.51602"><ele>134.0</ele><time>2026-04-18T07:58:15.013Z</time></trkpt><trkpt lat="43.588885" lon="11.5160983"><ele>134.0</ele><time>2026-04-18T07:58:16.01Z</time></trkpt><trkpt lat="43.588825" lon="11.5161783"><ele>134.0</ele><time>2026-04-18T07:58:17.011Z</time></trkpt><trkpt lat="43.5887683" lon="11.5162567"><ele>134.0</ele><time>2026-04-18T07:58:18.01Z</time></trkpt><trkpt lat="43.5887083" lon="11.5163383"><ele>133.66666666666666</ele><time>2026-04-18T07:58:19.009Z</time></trkpt><trkpt lat="43.58865" lon="11.5164217"><ele>133.33333333333331</ele><time>2026-04-18T07:58:20.011Z</time></trkpt><trkpt lat="43.5885917" lon="11.5165083"><ele>133.0</ele><time>2026-04-18T07:58:21.01Z</time></trkpt><trkpt lat="43.5885333" lon="11.51659"><ele>132.66666666666666</ele><time>2026-04-18T07:58:22.011Z</time></trkpt><trkpt lat="43.5884767" lon="11.516675"><ele>132.33333333333334</ele><time>2026-04-18T07:58:23.009Z</time></trkpt><trkpt lat="43.5884183" lon="11.5167567"><ele>132.0</ele><time>2026-04-18T07:58:24.011Z</time></trkpt><trkpt lat="43.5883583" lon="11.5168417"><ele>132.0</ele><time>2026-04-18T07:58:25.01Z</time></trkpt><trkpt lat="43.5883" lon="11.516925"><ele>132.0</ele><time>2026-04-18T07:58:26.011Z</time></trkpt><trkpt lat="43.58824" lon="11.5170083"><ele>132.0</ele><time>2026-04-18T07:58:27.009Z</time></trkpt><trkpt lat="43.58818" lon="11.517095"><ele>132.0</ele><time>2026-04-18T07:58:28.012Z</time></trkpt><trkpt lat="43.5881217" lon="11.5171783"><ele>132.0</ele><time>2026-04-18T07:58:29.009Z</time></trkpt><trkpt lat="43.5880617" lon="11.517265"><ele>132.0</ele><time>2026-04-18T07:58:30.012Z</time></trkpt><trkpt lat="43.588" lon="11.51735"><ele>132.16666666666666</ele><time>2026-04-18T07:58:31.011Z</time></trkpt><trkpt lat="43.5879367" lon="11.5174383"><ele>132.33333333333334</ele><time>2026-04-18T07:58:32.009Z</time></trkpt><trkpt lat="43.5878717" lon="11.5175267"><ele>132.5</ele><time>2026-04-18T07:58:33.008Z</time></trkpt><trkpt lat="43.5878083" lon="11.5176117"><ele>132.66666666666669</ele><time>2026-04-18T07:58:34.008Z</time></trkpt><trkpt lat="43.5877467" lon="11.5176917"><ele>132.83333333333334</ele><time>2026-04-18T07:58:35.011Z</time></trkpt><trkpt lat="43.587685" lon="11.517775"><ele>133.0</ele><time>2026-04-18T07:58:36.01Z</time></trkpt><trkpt lat="43.5876233" lon="11.5178617"><ele>132.66666666666669</ele><time>2026-04-18T07:58:37.012Z</time></trkpt><trkpt lat="43.587565" lon="11.51795"><ele>132.33333333333334</ele><time>2026-04-18T07:58:38.01Z</time></trkpt><trkpt lat="43.5875017" lon="11.518035"><ele>132.0</ele><time>2026-04-18T07:58:39.012Z</time></trkpt><trkpt lat="43.5874417" lon="11.5181233"><ele>131.66666666666666</ele><time>2026-04-18T07:58:40.01Z</time></trkpt><trkpt lat="43.5873817" lon="11.5182117"><ele>131.33333333333331</ele><time>2026-04-18T07:58:41.012Z</time></trkpt><trkpt lat="43.5873217" lon="11.5183017"><ele>131.0</ele><time>2026-04-18T07:58:42.011Z</time></trkpt><trkpt lat="43.58726" lon="11.5183967"><ele>131.0</ele><time>2026-04-18T07:58:43.01Z</time></trkpt><trkpt lat="43.5872017" lon="11.518485"><ele>131.0</ele><time>2026-04-18T07:58:44.012Z</time></trkpt><trkpt lat="43.5871417" lon="11.5185683"><ele>131.0</ele><time>2026-04-18T07:58:45.01Z</time></trkpt><trkpt lat="43.5870783" lon="11.5186467"><ele>131.0</ele><time>2026-04-18T07:58:46.011Z</time></trkpt><trkpt lat="43.5870167" lon="11.5187283"><ele>131.0</ele><time>2026-04-18T07:58:47.014Z</time></trkpt><trkpt lat="43.5869583" lon="11.5188133"><ele>131.0</ele><time>2026-04-18T07:58:48.012Z</time></trkpt><trkpt lat="43.5869017" lon="11.518895"><ele>130.83333333333331</ele><time>2026-04-18T07:58:49.012Z</time></trkpt><trkpt lat="43.58684" lon="11.5189783"><ele>130.66666666666666</ele><time>2026-04-18T07:58:50.011Z</time></trkpt><trkpt lat="43.58678" lon="11.5190583"><ele>130.5</ele><time>2026-04-18T07:58:51.01Z</time></trkpt><trkpt lat="43.58672" lon="11.519135"><ele>130.33333333333334</ele><time>2026-04-18T07:58:52.011Z</time></trkpt><trkpt lat="43.5866583" lon="11.5192183"><ele>130.16666666666669</ele><time>2026-04-18T07:58:53.012Z</time></trkpt><trkpt lat="43.5865983" lon="11.5192983"><ele>130.0</ele><time>2026-04-18T07:58:54.011Z</time></trkpt><trkpt lat="43.58654" lon="11.519385"><ele>130.0</ele><time>2026-04-18T07:58:55.01Z</time></trkpt><trkpt lat="43.58648" lon="11.51947"><ele>130.0</ele><time>2026-04-18T07:58:56.01Z</time></trkpt><trkpt lat="43.5864217" lon="11.5195617"><ele>130.0</ele><time>2026-04-18T07:58:57.012Z</time></trkpt><trkpt lat="43.58636" lon="11.5196467"><ele>130.0</ele><time>2026-04-18T07:58:58.01Z</time></trkpt><trkpt lat="43.5863017" lon="11.51973"><ele>130.0</ele><time>2026-04-18T07:58:59.011Z</time></trkpt><trkpt lat="43.5862433" lon="11.519815"><ele>130.0</ele><time>2026-04-18T07:59:00.011Z</time></trkpt><trkpt lat="43.5861833" lon="11.5199017"><ele>130.33333333333334</ele><time>2026-04-18T07:59:01.009Z</time></trkpt><trkpt lat="43.5861233" lon="11.5199867"><ele>130.66666666666669</ele><time>2026-04-18T07:59:02.012Z</time></trkpt><trkpt lat="43.5860633" lon="11.5200717"><ele>131.0</ele><time>2026-04-18T07:59:03.011Z</time></trkpt><trkpt lat="43.5860017" lon="11.520155"><ele>131.33333333333334</ele><time>2026-04-18T07:59:04.01Z</time></trkpt><trkpt lat="43.58594" lon="11.5202417"><ele>131.66666666666666</ele><time>2026-04-18T07:59:05.012Z</time></trkpt><trkpt lat="43.5858783" lon="11.5203233"><ele>132.0</ele><time>2026-04-18T07:59:06.011Z</time></trkpt><trkpt lat="43.5858167" lon="11.5204133"><ele>132.33333333333334</ele><time>2026-04-18T07:59:07.013Z</time></trkpt><trkpt lat="43.5857567" lon="11.5205033"><ele>132.66666666666666</ele><time>2026-04-18T07:59:08.011Z</time></trkpt><trkpt lat="43.5856933" lon="11.5205933"><ele>133.0</ele><time>2026-04-18T07:59:09.011Z</time></trkpt><trkpt lat="43.5856317" lon="11.52068"><ele>133.33333333333331</ele><time>2026-04-18T07:59:10.011Z</time></trkpt><trkpt lat="43.5855717" lon="11.5207633"><ele>133.66666666666666</ele><time>2026-04-18T07:59:11.01Z</time></trkpt><trkpt lat="43.585515" lon="11.5208483"><ele>134.0</ele><time>2026-04-18T07:59:12.01Z</time></trkpt><trkpt lat="43.585455" lon="11.5209333"><ele>134.0</ele><time>2026-04-18T07:59:13.012Z</time></trkpt><trkpt lat="43.585395" lon="11.5210183"><ele>134.0</ele><time>2026-04-18T07:59:14.011Z</time></trkpt><trkpt lat="43.5853367" lon="11.5211067"><ele>134.0</ele><time>2026-04-18T07:59:15.01Z</time></trkpt><trkpt lat="43.585275" lon="11.5211917"><ele>134.0</ele><time>2026-04-18T07:59:16.009Z</time></trkpt><trkpt lat="43.5852133" lon="11.5212783"><ele>134.0</ele><time>2026-04-18T07:59:17.011Z</time></trkpt><trkpt lat="43.5851517" lon="11.521365"><ele>134.0</ele><time>2026-04-18T07:59:18.01Z</time></trkpt><trkpt lat="43.5850917" lon="11.5214533"><ele>133.66666666666666</ele><time>2026-04-18T07:59:19.011Z</time></trkpt><trkpt lat="43.5850267" lon="11.5215383"><ele>133.33333333333331</ele><time>2026-04-18T07:59:20.011Z</time></trkpt><trkpt lat="43.5849633" lon="11.5216233"><ele>133.0</ele><time>2026-04-18T07:59:21.011Z</time></trkpt><trkpt lat="43.5849017" lon="11.52171"><ele>132.66666666666666</ele><time>2026-04-18T07:59:22.01Z</time></trkpt><trkpt lat="43.5848417" lon="11.521795"><ele>132.33333333333334</ele><time>2026-04-18T07:59:23.011Z</time></trkpt><trkpt lat="43.58478" lon="11.5218783"><ele>132.0</ele><time>2026-04-18T07:59:24.011Z</time></trkpt><trkpt lat="43.5847167" lon="11.5219617"><ele>132.0</ele><time>2026-04-18T07:59:25.01Z</time></trkpt><trkpt lat="43.584655" lon="11.5220467"><ele>132.0</ele><time>2026-04-18T07:59:26.011Z</time></trkpt><trkpt lat="43.5845917" lon="11.5221333"><ele>132.0</ele><time>2026-04-18T07:59:27.011Z</time></trkpt><trkpt lat="43.5845283" lon="11.5222183"><ele>132.0</ele><time>2026-04-18T07:59:28.01Z</time></trkpt><trkpt lat="43.5844667" lon="11.5223067"><ele>132.0</ele><time>2026-04-18T07:59:29.013Z</time></trkpt><trkpt lat="43.5844033" lon="11.5223917"><ele>132.0</ele><time>2026-04-18T07:59:30.01Z</time></trkpt><trkpt lat="43.5843417" lon="11.52248"><ele>131.83333333333334</ele><time>2026-04-18T07:59:31.012Z</time></trkpt><trkpt lat="43.5842817" lon="11.5225683"><ele>131.66666666666666</ele><time>2026-04-18T07:59:32.01Z</time></trkpt><trkpt lat="43.5842233" lon="11.5226583"><ele>131.5</ele><time>2026-04-18T07:59:33.009Z</time></trkpt><trkpt lat="43.5841617" lon="11.5227483"><ele>131.33333333333331</ele><time>2026-04-18T07:59:34.01Z</time></trkpt><trkpt lat="43.5840983" lon="11.52284"><ele>131.16666666666666</ele><time>2026-04-18T07:59:35.011Z</time></trkpt><trkpt lat="43.5840367" lon="11.5229267"><ele>131.0</ele><time>2026-04-18T07:59:36.01Z</time></trkpt><trkpt lat="43.5839767" lon="11.5230167"><ele>131.33333333333331</ele><time>2026-04-18T07:59:37.011Z</time></trkpt><trkpt lat="43.583915" lon="11.5231083"><ele>131.66666666666666</ele><time>2026-04-18T07:59:38.01Z</time></trkpt><trkpt lat="43.5838533" lon="11.5232"><ele>132.0</ele><time>2026-04-18T07:59:39.009Z</time></trkpt><trkpt lat="43.5837917" lon="11.5232833"><ele>132.33333333333334</ele><time>2026-04-18T07:59:40.011Z</time></trkpt><trkpt lat="43.58373" lon="11.5233717"><ele>132.66666666666669</ele><time>2026-04-18T07:59:41.011Z</time></trkpt><trkpt lat="43.58367" lon="11.5234583"><ele>133.0</ele><time>2026-04-18T07:59:42.012Z</time></trkpt><trkpt lat="43.58361" lon="11.523545"><ele>133.0</ele><time>2026-04-18T07:59:43.01Z</time></trkpt><trkpt lat="43.5835483" lon="11.52363"><ele>133.0</ele><time>2026-04-18T07:59:44.013Z</time></trkpt><trkpt lat="43.583485" lon="11.52372"><ele>133.0</ele><time>2026-04-18T07:59:45.01Z</time></trkpt><trkpt lat="43.5834217" lon="11.523805"><ele>133.0</ele><time>2026-04-18T07:59:46.011Z</time></trkpt><trkpt lat="43.58336" lon="11.52389"><ele>133.0</ele><time>2026-04-18T07:59:47.011Z</time></trkpt><trkpt lat="43.5833" lon="11.523975"><ele>133.0</ele><time>2026-04-18T07:59:48.011Z</time></trkpt><trkpt lat="43.5832417" lon="11.52406"><ele>133.0</ele><time>2026-04-18T07:59:49.01Z</time></trkpt><trkpt lat="43.5831833" lon="11.5241433"><ele>133.0</ele><time>2026-04-18T07:59:50.011Z</time></trkpt><trkpt lat="43.583125" lon="11.5242233"><ele>133.0</ele><time>2026-04-18T07:59:51.011Z</time></trkpt><trkpt lat="43.5830633" lon="11.5243067"><ele>133.0</ele><time>2026-04-18T07:59:52.01Z</time></trkpt><trkpt lat="43.583005" lon="11.52439"><ele>133.0</ele><time>2026-04-18T07:59:53.012Z</time></trkpt><trkpt lat="43.58295" lon="11.5244733"><ele>133.0</ele><time>2026-04-18T07:59:54.011Z</time></trkpt><trkpt lat="43.5828967" lon="11.5245567"><ele>132.83333333333334</ele><time>2026-04-18T07:59:55.012Z</time></trkpt><trkpt lat="43.582845" lon="11.524635"><ele>132.66666666666669</ele><time>2026-04-18T07:59:56.011Z</time></trkpt><trkpt lat="43.58279" lon="11.5247183"><ele>132.5</ele><time>2026-04-18T07:59:57.012Z</time></trkpt><trkpt lat="43.5827383" lon="11.5248033"><ele>132.33333333333334</ele><time>2026-04-18T07:59:58.013Z</time></trkpt><trkpt lat="43.582685" lon="11.5248883"><ele>132.16666666666666</ele><time>2026-04-18T07:59:59.01Z</time></trkpt><trkpt lat="43.5826317" lon="11.52497"><ele>132.0</ele><time>2026-04-18T08:00:00.011Z</time></trkpt><trkpt lat="43.5825783" lon="11.5250583"><ele>132.0</ele><time>2026-04-18T08:00:01.01Z</time></trkpt><trkpt lat="43.5825267" lon="11.5251433"><ele>132.0</ele><time>2026-04-18T08:00:02.011Z</time></trkpt><trkpt lat="43.582475" lon="11.5252283"><ele>132.0</ele><time>2026-04-18T08:00:03.011Z</time></trkpt><trkpt lat="43.5824233" lon="11.5253117"><ele>132.0</ele><time>2026-04-18T08:00:04.01Z</time></trkpt><trkpt lat="43.5823717" lon="11.5253983"><ele>132.0</ele><time>2026-04-18T08:00:05.013Z</time></trkpt><trkpt lat="43.5823217" lon="11.52549"><ele>132.0</ele><time>2026-04-18T08:00:06.011Z</time></trkpt><trkpt lat="43.58227" lon="11.52558"><ele>132.0</ele><time>2026-04-18T08:00:07.011Z</time></trkpt><trkpt lat="43.5822183" lon="11.525675"><ele>132.0</ele><time>2026-04-18T08:00:08.01Z</time></trkpt><trkpt lat="43.5821683" lon="11.52577"><ele>132.0</ele><time>2026-04-18T08:00:09.012Z</time></trkpt><trkpt lat="43.58212" lon="11.525865"><ele>132.0</ele><time>2026-04-18T08:00:10.011Z</time></trkpt><trkpt lat="43.5820733" lon="11.5259567"><ele>132.0</ele><time>2026-04-18T08:00:11.012Z</time></trkpt><trkpt lat="43.582025" lon="11.526055"><ele>132.0</ele><time>2026-04-18T08:00:12.011Z</time></trkpt><trkpt lat="43.5819767" lon="11.5261533"><ele>132.16666666666666</ele><time>2026-04-18T08:00:13.012Z</time></trkpt><trkpt lat="43.58193" lon="11.52625"><ele>132.33333333333334</ele><time>2026-04-18T08:00:14.01Z</time></trkpt><trkpt lat="43.5818817" lon="11.5263483"><ele>132.5</ele><time>2026-04-18T08:00:15.011Z</time></trkpt><trkpt lat="43.5818333" lon="11.5264517"><ele>132.66666666666669</ele><time>2026-04-18T08:00:16.01Z</time></trkpt><trkpt lat="43.5817867" lon="11.5265567"><ele>132.83333333333334</ele><time>2026-04-18T08:00:17.011Z</time></trkpt><trkpt lat="43.5817417" lon="11.52666"><ele>133.0</ele><time>2026-04-18T08:00:18.01Z</time></trkpt><trkpt lat="43.581695" lon="11.526775"><ele>133.0</ele><time>2026-04-18T08:00:19.012Z</time></trkpt><trkpt lat="43.58165" lon="11.5268817"><ele>133.0</ele><time>2026-04-18T08:00:20.011Z</time></trkpt><trkpt lat="43.5816067" lon="11.52699"><ele>133.0</ele><time>2026-04-18T08:00:21.01Z</time></trkpt><trkpt lat="43.581565" lon="11.5270967"><ele>133.0</ele><time>2026-04-18T08:00:22.01Z</time></trkpt><trkpt lat="43.5815233" lon="11.5272067"><ele>133.0</ele><time>2026-04-18T08:00:23.01Z</time></trkpt><trkpt lat="43.5814817" lon="11.5273167"><ele>133.0</ele><time>2026-04-18T08:00:24.009Z</time></trkpt><trkpt lat="43.5814433" lon="11.5274183"><ele>133.16666666666669</ele><time>2026-04-18T08:00:25.008Z</time></trkpt><trkpt lat="43.5814067" lon="11.52752"><ele>133.33333333333334</ele><time>2026-04-18T08:00:26.011Z</time></trkpt><trkpt lat="43.58137" lon="11.5276217"><ele>133.5</ele><time>2026-04-18T08:00:27.01Z</time></trkpt><trkpt lat="43.5813333" lon="11.5277283"><ele>133.66666666666666</ele><time>2026-04-18T08:00:28.013Z</time></trkpt><trkpt lat="43.5812967" lon="11.5278383"><ele>133.83333333333331</ele><time>2026-04-18T08:00:29.01Z</time></trkpt><trkpt lat="43.5812583" lon="11.5279483"><ele>134.0</ele><time>2026-04-18T08:00:30.008Z</time></trkpt><trkpt lat="43.5812217" lon="11.5280483"><ele>133.5</ele><time>2026-04-18T08:00:31.008Z</time></trkpt><trkpt lat="43.5811867" lon="11.5281467"><ele>133.0</ele><time>2026-04-18T08:00:32.009Z</time></trkpt><trkpt lat="43.5811517" lon="11.5282517"><ele>132.5</ele><time>2026-04-18T08:00:33.011Z</time></trkpt><trkpt lat="43.581115" lon="11.5283567"><ele>132.0</ele><time>2026-04-18T08:00:34.008Z</time></trkpt><trkpt lat="43.58108" lon="11.52847"><ele>131.5</ele><time>2026-04-18T08:00:35.008Z</time></trkpt><trkpt lat="43.581045" lon="11.52858"><ele>131.0</ele><time>2026-04-18T08:00:36.008Z</time></trkpt><trkpt lat="43.581005" lon="11.5286917"><ele>130.66666666666666</ele><time>2026-04-18T08:00:37.008Z</time></trkpt><trkpt lat="43.580965" lon="11.5288017"><ele>130.33333333333331</ele><time>2026-04-18T08:00:38.009Z</time></trkpt><trkpt lat="43.5809233" lon="11.528905"><ele>130.0</ele><time>2026-04-18T08:00:39.01Z</time></trkpt><trkpt lat="43.5808817" lon="11.5290167"><ele>129.66666666666666</ele><time>2026-04-18T08:00:40.011Z</time></trkpt><trkpt lat="43.5808333" lon="11.529125"><ele>129.33333333333334</ele><time>2026-04-18T08:00:41.011Z</time></trkpt><trkpt lat="43.5807817" lon="11.529225"><ele>129.0</ele><time>2026-04-18T08:00:42.01Z</time></trkpt><trkpt lat="43.580725" lon="11.5293167"><ele>129.0</ele><time>2026-04-18T08:00:43.011Z</time></trkpt><trkpt lat="43.580665" lon="11.5293983"><ele>129.0</ele><time>2026-04-18T08:00:44.012Z</time></trkpt><trkpt lat="43.580605" lon="11.52948"><ele>129.0</ele><time>2026-04-18T08:00:45.013Z</time></trkpt><trkpt lat="43.5805433" lon="11.5295617"><ele>129.0</ele><time>2026-04-18T08:00:46.011Z</time></trkpt><trkpt lat="43.5804767" lon="11.5296317"><ele>129.0</ele><time>2026-04-18T08:00:47.009Z</time></trkpt><trkpt lat="43.5804083" lon="11.5296917"><ele>129.0</ele><time>2026-04-18T08:00:48.011Z</time></trkpt><trkpt lat="43.5803367" lon="11.5297533"><ele>129.0</ele><time>2026-04-18T08:00:49.01Z</time></trkpt><trkpt lat="43.5802667" lon="11.52981"><ele>129.0</ele><time>2026-04-18T08:00:50.011Z</time></trkpt><trkpt lat="43.5802017" lon="11.5298633"><ele>129.0</ele><time>2026-04-18T08:00:51.01Z</time></trkpt><trkpt lat="43.580135" lon="11.5299217"><ele>129.0</ele><time>2026-04-18T08:00:52.008Z</time></trkpt><trkpt lat="43.5800683" lon="11.5299833"><ele>129.0</ele><time>2026-04-18T08:00:53.01Z</time></trkpt><trkpt lat="43.5800017" lon="11.530045"><ele>129.0</ele><time>2026-04-18T08:00:54.013Z</time></trkpt><trkpt lat="43.5799367" lon="11.5301117"><ele>129.0</ele><time>2026-04-18T08:00:55.009Z</time></trkpt><trkpt lat="43.5798767" lon="11.5301817"><ele>129.0</ele><time>2026-04-18T08:00:56.011Z</time></trkpt><trkpt lat="43.5798167" lon="11.5302567"><ele>129.0</ele><time>2026-04-18T08:00:57.01Z</time></trkpt><trkpt lat="43.5797633" lon="11.5303317"><ele>129.0</ele><time>2026-04-18T08:00:58.013Z</time></trkpt><trkpt lat="43.5797083" lon="11.530415"><ele>129.0</ele><time>2026-04-18T08:00:59.011Z</time></trkpt><trkpt lat="43.5796567" lon="11.5304967"><ele>129.0</ele><time>2026-04-18T08:01:00.01Z</time></trkpt><trkpt lat="43.579605" lon="11.5305833"><ele>129.0</ele><time>2026-04-18T08:01:01.009Z</time></trkpt><trkpt lat="43.5795567" lon="11.5306633"><ele>129.0</ele><time>2026-04-18T08:01:02.011Z</time></trkpt><trkpt lat="43.5795083" lon="11.53075"><ele>129.0</ele><time>2026-04-18T08:01:03.011Z</time></trkpt><trkpt lat="43.5794617" lon="11.5308333"><ele>129.0</ele><time>2026-04-18T08:01:04.013Z</time></trkpt><trkpt lat="43.5794133" lon="11.5309217"><ele>129.0</ele><time>2026-04-18T08:01:05.012Z</time></trkpt><trkpt lat="43.5793683" lon="11.53101"><ele>129.0</ele><time>2026-04-18T08:01:06.011Z</time></trkpt><trkpt lat="43.5793217" lon="11.5311017"><ele>129.33333333333334</ele><time>2026-04-18T08:01:07.01Z</time></trkpt><trkpt lat="43.5792717" lon="11.5311933"><ele>129.66666666666666</ele><time>2026-04-18T08:01:08.01Z</time></trkpt><trkpt lat="43.5792217" lon="11.5312817"><ele>130.0</ele><time>2026-04-18T08:01:09.011Z</time></trkpt><trkpt lat="43.579175" lon="11.5313717"><ele>130.33333333333331</ele><time>2026-04-18T08:01:10.011Z</time></trkpt><trkpt lat="43.5791267" lon="11.5314617"><ele>130.66666666666666</ele><time>2026-04-18T08:01:11.009Z</time></trkpt><trkpt lat="43.57908" lon="11.531545"><ele>131.0</ele><time>2026-04-18T08:01:12.009Z</time></trkpt><trkpt lat="43.5790333" lon="11.5316333"><ele>131.0</ele><time>2026-04-18T08:01:13.01Z</time></trkpt><trkpt lat="43.5789883" lon="11.53172"><ele>131.0</ele><time>2026-04-18T08:01:14.011Z</time></trkpt><trkpt lat="43.5789417" lon="11.5318067"><ele>131.0</ele><time>2026-04-18T08:01:15.011Z</time></trkpt><trkpt lat="43.578895" lon="11.531895"><ele>131.0</ele><time>2026-04-18T08:01:16.012Z</time></trkpt><trkpt lat="43.57885" lon="11.53198"><ele>131.0</ele><time>2026-04-18T08:01:17.01Z</time></trkpt><trkpt lat="43.578805" lon="11.5320633"><ele>131.0</ele><time>2026-04-18T08:01:18.011Z</time></trkpt><trkpt lat="43.5787617" lon="11.5321467"><ele>130.85714285714286</ele><time>2026-04-18T08:01:19.011Z</time></trkpt><trkpt lat="43.5787183" lon="11.53223"><ele>130.71428571428572</ele><time>2026-04-18T08:01:20.012Z</time></trkpt><trkpt lat="43.5786767" lon="11.53231"><ele>130.57142857142858</ele><time>2026-04-18T08:01:21.011Z</time></trkpt><trkpt lat="43.578635" lon="11.5323933"><ele>130.42857142857144</ele><time>2026-04-18T08:01:22.011Z</time></trkpt><trkpt lat="43.578595" lon="11.5324717"><ele>130.28571428571428</ele><time>2026-04-18T08:01:23.01Z</time></trkpt><trkpt lat="43.5785533" lon="11.532545"><ele>130.14285714285717</ele><time>2026-04-18T08:01:24.012Z</time></trkpt><trkpt lat="43.5785133" lon="11.53262"><ele>130.0</ele><time>2026-04-18T08:01:25.012Z</time></trkpt><trkpt lat="43.5784733" lon="11.532695"><ele>130.42857142857144</ele><time>2026-04-18T08:01:26.011Z</time></trkpt><trkpt lat="43.5784333" lon="11.5327683"><ele>130.85714285714286</ele><time>2026-04-18T08:01:27.013Z</time></trkpt><trkpt lat="43.578395" lon="11.5328433"><ele>131.28571428571428</ele><time>2026-04-18T08:01:28.009Z</time></trkpt><trkpt lat="43.5783567" lon="11.5329183"><ele>131.71428571428572</ele><time>2026-04-18T08:01:29.01Z</time></trkpt><trkpt lat="43.5783183" lon="11.53299"><ele>132.14285714285714</ele><time>2026-04-18T08:01:30.011Z</time></trkpt><trkpt lat="43.57828" lon="11.5330633"><ele>132.57142857142858</ele><time>2026-04-18T08:01:31.011Z</time></trkpt><trkpt lat="43.578245" lon="11.533145"><ele>133.0</ele><time>2026-04-18T08:01:32.012Z</time></trkpt><trkpt lat="43.5782083" lon="11.5332267"><ele>133.0</ele><time>2026-04-18T08:01:33.012Z</time></trkpt><trkpt lat="43.5781733" lon="11.5333083"><ele>133.0</ele><time>2026-04-18T08:01:34.01Z</time></trkpt><trkpt lat="43.5781367" lon="11.5333917"><ele>133.0</ele><time>2026-04-18T08:01:35.012Z</time></trkpt><trkpt lat="43.5780983" lon="11.53348"><ele>133.0</ele><time>2026-04-18T08:01:36.01Z</time></trkpt><trkpt lat="43.5780617" lon="11.5335733"><ele>133.0</ele><time>2026-04-18T08:01:37.011Z</time></trkpt><trkpt lat="43.5780233" lon="11.5336633"><ele>133.0</ele><time>2026-04-18T08:01:38.011Z</time></trkpt><trkpt lat="43.577985" lon="11.5337483"><ele>133.0</ele><time>2026-04-18T08:01:39.01Z</time></trkpt><trkpt lat="43.577945" lon="11.533825"><ele>133.5</ele><time>2026-04-18T08:01:40.011Z</time></trkpt><trkpt lat="43.5778517" lon="11.5339383"><ele>134.0</ele><time>2026-04-18T08:01:42.01Z</time></trkpt><trkpt lat="43.577795" lon="11.5339783"><ele>134.5</ele><time>2026-04-18T08:01:43.009Z</time></trkpt><trkpt lat="43.577735" lon="11.5340183"><ele>135.0</ele><time>2026-04-18T08:01:44.012Z</time></trkpt><trkpt lat="43.5776817" lon="11.5340683"><ele>135.5</ele><time>2026-04-18T08:01:45.009Z</time></trkpt><trkpt lat="43.577635" lon="11.534135"><ele>136.0</ele><time>2026-04-18T08:01:46.009Z</time></trkpt><trkpt lat="43.5775983" lon="11.5342167"><ele>135.99999999999997</ele><time>2026-04-18T08:01:47.01Z</time></trkpt><trkpt lat="43.5775717" lon="11.534305"><ele>136.0</ele><time>2026-04-18T08:01:48.01Z</time></trkpt><trkpt lat="43.5775533" lon="11.5343917"><ele>136.0</ele><time>2026-04-18T08:01:49.011Z</time></trkpt><trkpt lat="43.5775333" lon="11.53449"><ele>136.0</ele><time>2026-04-18T08:01:50.011Z</time></trkpt><trkpt lat="43.5775" lon="11.5345833"><ele>136.0</ele><time>2026-04-18T08:01:51.008Z</time></trkpt><trkpt lat="43.577455" lon="11.534665"><ele>135.99999999999997</ele><time>2026-04-18T08:01:52.009Z</time></trkpt><trkpt lat="43.5774033" lon="11.534735"><ele>136.0</ele><time>2026-04-18T08:01:53.011Z</time></trkpt><trkpt lat="43.5773517" lon="11.534805"><ele>135.99999999999997</ele><time>2026-04-18T08:01:54.01Z</time></trkpt><trkpt lat="43.5772983" lon="11.53487"><ele>136.0</ele><time>2026-04-18T08:01:55.009Z</time></trkpt><trkpt lat="43.577245" lon="11.534935"><ele>136.0</ele><time>2026-04-18T08:01:56.011Z</time></trkpt><trkpt lat="43.57719" lon="11.5350033"><ele>136.0</ele><time>2026-04-18T08:01:57.01Z</time></trkpt><trkpt lat="43.577135" lon="11.5350733"><ele>136.0</ele><time>2026-04-18T08:01:58.009Z</time></trkpt><trkpt lat="43.57708" lon="11.53514"><ele>135.99999999999997</ele><time>2026-04-18T08:01:59.011Z</time></trkpt><trkpt lat="43.5770233" lon="11.535205"><ele>136.0</ele><time>2026-04-18T08:02:00.01Z</time></trkpt><trkpt lat="43.5769667" lon="11.53527"><ele>135.85714285714283</ele><time>2026-04-18T08:02:01.01Z</time></trkpt><trkpt lat="43.5769133" lon="11.5353267"><ele>135.71428571428572</ele><time>2026-04-18T08:02:02.01Z</time></trkpt><trkpt lat="43.57686" lon="11.5353867"><ele>135.57142857142856</ele><time>2026-04-18T08:02:03.01Z</time></trkpt><trkpt lat="43.5768067" lon="11.5354433"><ele>135.42857142857142</ele><time>2026-04-18T08:02:04.01Z</time></trkpt><trkpt lat="43.576755" lon="11.5355"><ele>135.28571428571428</ele><time>2026-04-18T08:02:05.009Z</time></trkpt><trkpt lat="43.5767067" lon="11.53556"><ele>135.14285714285714</ele><time>2026-04-18T08:02:06.01Z</time></trkpt><trkpt lat="43.57666" lon="11.5356183"><ele>135.0</ele><time>2026-04-18T08:02:07.009Z</time></trkpt><trkpt lat="43.5766083" lon="11.53568"><ele>135.0</ele><time>2026-04-18T08:02:08.012Z</time></trkpt><trkpt lat="43.5765583" lon="11.5357417"><ele>135.0</ele><time>2026-04-18T08:02:09.01Z</time></trkpt><trkpt lat="43.5765033" lon="11.5358"><ele>135.0</ele><time>2026-04-18T08:02:10.012Z</time></trkpt><trkpt lat="43.5764517" lon="11.53586"><ele>135.0</ele><time>2026-04-18T08:02:11.011Z</time></trkpt><trkpt lat="43.5763567" lon="11.5359717"><ele>135.0</ele><time>2026-04-18T08:02:13.01Z</time></trkpt><trkpt lat="43.5763067" lon="11.5360283"><ele>135.0</ele><time>2026-04-18T08:02:14.011Z</time></trkpt><trkpt lat="43.5762533" lon="11.5360867"><ele>135.0</ele><time>2026-04-18T08:02:15.009Z</time></trkpt><trkpt lat="43.576195" lon="11.53615"><ele>135.0</ele><time>2026-04-18T08:02:16.009Z</time></trkpt><trkpt lat="43.57614" lon="11.5362167"><ele>135.0</ele><time>2026-04-18T08:02:17.011Z</time></trkpt><trkpt lat="43.5760833" lon="11.536285"><ele>135.0</ele><time>2026-04-18T08:02:18.009Z</time></trkpt><trkpt lat="43.5760267" lon="11.5363517"><ele>135.0</ele><time>2026-04-18T08:02:19.01Z</time></trkpt><trkpt lat="43.57597" lon="11.5364217"><ele>135.0</ele><time>2026-04-18T08:02:20.009Z</time></trkpt><trkpt lat="43.57591" lon="11.5364917"><ele>135.66666666666666</ele><time>2026-04-18T08:02:21.007Z</time></trkpt><trkpt lat="43.57585" lon="11.5365617"><ele>136.33333333333334</ele><time>2026-04-18T08:02:22.009Z</time></trkpt><trkpt lat="43.5757883" lon="11.5366317"><ele>137.0</ele><time>2026-04-18T08:02:23.011Z</time></trkpt><trkpt lat="43.575725" lon="11.5367033"><ele>137.66666666666669</ele><time>2026-04-18T08:02:24.01Z</time></trkpt><trkpt lat="43.5756617" lon="11.5367783"><ele>138.33333333333334</ele><time>2026-04-18T08:02:25.01Z</time></trkpt><trkpt lat="43.575595" lon="11.5368533"><ele>139.0</ele><time>2026-04-18T08:02:26.009Z</time></trkpt><trkpt lat="43.57553" lon="11.5369333"><ele>139.0</ele><time>2026-04-18T08:02:27.009Z</time></trkpt><trkpt lat="43.5754633" lon="11.5370133"><ele>139.0</ele><time>2026-04-18T08:02:28.012Z</time></trkpt><trkpt lat="43.5753983" lon="11.53709"><ele>139.0</ele><time>2026-04-18T08:02:29.011Z</time></trkpt><trkpt lat="43.5753333" lon="11.537165"><ele>139.0</ele><time>2026-04-18T08:02:30.01Z</time></trkpt><trkpt lat="43.575265" lon="11.5372433"><ele>139.0</ele><time>2026-04-18T08:02:31.008Z</time></trkpt><trkpt lat="43.5752" lon="11.53732"><ele>139.0</ele><time>2026-04-18T08:02:32.011Z</time></trkpt><trkpt lat="43.5751317" lon="11.5373917"><ele>139.0</ele><time>2026-04-18T08:02:33.01Z</time></trkpt><trkpt lat="43.575065" lon="11.5374667"><ele>139.0</ele><time>2026-04-18T08:02:34.009Z</time></trkpt><trkpt lat="43.5749983" lon="11.5375433"><ele>139.0</ele><time>2026-04-18T08:02:35.009Z</time></trkpt><trkpt lat="43.5749317" lon="11.5376233"><ele>139.0</ele><time>2026-04-18T08:02:36.009Z</time></trkpt><trkpt lat="43.5748617" lon="11.5377033"><ele>139.0</ele><time>2026-04-18T08:02:37.008Z</time></trkpt><trkpt lat="43.574795" lon="11.53778"><ele>139.0</ele><time>2026-04-18T08:02:38.008Z</time></trkpt><trkpt lat="43.5747267" lon="11.5378567"><ele>139.5</ele><time>2026-04-18T08:02:39.011Z</time></trkpt><trkpt lat="43.5746583" lon="11.537935"><ele>140.0</ele><time>2026-04-18T08:02:40.012Z</time></trkpt><trkpt lat="43.5745933" lon="11.5380167"><ele>140.5</ele><time>2026-04-18T08:02:41.009Z</time></trkpt><trkpt lat="43.57453" lon="11.5380967"><ele>141.0</ele><time>2026-04-18T08:02:42.009Z</time></trkpt><trkpt lat="43.5744683" lon="11.5381783"><ele>141.5</ele><time>2026-04-18T08:02:43.011Z</time></trkpt><trkpt lat="43.5744083" lon="11.5382583"><ele>142.0</ele><time>2026-04-18T08:02:44.01Z</time></trkpt><trkpt lat="43.5743467" lon="11.5383367"><ele>141.0</ele><time>2026-04-18T08:02:45.01Z</time></trkpt><trkpt lat="43.5742817" lon="11.5384133"><ele>140.0</ele><time>2026-04-18T08:02:46.01Z</time></trkpt><trkpt lat="43.5742183" lon="11.5384883"><ele>139.0</ele><time>2026-04-18T08:02:47.01Z</time></trkpt><trkpt lat="43.5741533" lon="11.538565"><ele>138.0</ele><time>2026-04-18T08:02:48.01Z</time></trkpt><trkpt lat="43.574085" lon="11.5386417"><ele>137.0</ele><time>2026-04-18T08:02:49.01Z</time></trkpt><trkpt lat="43.57402" lon="11.5387133"><ele>136.0</ele><time>2026-04-18T08:02:50.012Z</time></trkpt><trkpt lat="43.5739517" lon="11.5387867"><ele>136.0</ele><time>2026-04-18T08:02:51.01Z</time></trkpt><trkpt lat="43.57389" lon="11.5388683"><ele>136.0</ele><time>2026-04-18T08:02:52.01Z</time></trkpt><trkpt lat="43.5738317" lon="11.53895"><ele>136.0</ele><time>2026-04-18T08:02:53.01Z</time></trkpt><trkpt lat="43.57377" lon="11.53903"><ele>136.0</ele><time>2026-04-18T08:02:54.01Z</time></trkpt><trkpt lat="43.5737067" lon="11.5391067"><ele>136.0</ele><time>2026-04-18T08:02:55.012Z</time></trkpt><trkpt lat="43.573645" lon="11.5391817"><ele>136.0</ele><time>2026-04-18T08:02:56.011Z</time></trkpt><trkpt lat="43.5735817" lon="11.53926"><ele>135.83333333333334</ele><time>2026-04-18T08:02:57.011Z</time></trkpt><trkpt lat="43.57352" lon="11.5393367"><ele>135.66666666666669</ele><time>2026-04-18T08:02:58.011Z</time></trkpt><trkpt lat="43.5734583" lon="11.5394133"><ele>135.5</ele><time>2026-04-18T08:02:59.009Z</time></trkpt><trkpt lat="43.5734" lon="11.5394933"><ele>135.33333333333334</ele><time>2026-04-18T08:03:00.011Z</time></trkpt><trkpt lat="43.5733333" lon="11.5395733"><ele>135.16666666666666</ele><time>2026-04-18T08:03:01.011Z</time></trkpt><trkpt lat="43.5732667" lon="11.539655"><ele>135.0</ele><time>2026-04-18T08:03:02.012Z</time></trkpt><trkpt lat="43.5732" lon="11.5397367"><ele>135.0</ele><time>2026-04-18T08:03:03.01Z</time></trkpt><trkpt lat="43.5731367" lon="11.5398167"><ele>135.0</ele><time>2026-04-18T08:03:04.01Z</time></trkpt><trkpt lat="43.5730667" lon="11.5399"><ele>135.0</ele><time>2026-04-18T08:03:05.01Z</time></trkpt><trkpt lat="43.5729983" lon="11.5399867"><ele>135.0</ele><time>2026-04-18T08:03:06.01Z</time></trkpt><trkpt lat="43.5729333" lon="11.5400767"><ele>135.0</ele><time>2026-04-18T08:03:07.011Z</time></trkpt><trkpt lat="43.572875" lon="11.5401717"><ele>135.0</ele><time>2026-04-18T08:03:08.01Z</time></trkpt><trkpt lat="43.5728133" lon="11.5402667"><ele>135.0</ele><time>2026-04-18T08:03:09.009Z</time></trkpt><trkpt lat="43.5727583" lon="11.54035"><ele>135.0</ele><time>2026-04-18T08:03:10.007Z</time></trkpt><trkpt lat="43.5727033" lon="11.5404317"><ele>135.0</ele><time>2026-04-18T08:03:11.012Z</time></trkpt><trkpt lat="43.5726533" lon="11.5405133"><ele>135.0</ele><time>2026-04-18T08:03:12.01Z</time></trkpt><trkpt lat="43.572605" lon="11.540595"><ele>135.0</ele><time>2026-04-18T08:03:13.009Z</time></trkpt><trkpt lat="43.572555" lon="11.54069"><ele>135.0</ele><time>2026-04-18T08:03:14.01Z</time></trkpt><trkpt lat="43.572495" lon="11.54077"><ele>135.0</ele><time>2026-04-18T08:03:15.009Z</time></trkpt><trkpt lat="43.5724383" lon="11.5408583"><ele>135.0</ele><time>2026-04-18T08:03:16.008Z</time></trkpt><trkpt lat="43.5723783" lon="11.540945"><ele>135.0</ele><time>2026-04-18T08:03:17.011Z</time></trkpt><trkpt lat="43.5723183" lon="11.5410267"><ele>135.0</ele><time>2026-04-18T08:03:18.01Z</time></trkpt><trkpt lat="43.57226" lon="11.5411083"><ele>135.0</ele><time>2026-04-18T08:03:19.009Z</time></trkpt><trkpt lat="43.5721967" lon="11.54119"><ele>135.33333333333334</ele><time>2026-04-18T08:03:20.009Z</time></trkpt><trkpt lat="43.5721317" lon="11.5412717"><ele>135.66666666666666</ele><time>2026-04-18T08:03:21.009Z</time></trkpt><trkpt lat="43.572065" lon="11.54135"><ele>136.0</ele><time>2026-04-18T08:03:22.009Z</time></trkpt><trkpt lat="43.572" lon="11.5414233"><ele>136.33333333333331</ele><time>2026-04-18T08:03:23.01Z</time></trkpt><trkpt lat="43.5719367" lon="11.54149"><ele>136.66666666666666</ele><time>2026-04-18T08:03:24.009Z</time></trkpt><trkpt lat="43.5718717" lon="11.541555"><ele>137.0</ele><time>2026-04-18T08:03:25.009Z</time></trkpt><trkpt lat="43.571805" lon="11.5416183"><ele>137.0</ele><time>2026-04-18T08:03:26.009Z</time></trkpt><trkpt lat="43.5717367" lon="11.5416783"><ele>137.0</ele><time>2026-04-18T08:03:27.009Z</time></trkpt><trkpt lat="43.5716667" lon="11.5417367"><ele>137.0</ele><time>2026-04-18T08:03:28.01Z</time></trkpt><trkpt lat="43.5716" lon="11.5417967"><ele>137.0</ele><time>2026-04-18T08:03:29.01Z</time></trkpt><trkpt lat="43.571535" lon="11.54186"><ele>137.0</ele><time>2026-04-18T08:03:30.009Z</time></trkpt><trkpt lat="43.5714683" lon="11.5419217"><ele>137.0</ele><time>2026-04-18T08:03:31.009Z</time></trkpt><trkpt lat="43.5714033" lon="11.5419817"><ele>137.0</ele><time>2026-04-18T08:03:32.01Z</time></trkpt><trkpt lat="43.5713367" lon="11.5420433"><ele>137.0</ele><time>2026-04-18T08:03:33.008Z</time></trkpt><trkpt lat="43.5712733" lon="11.5421033"><ele>137.0</ele><time>2026-04-18T08:03:34.009Z</time></trkpt><trkpt lat="43.5712067" lon="11.542165"><ele>137.0</ele><time>2026-04-18T08:03:35.009Z</time></trkpt><trkpt lat="43.57114" lon="11.5422317"><ele>137.0</ele><time>2026-04-18T08:03:36.009Z</time></trkpt><trkpt lat="43.571075" lon="11.5422983"><ele>137.0</ele><time>2026-04-18T08:03:37.009Z</time></trkpt><trkpt lat="43.5710017" lon="11.5423667"><ele>137.16666666666666</ele><time>2026-04-18T08:03:38.009Z</time></trkpt><trkpt lat="43.5709333" lon="11.542435"><ele>137.33333333333331</ele><time>2026-04-18T08:03:39.009Z</time></trkpt><trkpt lat="43.5708667" lon="11.5425067"><ele>137.5</ele><time>2026-04-18T08:03:40.008Z</time></trkpt><trkpt lat="43.5707967" lon="11.5425767"><ele>137.66666666666666</ele><time>2026-04-18T08:03:41.008Z</time></trkpt><trkpt lat="43.5707267" lon="11.5426467"><ele>137.83333333333334</ele><time>2026-04-18T08:03:42.009Z</time></trkpt><trkpt lat="43.5706583" lon="11.542715"><ele>138.0</ele><time>2026-04-18T08:03:43.009Z</time></trkpt><trkpt lat="43.57059" lon="11.5427867"><ele>138.0</ele><time>2026-04-18T08:03:44.008Z</time></trkpt><trkpt lat="43.570525" lon="11.5428567"><ele>138.0</ele><time>2026-04-18T08:03:45.009Z</time></trkpt><trkpt lat="43.5704583" lon="11.5429183"><ele>138.0</ele><time>2026-04-18T08:03:46.008Z</time></trkpt><trkpt lat="43.57039" lon="11.542975"><ele>138.0</ele><time>2026-04-18T08:03:47.009Z</time></trkpt><trkpt lat="43.570315" lon="11.543025"><ele>138.0</ele><time>2026-04-18T08:03:48.008Z</time></trkpt><trkpt lat="43.5702317" lon="11.543065"><ele>138.0</ele><time>2026-04-18T08:03:49.008Z</time></trkpt><trkpt lat="43.5701517" lon="11.5430933"><ele>137.66666666666666</ele><time>2026-04-18T08:03:50.012Z</time></trkpt><trkpt lat="43.5700717" lon="11.5431083"><ele>137.33333333333334</ele><time>2026-04-18T08:03:51.009Z</time></trkpt><trkpt lat="43.5699833" lon="11.5431133"><ele>137.0</ele><time>2026-04-18T08:03:52.008Z</time></trkpt><trkpt lat="43.5698967" lon="11.5431117"><ele>136.66666666666669</ele><time>2026-04-18T08:03:53.009Z</time></trkpt><trkpt lat="43.5698083" lon="11.5430983"><ele>136.33333333333334</ele><time>2026-04-18T08:03:54.009Z</time></trkpt><trkpt lat="43.5697217" lon="11.543075"><ele>136.0</ele><time>2026-04-18T08:03:55.009Z</time></trkpt><trkpt lat="43.5696433" lon="11.54306"><ele>135.99999999999997</ele><time>2026-04-18T08:03:56.009Z</time></trkpt><trkpt lat="43.5695733" lon="11.5430367"><ele>136.0</ele><time>2026-04-18T08:03:57.008Z</time></trkpt><trkpt lat="43.5695067" lon="11.543015"><ele>136.0</ele><time>2026-04-18T08:03:58.009Z</time></trkpt><trkpt lat="43.5694433" lon="11.5429933"><ele>136.0</ele><time>2026-04-18T08:03:59.009Z</time></trkpt><trkpt lat="43.56938" lon="11.54297"><ele>136.0</ele><time>2026-04-18T08:04:00.008Z</time></trkpt><trkpt lat="43.5693167" lon="11.5429517"><ele>135.99999999999997</ele><time>2026-04-18T08:04:01.01Z</time></trkpt><trkpt lat="43.5692533" lon="11.5429367"><ele>136.0</ele><time>2026-04-18T08:04:02.012Z</time></trkpt><trkpt lat="43.569135" lon="11.54292"><ele>136.4</ele><time>2026-04-18T08:04:04.01Z</time></trkpt><trkpt lat="43.56903" lon="11.5429117"><ele>136.8</ele><time>2026-04-18T08:04:06.008Z</time></trkpt><trkpt lat="43.5689183" lon="11.5429133"><ele>137.20000000000002</ele><time>2026-04-18T08:04:08.01Z</time></trkpt><trkpt lat="43.568805" lon="11.542925"><ele>137.6</ele><time>2026-04-18T08:04:10.008Z</time></trkpt><trkpt lat="43.5686967" lon="11.5429433"><ele>138.0</ele><time>2026-04-18T08:04:12.01Z</time></trkpt><trkpt lat="43.5685917" lon="11.5429717"><ele>138.0</ele><time>2026-04-18T08:04:14.01Z</time></trkpt><trkpt lat="43.56848" lon="11.5430083"><ele>138.0</ele><time>2026-04-18T08:04:16.009Z</time></trkpt><trkpt lat="43.5684183" lon="11.5430283"><ele>138.0</ele><time>2026-04-18T08:04:17.009Z</time></trkpt><trkpt lat="43.5683017" lon="11.5430667"><ele>138.0</ele><time>2026-04-18T08:04:19.008Z</time></trkpt><trkpt lat="43.5682383" lon="11.543085"><ele>138.0</ele><time>2026-04-18T08:04:20.009Z</time></trkpt><trkpt lat="43.5681733" lon="11.543105"><ele>138.0</ele><time>2026-04-18T08:04:21.009Z</time></trkpt><trkpt lat="43.5680467" lon="11.5431383"><ele>138.0</ele><time>2026-04-18T08:04:23.008Z</time></trkpt><trkpt lat="43.567975" lon="11.5431583"><ele>138.0</ele><time>2026-04-18T08:04:24.009Z</time></trkpt><trkpt lat="43.5679017" lon="11.5431767"><ele>138.0</ele><time>2026-04-18T08:04:25.008Z</time></trkpt><trkpt lat="43.56783" lon="11.543195"><ele>138.0</ele><time>2026-04-18T08:04:26.01Z</time></trkpt><trkpt lat="43.5677617" lon="11.54321"><ele>138.0</ele><time>2026-04-18T08:04:27.009Z</time></trkpt><trkpt lat="43.5676917" lon="11.5432233"><ele>138.0</ele><time>2026-04-18T08:04:28.01Z</time></trkpt><trkpt lat="43.5676183" lon="11.5432367"><ele>138.0</ele><time>2026-04-18T08:04:29.009Z</time></trkpt><trkpt lat="43.5675433" lon="11.5432433"><ele>138.5</ele><time>2026-04-18T08:04:30.009Z</time></trkpt><trkpt lat="43.5674683" lon="11.5432467"><ele>139.0</ele><time>2026-04-18T08:04:31.009Z</time></trkpt><trkpt lat="43.5673933" lon="11.5432483"><ele>139.5</ele><time>2026-04-18T08:04:32.011Z</time></trkpt><trkpt lat="43.56732" lon="11.54325"><ele>140.0</ele><time>2026-04-18T08:04:33.009Z</time></trkpt><trkpt lat="43.567245" lon="11.5432483"><ele>140.5</ele><time>2026-04-18T08:04:34.009Z</time></trkpt><trkpt lat="43.5671683" lon="11.543245"><ele>141.0</ele><time>2026-04-18T08:04:35.009Z</time></trkpt><trkpt lat="43.56709" lon="11.5432383"><ele>141.66666666666666</ele><time>2026-04-18T08:04:36.01Z</time></trkpt><trkpt lat="43.5670133" lon="11.5432333"><ele>142.33333333333334</ele><time>2026-04-18T08:04:37.009Z</time></trkpt><trkpt lat="43.5669367" lon="11.543225"><ele>143.0</ele><time>2026-04-18T08:04:38.009Z</time></trkpt><trkpt lat="43.5668633" lon="11.5432183"><ele>143.66666666666669</ele><time>2026-04-18T08:04:39.01Z</time></trkpt><trkpt lat="43.5667883" lon="11.54321"><ele>144.33333333333334</ele><time>2026-04-18T08:04:40.009Z</time></trkpt><trkpt lat="43.5667117" lon="11.5431983"><ele>145.0</ele><time>2026-04-18T08:04:41.008Z</time></trkpt><trkpt lat="43.5666383" lon="11.543185"><ele>145.0</ele><time>2026-04-18T08:04:42.01Z</time></trkpt><trkpt lat="43.5665567" lon="11.5431767"><ele>145.0</ele><time>2026-04-18T08:04:43.009Z</time></trkpt><trkpt lat="43.566475" lon="11.543165"><ele>145.0</ele><time>2026-04-18T08:04:44.014Z</time></trkpt><trkpt lat="43.5663983" lon="11.543155"><ele>145.0</ele><time>2026-04-18T08:04:45.009Z</time></trkpt><trkpt lat="43.5663167" lon="11.543145"><ele>145.0</ele><time>2026-04-18T08:04:46.009Z</time></trkpt><trkpt lat="43.566235" lon="11.5431367"><ele>145.0</ele><time>2026-04-18T08:04:47.01Z</time></trkpt><trkpt lat="43.5661517" lon="11.5431283"><ele>144.66666666666669</ele><time>2026-04-18T08:04:48.009Z</time></trkpt><trkpt lat="43.566065" lon="11.54312"><ele>144.33333333333334</ele><time>2026-04-18T08:04:49.011Z</time></trkpt><trkpt lat="43.5659783" lon="11.5431117"><ele>144.0</ele><time>2026-04-18T08:04:50.009Z</time></trkpt><trkpt lat="43.5658933" lon="11.5431"><ele>143.66666666666666</ele><time>2026-04-18T08:04:51.01Z</time></trkpt><trkpt lat="43.5658083" lon="11.5430917"><ele>143.33333333333331</ele><time>2026-04-18T08:04:52.009Z</time></trkpt><trkpt lat="43.56572" lon="11.5430833"><ele>143.0</ele><time>2026-04-18T08:04:53.01Z</time></trkpt><trkpt lat="43.565635" lon="11.54307"><ele>143.0</ele><time>2026-04-18T08:04:54.009Z</time></trkpt><trkpt lat="43.5655467" lon="11.54306"><ele>143.0</ele><time>2026-04-18T08:04:55.009Z</time></trkpt><trkpt lat="43.5654583" lon="11.5430483"><ele>143.0</ele><time>2026-04-18T08:04:56.013Z</time></trkpt><trkpt lat="43.565365" lon="11.5430367"><ele>143.0</ele><time>2026-04-18T08:04:57.011Z</time></trkpt><trkpt lat="43.565275" lon="11.5430267"><ele>143.0</ele><time>2026-04-18T08:04:58.011Z</time></trkpt><trkpt lat="43.5651867" lon="11.543015"><ele>142.0</ele><time>2026-04-18T08:04:59.009Z</time></trkpt><trkpt lat="43.5651017" lon="11.5430033"><ele>141.0</ele><time>2026-04-18T08:05:00.009Z</time></trkpt><trkpt lat="43.5650067" lon="11.5429967"><ele>140.0</ele><time>2026-04-18T08:05:01.009Z</time></trkpt><trkpt lat="43.5649133" lon="11.54299"><ele>139.0</ele><time>2026-04-18T08:05:02.01Z</time></trkpt><trkpt lat="43.5648167" lon="11.5429817"><ele>138.0</ele><time>2026-04-18T08:05:03.01Z</time></trkpt><trkpt lat="43.5647233" lon="11.5429767"><ele>138.0</ele><time>2026-04-18T08:05:04.01Z</time></trkpt><trkpt lat="43.56463" lon="11.542975"><ele>138.0</ele><time>2026-04-18T08:05:05.009Z</time></trkpt><trkpt lat="43.5645317" lon="11.5429733"><ele>138.0</ele><time>2026-04-18T08:05:06.009Z</time></trkpt><trkpt lat="43.5644367" lon="11.54297"><ele>138.0</ele><time>2026-04-18T08:05:07.01Z</time></trkpt><trkpt lat="43.5643417" lon="11.54297"><ele>138.0</ele><time>2026-04-18T08:05:08.01Z</time></trkpt><trkpt lat="43.5642483" lon="11.5429683"><ele>137.8</ele><time>2026-04-18T08:05:09.011Z</time></trkpt><trkpt lat="43.564155" lon="11.542965"><ele>137.60000000000002</ele><time>2026-04-18T08:05:10.01Z</time></trkpt><trkpt lat="43.5640633" lon="11.5429667"><ele>137.39999999999998</ele><time>2026-04-18T08:05:11.01Z</time></trkpt><trkpt lat="43.5639683" lon="11.54297"><ele>137.2</ele><time>2026-04-18T08:05:12.009Z</time></trkpt><trkpt lat="43.563875" lon="11.5429767"><ele>137.0</ele><time>2026-04-18T08:05:13.01Z</time></trkpt><trkpt lat="43.563785" lon="11.5429817"><ele>137.0</ele><time>2026-04-18T08:05:14.011Z</time></trkpt><trkpt lat="43.563695" lon="11.5429817"><ele>137.0</ele><time>2026-04-18T08:05:15.01Z</time></trkpt><trkpt lat="43.5636017" lon="11.54297"><ele>137.0</ele><time>2026-04-18T08:05:16.01Z</time></trkpt><trkpt lat="43.5635133" lon="11.5429533"><ele>137.0</ele><time>2026-04-18T08:05:17.011Z</time></trkpt><trkpt lat="43.5634283" lon="11.542945"><ele>137.0</ele><time>2026-04-18T08:05:18.009Z</time></trkpt><trkpt lat="43.5633433" lon="11.542945"><ele>137.0</ele><time>2026-04-18T08:05:19.009Z</time></trkpt><trkpt lat="43.5632567" lon="11.5429533"><ele>137.0</ele><time>2026-04-18T08:05:20.011Z</time></trkpt><trkpt lat="43.5631733" lon="11.5429567"><ele>137.0</ele><time>2026-04-18T08:05:21.009Z</time></trkpt><trkpt lat="43.5630883" lon="11.542945"><ele>137.0</ele><time>2026-04-18T08:05:22.008Z</time></trkpt><trkpt lat="43.5630067" lon="11.5429233"><ele>137.0</ele><time>2026-04-18T08:05:23.009Z</time></trkpt><trkpt lat="43.56293" lon="11.5429"><ele>137.0</ele><time>2026-04-18T08:05:24.01Z</time></trkpt><trkpt lat="43.5628483" lon="11.54288"><ele>137.0</ele><time>2026-04-18T08:05:25.01Z</time></trkpt><trkpt lat="43.56277" lon="11.54286"><ele>136.66666666666666</ele><time>2026-04-18T08:05:26.009Z</time></trkpt><trkpt lat="43.56269" lon="11.54284"><ele>136.33333333333331</ele><time>2026-04-18T08:05:27.011Z</time></trkpt><trkpt lat="43.5626067" lon="11.5428183"><ele>136.0</ele><time>2026-04-18T08:05:28.009Z</time></trkpt><trkpt lat="43.562525" lon="11.5427983"><ele>135.66666666666666</ele><time>2026-04-18T08:05:29.01Z</time></trkpt><trkpt lat="43.562445" lon="11.54278"><ele>135.33333333333334</ele><time>2026-04-18T08:05:30.009Z</time></trkpt><trkpt lat="43.5623567" lon="11.5427683"><ele>135.0</ele><time>2026-04-18T08:05:31.009Z</time></trkpt><trkpt lat="43.5622767" lon="11.5427583"><ele>135.0</ele><time>2026-04-18T08:05:32.011Z</time></trkpt><trkpt lat="43.562195" lon="11.54275"><ele>135.0</ele><time>2026-04-18T08:05:33.009Z</time></trkpt><trkpt lat="43.5621133" lon="11.54274"><ele>135.0</ele><time>2026-04-18T08:05:34.012Z</time></trkpt><trkpt lat="43.5620283" lon="11.54273"><ele>135.0</ele><time>2026-04-18T08:05:35.009Z</time></trkpt><trkpt lat="43.561945" lon="11.54272"><ele>135.0</ele><time>2026-04-18T08:05:36.011Z</time></trkpt><trkpt lat="43.5618683" lon="11.54271"><ele>135.0</ele><time>2026-04-18T08:05:37.009Z</time></trkpt><trkpt lat="43.5617917" lon="11.5426967"><ele>135.0</ele><time>2026-04-18T08:05:38.01Z</time></trkpt><trkpt lat="43.5617117" lon="11.542685"><ele>135.0</ele><time>2026-04-18T08:05:39.01Z</time></trkpt><trkpt lat="43.561625" lon="11.5426733"><ele>135.0</ele><time>2026-04-18T08:05:40.009Z</time></trkpt><trkpt lat="43.56154" lon="11.5426617"><ele>135.0</ele><time>2026-04-18T08:05:41.011Z</time></trkpt><trkpt lat="43.5614567" lon="11.54265"><ele>135.0</ele><time>2026-04-18T08:05:42.01Z</time></trkpt><trkpt lat="43.561375" lon="11.5426383"><ele>135.0</ele><time>2026-04-18T08:05:43.009Z</time></trkpt><trkpt lat="43.5612883" lon="11.542625"><ele>135.0</ele><time>2026-04-18T08:05:44.011Z</time></trkpt><trkpt lat="43.5612033" lon="11.5426133"><ele>135.0</ele><time>2026-04-18T08:05:45.012Z</time></trkpt><trkpt lat="43.5611183" lon="11.5426017"><ele>135.0</ele><time>2026-04-18T08:05:46.01Z</time></trkpt><trkpt lat="43.5610283" lon="11.5425917"><ele>135.0</ele><time>2026-04-18T08:05:47.01Z</time></trkpt><trkpt lat="43.5609433" lon="11.5425817"><ele>135.0</ele><time>2026-04-18T08:05:48.008Z</time></trkpt><trkpt lat="43.5608583" lon="11.5425733"><ele>135.0</ele><time>2026-04-18T08:05:49.01Z</time></trkpt><trkpt lat="43.5607733" lon="11.542565"><ele>135.0</ele><time>2026-04-18T08:05:50.01Z</time></trkpt><trkpt lat="43.560685" lon="11.54256"><ele>135.0</ele><time>2026-04-18T08:05:51.008Z</time></trkpt><trkpt lat="43.5605917" lon="11.5425533"><ele>135.0</ele><time>2026-04-18T08:05:52.01Z</time></trkpt><trkpt lat="43.5604983" lon="11.5425467"><ele>135.0</ele><time>2026-04-18T08:05:53.01Z</time></trkpt><trkpt lat="43.5604067" lon="11.5425417"><ele>135.0</ele><time>2026-04-18T08:05:54.011Z</time></trkpt><trkpt lat="43.5603217" lon="11.5425333"><ele>135.0</ele><time>2026-04-18T08:05:55.009Z</time></trkpt><trkpt lat="43.5602383" lon="11.5425217"><ele>135.0</ele><time>2026-04-18T08:05:56.01Z</time></trkpt><trkpt lat="43.560155" lon="11.5425133"><ele>135.0</ele><time>2026-04-18T08:05:57.009Z</time></trkpt><trkpt lat="43.56007" lon="11.54251"><ele>135.0</ele><time>2026-04-18T08:05:58.01Z</time></trkpt><trkpt lat="43.559985" lon="11.5425083"><ele>135.0</ele><time>2026-04-18T08:05:59.009Z</time></trkpt><trkpt lat="43.5599017" lon="11.5425067"><ele>135.0</ele><time>2026-04-18T08:06:00.01Z</time></trkpt><trkpt lat="43.55982" lon="11.54251"><ele>135.0</ele><time>2026-04-18T08:06:01.01Z</time></trkpt><trkpt lat="43.5597433" lon="11.5425183"><ele>135.0</ele><time>2026-04-18T08:06:02.012Z</time></trkpt><trkpt lat="43.5596667" lon="11.542525"><ele>135.0</ele><time>2026-04-18T08:06:03.009Z</time></trkpt><trkpt lat="43.5595833" lon="11.5425333"><ele>135.0</ele><time>2026-04-18T08:06:04.009Z</time></trkpt><trkpt lat="43.5595017" lon="11.5425417"><ele>135.0</ele><time>2026-04-18T08:06:05.01Z</time></trkpt><trkpt lat="43.5594267" lon="11.5425517"><ele>135.0</ele><time>2026-04-18T08:06:06.009Z</time></trkpt><trkpt lat="43.5593517" lon="11.542565"><ele>135.28571428571428</ele><time>2026-04-18T08:06:07.009Z</time></trkpt><trkpt lat="43.55928" lon="11.5425817"><ele>135.57142857142856</ele><time>2026-04-18T08:06:08.012Z</time></trkpt><trkpt lat="43.5592067" lon="11.5426017"><ele>135.85714285714286</ele><time>2026-04-18T08:06:09.012Z</time></trkpt><trkpt lat="43.559135" lon="11.5426233"><ele>136.14285714285714</ele><time>2026-04-18T08:06:10.008Z</time></trkpt><trkpt lat="43.55906" lon="11.54265"><ele>136.42857142857144</ele><time>2026-04-18T08:06:11.01Z</time></trkpt><trkpt lat="43.5589883" lon="11.5426767"><ele>136.71428571428572</ele><time>2026-04-18T08:06:12.008Z</time></trkpt><trkpt lat="43.5589167" lon="11.542705"><ele>137.0</ele><time>2026-04-18T08:06:13.008Z</time></trkpt><trkpt lat="43.5588483" lon="11.542735"><ele>137.00000000000003</ele><time>2026-04-18T08:06:14.012Z</time></trkpt><trkpt lat="43.55878" lon="11.54277"><ele>137.0</ele><time>2026-04-18T08:06:15.009Z</time></trkpt><trkpt lat="43.5587167" lon="11.542805"><ele>137.0</ele><time>2026-04-18T08:06:16.01Z</time></trkpt><trkpt lat="43.5586583" lon="11.542845"><ele>137.0</ele><time>2026-04-18T08:06:17.011Z</time></trkpt><trkpt lat="43.558595" lon="11.5428867"><ele>137.0</ele><time>2026-04-18T08:06:18.01Z</time></trkpt><trkpt lat="43.5585333" lon="11.54293"><ele>137.00000000000003</ele><time>2026-04-18T08:06:19.009Z</time></trkpt><trkpt lat="43.5584733" lon="11.542975"><ele>137.0</ele><time>2026-04-18T08:06:20.009Z</time></trkpt><trkpt lat="43.5584183" lon="11.5430233"><ele>137.00000000000003</ele><time>2026-04-18T08:06:21.009Z</time></trkpt><trkpt lat="43.5583583" lon="11.5430683"><ele>137.0</ele><time>2026-04-18T08:06:22.01Z</time></trkpt><trkpt lat="43.5582983" lon="11.5431183"><ele>137.0</ele><time>2026-04-18T08:06:23.01Z</time></trkpt><trkpt lat="43.5582433" lon="11.5431683"><ele>137.0</ele><time>2026-04-18T08:06:24.009Z</time></trkpt><trkpt lat="43.5581883" lon="11.543225"><ele>137.0</ele><time>2026-04-18T08:06:25.008Z</time></trkpt><trkpt lat="43.5581333" lon="11.543285"><ele>137.00000000000003</ele><time>2026-04-18T08:06:26.011Z</time></trkpt><trkpt lat="43.55808" lon="11.5433483"><ele>137.0</ele><time>2026-04-18T08:06:27.013Z</time></trkpt><trkpt lat="43.5580283" lon="11.5434067"><ele>137.0</ele><time>2026-04-18T08:06:28.01Z</time></trkpt><trkpt lat="43.5579783" lon="11.5434633"><ele>137.0</ele><time>2026-04-18T08:06:29.009Z</time></trkpt><trkpt lat="43.5579283" lon="11.54352"><ele>137.0</ele><time>2026-04-18T08:06:30.009Z</time></trkpt><trkpt lat="43.55783" lon="11.5436317"><ele>137.0</ele><time>2026-04-18T08:06:32.011Z</time></trkpt><trkpt lat="43.5577817" lon="11.5436917"><ele>137.0</ele><time>2026-04-18T08:06:33.012Z</time></trkpt><trkpt lat="43.5577333" lon="11.543755"><ele>137.0</ele><time>2026-04-18T08:06:34.009Z</time></trkpt><trkpt lat="43.5576867" lon="11.5438183"><ele>137.42857142857144</ele><time>2026-04-18T08:06:35.01Z</time></trkpt><trkpt lat="43.5576367" lon="11.5438833"><ele>137.85714285714286</ele><time>2026-04-18T08:06:36.01Z</time></trkpt><trkpt lat="43.55759" lon="11.543945"><ele>138.28571428571428</ele><time>2026-04-18T08:06:37.011Z</time></trkpt><trkpt lat="43.5575433" lon="11.5440117"><ele>138.71428571428572</ele><time>2026-04-18T08:06:38.011Z</time></trkpt><trkpt lat="43.557495" lon="11.544075"><ele>139.14285714285714</ele><time>2026-04-18T08:06:39.011Z</time></trkpt><trkpt lat="43.5574467" lon="11.5441367"><ele>139.57142857142858</ele><time>2026-04-18T08:06:40.008Z</time></trkpt><trkpt lat="43.5573967" lon="11.5441983"><ele>140.0</ele><time>2026-04-18T08:06:41.011Z</time></trkpt><trkpt lat="43.557345" lon="11.5442633"><ele>140.0</ele><time>2026-04-18T08:06:42.009Z</time></trkpt><trkpt lat="43.5572967" lon="11.5443333"><ele>140.0</ele><time>2026-04-18T08:06:43.011Z</time></trkpt><trkpt lat="43.5572467" lon="11.5444"><ele>140.0</ele><time>2026-04-18T08:06:44.011Z</time></trkpt><trkpt lat="43.5571967" lon="11.5444683"><ele>140.0</ele><time>2026-04-18T08:06:45.01Z</time></trkpt><trkpt lat="43.5571433" lon="11.5445367"><ele>140.0</ele><time>2026-04-18T08:06:46.012Z</time></trkpt><trkpt lat="43.5570883" lon="11.5446067"><ele>140.0</ele><time>2026-04-18T08:06:47.008Z</time></trkpt><trkpt lat="43.5570367" lon="11.544675"><ele>140.0</ele><time>2026-04-18T08:06:48.011Z</time></trkpt><trkpt lat="43.556985" lon="11.54474"><ele>140.14285714285714</ele><time>2026-04-18T08:06:49.01Z</time></trkpt><trkpt lat="43.5569317" lon="11.5448117"><ele>140.28571428571428</ele><time>2026-04-18T08:06:50.01Z</time></trkpt><trkpt lat="43.5568783" lon="11.54488"><ele>140.42857142857144</ele><time>2026-04-18T08:06:51.009Z</time></trkpt><trkpt lat="43.5568267" lon="11.5449533"><ele>140.57142857142856</ele><time>2026-04-18T08:06:52.009Z</time></trkpt><trkpt lat="43.5567733" lon="11.5450283"><ele>140.71428571428572</ele><time>2026-04-18T08:06:53.009Z</time></trkpt><trkpt lat="43.5567217" lon="11.5451"><ele>140.85714285714286</ele><time>2026-04-18T08:06:54.011Z</time></trkpt><trkpt lat="43.55667" lon="11.5451733"><ele>141.0</ele><time>2026-04-18T08:06:55.009Z</time></trkpt><trkpt lat="43.556615" lon="11.54525"><ele>141.0</ele><time>2026-04-18T08:06:56.011Z</time></trkpt><trkpt lat="43.55656" lon="11.5453233"><ele>141.0</ele><time>2026-04-18T08:06:57.01Z</time></trkpt><trkpt lat="43.5565033" lon="11.5454033"><ele>141.0</ele><time>2026-04-18T08:06:58.012Z</time></trkpt><trkpt lat="43.55645" lon="11.545485"><ele>141.0</ele><time>2026-04-18T08:06:59.01Z</time></trkpt><trkpt lat="43.5564" lon="11.5455733"><ele>141.0</ele><time>2026-04-18T08:07:00.01Z</time></trkpt><trkpt lat="43.5563483" lon="11.545665"><ele>141.0</ele><time>2026-04-18T08:07:01.009Z</time></trkpt><trkpt lat="43.5562967" lon="11.545755"><ele>141.33333333333334</ele><time>2026-04-18T08:07:02.011Z</time></trkpt><trkpt lat="43.5562433" lon="11.5458467"><ele>141.66666666666666</ele><time>2026-04-18T08:07:03.011Z</time></trkpt><trkpt lat="43.5561883" lon="11.5459417"><ele>142.0</ele><time>2026-04-18T08:07:04.009Z</time></trkpt><trkpt lat="43.5561333" lon="11.5460367"><ele>142.33333333333331</ele><time>2026-04-18T08:07:05.01Z</time></trkpt><trkpt lat="43.5560767" lon="11.546135"><ele>142.66666666666666</ele><time>2026-04-18T08:07:06.009Z</time></trkpt><trkpt lat="43.55602" lon="11.5462383"><ele>143.0</ele><time>2026-04-18T08:07:07.01Z</time></trkpt><trkpt lat="43.5559633" lon="11.54634"><ele>143.0</ele><time>2026-04-18T08:07:08.011Z</time></trkpt><trkpt lat="43.5559067" lon="11.546445"><ele>143.0</ele><time>2026-04-18T08:07:09.01Z</time></trkpt><trkpt lat="43.5558483" lon="11.54655"><ele>143.0</ele><time>2026-04-18T08:07:10.012Z</time></trkpt><trkpt lat="43.5557917" lon="11.5466533"><ele>143.0</ele><time>2026-04-18T08:07:11.01Z</time></trkpt><trkpt lat="43.555735" lon="11.546755"><ele>143.0</ele><time>2026-04-18T08:07:12.011Z</time></trkpt><trkpt lat="43.5556767" lon="11.5468583"><ele>143.0</ele><time>2026-04-18T08:07:13.013Z</time></trkpt><trkpt lat="43.5556183" lon="11.5469633"><ele>143.0</ele><time>2026-04-18T08:07:14.01Z</time></trkpt><trkpt lat="43.55556" lon="11.54707"><ele>143.0</ele><time>2026-04-18T08:07:15.01Z</time></trkpt><trkpt lat="43.5555017" lon="11.5471967"><ele>143.0</ele><time>2026-04-18T08:07:16.01Z</time></trkpt><trkpt lat="43.555445" lon="11.5473017"><ele>143.0</ele><time>2026-04-18T08:07:17.01Z</time></trkpt><trkpt lat="43.5553883" lon="11.5474067"><ele>141.8</ele><time>2026-04-18T08:07:18.01Z</time></trkpt><trkpt lat="43.55533" lon="11.5475083"><ele>140.60000000000002</ele><time>2026-04-18T08:07:19.009Z</time></trkpt><trkpt lat="43.5552717" lon="11.5476183"><ele>139.39999999999998</ele><time>2026-04-18T08:07:20.011Z</time></trkpt><trkpt lat="43.5552133" lon="11.5477233"><ele>138.2</ele><time>2026-04-18T08:07:21.01Z</time></trkpt><trkpt lat="43.555155" lon="11.5478267"><ele>137.0</ele><time>2026-04-18T08:07:22.012Z</time></trkpt><trkpt lat="43.5550933" lon="11.54793"><ele>137.0</ele><time>2026-04-18T08:07:23.01Z</time></trkpt><trkpt lat="43.5550333" lon="11.5480333"><ele>137.0</ele><time>2026-04-18T08:07:24.012Z</time></trkpt><trkpt lat="43.5549733" lon="11.5481383"><ele>137.0</ele><time>2026-04-18T08:07:25.011Z</time></trkpt><trkpt lat="43.5549133" lon="11.548245"><ele>137.0</ele><time>2026-04-18T08:07:26.01Z</time></trkpt><trkpt lat="43.5548533" lon="11.54835"><ele>137.0</ele><time>2026-04-18T08:07:27.01Z</time></trkpt><trkpt lat="43.554795" lon="11.5484567"><ele>137.0</ele><time>2026-04-18T08:07:28.009Z</time></trkpt><trkpt lat="43.554735" lon="11.548565"><ele>137.0</ele><time>2026-04-18T08:07:29.011Z</time></trkpt><trkpt lat="43.5546767" lon="11.548665"><ele>137.0</ele><time>2026-04-18T08:07:30.011Z</time></trkpt><trkpt lat="43.5546183" lon="11.5487683"><ele>137.0</ele><time>2026-04-18T08:07:31.011Z</time></trkpt><trkpt lat="43.5545583" lon="11.5488733"><ele>137.0</ele><time>2026-04-18T08:07:32.01Z</time></trkpt><trkpt lat="43.5545" lon="11.548975"><ele>136.4</ele><time>2026-04-18T08:07:33.01Z</time></trkpt><trkpt lat="43.5544433" lon="11.5490767"><ele>135.79999999999998</ele><time>2026-04-18T08:07:34.01Z</time></trkpt><trkpt lat="43.5543867" lon="11.5491767"><ele>135.2</ele><time>2026-04-18T08:07:35.012Z</time></trkpt><trkpt lat="43.5543283" lon="11.54928"><ele>134.6</ele><time>2026-04-18T08:07:36.01Z</time></trkpt><trkpt lat="43.5542733" lon="11.54938"><ele>134.0</ele><time>2026-04-18T08:07:37.012Z</time></trkpt><trkpt lat="43.5542183" lon="11.5494733"><ele>134.33333333333331</ele><time>2026-04-18T08:07:38.011Z</time></trkpt><trkpt lat="43.5541633" lon="11.5495717"><ele>134.66666666666666</ele><time>2026-04-18T08:07:39.01Z</time></trkpt><trkpt lat="43.5541083" lon="11.54967"><ele>135.0</ele><time>2026-04-18T08:07:40.009Z</time></trkpt><trkpt lat="43.5540567" lon="11.5497667"><ele>135.33333333333334</ele><time>2026-04-18T08:07:41.01Z</time></trkpt><trkpt lat="43.5540033" lon="11.5498583"><ele>135.66666666666669</ele><time>2026-04-18T08:07:42.012Z</time></trkpt><trkpt lat="43.55395" lon="11.5499533"><ele>136.0</ele><time>2026-04-18T08:07:43.011Z</time></trkpt><trkpt lat="43.5538983" lon="11.5500467"><ele>136.0</ele><time>2026-04-18T08:07:44.01Z</time></trkpt><trkpt lat="43.553845" lon="11.5501367"><ele>136.0</ele><time>2026-04-18T08:07:45.011Z</time></trkpt><trkpt lat="43.5537917" lon="11.5502317"><ele>136.0</ele><time>2026-04-18T08:07:46.012Z</time></trkpt><trkpt lat="43.5537383" lon="11.550325"><ele>136.0</ele><time>2026-04-18T08:07:47.01Z</time></trkpt><trkpt lat="43.5536867" lon="11.5504233"><ele>136.0</ele><time>2026-04-18T08:07:48.011Z</time></trkpt><trkpt lat="43.5536333" lon="11.550515"><ele>136.0</ele><time>2026-04-18T08:07:49.01Z</time></trkpt><trkpt lat="43.5535783" lon="11.5506117"><ele>136.0</ele><time>2026-04-18T08:07:50.009Z</time></trkpt><trkpt lat="43.5535233" lon="11.5507083"><ele>136.0</ele><time>2026-04-18T08:07:51.009Z</time></trkpt><trkpt lat="43.5534683" lon="11.5508083"><ele>136.0</ele><time>2026-04-18T08:07:52.009Z</time></trkpt><trkpt lat="43.5534117" lon="11.5509"><ele>136.0</ele><time>2026-04-18T08:07:53.011Z</time></trkpt><trkpt lat="43.553355" lon="11.55099"><ele>136.0</ele><time>2026-04-18T08:07:54.01Z</time></trkpt><trkpt lat="43.5533" lon="11.5510817"><ele>136.0</ele><time>2026-04-18T08:07:55.011Z</time></trkpt><trkpt lat="43.5532467" lon="11.5511717"><ele>136.33333333333334</ele><time>2026-04-18T08:07:56.01Z</time></trkpt><trkpt lat="43.5531917" lon="11.55126"><ele>136.66666666666669</ele><time>2026-04-18T08:07:57.009Z</time></trkpt><trkpt lat="43.5531383" lon="11.5513533"><ele>137.0</ele><time>2026-04-18T08:07:58.009Z</time></trkpt><trkpt lat="43.553085" lon="11.5514417"><ele>137.33333333333334</ele><time>2026-04-18T08:07:59.009Z</time></trkpt><trkpt lat="43.5530317" lon="11.55153"><ele>137.66666666666666</ele><time>2026-04-18T08:08:00.01Z</time></trkpt><trkpt lat="43.552975" lon="11.5516167"><ele>138.0</ele><time>2026-04-18T08:08:01.011Z</time></trkpt><trkpt lat="43.5529167" lon="11.5517033"><ele>137.83333333333334</ele><time>2026-04-18T08:08:02.01Z</time></trkpt><trkpt lat="43.5528583" lon="11.55179"><ele>137.66666666666666</ele><time>2026-04-18T08:08:03.009Z</time></trkpt><trkpt lat="43.5528" lon="11.5518783"><ele>137.5</ele><time>2026-04-18T08:08:04.011Z</time></trkpt><trkpt lat="43.5527417" lon="11.551965"><ele>137.33333333333331</ele><time>2026-04-18T08:08:05.012Z</time></trkpt><trkpt lat="43.5526817" lon="11.5520467"><ele>137.16666666666666</ele><time>2026-04-18T08:08:06.01Z</time></trkpt><trkpt lat="43.5526233" lon="11.55213"><ele>137.0</ele><time>2026-04-18T08:08:07.012Z</time></trkpt><trkpt lat="43.5525633" lon="11.5522183"><ele>137.0</ele><time>2026-04-18T08:08:08.012Z</time></trkpt><trkpt lat="43.5525017" lon="11.5523017"><ele>137.0</ele><time>2026-04-18T08:08:09.064Z</time></trkpt><trkpt lat="43.5524417" lon="11.5523867"><ele>137.0</ele><time>2026-04-18T08:08:10.011Z</time></trkpt><trkpt lat="43.5523833" lon="11.5524617"><ele>137.0</ele><time>2026-04-18T08:08:11.008Z</time></trkpt><trkpt lat="43.552325" lon="11.5525317"><ele>137.0</ele><time>2026-04-18T08:08:12.007Z</time></trkpt><trkpt lat="43.5522633" lon="11.5526117"><ele>137.0</ele><time>2026-04-18T08:08:13.007Z</time></trkpt><trkpt lat="43.5522017" lon="11.552695"><ele>137.0</ele><time>2026-04-18T08:08:14.009Z</time></trkpt><trkpt lat="43.5521417" lon="11.5527783"><ele>137.0</ele><time>2026-04-18T08:08:15.008Z</time></trkpt><trkpt lat="43.5520833" lon="11.5528617"><ele>137.0</ele><time>2026-04-18T08:08:16.008Z</time></trkpt><trkpt lat="43.552025" lon="11.5529433"><ele>137.0</ele><time>2026-04-18T08:08:17.008Z</time></trkpt><trkpt lat="43.5519667" lon="11.5530233"><ele>137.0</ele><time>2026-04-18T08:08:18.008Z</time></trkpt><trkpt lat="43.5519117" lon="11.5531133"><ele>137.0</ele><time>2026-04-18T08:08:19.008Z</time></trkpt><trkpt lat="43.5518617" lon="11.5532083"><ele>137.16666666666666</ele><time>2026-04-18T08:08:20.012Z</time></trkpt><trkpt lat="43.5518167" lon="11.5532983"><ele>137.33333333333331</ele><time>2026-04-18T08:08:21.01Z</time></trkpt><trkpt lat="43.55177" lon="11.55339"><ele>137.5</ele><time>2026-04-18T08:08:22.012Z</time></trkpt><trkpt lat="43.5517267" lon="11.5534817"><ele>137.66666666666666</ele><time>2026-04-18T08:08:23.01Z</time></trkpt><trkpt lat="43.551685" lon="11.5535783"><ele>137.83333333333334</ele><time>2026-04-18T08:08:24.011Z</time></trkpt><trkpt lat="43.5516467" lon="11.5536733"><ele>138.0</ele><time>2026-04-18T08:08:25.012Z</time></trkpt><trkpt lat="43.5516117" lon="11.5537683"><ele>138.33333333333334</ele><time>2026-04-18T08:08:26.011Z</time></trkpt><trkpt lat="43.55158" lon="11.5538683"><ele>138.66666666666666</ele><time>2026-04-18T08:08:27.011Z</time></trkpt><trkpt lat="43.5515483" lon="11.55397"><ele>139.0</ele><time>2026-04-18T08:08:28.008Z</time></trkpt><trkpt lat="43.5515183" lon="11.5540783"><ele>139.33333333333331</ele><time>2026-04-18T08:08:29.008Z</time></trkpt><trkpt lat="43.5514883" lon="11.5541783"><ele>139.66666666666666</ele><time>2026-04-18T08:08:30.008Z</time></trkpt><trkpt lat="43.5514583" lon="11.5542833"><ele>140.0</ele><time>2026-04-18T08:08:31.01Z</time></trkpt><trkpt lat="43.5514317" lon="11.5543883"><ele>140.0</ele><time>2026-04-18T08:08:32.013Z</time></trkpt><trkpt lat="43.5514067" lon="11.5544933"><ele>140.0</ele><time>2026-04-18T08:08:33.013Z</time></trkpt><trkpt lat="43.5513817" lon="11.55459"><ele>140.0</ele><time>2026-04-18T08:08:34.01Z</time></trkpt><trkpt lat="43.551355" lon="11.5546933"><ele>140.0</ele><time>2026-04-18T08:08:35.011Z</time></trkpt><trkpt lat="43.5513317" lon="11.5547983"><ele>140.0</ele><time>2026-04-18T08:08:36.011Z</time></trkpt><trkpt lat="43.5513083" lon="11.5549"><ele>140.0</ele><time>2026-04-18T08:08:37.012Z</time></trkpt><trkpt lat="43.5512833" lon="11.555"><ele>140.0</ele><time>2026-04-18T08:08:38.012Z</time></trkpt><trkpt lat="43.5512583" lon="11.5551033"><ele>140.0</ele><time>2026-04-18T08:08:39.01Z</time></trkpt><trkpt lat="43.551235" lon="11.5552017"><ele>140.0</ele><time>2026-04-18T08:08:40.011Z</time></trkpt><trkpt lat="43.5512133" lon="11.5552967"><ele>140.0</ele><time>2026-04-18T08:08:41.01Z</time></trkpt><trkpt lat="43.5511933" lon="11.5554"><ele>140.0</ele><time>2026-04-18T08:08:42.01Z</time></trkpt><trkpt lat="43.551175" lon="11.5555"><ele>140.0</ele><time>2026-04-18T08:08:43.011Z</time></trkpt><trkpt lat="43.5511633" lon="11.555605"><ele>140.0</ele><time>2026-04-18T08:08:44.01Z</time></trkpt><trkpt lat="43.5511583" lon="11.5557083"><ele>140.0</ele><time>2026-04-18T08:08:45.008Z</time></trkpt><trkpt lat="43.55116" lon="11.5558283"><ele>140.0</ele><time>2026-04-18T08:08:46.009Z</time></trkpt><trkpt lat="43.5511617" lon="11.555955"><ele>140.0</ele><time>2026-04-18T08:08:47.01Z</time></trkpt><trkpt lat="43.55116" lon="11.55608"><ele>140.0</ele><time>2026-04-18T08:08:48.01Z</time></trkpt><trkpt lat="43.5511633" lon="11.556205"><ele>140.0</ele><time>2026-04-18T08:08:49.011Z</time></trkpt><trkpt lat="43.5511633" lon="11.5563367"><ele>140.0</ele><time>2026-04-18T08:08:50.011Z</time></trkpt><trkpt lat="43.55116" lon="11.5564683"><ele>140.0</ele><time>2026-04-18T08:08:51.008Z</time></trkpt><trkpt lat="43.55115" lon="11.5565967"><ele>140.0</ele><time>2026-04-18T08:08:52.01Z</time></trkpt><trkpt lat="43.55113" lon="11.55673"><ele>140.0</ele><time>2026-04-18T08:08:53.009Z</time></trkpt><trkpt lat="43.5510967" lon="11.556845"><ele>140.0</ele><time>2026-04-18T08:08:54.012Z</time></trkpt><trkpt lat="43.55106" lon="11.5569567"><ele>140.0</ele><time>2026-04-18T08:08:55.013Z</time></trkpt><trkpt lat="43.55102" lon="11.5570583"><ele>140.0</ele><time>2026-04-18T08:08:56.01Z</time></trkpt><trkpt lat="43.5509783" lon="11.55715"><ele>140.0</ele><time>2026-04-18T08:08:57.009Z</time></trkpt><trkpt lat="43.5509367" lon="11.55725"><ele>140.0</ele><time>2026-04-18T08:08:58.009Z</time></trkpt><trkpt lat="43.5508933" lon="11.5573433"><ele>140.0</ele><time>2026-04-18T08:08:59.011Z</time></trkpt><trkpt lat="43.55085" lon="11.5574317"><ele>140.0</ele><time>2026-04-18T08:09:00.009Z</time></trkpt><trkpt lat="43.5508083" lon="11.5575217"><ele>140.0</ele><time>2026-04-18T08:09:01.01Z</time></trkpt><trkpt lat="43.5507667" lon="11.5576167"><ele>140.0</ele><time>2026-04-18T08:09:02.01Z</time></trkpt><trkpt lat="43.5507283" lon="11.55771"><ele>140.0</ele><time>2026-04-18T08:09:03.009Z</time></trkpt><trkpt lat="43.5506967" lon="11.5578083"><ele>140.0</ele><time>2026-04-18T08:09:04.011Z</time></trkpt><trkpt lat="43.5506667" lon="11.5579017"><ele>140.0</ele><time>2026-04-18T08:09:05.011Z</time></trkpt><trkpt lat="43.55064" lon="11.5579917"><ele>140.0</ele><time>2026-04-18T08:09:06.011Z</time></trkpt><trkpt lat="43.5506167" lon="11.5580867"><ele>140.16666666666666</ele><time>2026-04-18T08:09:07.01Z</time></trkpt><trkpt lat="43.550595" lon="11.5581867"><ele>140.33333333333331</ele><time>2026-04-18T08:09:08.011Z</time></trkpt><trkpt lat="43.550575" lon="11.5582833"><ele>140.5</ele><time>2026-04-18T08:09:09.01Z</time></trkpt><trkpt lat="43.5505533" lon="11.5583833"><ele>140.66666666666666</ele><time>2026-04-18T08:09:10.009Z</time></trkpt><trkpt lat="43.550535" lon="11.5584883"><ele>140.83333333333334</ele><time>2026-04-18T08:09:11.011Z</time></trkpt><trkpt lat="43.550515" lon="11.5585983"><ele>141.0</ele><time>2026-04-18T08:09:12.011Z</time></trkpt><trkpt lat="43.5504933" lon="11.55871"><ele>141.0</ele><time>2026-04-18T08:09:13.011Z</time></trkpt><trkpt lat="43.55047" lon="11.5588233"><ele>141.0</ele><time>2026-04-18T08:09:14.01Z</time></trkpt><trkpt lat="43.5504467" lon="11.558925"><ele>141.0</ele><time>2026-04-18T08:09:15.01Z</time></trkpt><trkpt lat="43.55042" lon="11.5590333"><ele>141.0</ele><time>2026-04-18T08:09:16.011Z</time></trkpt><trkpt lat="43.5503917" lon="11.5591417"><ele>141.0</ele><time>2026-04-18T08:09:17.011Z</time></trkpt><trkpt lat="43.550365" lon="11.5592433"><ele>141.0</ele><time>2026-04-18T08:09:18.009Z</time></trkpt><trkpt lat="43.55034" lon="11.5593483"><ele>141.16666666666666</ele><time>2026-04-18T08:09:19.01Z</time></trkpt><trkpt lat="43.550315" lon="11.55945"><ele>141.33333333333334</ele><time>2026-04-18T08:09:20.012Z</time></trkpt><trkpt lat="43.5502867" lon="11.5595533"><ele>141.5</ele><time>2026-04-18T08:09:21.01Z</time></trkpt><trkpt lat="43.5502633" lon="11.5596533"><ele>141.66666666666669</ele><time>2026-04-18T08:09:22.011Z</time></trkpt><trkpt lat="43.5502383" lon="11.5597517"><ele>141.83333333333334</ele><time>2026-04-18T08:09:23.011Z</time></trkpt><trkpt lat="43.5502133" lon="11.5598533"><ele>142.0</ele><time>2026-04-18T08:09:24.01Z</time></trkpt><trkpt lat="43.5501917" lon="11.5599483"><ele>141.66666666666669</ele><time>2026-04-18T08:09:25.01Z</time></trkpt><trkpt lat="43.5501633" lon="11.5600467"><ele>141.33333333333334</ele><time>2026-04-18T08:09:26.013Z</time></trkpt><trkpt lat="43.5501367" lon="11.5601483"><ele>141.0</ele><time>2026-04-18T08:09:27.011Z</time></trkpt><trkpt lat="43.5501083" lon="11.56025"><ele>140.66666666666666</ele><time>2026-04-18T08:09:28.01Z</time></trkpt><trkpt lat="43.5500767" lon="11.56035"><ele>140.33333333333331</ele><time>2026-04-18T08:09:29.011Z</time></trkpt><trkpt lat="43.55005" lon="11.5604517"><ele>140.0</ele><time>2026-04-18T08:09:30.01Z</time></trkpt><trkpt lat="43.550025" lon="11.5605533"><ele>140.0</ele><time>2026-04-18T08:09:31.012Z</time></trkpt><trkpt lat="43.5499967" lon="11.560655"><ele>140.0</ele><time>2026-04-18T08:09:32.01Z</time></trkpt><trkpt lat="43.5499717" lon="11.560755"><ele>140.0</ele><time>2026-04-18T08:09:33.013Z</time></trkpt><trkpt lat="43.549945" lon="11.560855"><ele>140.0</ele><time>2026-04-18T08:09:34.011Z</time></trkpt><trkpt lat="43.5499183" lon="11.560955"><ele>140.0</ele><time>2026-04-18T08:09:35.011Z</time></trkpt><trkpt lat="43.5498867" lon="11.5610517"><ele>140.0</ele><time>2026-04-18T08:09:36.01Z</time></trkpt><trkpt lat="43.5498567" lon="11.5611483"><ele>140.16666666666666</ele><time>2026-04-18T08:09:37.011Z</time></trkpt><trkpt lat="43.549825" lon="11.5612483"><ele>140.33333333333331</ele><time>2026-04-18T08:09:38.011Z</time></trkpt><trkpt lat="43.5497983" lon="11.561335"><ele>140.5</ele><time>2026-04-18T08:09:39.011Z</time></trkpt><trkpt lat="43.5497667" lon="11.5614433"><ele>140.66666666666666</ele><time>2026-04-18T08:09:40.011Z</time></trkpt><trkpt lat="43.5497367" lon="11.56153"><ele>140.83333333333334</ele><time>2026-04-18T08:09:41.009Z</time></trkpt><trkpt lat="43.5497033" lon="11.56163"><ele>141.0</ele><time>2026-04-18T08:09:42.013Z</time></trkpt><trkpt lat="43.549665" lon="11.561735"><ele>141.0</ele><time>2026-04-18T08:09:43.011Z</time></trkpt><trkpt lat="43.5496317" lon="11.5618233"><ele>141.0</ele><time>2026-04-18T08:09:44.01Z</time></trkpt><trkpt lat="43.5496" lon="11.5619217"><ele>141.0</ele><time>2026-04-18T08:09:45.011Z</time></trkpt><trkpt lat="43.5495633" lon="11.5620167"><ele>141.0</ele><time>2026-04-18T08:09:46.011Z</time></trkpt><trkpt lat="43.5495267" lon="11.5621067"><ele>141.0</ele><time>2026-04-18T08:09:47.01Z</time></trkpt><trkpt lat="43.5494883" lon="11.562195"><ele>141.0</ele><time>2026-04-18T08:09:48.012Z</time></trkpt><trkpt lat="43.5494533" lon="11.5622867"><ele>140.33333333333334</ele><time>2026-04-18T08:09:49.01Z</time></trkpt><trkpt lat="43.5494167" lon="11.5623817"><ele>139.66666666666666</ele><time>2026-04-18T08:09:50.011Z</time></trkpt><trkpt lat="43.5493817" lon="11.562475"><ele>139.0</ele><time>2026-04-18T08:09:51.011Z</time></trkpt><trkpt lat="43.549345" lon="11.5625683"><ele>138.33333333333331</ele><time>2026-04-18T08:09:52.01Z</time></trkpt><trkpt lat="43.5493117" lon="11.5626633"><ele>137.66666666666666</ele><time>2026-04-18T08:09:53.011Z</time></trkpt><trkpt lat="43.549275" lon="11.56276"><ele>137.0</ele><time>2026-04-18T08:09:54.012Z</time></trkpt><trkpt lat="43.5492383" lon="11.5628567"><ele>137.5</ele><time>2026-04-18T08:09:55.012Z</time></trkpt><trkpt lat="43.5492017" lon="11.5629567"><ele>138.0</ele><time>2026-04-18T08:09:56.011Z</time></trkpt><trkpt lat="43.5491633" lon="11.5630617"><ele>138.5</ele><time>2026-04-18T08:09:57.01Z</time></trkpt><trkpt lat="43.549125" lon="11.5631633"><ele>139.0</ele><time>2026-04-18T08:09:58.012Z</time></trkpt><trkpt lat="43.54909" lon="11.5632667"><ele>139.5</ele><time>2026-04-18T08:09:59.01Z</time></trkpt><trkpt lat="43.549055" lon="11.5633633"><ele>140.0</ele><time>2026-04-18T08:10:00.012Z</time></trkpt><trkpt lat="43.5490217" lon="11.5634633"><ele>140.0</ele><time>2026-04-18T08:10:01.012Z</time></trkpt><trkpt lat="43.5489867" lon="11.563555"><ele>140.0</ele><time>2026-04-18T08:10:02.013Z</time></trkpt><trkpt lat="43.54895" lon="11.5636517"><ele>140.0</ele><time>2026-04-18T08:10:03.011Z</time></trkpt><trkpt lat="43.548915" lon="11.563745"><ele>140.0</ele><time>2026-04-18T08:10:04.011Z</time></trkpt><trkpt lat="43.5488767" lon="11.56384"><ele>140.0</ele><time>2026-04-18T08:10:05.012Z</time></trkpt><trkpt lat="43.5488383" lon="11.563935"><ele>140.0</ele><time>2026-04-18T08:10:06.011Z</time></trkpt><trkpt lat="43.5488" lon="11.5640317"><ele>140.0</ele><time>2026-04-18T08:10:07.014Z</time></trkpt><trkpt lat="43.548765" lon="11.5641217"><ele>140.0</ele><time>2026-04-18T08:10:08.01Z</time></trkpt><trkpt lat="43.5487267" lon="11.5642183"><ele>140.0</ele><time>2026-04-18T08:10:09.011Z</time></trkpt><trkpt lat="43.5486883" lon="11.564315"><ele>140.0</ele><time>2026-04-18T08:10:10.01Z</time></trkpt><trkpt lat="43.5486517" lon="11.56441"><ele>140.0</ele><time>2026-04-18T08:10:11.011Z</time></trkpt><trkpt lat="43.5486133" lon="11.5645067"><ele>140.0</ele><time>2026-04-18T08:10:12.012Z</time></trkpt><trkpt lat="43.548575" lon="11.5646083"><ele>140.0</ele><time>2026-04-18T08:10:13.011Z</time></trkpt><trkpt lat="43.54854" lon="11.5647083"><ele>140.0</ele><time>2026-04-18T08:10:14.011Z</time></trkpt><trkpt lat="43.5485033" lon="11.5648083"><ele>140.0</ele><time>2026-04-18T08:10:15.01Z</time></trkpt><trkpt lat="43.5484683" lon="11.56491"><ele>140.0</ele><time>2026-04-18T08:10:16.012Z</time></trkpt><trkpt lat="43.54843" lon="11.5650017"><ele>140.0</ele><time>2026-04-18T08:10:17.012Z</time></trkpt><trkpt lat="43.5483917" lon="11.5650933"><ele>140.0</ele><time>2026-04-18T08:10:18.011Z</time></trkpt><trkpt lat="43.548355" lon="11.5651883"><ele>140.0</ele><time>2026-04-18T08:10:19.012Z</time></trkpt><trkpt lat="43.54832" lon="11.5652883"><ele>140.0</ele><time>2026-04-18T08:10:20.011Z</time></trkpt><trkpt lat="43.5482817" lon="11.56538"><ele>140.0</ele><time>2026-04-18T08:10:21.012Z</time></trkpt><trkpt lat="43.5482433" lon="11.5654767"><ele>140.0</ele><time>2026-04-18T08:10:22.01Z</time></trkpt><trkpt lat="43.5482067" lon="11.5655733"><ele>140.0</ele><time>2026-04-18T08:10:23.011Z</time></trkpt><trkpt lat="43.5481683" lon="11.5656683"><ele>140.0</ele><time>2026-04-18T08:10:24.012Z</time></trkpt><trkpt lat="43.54813" lon="11.5657667"><ele>140.16666666666666</ele><time>2026-04-18T08:10:25.01Z</time></trkpt><trkpt lat="43.5480933" lon="11.5658683"><ele>140.33333333333331</ele><time>2026-04-18T08:10:26.011Z</time></trkpt><trkpt lat="43.548055" lon="11.5659683"><ele>140.5</ele><time>2026-04-18T08:10:27.011Z</time></trkpt><trkpt lat="43.5480167" lon="11.5660633"><ele>140.66666666666666</ele><time>2026-04-18T08:10:28.012Z</time></trkpt><trkpt lat="43.5479817" lon="11.5661633"><ele>140.83333333333334</ele><time>2026-04-18T08:10:29.01Z</time></trkpt><trkpt lat="43.547945" lon="11.5662617"><ele>141.0</ele><time>2026-04-18T08:10:30.012Z</time></trkpt><trkpt lat="43.5479117" lon="11.5663583"><ele>141.0</ele><time>2026-04-18T08:10:31.01Z</time></trkpt><trkpt lat="43.547875" lon="11.5664533"><ele>141.0</ele><time>2026-04-18T08:10:32.012Z</time></trkpt><trkpt lat="43.5478367" lon="11.5665483"><ele>141.0</ele><time>2026-04-18T08:10:33.011Z</time></trkpt><trkpt lat="43.5477983" lon="11.5666467"><ele>141.0</ele><time>2026-04-18T08:10:34.011Z</time></trkpt><trkpt lat="43.5477633" lon="11.5667433"><ele>141.0</ele><time>2026-04-18T08:10:35.012Z</time></trkpt><trkpt lat="43.547725" lon="11.5668417"><ele>141.0</ele><time>2026-04-18T08:10:36.009Z</time></trkpt><trkpt lat="43.5476867" lon="11.566935"><ele>141.0</ele><time>2026-04-18T08:10:37.01Z</time></trkpt><trkpt lat="43.5476483" lon="11.5670333"><ele>141.0</ele><time>2026-04-18T08:10:38.011Z</time></trkpt><trkpt lat="43.5476117" lon="11.56713"><ele>141.0</ele><time>2026-04-18T08:10:39.011Z</time></trkpt><trkpt lat="43.547575" lon="11.5672233"><ele>141.0</ele><time>2026-04-18T08:10:40.011Z</time></trkpt><trkpt lat="43.5475383" lon="11.5673267"><ele>141.0</ele><time>2026-04-18T08:10:41.011Z</time></trkpt><trkpt lat="43.5475017" lon="11.5674267"><ele>141.0</ele><time>2026-04-18T08:10:42.012Z</time></trkpt><trkpt lat="43.547465" lon="11.567525"><ele>141.0</ele><time>2026-04-18T08:10:43.012Z</time></trkpt><trkpt lat="43.5474267" lon="11.5676317"><ele>141.0</ele><time>2026-04-18T08:10:44.012Z</time></trkpt><trkpt lat="43.5473883" lon="11.56773"><ele>141.0</ele><time>2026-04-18T08:10:45.01Z</time></trkpt><trkpt lat="43.5473517" lon="11.5678333"><ele>141.0</ele><time>2026-04-18T08:10:46.011Z</time></trkpt><trkpt lat="43.5473167" lon="11.567935"><ele>141.0</ele><time>2026-04-18T08:10:47.008Z</time></trkpt><trkpt lat="43.5472817" lon="11.568035"><ele>141.0</ele><time>2026-04-18T08:10:48.011Z</time></trkpt><trkpt lat="43.5472483" lon="11.568135"><ele>141.0</ele><time>2026-04-18T08:10:49.013Z</time></trkpt><trkpt lat="43.5472117" lon="11.5682317"><ele>141.0</ele><time>2026-04-18T08:10:50.01Z</time></trkpt><trkpt lat="43.547175" lon="11.5683283"><ele>141.0</ele><time>2026-04-18T08:10:51.012Z</time></trkpt><trkpt lat="43.5471367" lon="11.5684267"><ele>141.0</ele><time>2026-04-18T08:10:52.01Z</time></trkpt><trkpt lat="43.5471" lon="11.56852"><ele>141.0</ele><time>2026-04-18T08:10:53.011Z</time></trkpt><trkpt lat="43.5470617" lon="11.56861"><ele>141.0</ele><time>2026-04-18T08:10:54.011Z</time></trkpt><trkpt lat="43.5470267" lon="11.5686983"><ele>140.83333333333334</ele><time>2026-04-18T08:10:55.011Z</time></trkpt><trkpt lat="43.5469917" lon="11.56879"><ele>140.66666666666666</ele><time>2026-04-18T08:10:56.011Z</time></trkpt><trkpt lat="43.5469567" lon="11.5688867"><ele>140.5</ele><time>2026-04-18T08:10:57.012Z</time></trkpt><trkpt lat="43.5469183" lon="11.56898"><ele>140.33333333333331</ele><time>2026-04-18T08:10:58.011Z</time></trkpt><trkpt lat="43.5468817" lon="11.5690783"><ele>140.16666666666666</ele><time>2026-04-18T08:10:59.013Z</time></trkpt><trkpt lat="43.5468467" lon="11.5691767"><ele>140.0</ele><time>2026-04-18T08:11:00.011Z</time></trkpt><trkpt lat="43.5468117" lon="11.5692717"><ele>140.0</ele><time>2026-04-18T08:11:01.01Z</time></trkpt><trkpt lat="43.5467767" lon="11.5693667"><ele>140.0</ele><time>2026-04-18T08:11:02.01Z</time></trkpt><trkpt lat="43.5467417" lon="11.5694633"><ele>140.0</ele><time>2026-04-18T08:11:03.01Z</time></trkpt><trkpt lat="43.546705" lon="11.5695617"><ele>140.0</ele><time>2026-04-18T08:11:04.012Z</time></trkpt><trkpt lat="43.54667" lon="11.5696533"><ele>140.0</ele><time>2026-04-18T08:11:05.01Z</time></trkpt><trkpt lat="43.5466333" lon="11.5697433"><ele>140.0</ele><time>2026-04-18T08:11:06.011Z</time></trkpt><trkpt lat="43.5465983" lon="11.569835"><ele>140.33333333333331</ele><time>2026-04-18T08:11:07.012Z</time></trkpt><trkpt lat="43.5465617" lon="11.56993"><ele>140.66666666666666</ele><time>2026-04-18T08:11:08.012Z</time></trkpt><trkpt lat="43.5465267" lon="11.57002"><ele>141.0</ele><time>2026-04-18T08:11:09.01Z</time></trkpt><trkpt lat="43.5464917" lon="11.570115"><ele>141.33333333333334</ele><time>2026-04-18T08:11:10.014Z</time></trkpt><trkpt lat="43.5464617" lon="11.57021"><ele>141.66666666666669</ele><time>2026-04-18T08:11:11.011Z</time></trkpt><trkpt lat="43.5464317" lon="11.5703033"><ele>142.0</ele><time>2026-04-18T08:11:12.013Z</time></trkpt><trkpt lat="43.5463983" lon="11.5703983"><ele>142.14285714285714</ele><time>2026-04-18T08:11:13.011Z</time></trkpt><trkpt lat="43.5463633" lon="11.5704983"><ele>142.28571428571428</ele><time>2026-04-18T08:11:14.011Z</time></trkpt><trkpt lat="43.54633" lon="11.5705867"><ele>142.42857142857142</ele><time>2026-04-18T08:11:15.012Z</time></trkpt><trkpt lat="43.5462933" lon="11.5706733"><ele>142.57142857142856</ele><time>2026-04-18T08:11:16.01Z</time></trkpt><trkpt lat="43.54625" lon="11.57075"><ele>142.71428571428572</ele><time>2026-04-18T08:11:17.012Z</time></trkpt><trkpt lat="43.5461983" lon="11.570815"><ele>142.85714285714283</ele><time>2026-04-18T08:11:18.013Z</time></trkpt><trkpt lat="43.546145" lon="11.570865"><ele>143.0</ele><time>2026-04-18T08:11:19.012Z</time></trkpt><trkpt lat="43.5460867" lon="11.57091"><ele>142.57142857142856</ele><time>2026-04-18T08:11:20.011Z</time></trkpt><trkpt lat="43.5460183" lon="11.57094"><ele>142.14285714285714</ele><time>2026-04-18T08:11:21.013Z</time></trkpt><trkpt lat="43.545945" lon="11.5709633"><ele>141.71428571428572</ele><time>2026-04-18T08:11:22.01Z</time></trkpt><trkpt lat="43.54587" lon="11.57097"><ele>141.28571428571428</ele><time>2026-04-18T08:11:23.013Z</time></trkpt><trkpt lat="43.5458" lon="11.57097"><ele>140.85714285714286</ele><time>2026-04-18T08:11:24.01Z</time></trkpt><trkpt lat="43.54573" lon="11.5709733"><ele>140.42857142857142</ele><time>2026-04-18T08:11:25.009Z</time></trkpt><trkpt lat="43.5456533" lon="11.5709783"><ele>140.0</ele><time>2026-04-18T08:11:26.012Z</time></trkpt><trkpt lat="43.54557" lon="11.5709783"><ele>140.0</ele><time>2026-04-18T08:11:27.008Z</time></trkpt><trkpt lat="43.5454883" lon="11.5709767"><ele>140.0</ele><time>2026-04-18T08:11:28.012Z</time></trkpt><trkpt lat="43.54541" lon="11.5709783"><ele>140.0</ele><time>2026-04-18T08:11:29.009Z</time></trkpt><trkpt lat="43.54533" lon="11.570985"><ele>140.0</ele><time>2026-04-18T08:11:30.011Z</time></trkpt><trkpt lat="43.5452533" lon="11.5709933"><ele>140.0</ele><time>2026-04-18T08:11:31.01Z</time></trkpt><trkpt lat="43.5451717" lon="11.5710033"><ele>140.0</ele><time>2026-04-18T08:11:32.011Z</time></trkpt><trkpt lat="43.5450983" lon="11.5710183"><ele>140.16666666666666</ele><time>2026-04-18T08:11:33.011Z</time></trkpt><trkpt lat="43.5450217" lon="11.571045"><ele>140.33333333333331</ele><time>2026-04-18T08:11:34.012Z</time></trkpt><trkpt lat="43.5449467" lon="11.5710733"><ele>140.5</ele><time>2026-04-18T08:11:35.01Z</time></trkpt><trkpt lat="43.5448667" lon="11.5711083"><ele>140.66666666666666</ele><time>2026-04-18T08:11:36.01Z</time></trkpt><trkpt lat="43.5447917" lon="11.5711467"><ele>140.83333333333334</ele><time>2026-04-18T08:11:37.01Z</time></trkpt><trkpt lat="43.5447183" lon="11.57119"><ele>141.0</ele><time>2026-04-18T08:11:38.013Z</time></trkpt><trkpt lat="43.5446433" lon="11.5712317"><ele>141.0</ele><time>2026-04-18T08:11:39.01Z</time></trkpt><trkpt lat="43.5445633" lon="11.5712733"><ele>141.0</ele><time>2026-04-18T08:11:40.01Z</time></trkpt><trkpt lat="43.5444817" lon="11.5713067"><ele>141.0</ele><time>2026-04-18T08:11:41.01Z</time></trkpt><trkpt lat="43.5443967" lon="11.5713217"><ele>141.0</ele><time>2026-04-18T08:11:42.008Z</time></trkpt><trkpt lat="43.5443083" lon="11.5713067"><ele>141.0</ele><time>2026-04-18T08:11:43.01Z</time></trkpt><trkpt lat="43.5442283" lon="11.5712667"><ele>141.0</ele><time>2026-04-18T08:11:44.01Z</time></trkpt><trkpt lat="43.5441517" lon="11.5712083"><ele>141.0</ele><time>2026-04-18T08:11:45.011Z</time></trkpt><trkpt lat="43.5440833" lon="11.5711367"><ele>141.0</ele><time>2026-04-18T08:11:46.013Z</time></trkpt><trkpt lat="43.5440317" lon="11.5710533"><ele>141.0</ele><time>2026-04-18T08:11:47.009Z</time></trkpt><trkpt lat="43.5439833" lon="11.5709667"><ele>141.0</ele><time>2026-04-18T08:11:48.009Z</time></trkpt><trkpt lat="43.5439317" lon="11.5708833"><ele>141.0</ele><time>2026-04-18T08:11:49.009Z</time></trkpt><trkpt lat="43.5438833" lon="11.5708017"><ele>141.0</ele><time>2026-04-18T08:11:50.01Z</time></trkpt><trkpt lat="43.54383" lon="11.5707167"><ele>141.0</ele><time>2026-04-18T08:11:51.013Z</time></trkpt><trkpt lat="43.543775" lon="11.5706283"><ele>141.0</ele><time>2026-04-18T08:11:52.01Z</time></trkpt><trkpt lat="43.5437217" lon="11.57054"><ele>141.0</ele><time>2026-04-18T08:11:53.011Z</time></trkpt><trkpt lat="43.54367" lon="11.5704567"><ele>141.0</ele><time>2026-04-18T08:11:54.009Z</time></trkpt><trkpt lat="43.543615" lon="11.570375"><ele>141.0</ele><time>2026-04-18T08:11:55.01Z</time></trkpt><trkpt lat="43.5435617" lon="11.5702883"><ele>141.0</ele><time>2026-04-18T08:11:56.009Z</time></trkpt><trkpt lat="43.543505" lon="11.5701933"><ele>140.83333333333334</ele><time>2026-04-18T08:11:57.008Z</time></trkpt><trkpt lat="43.5434517" lon="11.570095"><ele>140.66666666666666</ele><time>2026-04-18T08:11:58.009Z</time></trkpt><trkpt lat="43.543405" lon="11.5699933"><ele>140.5</ele><time>2026-04-18T08:11:59.01Z</time></trkpt><trkpt lat="43.5433567" lon="11.5699"><ele>140.33333333333331</ele><time>2026-04-18T08:12:00.008Z</time></trkpt><trkpt lat="43.5432983" lon="11.569835"><ele>140.16666666666666</ele><time>2026-04-18T08:12:01.009Z</time></trkpt><trkpt lat="43.543225" lon="11.5698183"><ele>140.0</ele><time>2026-04-18T08:12:02.01Z</time></trkpt><trkpt lat="43.5431517" lon="11.569845"><ele>140.0</ele><time>2026-04-18T08:12:03.009Z</time></trkpt><trkpt lat="43.54309" lon="11.5699"><ele>140.0</ele><time>2026-04-18T08:12:04.01Z</time></trkpt><trkpt lat="43.54303" lon="11.5699617"><ele>140.0</ele><time>2026-04-18T08:12:05.01Z</time></trkpt><trkpt lat="43.542965" lon="11.5700233"><ele>140.0</ele><time>2026-04-18T08:12:06.008Z</time></trkpt><trkpt lat="43.542895" lon="11.5700833"><ele>140.0</ele><time>2026-04-18T08:12:07.009Z</time></trkpt><trkpt lat="43.5428217" lon="11.5701517"><ele>140.0</ele><time>2026-04-18T08:12:08.009Z</time></trkpt><trkpt lat="43.542755" lon="11.5702267"><ele>140.0</ele><time>2026-04-18T08:12:09.01Z</time></trkpt><trkpt lat="43.5426933" lon="11.5703"><ele>140.0</ele><time>2026-04-18T08:12:10.008Z</time></trkpt><trkpt lat="43.5426367" lon="11.5703717"><ele>140.0</ele><time>2026-04-18T08:12:11.009Z</time></trkpt><trkpt lat="43.54258" lon="11.57044"><ele>140.0</ele><time>2026-04-18T08:12:12.009Z</time></trkpt><trkpt lat="43.5425283" lon="11.5705017"><ele>140.0</ele><time>2026-04-18T08:12:13.011Z</time></trkpt><trkpt lat="43.5424783" lon="11.57056"><ele>140.0</ele><time>2026-04-18T08:12:14.011Z</time></trkpt><trkpt lat="43.5423833" lon="11.570675"><ele>140.14285714285714</ele><time>2026-04-18T08:12:16.009Z</time></trkpt><trkpt lat="43.5423317" lon="11.5707383"><ele>140.28571428571428</ele><time>2026-04-18T08:12:17.01Z</time></trkpt><trkpt lat="43.54228" lon="11.5708"><ele>140.42857142857144</ele><time>2026-04-18T08:12:18.009Z</time></trkpt><trkpt lat="43.542225" lon="11.5708633"><ele>140.57142857142856</ele><time>2026-04-18T08:12:19.009Z</time></trkpt><trkpt lat="43.542165" lon="11.5709067"><ele>140.71428571428572</ele><time>2026-04-18T08:12:20.01Z</time></trkpt><trkpt lat="43.5420983" lon="11.5709217"><ele>140.85714285714286</ele><time>2026-04-18T08:12:21.01Z</time></trkpt><trkpt lat="43.5420233" lon="11.5709183"><ele>141.0</ele><time>2026-04-18T08:12:22.011Z</time></trkpt><trkpt lat="43.54195" lon="11.5709033"><ele>140.71428571428572</ele><time>2026-04-18T08:12:23.009Z</time></trkpt><trkpt lat="43.5418783" lon="11.57088"><ele>140.42857142857142</ele><time>2026-04-18T08:12:24.01Z</time></trkpt><trkpt lat="43.5418067" lon="11.5708583"><ele>140.14285714285714</ele><time>2026-04-18T08:12:25.009Z</time></trkpt><trkpt lat="43.541735" lon="11.5708417"><ele>139.85714285714286</ele><time>2026-04-18T08:12:26.01Z</time></trkpt><trkpt lat="43.5416633" lon="11.5708267"><ele>139.57142857142858</ele><time>2026-04-18T08:12:27.009Z</time></trkpt><trkpt lat="43.5415867" lon="11.57081"><ele>139.28571428571428</ele><time>2026-04-18T08:12:28.008Z</time></trkpt><trkpt lat="43.5415083" lon="11.5707917"><ele>139.0</ele><time>2026-04-18T08:12:29.009Z</time></trkpt><trkpt lat="43.541425" lon="11.5707683"><ele>139.0</ele><time>2026-04-18T08:12:30.01Z</time></trkpt><trkpt lat="43.5413483" lon="11.5707517"><ele>139.0</ele><time>2026-04-18T08:12:31.009Z</time></trkpt><trkpt lat="43.5412767" lon="11.570735"><ele>139.0</ele><time>2026-04-18T08:12:32.009Z</time></trkpt><trkpt lat="43.5412033" lon="11.5707183"><ele>139.0</ele><time>2026-04-18T08:12:33.009Z</time></trkpt><trkpt lat="43.5411317" lon="11.5707"><ele>139.0</ele><time>2026-04-18T08:12:34.01Z</time></trkpt><trkpt lat="43.5410567" lon="11.5706817"><ele>139.0</ele><time>2026-04-18T08:12:35.009Z</time></trkpt><trkpt lat="43.5409817" lon="11.570665"><ele>139.42857142857142</ele><time>2026-04-18T08:12:36.011Z</time></trkpt><trkpt lat="43.54091" lon="11.570645"><ele>139.85714285714286</ele><time>2026-04-18T08:12:37.009Z</time></trkpt><trkpt lat="43.5408367" lon="11.5706283"><ele>140.28571428571428</ele><time>2026-04-18T08:12:38.01Z</time></trkpt><trkpt lat="43.5407633" lon="11.57061"><ele>140.71428571428572</ele><time>2026-04-18T08:12:39.01Z</time></trkpt><trkpt lat="43.54069" lon="11.5705883"><ele>141.14285714285714</ele><time>2026-04-18T08:12:40.01Z</time></trkpt><trkpt lat="43.5406233" lon="11.5705617"><ele>141.57142857142856</ele><time>2026-04-18T08:12:41.01Z</time></trkpt><trkpt lat="43.5405567" lon="11.5705283"><ele>142.0</ele><time>2026-04-18T08:12:42.009Z</time></trkpt><trkpt lat="43.540495" lon="11.5704833"><ele>142.0</ele><time>2026-04-18T08:12:43.01Z</time></trkpt><trkpt lat="43.54044" lon="11.57043"><ele>142.0</ele><time>2026-04-18T08:12:44.01Z</time></trkpt><trkpt lat="43.540385" lon="11.5703733"><ele>142.0</ele><time>2026-04-18T08:12:45.009Z</time></trkpt><trkpt lat="43.5403283" lon="11.5703283"><ele>142.0</ele><time>2026-04-18T08:12:46.011Z</time></trkpt><trkpt lat="43.540205" lon="11.57033"><ele>142.0</ele><time>2026-04-18T08:12:48.008Z</time></trkpt><trkpt lat="43.5401533" lon="11.5703817"><ele>142.0</ele><time>2026-04-18T08:12:49.01Z</time></trkpt><trkpt lat="43.5401117" lon="11.5704533"><ele>141.85714285714286</ele><time>2026-04-18T08:12:50.009Z</time></trkpt><trkpt lat="43.54007" lon="11.5705283"><ele>141.7142857142857</ele><time>2026-04-18T08:12:51.009Z</time></trkpt><trkpt lat="43.5400233" lon="11.5705867"><ele>141.57142857142856</ele><time>2026-04-18T08:12:52.009Z</time></trkpt><trkpt lat="43.5399683" lon="11.5706367"><ele>141.42857142857142</ele><time>2026-04-18T08:12:53.008Z</time></trkpt><trkpt lat="43.5399117" lon="11.57069"><ele>141.28571428571428</ele><time>2026-04-18T08:12:54.011Z</time></trkpt><trkpt lat="43.539855" lon="11.5707417"><ele>141.14285714285714</ele><time>2026-04-18T08:12:55.01Z</time></trkpt><trkpt lat="43.5397983" lon="11.5708017"><ele>141.0</ele><time>2026-04-18T08:12:56.01Z</time></trkpt><trkpt lat="43.5397417" lon="11.57086"><ele>141.0</ele><time>2026-04-18T08:12:57.009Z</time></trkpt><trkpt lat="43.5396883" lon="11.570925"><ele>141.0</ele><time>2026-04-18T08:12:58.009Z</time></trkpt><trkpt lat="43.5396367" lon="11.5709933"><ele>141.0</ele><time>2026-04-18T08:12:59.009Z</time></trkpt><trkpt lat="43.5395867" lon="11.5710667"><ele>141.0</ele><time>2026-04-18T08:13:00.009Z</time></trkpt><trkpt lat="43.53954" lon="11.571135"><ele>141.0</ele><time>2026-04-18T08:13:01.009Z</time></trkpt><trkpt lat="43.5394917" lon="11.57121"><ele>141.0</ele><time>2026-04-18T08:13:02.011Z</time></trkpt><trkpt lat="43.5394417" lon="11.5712833"><ele>141.0</ele><time>2026-04-18T08:13:03.009Z</time></trkpt><trkpt lat="43.5393917" lon="11.5713633"><ele>140.71428571428572</ele><time>2026-04-18T08:13:04.009Z</time></trkpt><trkpt lat="43.5393433" lon="11.57144"><ele>140.42857142857142</ele><time>2026-04-18T08:13:05.01Z</time></trkpt><trkpt lat="43.5392933" lon="11.571515"><ele>140.14285714285714</ele><time>2026-04-18T08:13:06.009Z</time></trkpt><trkpt lat="43.5392433" lon="11.5715933"><ele>139.85714285714286</ele><time>2026-04-18T08:13:07.01Z</time></trkpt><trkpt lat="43.539195" lon="11.5716683"><ele>139.57142857142858</ele><time>2026-04-18T08:13:08.009Z</time></trkpt><trkpt lat="43.5391483" lon="11.571745"><ele>139.28571428571428</ele><time>2026-04-18T08:13:09.009Z</time></trkpt><trkpt lat="43.5390983" lon="11.5718233"><ele>139.0</ele><time>2026-04-18T08:13:10.009Z</time></trkpt><trkpt lat="43.5390483" lon="11.5719017"><ele>139.0</ele><time>2026-04-18T08:13:11.01Z</time></trkpt><trkpt lat="43.5390017" lon="11.57198"><ele>139.0</ele><time>2026-04-18T08:13:12.011Z</time></trkpt><trkpt lat="43.5389517" lon="11.57206"><ele>139.0</ele><time>2026-04-18T08:13:13.01Z</time></trkpt><trkpt lat="43.538905" lon="11.5721433"><ele>139.0</ele><time>2026-04-18T08:13:14.009Z</time></trkpt><trkpt lat="43.538855" lon="11.5722233"><ele>139.0</ele><time>2026-04-18T08:13:15.009Z</time></trkpt><trkpt lat="43.5388067" lon="11.5723067"><ele>139.0</ele><time>2026-04-18T08:13:16.009Z</time></trkpt><trkpt lat="43.53876" lon="11.5723933"><ele>139.5</ele><time>2026-04-18T08:13:17.009Z</time></trkpt><trkpt lat="43.5387117" lon="11.5724833"><ele>140.0</ele><time>2026-04-18T08:13:18.012Z</time></trkpt><trkpt lat="43.538665" lon="11.5725683"><ele>140.5</ele><time>2026-04-18T08:13:19.009Z</time></trkpt><trkpt lat="43.53862" lon="11.57265"><ele>141.0</ele><time>2026-04-18T08:13:20.01Z</time></trkpt><trkpt lat="43.5385717" lon="11.57273"><ele>141.5</ele><time>2026-04-18T08:13:21.009Z</time></trkpt><trkpt lat="43.53852" lon="11.5728117"><ele>142.0</ele><time>2026-04-18T08:13:22.009Z</time></trkpt><trkpt lat="43.53847" lon="11.572895"><ele>142.0</ele><time>2026-04-18T08:13:23.009Z</time></trkpt><trkpt lat="43.5384233" lon="11.5729783"><ele>142.0</ele><time>2026-04-18T08:13:24.01Z</time></trkpt><trkpt lat="43.5383733" lon="11.5730667"><ele>142.0</ele><time>2026-04-18T08:13:25.008Z</time></trkpt><trkpt lat="43.5383217" lon="11.5731533"><ele>142.0</ele><time>2026-04-18T08:13:26.009Z</time></trkpt><trkpt lat="43.5382717" lon="11.5732417"><ele>142.0</ele><time>2026-04-18T08:13:27.008Z</time></trkpt><trkpt lat="43.5382233" lon="11.57333"><ele>142.0</ele><time>2026-04-18T08:13:28.008Z</time></trkpt><trkpt lat="43.538175" lon="11.57342"><ele>142.0</ele><time>2026-04-18T08:13:29.011Z</time></trkpt><trkpt lat="43.5381283" lon="11.5735133"><ele>142.0</ele><time>2026-04-18T08:13:30.01Z</time></trkpt><trkpt lat="43.5380783" lon="11.5736017"><ele>142.0</ele><time>2026-04-18T08:13:31.008Z</time></trkpt><trkpt lat="43.5380283" lon="11.5736917"><ele>142.0</ele><time>2026-04-18T08:13:32.011Z</time></trkpt><trkpt lat="43.5379767" lon="11.5737767"><ele>142.0</ele><time>2026-04-18T08:13:33.01Z</time></trkpt><trkpt lat="43.5379267" lon="11.5738633"><ele>142.0</ele><time>2026-04-18T08:13:34.01Z</time></trkpt><trkpt lat="43.5378767" lon="11.5739533"><ele>142.16666666666669</ele><time>2026-04-18T08:13:35.009Z</time></trkpt><trkpt lat="43.5378267" lon="11.5740433"><ele>142.33333333333334</ele><time>2026-04-18T08:13:36.009Z</time></trkpt><trkpt lat="43.5377767" lon="11.574135"><ele>142.5</ele><time>2026-04-18T08:13:37.008Z</time></trkpt><trkpt lat="43.5377283" lon="11.5742267"><ele>142.66666666666666</ele><time>2026-04-18T08:13:38.011Z</time></trkpt><trkpt lat="43.5376783" lon="11.57432"><ele>142.83333333333331</ele><time>2026-04-18T08:13:39.01Z</time></trkpt><trkpt lat="43.53763" lon="11.574415"><ele>143.0</ele><time>2026-04-18T08:13:40.008Z</time></trkpt><trkpt lat="43.5375817" lon="11.5745083"><ele>142.66666666666666</ele><time>2026-04-18T08:13:41.009Z</time></trkpt><trkpt lat="43.53753" lon="11.5746"><ele>142.33333333333331</ele><time>2026-04-18T08:13:42.011Z</time></trkpt><trkpt lat="43.5374767" lon="11.5746933"><ele>142.0</ele><time>2026-04-18T08:13:43.01Z</time></trkpt><trkpt lat="43.5374233" lon="11.57478"><ele>141.66666666666666</ele><time>2026-04-18T08:13:44.011Z</time></trkpt><trkpt lat="43.5373717" lon="11.574865"><ele>141.33333333333334</ele><time>2026-04-18T08:13:45.011Z</time></trkpt><trkpt lat="43.5373217" lon="11.5749517"><ele>141.0</ele><time>2026-04-18T08:13:46.01Z</time></trkpt><trkpt lat="43.5372733" lon="11.5750417"><ele>141.0</ele><time>2026-04-18T08:13:47.009Z</time></trkpt><trkpt lat="43.5372233" lon="11.5751333"><ele>141.0</ele><time>2026-04-18T08:13:48.01Z</time></trkpt><trkpt lat="43.537175" lon="11.57522"><ele>141.0</ele><time>2026-04-18T08:13:49.011Z</time></trkpt><trkpt lat="43.537125" lon="11.5753067"><ele>141.0</ele><time>2026-04-18T08:13:50.011Z</time></trkpt><trkpt lat="43.5370767" lon="11.575395"><ele>141.0</ele><time>2026-04-18T08:13:51.009Z</time></trkpt><trkpt lat="43.5370267" lon="11.575485"><ele>141.0</ele><time>2026-04-18T08:13:52.009Z</time></trkpt><trkpt lat="43.5369767" lon="11.5755733"><ele>141.0</ele><time>2026-04-18T08:13:53.012Z</time></trkpt><trkpt lat="43.536925" lon="11.5756583"><ele>141.0</ele><time>2026-04-18T08:13:54.009Z</time></trkpt><trkpt lat="43.536875" lon="11.5757433"><ele>141.0</ele><time>2026-04-18T08:13:55.009Z</time></trkpt><trkpt lat="43.5368267" lon="11.5758367"><ele>141.0</ele><time>2026-04-18T08:13:56.012Z</time></trkpt><trkpt lat="43.536775" lon="11.5759267"><ele>141.0</ele><time>2026-04-18T08:13:57.01Z</time></trkpt><trkpt lat="43.5367233" lon="11.57602"><ele>141.0</ele><time>2026-04-18T08:13:58.009Z</time></trkpt><trkpt lat="43.5366733" lon="11.576115"><ele>141.16666666666666</ele><time>2026-04-18T08:13:59.009Z</time></trkpt><trkpt lat="43.5366267" lon="11.5762033"><ele>141.33333333333334</ele><time>2026-04-18T08:14:00.008Z</time></trkpt><trkpt lat="43.5365783" lon="11.5762917"><ele>141.5</ele><time>2026-04-18T08:14:01.009Z</time></trkpt><trkpt lat="43.5365317" lon="11.5763783"><ele>141.66666666666669</ele><time>2026-04-18T08:14:02.01Z</time></trkpt><trkpt lat="43.5364817" lon="11.576465"><ele>141.83333333333334</ele><time>2026-04-18T08:14:03.008Z</time></trkpt><trkpt lat="43.536435" lon="11.5765517"><ele>142.0</ele><time>2026-04-18T08:14:04.01Z</time></trkpt><trkpt lat="43.5363867" lon="11.57664"><ele>142.0</ele><time>2026-04-18T08:14:05.01Z</time></trkpt><trkpt lat="43.5363383" lon="11.5767267"><ele>142.0</ele><time>2026-04-18T08:14:06.01Z</time></trkpt><trkpt lat="43.5362883" lon="11.5768183"><ele>142.0</ele><time>2026-04-18T08:14:07.009Z</time></trkpt><trkpt lat="43.53624" lon="11.576905"><ele>142.0</ele><time>2026-04-18T08:14:08.011Z</time></trkpt><trkpt lat="43.5361883" lon="11.5769917"><ele>142.0</ele><time>2026-04-18T08:14:09.01Z</time></trkpt><trkpt lat="43.53614" lon="11.57708"><ele>142.0</ele><time>2026-04-18T08:14:10.009Z</time></trkpt><trkpt lat="43.53609" lon="11.5771683"><ele>141.83333333333334</ele><time>2026-04-18T08:14:11.01Z</time></trkpt><trkpt lat="43.5360383" lon="11.5772567"><ele>141.66666666666669</ele><time>2026-04-18T08:14:12.009Z</time></trkpt><trkpt lat="43.53599" lon="11.5773433"><ele>141.5</ele><time>2026-04-18T08:14:13.009Z</time></trkpt><trkpt lat="43.5359417" lon="11.5774283"><ele>141.33333333333334</ele><time>2026-04-18T08:14:14.009Z</time></trkpt><trkpt lat="43.5358933" lon="11.5775167"><ele>141.16666666666666</ele><time>2026-04-18T08:14:15.011Z</time></trkpt><trkpt lat="43.535845" lon="11.5776067"><ele>141.0</ele><time>2026-04-18T08:14:16.011Z</time></trkpt><trkpt lat="43.5357967" lon="11.5776933"><ele>141.0</ele><time>2026-04-18T08:14:17.01Z</time></trkpt><trkpt lat="43.5357467" lon="11.5777833"><ele>141.0</ele><time>2026-04-18T08:14:18.009Z</time></trkpt><trkpt lat="43.5356967" lon="11.57787"><ele>141.0</ele><time>2026-04-18T08:14:19.009Z</time></trkpt><trkpt lat="43.5356467" lon="11.57796"><ele>141.0</ele><time>2026-04-18T08:14:20.009Z</time></trkpt><trkpt lat="43.5355967" lon="11.5780533"><ele>141.0</ele><time>2026-04-18T08:14:21.008Z</time></trkpt><trkpt lat="43.535545" lon="11.578145"><ele>141.0</ele><time>2026-04-18T08:14:22.011Z</time></trkpt><trkpt lat="43.5354967" lon="11.5782333"><ele>141.0</ele><time>2026-04-18T08:14:23.01Z</time></trkpt><trkpt lat="43.5354483" lon="11.5783183"><ele>141.0</ele><time>2026-04-18T08:14:24.008Z</time></trkpt><trkpt lat="43.5353983" lon="11.5784083"><ele>141.0</ele><time>2026-04-18T08:14:25.01Z</time></trkpt><trkpt lat="43.53535" lon="11.578495"><ele>141.0</ele><time>2026-04-18T08:14:26.009Z</time></trkpt><trkpt lat="43.5353017" lon="11.5785817"><ele>141.0</ele><time>2026-04-18T08:14:27.01Z</time></trkpt><trkpt lat="43.5352517" lon="11.5786683"><ele>141.0</ele><time>2026-04-18T08:14:28.008Z</time></trkpt><trkpt lat="43.5352033" lon="11.578755"><ele>141.0</ele><time>2026-04-18T08:14:29.011Z</time></trkpt><trkpt lat="43.535155" lon="11.5788433"><ele>141.0</ele><time>2026-04-18T08:14:30.012Z</time></trkpt><trkpt lat="43.535105" lon="11.5789267"><ele>141.0</ele><time>2026-04-18T08:14:31.011Z</time></trkpt><trkpt lat="43.5350583" lon="11.57902"><ele>141.0</ele><time>2026-04-18T08:14:32.009Z</time></trkpt><trkpt lat="43.53501" lon="11.579105"><ele>141.0</ele><time>2026-04-18T08:14:33.009Z</time></trkpt><trkpt lat="43.53496" lon="11.5791967"><ele>141.0</ele><time>2026-04-18T08:14:34.01Z</time></trkpt><trkpt lat="43.53491" lon="11.5792817"><ele>141.0</ele><time>2026-04-18T08:14:35.01Z</time></trkpt><trkpt lat="43.53486" lon="11.5793717"><ele>141.0</ele><time>2026-04-18T08:14:36.01Z</time></trkpt><trkpt lat="43.5348117" lon="11.5794617"><ele>141.0</ele><time>2026-04-18T08:14:37.01Z</time></trkpt><trkpt lat="43.5347617" lon="11.5795483"><ele>141.0</ele><time>2026-04-18T08:14:38.009Z</time></trkpt><trkpt lat="43.534715" lon="11.5796367"><ele>141.0</ele><time>2026-04-18T08:14:39.008Z</time></trkpt><trkpt lat="43.534665" lon="11.5797233"><ele>141.0</ele><time>2026-04-18T08:14:40.01Z</time></trkpt><trkpt lat="43.534615" lon="11.5798133"><ele>141.33333333333334</ele><time>2026-04-18T08:14:41.008Z</time></trkpt><trkpt lat="43.534565" lon="11.5799"><ele>141.66666666666666</ele><time>2026-04-18T08:14:42.01Z</time></trkpt><trkpt lat="43.5345133" lon="11.5799867"><ele>142.0</ele><time>2026-04-18T08:14:43.01Z</time></trkpt><trkpt lat="43.53446" lon="11.5800733"><ele>142.33333333333331</ele><time>2026-04-18T08:14:44.009Z</time></trkpt><trkpt lat="43.53441" lon="11.5801583"><ele>142.66666666666666</ele><time>2026-04-18T08:14:45.01Z</time></trkpt><trkpt lat="43.5343583" lon="11.5802433"><ele>143.0</ele><time>2026-04-18T08:14:46.013Z</time></trkpt><trkpt lat="43.5343067" lon="11.580325"><ele>143.0</ele><time>2026-04-18T08:14:47.009Z</time></trkpt><trkpt lat="43.5342517" lon="11.5804133"><ele>143.0</ele><time>2026-04-18T08:14:48.011Z</time></trkpt><trkpt lat="43.5342" lon="11.580495"><ele>143.0</ele><time>2026-04-18T08:14:49.009Z</time></trkpt><trkpt lat="43.53415" lon="11.58058"><ele>143.0</ele><time>2026-04-18T08:14:50.01Z</time></trkpt><trkpt lat="43.5340983" lon="11.5806633"><ele>143.0</ele><time>2026-04-18T08:14:51.012Z</time></trkpt><trkpt lat="43.534045" lon="11.5807483"><ele>143.0</ele><time>2026-04-18T08:14:52.012Z</time></trkpt><trkpt lat="43.5339933" lon="11.580835"><ele>143.0</ele><time>2026-04-18T08:14:53.011Z</time></trkpt><trkpt lat="43.533945" lon="11.5809233"><ele>143.0</ele><time>2026-04-18T08:14:54.009Z</time></trkpt><trkpt lat="43.5338967" lon="11.58101"><ele>143.0</ele><time>2026-04-18T08:14:55.011Z</time></trkpt><trkpt lat="43.533845" lon="11.5810967"><ele>143.0</ele><time>2026-04-18T08:14:56.011Z</time></trkpt><trkpt lat="43.533795" lon="11.5811883"><ele>143.0</ele><time>2026-04-18T08:14:57.009Z</time></trkpt><trkpt lat="43.5337467" lon="11.5812783"><ele>143.0</ele><time>2026-04-18T08:14:58.012Z</time></trkpt><trkpt lat="43.5336967" lon="11.5813717"><ele>142.66666666666666</ele><time>2026-04-18T08:14:59.01Z</time></trkpt><trkpt lat="43.5336467" lon="11.58146"><ele>142.33333333333331</ele><time>2026-04-18T08:15:00.01Z</time></trkpt><trkpt lat="43.5335983" lon="11.58155"><ele>142.0</ele><time>2026-04-18T08:15:01.01Z</time></trkpt><trkpt lat="43.5335483" lon="11.581645"><ele>141.66666666666666</ele><time>2026-04-18T08:15:02.011Z</time></trkpt><trkpt lat="43.5335017" lon="11.5817333"><ele>141.33333333333334</ele><time>2026-04-18T08:15:03.01Z</time></trkpt><trkpt lat="43.533455" lon="11.5818267"><ele>141.0</ele><time>2026-04-18T08:15:04.01Z</time></trkpt><trkpt lat="43.5334117" lon="11.58192"><ele>141.0</ele><time>2026-04-18T08:15:05.01Z</time></trkpt><trkpt lat="43.5333667" lon="11.582005"><ele>141.0</ele><time>2026-04-18T08:15:06.01Z</time></trkpt><trkpt lat="43.5333217" lon="11.5820933"><ele>141.0</ele><time>2026-04-18T08:15:07.01Z</time></trkpt><trkpt lat="43.5332767" lon="11.5821833"><ele>141.0</ele><time>2026-04-18T08:15:08.01Z</time></trkpt><trkpt lat="43.53323" lon="11.5822767"><ele>141.0</ele><time>2026-04-18T08:15:09.011Z</time></trkpt><trkpt lat="43.5331833" lon="11.5823717"><ele>141.0</ele><time>2026-04-18T08:15:10.011Z</time></trkpt><trkpt lat="43.533135" lon="11.5824667"><ele>141.33333333333334</ele><time>2026-04-18T08:15:11.01Z</time></trkpt><trkpt lat="43.5330867" lon="11.5825583"><ele>141.66666666666666</ele><time>2026-04-18T08:15:12.009Z</time></trkpt><trkpt lat="43.53304" lon="11.5826483"><ele>142.0</ele><time>2026-04-18T08:15:13.012Z</time></trkpt><trkpt lat="43.5329917" lon="11.5827383"><ele>142.33333333333331</ele><time>2026-04-18T08:15:14.011Z</time></trkpt><trkpt lat="43.532945" lon="11.58282"><ele>142.66666666666666</ele><time>2026-04-18T08:15:15.01Z</time></trkpt><trkpt lat="43.5328983" lon="11.582905"><ele>143.0</ele><time>2026-04-18T08:15:16.01Z</time></trkpt><trkpt lat="43.5328517" lon="11.583"><ele>143.0</ele><time>2026-04-18T08:15:17.012Z</time></trkpt><trkpt lat="43.5328033" lon="11.583085"><ele>143.0</ele><time>2026-04-18T08:15:18.009Z</time></trkpt><trkpt lat="43.5327567" lon="11.5831733"><ele>143.0</ele><time>2026-04-18T08:15:19.012Z</time></trkpt><trkpt lat="43.53271" lon="11.58326"><ele>143.0</ele><time>2026-04-18T08:15:20.009Z</time></trkpt><trkpt lat="43.5326633" lon="11.5833467"><ele>143.0</ele><time>2026-04-18T08:15:21.01Z</time></trkpt><trkpt lat="43.532615" lon="11.5834333"><ele>143.0</ele><time>2026-04-18T08:15:22.01Z</time></trkpt><trkpt lat="43.5325667" lon="11.5835217"><ele>143.0</ele><time>2026-04-18T08:15:23.008Z</time></trkpt><trkpt lat="43.5325183" lon="11.583605"><ele>143.0</ele><time>2026-04-18T08:15:24.009Z</time></trkpt><trkpt lat="43.5324683" lon="11.5836917"><ele>143.0</ele><time>2026-04-18T08:15:25.008Z</time></trkpt><trkpt lat="43.53242" lon="11.5837783"><ele>143.0</ele><time>2026-04-18T08:15:26.01Z</time></trkpt><trkpt lat="43.5323733" lon="11.583865"><ele>143.0</ele><time>2026-04-18T08:15:27.009Z</time></trkpt><trkpt lat="43.5323283" lon="11.5839567"><ele>143.0</ele><time>2026-04-18T08:15:28.01Z</time></trkpt><trkpt lat="43.5322833" lon="11.5840467"><ele>143.0</ele><time>2026-04-18T08:15:29.009Z</time></trkpt><trkpt lat="43.5322367" lon="11.5841333"><ele>143.0</ele><time>2026-04-18T08:15:30.01Z</time></trkpt><trkpt lat="43.53219" lon="11.5842183"><ele>143.0</ele><time>2026-04-18T08:15:31.01Z</time></trkpt><trkpt lat="43.532145" lon="11.584305"><ele>143.0</ele><time>2026-04-18T08:15:32.009Z</time></trkpt><trkpt lat="43.5320983" lon="11.5843867"><ele>143.0</ele><time>2026-04-18T08:15:33.009Z</time></trkpt><trkpt lat="43.53205" lon="11.5844717"><ele>143.0</ele><time>2026-04-18T08:15:34.011Z</time></trkpt><trkpt lat="43.5320017" lon="11.5845567"><ele>143.16666666666666</ele><time>2026-04-18T08:15:35.009Z</time></trkpt><trkpt lat="43.5319533" lon="11.5846467"><ele>143.33333333333331</ele><time>2026-04-18T08:15:36.01Z</time></trkpt><trkpt lat="43.5319067" lon="11.5847367"><ele>143.5</ele><time>2026-04-18T08:15:37.012Z</time></trkpt><trkpt lat="43.5318583" lon="11.5848233"><ele>143.66666666666666</ele><time>2026-04-18T08:15:38.01Z</time></trkpt><trkpt lat="43.53181" lon="11.58491"><ele>143.83333333333334</ele><time>2026-04-18T08:15:39.008Z</time></trkpt><trkpt lat="43.5317633" lon="11.5849967"><ele>144.0</ele><time>2026-04-18T08:15:40.012Z</time></trkpt><trkpt lat="43.5317133" lon="11.585085"><ele>144.0</ele><time>2026-04-18T08:15:41.011Z</time></trkpt><trkpt lat="43.5316633" lon="11.5851733"><ele>144.0</ele><time>2026-04-18T08:15:42.009Z</time></trkpt><trkpt lat="43.5316133" lon="11.58526"><ele>144.0</ele><time>2026-04-18T08:15:43.01Z</time></trkpt><trkpt lat="43.5315633" lon="11.5853467"><ele>144.0</ele><time>2026-04-18T08:15:44.009Z</time></trkpt><trkpt lat="43.5315133" lon="11.5854367"><ele>144.0</ele><time>2026-04-18T08:15:45.009Z</time></trkpt><trkpt lat="43.531465" lon="11.5855233"><ele>144.0</ele><time>2026-04-18T08:15:46.009Z</time></trkpt><trkpt lat="43.5314183" lon="11.58561"><ele>143.83333333333334</ele><time>2026-04-18T08:15:47.011Z</time></trkpt><trkpt lat="43.5313717" lon="11.5856967"><ele>143.66666666666666</ele><time>2026-04-18T08:15:48.011Z</time></trkpt><trkpt lat="43.531325" lon="11.58578"><ele>143.5</ele><time>2026-04-18T08:15:49.01Z</time></trkpt><trkpt lat="43.5312767" lon="11.5858617"><ele>143.33333333333331</ele><time>2026-04-18T08:15:50.011Z</time></trkpt><trkpt lat="43.5312283" lon="11.585945"><ele>143.16666666666666</ele><time>2026-04-18T08:15:51.009Z</time></trkpt><trkpt lat="43.53118" lon="11.5860283"><ele>143.0</ele><time>2026-04-18T08:15:52.012Z</time></trkpt><trkpt lat="43.531135" lon="11.58611"><ele>143.0</ele><time>2026-04-18T08:15:53.01Z</time></trkpt><trkpt lat="43.5310883" lon="11.5861967"><ele>143.0</ele><time>2026-04-18T08:15:54.009Z</time></trkpt><trkpt lat="43.5310417" lon="11.5862833"><ele>143.0</ele><time>2026-04-18T08:15:55.01Z</time></trkpt><trkpt lat="43.530995" lon="11.5863683"><ele>143.0</ele><time>2026-04-18T08:15:56.009Z</time></trkpt><trkpt lat="43.5309483" lon="11.5864567"><ele>143.0</ele><time>2026-04-18T08:15:57.009Z</time></trkpt><trkpt lat="43.5309017" lon="11.5865433"><ele>143.0</ele><time>2026-04-18T08:15:58.009Z</time></trkpt><trkpt lat="43.530855" lon="11.586635"><ele>143.0</ele><time>2026-04-18T08:15:59.01Z</time></trkpt><trkpt lat="43.5308067" lon="11.5867233"><ele>143.0</ele><time>2026-04-18T08:16:00.009Z</time></trkpt><trkpt lat="43.53076" lon="11.58681"><ele>143.0</ele><time>2026-04-18T08:16:01.009Z</time></trkpt><trkpt lat="43.5307117" lon="11.5868967"><ele>143.0</ele><time>2026-04-18T08:16:02.01Z</time></trkpt><trkpt lat="43.530665" lon="11.586985"><ele>143.0</ele><time>2026-04-18T08:16:03.01Z</time></trkpt><trkpt lat="43.53062" lon="11.5870683"><ele>143.0</ele><time>2026-04-18T08:16:04.009Z</time></trkpt><trkpt lat="43.5305733" lon="11.5871517"><ele>143.16666666666666</ele><time>2026-04-18T08:16:05.01Z</time></trkpt><trkpt lat="43.5305267" lon="11.5872367"><ele>143.33333333333331</ele><time>2026-04-18T08:16:06.011Z</time></trkpt><trkpt lat="43.5304783" lon="11.5873267"><ele>143.5</ele><time>2026-04-18T08:16:07.012Z</time></trkpt><trkpt lat="43.5304333" lon="11.5874117"><ele>143.66666666666666</ele><time>2026-04-18T08:16:08.01Z</time></trkpt><trkpt lat="43.530385" lon="11.587495"><ele>143.83333333333334</ele><time>2026-04-18T08:16:09.011Z</time></trkpt><trkpt lat="43.5303367" lon="11.58758"><ele>144.0</ele><time>2026-04-18T08:16:10.01Z</time></trkpt><trkpt lat="43.5302883" lon="11.5876667"><ele>144.16666666666666</ele><time>2026-04-18T08:16:11.009Z</time></trkpt><trkpt lat="43.5302417" lon="11.5877533"><ele>144.33333333333334</ele><time>2026-04-18T08:16:12.012Z</time></trkpt><trkpt lat="43.5301933" lon="11.5878367"><ele>144.5</ele><time>2026-04-18T08:16:13.009Z</time></trkpt><trkpt lat="43.530145" lon="11.5879183"><ele>144.66666666666669</ele><time>2026-04-18T08:16:14.011Z</time></trkpt><trkpt lat="43.5300967" lon="11.588"><ele>144.83333333333334</ele><time>2026-04-18T08:16:15.01Z</time></trkpt><trkpt lat="43.5300483" lon="11.58808"><ele>145.0</ele><time>2026-04-18T08:16:16.011Z</time></trkpt><trkpt lat="43.53" lon="11.5881683"><ele>145.0</ele><time>2026-04-18T08:16:17.01Z</time></trkpt><trkpt lat="43.5299533" lon="11.588255"><ele>145.0</ele><time>2026-04-18T08:16:18.009Z</time></trkpt><trkpt lat="43.5299067" lon="11.5883417"><ele>145.0</ele><time>2026-04-18T08:16:19.011Z</time></trkpt><trkpt lat="43.5298583" lon="11.5884283"><ele>145.0</ele><time>2026-04-18T08:16:20.009Z</time></trkpt><trkpt lat="43.5298117" lon="11.58852"><ele>145.0</ele><time>2026-04-18T08:16:21.009Z</time></trkpt><trkpt lat="43.529765" lon="11.5886083"><ele>145.0</ele><time>2026-04-18T08:16:22.013Z</time></trkpt><trkpt lat="43.52972" lon="11.5886967"><ele>145.0</ele><time>2026-04-18T08:16:23.012Z</time></trkpt><trkpt lat="43.5296733" lon="11.58878"><ele>145.0</ele><time>2026-04-18T08:16:24.012Z</time></trkpt><trkpt lat="43.52963" lon="11.5888667"><ele>145.0</ele><time>2026-04-18T08:16:25.011Z</time></trkpt><trkpt lat="43.5295867" lon="11.5889533"><ele>145.0</ele><time>2026-04-18T08:16:26.01Z</time></trkpt><trkpt lat="43.5295417" lon="11.5890417"><ele>145.0</ele><time>2026-04-18T08:16:27.009Z</time></trkpt><trkpt lat="43.5294967" lon="11.5891333"><ele>145.0</ele><time>2026-04-18T08:16:28.01Z</time></trkpt><trkpt lat="43.5294467" lon="11.5892233"><ele>145.0</ele><time>2026-04-18T08:16:29.009Z</time></trkpt><trkpt lat="43.5294017" lon="11.58931"><ele>145.0</ele><time>2026-04-18T08:16:30.009Z</time></trkpt><trkpt lat="43.5293583" lon="11.589395"><ele>145.0</ele><time>2026-04-18T08:16:31.011Z</time></trkpt><trkpt lat="43.5293167" lon="11.5894767"><ele>145.0</ele><time>2026-04-18T08:16:32.011Z</time></trkpt><trkpt lat="43.529275" lon="11.5895567"><ele>145.0</ele><time>2026-04-18T08:16:33.009Z</time></trkpt><trkpt lat="43.52923" lon="11.589635"><ele>145.0</ele><time>2026-04-18T08:16:34.011Z</time></trkpt><trkpt lat="43.5291883" lon="11.5897133"><ele>145.0</ele><time>2026-04-18T08:16:35.011Z</time></trkpt><trkpt lat="43.5291467" lon="11.5897933"><ele>145.0</ele><time>2026-04-18T08:16:36.01Z</time></trkpt><trkpt lat="43.529105" lon="11.5898733"><ele>145.0</ele><time>2026-04-18T08:16:37.011Z</time></trkpt><trkpt lat="43.5290633" lon="11.5899517"><ele>145.0</ele><time>2026-04-18T08:16:38.01Z</time></trkpt><trkpt lat="43.5290183" lon="11.5900317"><ele>145.0</ele><time>2026-04-18T08:16:39.01Z</time></trkpt><trkpt lat="43.528975" lon="11.5901133"><ele>145.0</ele><time>2026-04-18T08:16:40.01Z</time></trkpt><trkpt lat="43.5289317" lon="11.59019"><ele>145.0</ele><time>2026-04-18T08:16:41.011Z</time></trkpt><trkpt lat="43.5288867" lon="11.5902667"><ele>145.0</ele><time>2026-04-18T08:16:42.011Z</time></trkpt><trkpt lat="43.5288417" lon="11.5903433"><ele>145.28571428571428</ele><time>2026-04-18T08:16:43.012Z</time></trkpt><trkpt lat="43.5287983" lon="11.5904217"><ele>145.57142857142858</ele><time>2026-04-18T08:16:44.01Z</time></trkpt><trkpt lat="43.5287567" lon="11.5905"><ele>145.85714285714286</ele><time>2026-04-18T08:16:45.01Z</time></trkpt><trkpt lat="43.5287167" lon="11.590575"><ele>146.14285714285714</ele><time>2026-04-18T08:16:46.009Z</time></trkpt><trkpt lat="43.5286767" lon="11.5906467"><ele>146.42857142857144</ele><time>2026-04-18T08:16:47.009Z</time></trkpt><trkpt lat="43.5286367" lon="11.5907217"><ele>146.71428571428572</ele><time>2026-04-18T08:16:48.01Z</time></trkpt><trkpt lat="43.5285983" lon="11.590795"><ele>147.0</ele><time>2026-04-18T08:16:49.009Z</time></trkpt><trkpt lat="43.52856" lon="11.5908717"><ele>147.0</ele><time>2026-04-18T08:16:50.009Z</time></trkpt><trkpt lat="43.5285233" lon="11.5909433"><ele>147.0</ele><time>2026-04-18T08:16:51.008Z</time></trkpt><trkpt lat="43.5284883" lon="11.5910233"><ele>147.0</ele><time>2026-04-18T08:16:52.012Z</time></trkpt><trkpt lat="43.5284517" lon="11.5911033"><ele>147.0</ele><time>2026-04-18T08:16:53.008Z</time></trkpt><trkpt lat="43.5284167" lon="11.5911883"><ele>147.0</ele><time>2026-04-18T08:16:54.009Z</time></trkpt><trkpt lat="43.5283833" lon="11.591275"><ele>147.0</ele><time>2026-04-18T08:16:55.01Z</time></trkpt><trkpt lat="43.5283533" lon="11.591365"><ele>147.0</ele><time>2026-04-18T08:16:56.01Z</time></trkpt><trkpt lat="43.5283217" lon="11.591455"><ele>147.0</ele><time>2026-04-18T08:16:57.009Z</time></trkpt><trkpt lat="43.5282933" lon="11.591545"><ele>147.0</ele><time>2026-04-18T08:16:58.01Z</time></trkpt><trkpt lat="43.5282667" lon="11.591635"><ele>147.0</ele><time>2026-04-18T08:16:59.009Z</time></trkpt><trkpt lat="43.5282417" lon="11.5917233"><ele>147.0</ele><time>2026-04-18T08:17:00.009Z</time></trkpt><trkpt lat="43.52822" lon="11.5918167"><ele>147.0</ele><time>2026-04-18T08:17:01.009Z</time></trkpt><trkpt lat="43.5282017" lon="11.5919133"><ele>147.0</ele><time>2026-04-18T08:17:02.011Z</time></trkpt><trkpt lat="43.528185" lon="11.592015"><ele>147.0</ele><time>2026-04-18T08:17:03.01Z</time></trkpt><trkpt lat="43.5281683" lon="11.5921217"><ele>147.85714285714286</ele><time>2026-04-18T08:17:04.009Z</time></trkpt><trkpt lat="43.5281517" lon="11.5922233"><ele>148.71428571428572</ele><time>2026-04-18T08:17:05.009Z</time></trkpt><trkpt lat="43.528135" lon="11.5923283"><ele>149.57142857142856</ele><time>2026-04-18T08:17:06.008Z</time></trkpt><trkpt lat="43.528115" lon="11.5924267"><ele>150.42857142857144</ele><time>2026-04-18T08:17:07.01Z</time></trkpt><trkpt lat="43.5280967" lon="11.59252"><ele>151.28571428571428</ele><time>2026-04-18T08:17:08.01Z</time></trkpt><trkpt lat="43.5280817" lon="11.592615"><ele>152.14285714285714</ele><time>2026-04-18T08:17:09.01Z</time></trkpt><trkpt lat="43.528065" lon="11.5927083"><ele>153.0</ele><time>2026-04-18T08:17:10.01Z</time></trkpt><trkpt lat="43.5280483" lon="11.5928017"><ele>153.6</ele><time>2026-04-18T08:17:11.011Z</time></trkpt><trkpt lat="43.52803" lon="11.592895"><ele>154.20000000000002</ele><time>2026-04-18T08:17:12.01Z</time></trkpt><trkpt lat="43.52799" lon="11.593035"><ele>154.8</ele><time>2026-04-18T08:17:14.011Z</time></trkpt><trkpt lat="43.5279417" lon="11.593185"><ele>155.4</ele><time>2026-04-18T08:17:16.01Z</time></trkpt><trkpt lat="43.5278783" lon="11.5933233"><ele>156.0</ele><time>2026-04-18T08:17:18.01Z</time></trkpt><trkpt lat="43.5277983" lon="11.593445"><ele>153.5</ele><time>2026-04-18T08:17:20.011Z</time></trkpt><trkpt lat="43.5277067" lon="11.5935383"><ele>151.0</ele><time>2026-04-18T08:17:22.01Z</time></trkpt><trkpt lat="43.5276017" lon="11.5936"><ele>148.5</ele><time>2026-04-18T08:17:24.009Z</time></trkpt><trkpt lat="43.52749" lon="11.59363"><ele>146.0</ele><time>2026-04-18T08:17:26.011Z</time></trkpt><trkpt lat="43.5273733" lon="11.5936283"><ele>146.0</ele><time>2026-04-18T08:17:28.009Z</time></trkpt><trkpt lat="43.527265" lon="11.5935833"><ele>146.0</ele><time>2026-04-18T08:17:30.01Z</time></trkpt><trkpt lat="43.5271567" lon="11.59352"><ele>146.0</ele><time>2026-04-18T08:17:32.011Z</time></trkpt><trkpt lat="43.52706" lon="11.593435"><ele>146.0</ele><time>2026-04-18T08:17:34.008Z</time></trkpt><trkpt lat="43.52697" lon="11.5933417"><ele>145.8</ele><time>2026-04-18T08:17:36.01Z</time></trkpt><trkpt lat="43.5268833" lon="11.5932533"><ele>145.6</ele><time>2026-04-18T08:17:38.01Z</time></trkpt><trkpt lat="43.5267883" lon="11.5931533"><ele>145.4</ele><time>2026-04-18T08:17:40.009Z</time></trkpt><trkpt lat="43.5267367" lon="11.5930983"><ele>145.2</ele><time>2026-04-18T08:17:41.009Z</time></trkpt><trkpt lat="43.5266383" lon="11.59299"><ele>145.0</ele><time>2026-04-18T08:17:43.009Z</time></trkpt><trkpt lat="43.5265883" lon="11.5929333"><ele>145.0</ele><time>2026-04-18T08:17:44.012Z</time></trkpt><trkpt lat="43.5265383" lon="11.592875"><ele>145.0</ele><time>2026-04-18T08:17:45.008Z</time></trkpt><trkpt lat="43.52649" lon="11.5928183"><ele>145.0</ele><time>2026-04-18T08:17:46.009Z</time></trkpt><trkpt lat="43.5264367" lon="11.5927567"><ele>145.0</ele><time>2026-04-18T08:17:47.01Z</time></trkpt><trkpt lat="43.5263833" lon="11.5926967"><ele>145.0</ele><time>2026-04-18T08:17:48.011Z</time></trkpt><trkpt lat="43.5263233" lon="11.5926383"><ele>145.0</ele><time>2026-04-18T08:17:49.009Z</time></trkpt><trkpt lat="43.5262683" lon="11.5925783"><ele>145.0</ele><time>2026-04-18T08:17:50.011Z</time></trkpt><trkpt lat="43.526215" lon="11.592515"><ele>144.85714285714286</ele><time>2026-04-18T08:17:51.011Z</time></trkpt><trkpt lat="43.526155" lon="11.5924533"><ele>144.71428571428572</ele><time>2026-04-18T08:17:52.011Z</time></trkpt><trkpt lat="43.5261033" lon="11.5923933"><ele>144.57142857142858</ele><time>2026-04-18T08:17:53.011Z</time></trkpt><trkpt lat="43.5260383" lon="11.5923283"><ele>144.42857142857144</ele><time>2026-04-18T08:17:54.009Z</time></trkpt><trkpt lat="43.5259817" lon="11.592265"><ele>144.28571428571428</ele><time>2026-04-18T08:17:55.011Z</time></trkpt><trkpt lat="43.5259233" lon="11.5922"><ele>144.14285714285717</ele><time>2026-04-18T08:17:56.012Z</time></trkpt><trkpt lat="43.525865" lon="11.5921383"><ele>144.0</ele><time>2026-04-18T08:17:57.01Z</time></trkpt><trkpt lat="43.5258083" lon="11.592075"><ele>144.00000000000003</ele><time>2026-04-18T08:17:58.011Z</time></trkpt><trkpt lat="43.5257483" lon="11.5920133"><ele>144.0</ele><time>2026-04-18T08:17:59.01Z</time></trkpt><trkpt lat="43.5256883" lon="11.59195"><ele>144.0</ele><time>2026-04-18T08:18:00.011Z</time></trkpt><trkpt lat="43.52563" lon="11.5918833"><ele>144.0</ele><time>2026-04-18T08:18:01.012Z</time></trkpt><trkpt lat="43.5255733" lon="11.5918233"><ele>144.0</ele><time>2026-04-18T08:18:02.01Z</time></trkpt><trkpt lat="43.52552" lon="11.591765"><ele>144.00000000000003</ele><time>2026-04-18T08:18:03.01Z</time></trkpt><trkpt lat="43.5254617" lon="11.5917033"><ele>144.0</ele><time>2026-04-18T08:18:04.01Z</time></trkpt><trkpt lat="43.525405" lon="11.59164"><ele>144.16666666666666</ele><time>2026-04-18T08:18:05.012Z</time></trkpt><trkpt lat="43.5253483" lon="11.5915767"><ele>144.33333333333334</ele><time>2026-04-18T08:18:06.01Z</time></trkpt><trkpt lat="43.5252867" lon="11.59151"><ele>144.5</ele><time>2026-04-18T08:18:07.01Z</time></trkpt><trkpt lat="43.5252267" lon="11.5914433"><ele>144.66666666666669</ele><time>2026-04-18T08:18:08.011Z</time></trkpt><trkpt lat="43.5251633" lon="11.5913733"><ele>144.83333333333334</ele><time>2026-04-18T08:18:09.01Z</time></trkpt><trkpt lat="43.5251" lon="11.5913067"><ele>145.0</ele><time>2026-04-18T08:18:10.011Z</time></trkpt><trkpt lat="43.5250383" lon="11.5912383"><ele>144.5</ele><time>2026-04-18T08:18:11.012Z</time></trkpt><trkpt lat="43.5249767" lon="11.5911683"><ele>144.0</ele><time>2026-04-18T08:18:12.009Z</time></trkpt><trkpt lat="43.5249083" lon="11.5911"><ele>143.5</ele><time>2026-04-18T08:18:13.012Z</time></trkpt><trkpt lat="43.5248383" lon="11.591025"><ele>143.0</ele><time>2026-04-18T08:18:14.011Z</time></trkpt><trkpt lat="43.5247733" lon="11.59095"><ele>142.5</ele><time>2026-04-18T08:18:15.01Z</time></trkpt><trkpt lat="43.524705" lon="11.5908783"><ele>142.0</ele><time>2026-04-18T08:18:16.01Z</time></trkpt><trkpt lat="43.5246383" lon="11.5908067"><ele>142.0</ele><time>2026-04-18T08:18:17.009Z</time></trkpt><trkpt lat="43.5245683" lon="11.5907333"><ele>142.0</ele><time>2026-04-18T08:18:18.011Z</time></trkpt><trkpt lat="43.5244967" lon="11.59066"><ele>142.0</ele><time>2026-04-18T08:18:19.01Z</time></trkpt><trkpt lat="43.5244233" lon="11.590585"><ele>142.0</ele><time>2026-04-18T08:18:20.011Z</time></trkpt><trkpt lat="43.5243517" lon="11.5905083"><ele>142.0</ele><time>2026-04-18T08:18:21.011Z</time></trkpt><trkpt lat="43.524285" lon="11.5904333"><ele>142.0</ele><time>2026-04-18T08:18:22.01Z</time></trkpt><trkpt lat="43.5242217" lon="11.59036"><ele>142.0</ele><time>2026-04-18T08:18:23.011Z</time></trkpt><trkpt lat="43.52416" lon="11.5902883"><ele>142.0</ele><time>2026-04-18T08:18:24.009Z</time></trkpt><trkpt lat="43.524105" lon="11.5902117"><ele>142.0</ele><time>2026-04-18T08:18:25.01Z</time></trkpt><trkpt lat="43.5240567" lon="11.5901233"><ele>142.0</ele><time>2026-04-18T08:18:26.01Z</time></trkpt><trkpt lat="43.5240233" lon="11.5900267"><ele>142.0</ele><time>2026-04-18T08:18:27.011Z</time></trkpt><trkpt lat="43.5240017" lon="11.5899283"><ele>142.0</ele><time>2026-04-18T08:18:28.01Z</time></trkpt><trkpt lat="43.52398" lon="11.5898383"><ele>142.0</ele><time>2026-04-18T08:18:29.01Z</time></trkpt><trkpt lat="43.5239483" lon="11.5897567"><ele>142.0</ele><time>2026-04-18T08:18:30.011Z</time></trkpt><trkpt lat="43.5239017" lon="11.589685"><ele>142.0</ele><time>2026-04-18T08:18:31.01Z</time></trkpt><trkpt lat="43.523845" lon="11.5896333"><ele>142.0</ele><time>2026-04-18T08:18:32.011Z</time></trkpt><trkpt lat="43.5237817" lon="11.5896083"><ele>142.0</ele><time>2026-04-18T08:18:33.011Z</time></trkpt><trkpt lat="43.5237167" lon="11.5896117"><ele>142.0</ele><time>2026-04-18T08:18:34.008Z</time></trkpt><trkpt lat="43.523655" lon="11.589645"><ele>142.0</ele><time>2026-04-18T08:18:35.01Z</time></trkpt><trkpt lat="43.5236083" lon="11.5897033"><ele>142.28571428571428</ele><time>2026-04-18T08:18:36.01Z</time></trkpt><trkpt lat="43.52357" lon="11.58978"><ele>142.57142857142856</ele><time>2026-04-18T08:18:37.013Z</time></trkpt><trkpt lat="43.5235417" lon="11.5898667"><ele>142.85714285714286</ele><time>2026-04-18T08:18:38.011Z</time></trkpt><trkpt lat="43.523525" lon="11.5899617"><ele>143.14285714285714</ele><time>2026-04-18T08:18:39.011Z</time></trkpt><trkpt lat="43.5235117" lon="11.5900583"><ele>143.42857142857144</ele><time>2026-04-18T08:18:40.008Z</time></trkpt><trkpt lat="43.523495" lon="11.5901583"><ele>143.71428571428572</ele><time>2026-04-18T08:18:41.011Z</time></trkpt><trkpt lat="43.523465" lon="11.5902467"><ele>144.0</ele><time>2026-04-18T08:18:42.008Z</time></trkpt><trkpt lat="43.523425" lon="11.5903267"><ele>144.00000000000003</ele><time>2026-04-18T08:18:43.01Z</time></trkpt><trkpt lat="43.52338" lon="11.5904017"><ele>144.0</ele><time>2026-04-18T08:18:44.011Z</time></trkpt><trkpt lat="43.5233333" lon="11.5904767"><ele>144.0</ele><time>2026-04-18T08:18:45.01Z</time></trkpt><trkpt lat="43.5232867" lon="11.59055"><ele>144.0</ele><time>2026-04-18T08:18:46.01Z</time></trkpt><trkpt lat="43.52324" lon="11.5906217"><ele>144.0</ele><time>2026-04-18T08:18:47.009Z</time></trkpt><trkpt lat="43.52319" lon="11.5906917"><ele>144.00000000000003</ele><time>2026-04-18T08:18:48.009Z</time></trkpt><trkpt lat="43.5231417" lon="11.5907617"><ele>144.0</ele><time>2026-04-18T08:18:49.007Z</time></trkpt><trkpt lat="43.5230917" lon="11.59083"><ele>144.00000000000003</ele><time>2026-04-18T08:18:50.009Z</time></trkpt><trkpt lat="43.5230417" lon="11.5908983"><ele>144.0</ele><time>2026-04-18T08:18:51.01Z</time></trkpt><trkpt lat="43.5229917" lon="11.59097"><ele>144.0</ele><time>2026-04-18T08:18:52.011Z</time></trkpt><trkpt lat="43.5229417" lon="11.5910367"><ele>144.0</ele><time>2026-04-18T08:18:53.01Z</time></trkpt><trkpt lat="43.5228883" lon="11.591105"><ele>144.0</ele><time>2026-04-18T08:18:54.011Z</time></trkpt><trkpt lat="43.5228367" lon="11.591175"><ele>144.00000000000003</ele><time>2026-04-18T08:18:55.009Z</time></trkpt><trkpt lat="43.5227867" lon="11.5912433"><ele>144.0</ele><time>2026-04-18T08:18:56.01Z</time></trkpt><trkpt lat="43.5227317" lon="11.5913133"><ele>144.00000000000003</ele><time>2026-04-18T08:18:57.011Z</time></trkpt><trkpt lat="43.5226783" lon="11.5913833"><ele>144.0</ele><time>2026-04-18T08:18:58.012Z</time></trkpt><trkpt lat="43.5226217" lon="11.59145"><ele>144.0</ele><time>2026-04-18T08:18:59.011Z</time></trkpt><trkpt lat="43.522565" lon="11.5915183"><ele>144.0</ele><time>2026-04-18T08:19:00.009Z</time></trkpt><trkpt lat="43.5225067" lon="11.591585"><ele>144.0</ele><time>2026-04-18T08:19:01.01Z</time></trkpt><trkpt lat="43.52245" lon="11.59165"><ele>144.00000000000003</ele><time>2026-04-18T08:19:02.012Z</time></trkpt><trkpt lat="43.5223933" lon="11.591715"><ele>144.0</ele><time>2026-04-18T08:19:03.01Z</time></trkpt><trkpt lat="43.522335" lon="11.59178"><ele>144.0</ele><time>2026-04-18T08:19:04.01Z</time></trkpt><trkpt lat="43.5222733" lon="11.5918467"><ele>144.0</ele><time>2026-04-18T08:19:05.011Z</time></trkpt><trkpt lat="43.522215" lon="11.5919133"><ele>144.0</ele><time>2026-04-18T08:19:06.01Z</time></trkpt><trkpt lat="43.5221533" lon="11.591975"><ele>144.0</ele><time>2026-04-18T08:19:07.009Z</time></trkpt><trkpt lat="43.5220917" lon="11.5920417"><ele>144.0</ele><time>2026-04-18T08:19:08.011Z</time></trkpt><trkpt lat="43.5220333" lon="11.5921117"><ele>144.0</ele><time>2026-04-18T08:19:09.011Z</time></trkpt><trkpt lat="43.521975" lon="11.5921733"><ele>143.66666666666666</ele><time>2026-04-18T08:19:10.011Z</time></trkpt><trkpt lat="43.521915" lon="11.59224"><ele>143.33333333333334</ele><time>2026-04-18T08:19:11.009Z</time></trkpt><trkpt lat="43.5218533" lon="11.5923033"><ele>143.0</ele><time>2026-04-18T08:19:12.009Z</time></trkpt><trkpt lat="43.5217933" lon="11.5923683"><ele>142.66666666666669</ele><time>2026-04-18T08:19:13.01Z</time></trkpt><trkpt lat="43.5217317" lon="11.5924333"><ele>142.33333333333334</ele><time>2026-04-18T08:19:14.012Z</time></trkpt><trkpt lat="43.5216717" lon="11.5924967"><ele>142.0</ele><time>2026-04-18T08:19:15.011Z</time></trkpt><trkpt lat="43.5216117" lon="11.5925567"><ele>142.0</ele><time>2026-04-18T08:19:16.008Z</time></trkpt><trkpt lat="43.5215483" lon="11.59262"><ele>142.0</ele><time>2026-04-18T08:19:17.009Z</time></trkpt><trkpt lat="43.5214883" lon="11.5926817"><ele>142.0</ele><time>2026-04-18T08:19:18.01Z</time></trkpt><trkpt lat="43.5214283" lon="11.5927433"><ele>142.0</ele><time>2026-04-18T08:19:19.01Z</time></trkpt><trkpt lat="43.5213667" lon="11.592805"><ele>142.0</ele><time>2026-04-18T08:19:20.011Z</time></trkpt><trkpt lat="43.5213033" lon="11.5928667"><ele>142.0</ele><time>2026-04-18T08:19:21.011Z</time></trkpt><trkpt lat="43.5212417" lon="11.59293"><ele>142.0</ele><time>2026-04-18T08:19:22.01Z</time></trkpt><trkpt lat="43.5211783" lon="11.5929983"><ele>142.0</ele><time>2026-04-18T08:19:23.009Z</time></trkpt><trkpt lat="43.5211167" lon="11.593065"><ele>142.0</ele><time>2026-04-18T08:19:24.011Z</time></trkpt><trkpt lat="43.521055" lon="11.59313"><ele>142.0</ele><time>2026-04-18T08:19:25.01Z</time></trkpt><trkpt lat="43.5209933" lon="11.593195"><ele>142.0</ele><time>2026-04-18T08:19:26.011Z</time></trkpt><trkpt lat="43.5209317" lon="11.59326"><ele>142.0</ele><time>2026-04-18T08:19:27.009Z</time></trkpt><trkpt lat="43.52087" lon="11.5933217"><ele>142.0</ele><time>2026-04-18T08:19:28.01Z</time></trkpt><trkpt lat="43.52081" lon="11.5933817"><ele>142.0</ele><time>2026-04-18T08:19:29.01Z</time></trkpt><trkpt lat="43.5207483" lon="11.593445"><ele>142.0</ele><time>2026-04-18T08:19:30.01Z</time></trkpt><trkpt lat="43.5206867" lon="11.5935067"><ele>142.0</ele><time>2026-04-18T08:19:31.01Z</time></trkpt><trkpt lat="43.520625" lon="11.5935683"><ele>142.0</ele><time>2026-04-18T08:19:32.01Z</time></trkpt><trkpt lat="43.520565" lon="11.59363"><ele>142.0</ele><time>2026-04-18T08:19:33.01Z</time></trkpt><trkpt lat="43.520505" lon="11.5936933"><ele>142.33333333333334</ele><time>2026-04-18T08:19:34.009Z</time></trkpt><trkpt lat="43.5204433" lon="11.5937533"><ele>142.66666666666669</ele><time>2026-04-18T08:19:35.01Z</time></trkpt><trkpt lat="43.5203833" lon="11.593815"><ele>143.0</ele><time>2026-04-18T08:19:36.008Z</time></trkpt><trkpt lat="43.5203233" lon="11.59388"><ele>143.33333333333334</ele><time>2026-04-18T08:19:37.009Z</time></trkpt><trkpt lat="43.5202633" lon="11.5939433"><ele>143.66666666666666</ele><time>2026-04-18T08:19:38.011Z</time></trkpt><trkpt lat="43.5202033" lon="11.5940083"><ele>144.0</ele><time>2026-04-18T08:19:39.011Z</time></trkpt><trkpt lat="43.5201417" lon="11.5940717"><ele>144.0</ele><time>2026-04-18T08:19:40.01Z</time></trkpt><trkpt lat="43.5200817" lon="11.594135"><ele>144.0</ele><time>2026-04-18T08:19:41.007Z</time></trkpt><trkpt lat="43.5200217" lon="11.5942"><ele>144.0</ele><time>2026-04-18T08:19:42.01Z</time></trkpt><trkpt lat="43.5199617" lon="11.5942617"><ele>144.0</ele><time>2026-04-18T08:19:43.011Z</time></trkpt><trkpt lat="43.5199017" lon="11.5943217"><ele>144.0</ele><time>2026-04-18T08:19:44.01Z</time></trkpt><trkpt lat="43.5198417" lon="11.594385"><ele>144.0</ele><time>2026-04-18T08:19:45.01Z</time></trkpt><trkpt lat="43.51978" lon="11.5944483"><ele>144.0</ele><time>2026-04-18T08:19:46.009Z</time></trkpt><trkpt lat="43.51972" lon="11.59451"><ele>144.0</ele><time>2026-04-18T08:19:47.01Z</time></trkpt><trkpt lat="43.5196583" lon="11.59457"><ele>144.0</ele><time>2026-04-18T08:19:48.01Z</time></trkpt><trkpt lat="43.5195967" lon="11.5946333"><ele>144.0</ele><time>2026-04-18T08:19:49.01Z</time></trkpt><trkpt lat="43.5195383" lon="11.5946983"><ele>144.0</ele><time>2026-04-18T08:19:50.011Z</time></trkpt><trkpt lat="43.5194783" lon="11.5947617"><ele>144.0</ele><time>2026-04-18T08:19:51.01Z</time></trkpt><trkpt lat="43.5194183" lon="11.5948233"><ele>143.85714285714286</ele><time>2026-04-18T08:19:52.011Z</time></trkpt><trkpt lat="43.5193583" lon="11.594885"><ele>143.71428571428572</ele><time>2026-04-18T08:19:53.012Z</time></trkpt><trkpt lat="43.5193" lon="11.594945"><ele>143.57142857142856</ele><time>2026-04-18T08:19:54.01Z</time></trkpt><trkpt lat="43.51924" lon="11.5950067"><ele>143.42857142857144</ele><time>2026-04-18T08:19:55.012Z</time></trkpt><trkpt lat="43.5191817" lon="11.59507"><ele>143.28571428571428</ele><time>2026-04-18T08:19:56.011Z</time></trkpt><trkpt lat="43.5191233" lon="11.5951317"><ele>143.14285714285714</ele><time>2026-04-18T08:19:57.008Z</time></trkpt><trkpt lat="43.5190633" lon="11.59519"><ele>143.0</ele><time>2026-04-18T08:19:58.01Z</time></trkpt><trkpt lat="43.5190033" lon="11.59525"><ele>142.99999999999997</ele><time>2026-04-18T08:19:59.01Z</time></trkpt><trkpt lat="43.5189467" lon="11.5953083"><ele>143.0</ele><time>2026-04-18T08:20:00.011Z</time></trkpt><trkpt lat="43.5188867" lon="11.59537"><ele>143.0</ele><time>2026-04-18T08:20:01.01Z</time></trkpt><trkpt lat="43.5188283" lon="11.59543"><ele>143.0</ele><time>2026-04-18T08:20:02.01Z</time></trkpt><trkpt lat="43.5187683" lon="11.595495"><ele>143.0</ele><time>2026-04-18T08:20:03.011Z</time></trkpt><trkpt lat="43.5187083" lon="11.5955583"><ele>142.99999999999997</ele><time>2026-04-18T08:20:04.009Z</time></trkpt><trkpt lat="43.5186483" lon="11.5956167"><ele>143.0</ele><time>2026-04-18T08:20:05.01Z</time></trkpt><trkpt lat="43.51859" lon="11.595685"><ele>143.16666666666666</ele><time>2026-04-18T08:20:06.01Z</time></trkpt><trkpt lat="43.5185333" lon="11.59575"><ele>143.33333333333331</ele><time>2026-04-18T08:20:07.011Z</time></trkpt><trkpt lat="43.5184767" lon="11.5958233"><ele>143.5</ele><time>2026-04-18T08:20:08.01Z</time></trkpt><trkpt lat="43.5184233" lon="11.5958933"><ele>143.66666666666666</ele><time>2026-04-18T08:20:09.009Z</time></trkpt><trkpt lat="43.5183717" lon="11.595965"><ele>143.83333333333334</ele><time>2026-04-18T08:20:10.009Z</time></trkpt><trkpt lat="43.5183167" lon="11.5960383"><ele>144.0</ele><time>2026-04-18T08:20:11.009Z</time></trkpt><trkpt lat="43.518265" lon="11.5961183"><ele>143.83333333333334</ele><time>2026-04-18T08:20:12.009Z</time></trkpt><trkpt lat="43.518215" lon="11.5961983"><ele>143.66666666666666</ele><time>2026-04-18T08:20:13.01Z</time></trkpt><trkpt lat="43.5181683" lon="11.5962767"><ele>143.5</ele><time>2026-04-18T08:20:14.01Z</time></trkpt><trkpt lat="43.51812" lon="11.59636"><ele>143.33333333333331</ele><time>2026-04-18T08:20:15.009Z</time></trkpt><trkpt lat="43.518075" lon="11.5964467"><ele>143.16666666666666</ele><time>2026-04-18T08:20:16.009Z</time></trkpt><trkpt lat="43.51803" lon="11.5965367"><ele>143.0</ele><time>2026-04-18T08:20:17.01Z</time></trkpt><trkpt lat="43.517985" lon="11.5966317"><ele>143.0</ele><time>2026-04-18T08:20:18.01Z</time></trkpt><trkpt lat="43.517945" lon="11.596725"><ele>143.0</ele><time>2026-04-18T08:20:19.011Z</time></trkpt><trkpt lat="43.5179067" lon="11.59682"><ele>143.0</ele><time>2026-04-18T08:20:20.01Z</time></trkpt><trkpt lat="43.5178683" lon="11.5969183"><ele>143.0</ele><time>2026-04-18T08:20:21.01Z</time></trkpt><trkpt lat="43.51783" lon="11.5970167"><ele>143.0</ele><time>2026-04-18T08:20:22.009Z</time></trkpt><trkpt lat="43.5177967" lon="11.5971167"><ele>143.0</ele><time>2026-04-18T08:20:23.011Z</time></trkpt><trkpt lat="43.517765" lon="11.597215"><ele>143.16666666666666</ele><time>2026-04-18T08:20:24.01Z</time></trkpt><trkpt lat="43.517735" lon="11.597315"><ele>143.33333333333331</ele><time>2026-04-18T08:20:25.01Z</time></trkpt><trkpt lat="43.5177067" lon="11.5974183"><ele>143.5</ele><time>2026-04-18T08:20:26.01Z</time></trkpt><trkpt lat="43.5176817" lon="11.5975233"><ele>143.66666666666666</ele><time>2026-04-18T08:20:27.012Z</time></trkpt><trkpt lat="43.5176567" lon="11.5976317"><ele>143.83333333333334</ele><time>2026-04-18T08:20:28.012Z</time></trkpt><trkpt lat="43.5176367" lon="11.5977433"><ele>144.0</ele><time>2026-04-18T08:20:29.01Z</time></trkpt><trkpt lat="43.5176167" lon="11.5978567"><ele>144.0</ele><time>2026-04-18T08:20:30.013Z</time></trkpt><trkpt lat="43.5175983" lon="11.59797"><ele>144.0</ele><time>2026-04-18T08:20:31.011Z</time></trkpt><trkpt lat="43.5175833" lon="11.5980817"><ele>144.0</ele><time>2026-04-18T08:20:32.011Z</time></trkpt><trkpt lat="43.5175683" lon="11.5981983"><ele>144.0</ele><time>2026-04-18T08:20:33.011Z</time></trkpt><trkpt lat="43.5175567" lon="11.5983133"><ele>144.0</ele><time>2026-04-18T08:20:34.011Z</time></trkpt><trkpt lat="43.517545" lon="11.5984283"><ele>144.0</ele><time>2026-04-18T08:20:35.008Z</time></trkpt><trkpt lat="43.517535" lon="11.5985333"><ele>144.0</ele><time>2026-04-18T08:20:36.01Z</time></trkpt><trkpt lat="43.517525" lon="11.5986433"><ele>144.0</ele><time>2026-04-18T08:20:37.008Z</time></trkpt><trkpt lat="43.5175167" lon="11.59876"><ele>144.0</ele><time>2026-04-18T08:20:38.01Z</time></trkpt><trkpt lat="43.517505" lon="11.5988733"><ele>144.0</ele><time>2026-04-18T08:20:39.012Z</time></trkpt><trkpt lat="43.5174933" lon="11.5989833"><ele>144.0</ele><time>2026-04-18T08:20:40.008Z</time></trkpt><trkpt lat="43.5174783" lon="11.599095"><ele>144.0</ele><time>2026-04-18T08:20:41.009Z</time></trkpt><trkpt lat="43.5174617" lon="11.5992133"><ele>144.16666666666666</ele><time>2026-04-18T08:20:42.01Z</time></trkpt><trkpt lat="43.51744" lon="11.5993033"><ele>144.33333333333334</ele><time>2026-04-18T08:20:43.008Z</time></trkpt><trkpt lat="43.5174167" lon="11.5994083"><ele>144.5</ele><time>2026-04-18T08:20:44.012Z</time></trkpt><trkpt lat="43.5173883" lon="11.5995083"><ele>144.66666666666669</ele><time>2026-04-18T08:20:45.009Z</time></trkpt><trkpt lat="43.5173533" lon="11.5996033"><ele>144.83333333333334</ele><time>2026-04-18T08:20:46.009Z</time></trkpt><trkpt lat="43.5173133" lon="11.5997017"><ele>145.0</ele><time>2026-04-18T08:20:47.008Z</time></trkpt><trkpt lat="43.5172667" lon="11.59979"><ele>145.16666666666669</ele><time>2026-04-18T08:20:48.008Z</time></trkpt><trkpt lat="43.517215" lon="11.5998683"><ele>145.33333333333334</ele><time>2026-04-18T08:20:49.008Z</time></trkpt><trkpt lat="43.5171583" lon="11.5999483"><ele>145.5</ele><time>2026-04-18T08:20:50.008Z</time></trkpt><trkpt lat="43.5170967" lon="11.6000283"><ele>145.66666666666666</ele><time>2026-04-18T08:20:51.007Z</time></trkpt><trkpt lat="43.5170333" lon="11.6000983"><ele>145.83333333333331</ele><time>2026-04-18T08:20:52.007Z</time></trkpt><trkpt lat="43.5169683" lon="11.600165"><ele>146.0</ele><time>2026-04-18T08:20:53.008Z</time></trkpt><trkpt lat="43.5168983" lon="11.6002233"><ele>146.0</ele><time>2026-04-18T08:20:54.007Z</time></trkpt><trkpt lat="43.516825" lon="11.6002733"><ele>146.0</ele><time>2026-04-18T08:20:55.01Z</time></trkpt><trkpt lat="43.5167433" lon="11.6003117"><ele>146.0</ele><time>2026-04-18T08:20:56.009Z</time></trkpt><trkpt lat="43.5166617" lon="11.600335"><ele>146.0</ele><time>2026-04-18T08:20:57.01Z</time></trkpt><trkpt lat="43.5165817" lon="11.6003383"><ele>146.0</ele><time>2026-04-18T08:20:58.009Z</time></trkpt><trkpt lat="43.516505" lon="11.6003333"><ele>146.0</ele><time>2026-04-18T08:20:59.006Z</time></trkpt><trkpt lat="43.51643" lon="11.6003383"><ele>146.16666666666666</ele><time>2026-04-18T08:21:00.008Z</time></trkpt><trkpt lat="43.5163517" lon="11.6003633"><ele>146.33333333333331</ele><time>2026-04-18T08:21:01.007Z</time></trkpt><trkpt lat="43.5162817" lon="11.60041"><ele>146.5</ele><time>2026-04-18T08:21:02.009Z</time></trkpt><trkpt lat="43.5162283" lon="11.6004867"><ele>146.66666666666666</ele><time>2026-04-18T08:21:03.007Z</time></trkpt><trkpt lat="43.5161883" lon="11.60058"><ele>146.83333333333334</ele><time>2026-04-18T08:21:04.008Z</time></trkpt><trkpt lat="43.5161583" lon="11.600685"><ele>147.0</ele><time>2026-04-18T08:21:05.009Z</time></trkpt><trkpt lat="43.51613" lon="11.60079"><ele>146.66666666666666</ele><time>2026-04-18T08:21:06.009Z</time></trkpt><trkpt lat="43.5160883" lon="11.6008867"><ele>146.33333333333334</ele><time>2026-04-18T08:21:07.007Z</time></trkpt><trkpt lat="43.5160283" lon="11.6009667"><ele>146.0</ele><time>2026-04-18T08:21:08.008Z</time></trkpt><trkpt lat="43.5159583" lon="11.60103"><ele>145.66666666666669</ele><time>2026-04-18T08:21:09.008Z</time></trkpt><trkpt lat="43.515885" lon="11.60108"><ele>145.33333333333334</ele><time>2026-04-18T08:21:10.007Z</time></trkpt><trkpt lat="43.5158117" lon="11.6011267"><ele>145.0</ele><time>2026-04-18T08:21:11.008Z</time></trkpt><trkpt lat="43.5157367" lon="11.60117"><ele>145.0</ele><time>2026-04-18T08:21:12.008Z</time></trkpt><trkpt lat="43.5156633" lon="11.6012133"><ele>145.0</ele><time>2026-04-18T08:21:13.008Z</time></trkpt><trkpt lat="43.51559" lon="11.601255"><ele>145.0</ele><time>2026-04-18T08:21:14.008Z</time></trkpt><trkpt lat="43.5155133" lon="11.6012983"><ele>145.0</ele><time>2026-04-18T08:21:15.008Z</time></trkpt><trkpt lat="43.5154367" lon="11.6013433"><ele>145.0</ele><time>2026-04-18T08:21:16.007Z</time></trkpt><trkpt lat="43.51536" lon="11.6013867"><ele>145.0</ele><time>2026-04-18T08:21:17.008Z</time></trkpt><trkpt lat="43.5152883" lon="11.6014333"><ele>145.0</ele><time>2026-04-18T08:21:18.009Z</time></trkpt><trkpt lat="43.5152133" lon="11.6014817"><ele>145.0</ele><time>2026-04-18T08:21:19.008Z</time></trkpt><trkpt lat="43.5151433" lon="11.6015333"><ele>145.0</ele><time>2026-04-18T08:21:20.008Z</time></trkpt><trkpt lat="43.5150717" lon="11.6015833"><ele>145.0</ele><time>2026-04-18T08:21:21.008Z</time></trkpt><trkpt lat="43.5150033" lon="11.601635"><ele>145.0</ele><time>2026-04-18T08:21:22.008Z</time></trkpt><trkpt lat="43.5149333" lon="11.6016883"><ele>145.0</ele><time>2026-04-18T08:21:23.008Z</time></trkpt><trkpt lat="43.514865" lon="11.6017467"><ele>145.0</ele><time>2026-04-18T08:21:24.007Z</time></trkpt><trkpt lat="43.5147967" lon="11.6018117"><ele>145.0</ele><time>2026-04-18T08:21:25.008Z</time></trkpt><trkpt lat="43.51473" lon="11.6018783"><ele>145.0</ele><time>2026-04-18T08:21:26.009Z</time></trkpt><trkpt lat="43.51466" lon="11.6019483"><ele>145.0</ele><time>2026-04-18T08:21:27.009Z</time></trkpt><trkpt lat="43.5145933" lon="11.60202"><ele>145.0</ele><time>2026-04-18T08:21:28.009Z</time></trkpt><trkpt lat="43.5145283" lon="11.6020933"><ele>145.0</ele><time>2026-04-18T08:21:29.011Z</time></trkpt><trkpt lat="43.514465" lon="11.6021717"><ele>145.33333333333334</ele><time>2026-04-18T08:21:30.012Z</time></trkpt><trkpt lat="43.5144017" lon="11.6022517"><ele>145.66666666666669</ele><time>2026-04-18T08:21:31.01Z</time></trkpt><trkpt lat="43.5143417" lon="11.6023317"><ele>146.0</ele><time>2026-04-18T08:21:32.011Z</time></trkpt><trkpt lat="43.514285" lon="11.6024133"><ele>146.33333333333334</ele><time>2026-04-18T08:21:33.01Z</time></trkpt><trkpt lat="43.51423" lon="11.602495"><ele>146.66666666666666</ele><time>2026-04-18T08:21:34.009Z</time></trkpt><trkpt lat="43.5141767" lon="11.602585"><ele>147.0</ele><time>2026-04-18T08:21:35.01Z</time></trkpt><trkpt lat="43.5141233" lon="11.6026783"><ele>147.0</ele><time>2026-04-18T08:21:36.011Z</time></trkpt><trkpt lat="43.5140733" lon="11.6027717"><ele>147.0</ele><time>2026-04-18T08:21:37.01Z</time></trkpt><trkpt lat="43.5140217" lon="11.60287"><ele>147.0</ele><time>2026-04-18T08:21:38.009Z</time></trkpt><trkpt lat="43.5139717" lon="11.6029667"><ele>147.0</ele><time>2026-04-18T08:21:39.009Z</time></trkpt><trkpt lat="43.5139233" lon="11.6030617"><ele>147.0</ele><time>2026-04-18T08:21:40.01Z</time></trkpt><trkpt lat="43.513875" lon="11.6031617"><ele>147.0</ele><time>2026-04-18T08:21:41.009Z</time></trkpt><trkpt lat="43.5138283" lon="11.6032567"><ele>147.0</ele><time>2026-04-18T08:21:42.008Z</time></trkpt><trkpt lat="43.5137833" lon="11.6033533"><ele>147.0</ele><time>2026-04-18T08:21:43.009Z</time></trkpt><trkpt lat="43.5137367" lon="11.6034517"><ele>147.0</ele><time>2026-04-18T08:21:44.01Z</time></trkpt><trkpt lat="43.5136883" lon="11.6035517"><ele>147.0</ele><time>2026-04-18T08:21:45.007Z</time></trkpt><trkpt lat="43.5136433" lon="11.6036433"><ele>147.0</ele><time>2026-04-18T08:21:46.01Z</time></trkpt><trkpt lat="43.5135967" lon="11.6037367"><ele>147.0</ele><time>2026-04-18T08:21:47.008Z</time></trkpt><trkpt lat="43.51355" lon="11.60383"><ele>146.66666666666666</ele><time>2026-04-18T08:21:48.01Z</time></trkpt><trkpt lat="43.5135017" lon="11.6039267"><ele>146.33333333333334</ele><time>2026-04-18T08:21:49.01Z</time></trkpt><trkpt lat="43.5134567" lon="11.604025"><ele>146.0</ele><time>2026-04-18T08:21:50.009Z</time></trkpt><trkpt lat="43.51341" lon="11.6041217"><ele>145.66666666666669</ele><time>2026-04-18T08:21:51.009Z</time></trkpt><trkpt lat="43.51336" lon="11.604215"><ele>145.33333333333334</ele><time>2026-04-18T08:21:52.009Z</time></trkpt><trkpt lat="43.5133133" lon="11.6043083"><ele>145.0</ele><time>2026-04-18T08:21:53.008Z</time></trkpt><trkpt lat="43.5132667" lon="11.6044017"><ele>145.16666666666669</ele><time>2026-04-18T08:21:54.012Z</time></trkpt><trkpt lat="43.5132183" lon="11.6044967"><ele>145.33333333333334</ele><time>2026-04-18T08:21:55.01Z</time></trkpt><trkpt lat="43.5131683" lon="11.6045883"><ele>145.5</ele><time>2026-04-18T08:21:56.012Z</time></trkpt><trkpt lat="43.5131183" lon="11.60468"><ele>145.66666666666666</ele><time>2026-04-18T08:21:57.012Z</time></trkpt><trkpt lat="43.5130683" lon="11.6047683"><ele>145.83333333333331</ele><time>2026-04-18T08:21:58.01Z</time></trkpt><trkpt lat="43.5130183" lon="11.6048617"><ele>146.0</ele><time>2026-04-18T08:21:59.01Z</time></trkpt><trkpt lat="43.5129667" lon="11.6049533"><ele>146.0</ele><time>2026-04-18T08:22:00.008Z</time></trkpt><trkpt lat="43.5129167" lon="11.605045"><ele>146.0</ele><time>2026-04-18T08:22:01.01Z</time></trkpt><trkpt lat="43.512865" lon="11.6051383"><ele>146.0</ele><time>2026-04-18T08:22:02.011Z</time></trkpt><trkpt lat="43.5128117" lon="11.6052283"><ele>146.0</ele><time>2026-04-18T08:22:03.01Z</time></trkpt><trkpt lat="43.5127583" lon="11.6053217"><ele>146.0</ele><time>2026-04-18T08:22:04.01Z</time></trkpt><trkpt lat="43.5127033" lon="11.6054067"><ele>146.0</ele><time>2026-04-18T08:22:05.01Z</time></trkpt><trkpt lat="43.5126467" lon="11.6054867"><ele>146.16666666666666</ele><time>2026-04-18T08:22:06.01Z</time></trkpt><trkpt lat="43.5125883" lon="11.6055683"><ele>146.33333333333331</ele><time>2026-04-18T08:22:07.011Z</time></trkpt><trkpt lat="43.5125283" lon="11.6056533"><ele>146.5</ele><time>2026-04-18T08:22:08.008Z</time></trkpt><trkpt lat="43.5124683" lon="11.6057383"><ele>146.66666666666666</ele><time>2026-04-18T08:22:09.007Z</time></trkpt><trkpt lat="43.5124067" lon="11.60581"><ele>146.83333333333334</ele><time>2026-04-18T08:22:10.008Z</time></trkpt><trkpt lat="43.5123433" lon="11.6058833"><ele>147.0</ele><time>2026-04-18T08:22:11.009Z</time></trkpt><trkpt lat="43.5122783" lon="11.6059533"><ele>147.0</ele><time>2026-04-18T08:22:12.009Z</time></trkpt><trkpt lat="43.512215" lon="11.6060217"><ele>147.0</ele><time>2026-04-18T08:22:13.009Z</time></trkpt><trkpt lat="43.5121517" lon="11.60609"><ele>147.0</ele><time>2026-04-18T08:22:14.012Z</time></trkpt><trkpt lat="43.5120883" lon="11.60616"><ele>147.0</ele><time>2026-04-18T08:22:15.009Z</time></trkpt><trkpt lat="43.5120233" lon="11.6062317"><ele>147.0</ele><time>2026-04-18T08:22:16.01Z</time></trkpt><trkpt lat="43.5119567" lon="11.6062967"><ele>147.0</ele><time>2026-04-18T08:22:17.009Z</time></trkpt><trkpt lat="43.51189" lon="11.60636"><ele>147.16666666666666</ele><time>2026-04-18T08:22:18.008Z</time></trkpt><trkpt lat="43.5118233" lon="11.6064183"><ele>147.33333333333334</ele><time>2026-04-18T08:22:19.008Z</time></trkpt><trkpt lat="43.511755" lon="11.6064733"><ele>147.5</ele><time>2026-04-18T08:22:20.01Z</time></trkpt><trkpt lat="43.511685" lon="11.6065267"><ele>147.66666666666669</ele><time>2026-04-18T08:22:21.007Z</time></trkpt><trkpt lat="43.5116183" lon="11.6065767"><ele>147.83333333333334</ele><time>2026-04-18T08:22:22.009Z</time></trkpt><trkpt lat="43.5115483" lon="11.60663"><ele>148.0</ele><time>2026-04-18T08:22:23.009Z</time></trkpt><trkpt lat="43.511475" lon="11.6066817"><ele>148.0</ele><time>2026-04-18T08:22:24.011Z</time></trkpt><trkpt lat="43.5114017" lon="11.6067333"><ele>148.0</ele><time>2026-04-18T08:22:25.011Z</time></trkpt><trkpt lat="43.51133" lon="11.6067833"><ele>148.0</ele><time>2026-04-18T08:22:26.009Z</time></trkpt><trkpt lat="43.5112583" lon="11.6068333"><ele>148.0</ele><time>2026-04-18T08:22:27.009Z</time></trkpt><trkpt lat="43.5111883" lon="11.606875"><ele>148.0</ele><time>2026-04-18T08:22:28.009Z</time></trkpt><trkpt lat="43.5111183" lon="11.6069217"><ele>148.0</ele><time>2026-04-18T08:22:29.011Z</time></trkpt><trkpt lat="43.51105" lon="11.6069667"><ele>147.83333333333334</ele><time>2026-04-18T08:22:30.009Z</time></trkpt><trkpt lat="43.5109817" lon="11.6070117"><ele>147.66666666666669</ele><time>2026-04-18T08:22:31.01Z</time></trkpt><trkpt lat="43.51091" lon="11.6070567"><ele>147.5</ele><time>2026-04-18T08:22:32.009Z</time></trkpt><trkpt lat="43.51084" lon="11.6071017"><ele>147.33333333333334</ele><time>2026-04-18T08:22:33.009Z</time></trkpt><trkpt lat="43.5107683" lon="11.6071467"><ele>147.16666666666666</ele><time>2026-04-18T08:22:34.01Z</time></trkpt><trkpt lat="43.5106967" lon="11.6071917"><ele>147.0</ele><time>2026-04-18T08:22:35.008Z</time></trkpt><trkpt lat="43.5106267" lon="11.607235"><ele>147.0</ele><time>2026-04-18T08:22:36.008Z</time></trkpt><trkpt lat="43.510555" lon="11.6072833"><ele>147.0</ele><time>2026-04-18T08:22:37.009Z</time></trkpt><trkpt lat="43.510485" lon="11.6073283"><ele>147.0</ele><time>2026-04-18T08:22:38.01Z</time></trkpt><trkpt lat="43.5104117" lon="11.6073733"><ele>147.0</ele><time>2026-04-18T08:22:39.01Z</time></trkpt><trkpt lat="43.5103433" lon="11.6074183"><ele>147.0</ele><time>2026-04-18T08:22:40.01Z</time></trkpt><trkpt lat="43.5102733" lon="11.6074617"><ele>147.0</ele><time>2026-04-18T08:22:41.009Z</time></trkpt><trkpt lat="43.510205" lon="11.6075033"><ele>147.28571428571428</ele><time>2026-04-18T08:22:42.01Z</time></trkpt><trkpt lat="43.510135" lon="11.607545"><ele>147.57142857142856</ele><time>2026-04-18T08:22:43.01Z</time></trkpt><trkpt lat="43.5100683" lon="11.60759"><ele>147.85714285714286</ele><time>2026-04-18T08:22:44.009Z</time></trkpt><trkpt lat="43.51" lon="11.607635"><ele>148.14285714285714</ele><time>2026-04-18T08:22:45.008Z</time></trkpt><trkpt lat="43.5099333" lon="11.60768"><ele>148.42857142857142</ele><time>2026-04-18T08:22:46.008Z</time></trkpt><trkpt lat="43.5098667" lon="11.6077217"><ele>148.71428571428572</ele><time>2026-04-18T08:22:47.01Z</time></trkpt><trkpt lat="43.5098" lon="11.6077667"><ele>149.0</ele><time>2026-04-18T08:22:48.01Z</time></trkpt><trkpt lat="43.50973" lon="11.60781"><ele>149.0</ele><time>2026-04-18T08:22:49.01Z</time></trkpt><trkpt lat="43.5096583" lon="11.607855"><ele>149.0</ele><time>2026-04-18T08:22:50.01Z</time></trkpt><trkpt lat="43.5095867" lon="11.6079017"><ele>149.0</ele><time>2026-04-18T08:22:51.009Z</time></trkpt><trkpt lat="43.509515" lon="11.6079483"><ele>149.0</ele><time>2026-04-18T08:22:52.009Z</time></trkpt><trkpt lat="43.5094417" lon="11.607995"><ele>149.0</ele><time>2026-04-18T08:22:53.01Z</time></trkpt><trkpt lat="43.5093667" lon="11.6080417"><ele>149.0</ele><time>2026-04-18T08:22:54.009Z</time></trkpt><trkpt lat="43.5092883" lon="11.6080933"><ele>149.6</ele><time>2026-04-18T08:22:55.009Z</time></trkpt><trkpt lat="43.5092117" lon="11.6081417"><ele>150.2</ele><time>2026-04-18T08:22:56.011Z</time></trkpt><trkpt lat="43.5091283" lon="11.608195"><ele>150.79999999999998</ele><time>2026-04-18T08:22:57.008Z</time></trkpt><trkpt lat="43.5090433" lon="11.6082433"><ele>151.4</ele><time>2026-04-18T08:22:58.009Z</time></trkpt><trkpt lat="43.5089533" lon="11.6082917"><ele>152.0</ele><time>2026-04-18T08:22:59.009Z</time></trkpt><trkpt lat="43.508865" lon="11.6083417"><ele>152.0</ele><time>2026-04-18T08:23:00.008Z</time></trkpt><trkpt lat="43.508775" lon="11.608395"><ele>152.0</ele><time>2026-04-18T08:23:01.009Z</time></trkpt><trkpt lat="43.5086817" lon="11.6084533"><ele>152.0</ele><time>2026-04-18T08:23:02.009Z</time></trkpt><trkpt lat="43.50859" lon="11.6085083"><ele>152.0</ele><time>2026-04-18T08:23:03.01Z</time></trkpt><trkpt lat="43.5085017" lon="11.6085633"><ele>152.0</ele><time>2026-04-18T08:23:04.008Z</time></trkpt><trkpt lat="43.5084117" lon="11.6086183"><ele>151.16666666666666</ele><time>2026-04-18T08:23:05.009Z</time></trkpt><trkpt lat="43.508325" lon="11.6086733"><ele>150.33333333333331</ele><time>2026-04-18T08:23:06.009Z</time></trkpt><trkpt lat="43.5082433" lon="11.60873"><ele>149.5</ele><time>2026-04-18T08:23:07.009Z</time></trkpt><trkpt lat="43.5081667" lon="11.6087867"><ele>148.66666666666666</ele><time>2026-04-18T08:23:08.01Z</time></trkpt><trkpt lat="43.50809" lon="11.608845"><ele>147.83333333333334</ele><time>2026-04-18T08:23:09.01Z</time></trkpt><trkpt lat="43.508015" lon="11.6089067"><ele>147.0</ele><time>2026-04-18T08:23:10.011Z</time></trkpt><trkpt lat="43.50794" lon="11.60897"><ele>147.33333333333334</ele><time>2026-04-18T08:23:11.009Z</time></trkpt><trkpt lat="43.5078683" lon="11.6090383"><ele>147.66666666666666</ele><time>2026-04-18T08:23:12.009Z</time></trkpt><trkpt lat="43.507795" lon="11.609105"><ele>148.0</ele><time>2026-04-18T08:23:13.011Z</time></trkpt><trkpt lat="43.5077233" lon="11.6091717"><ele>148.33333333333331</ele><time>2026-04-18T08:23:14.01Z</time></trkpt><trkpt lat="43.50766" lon="11.60924"><ele>148.66666666666666</ele><time>2026-04-18T08:23:15.01Z</time></trkpt><trkpt lat="43.5075983" lon="11.60931"><ele>149.0</ele><time>2026-04-18T08:23:16.01Z</time></trkpt><trkpt lat="43.507535" lon="11.6093833"><ele>149.0</ele><time>2026-04-18T08:23:17.01Z</time></trkpt><trkpt lat="43.5074733" lon="11.60946"><ele>149.0</ele><time>2026-04-18T08:23:18.01Z</time></trkpt><trkpt lat="43.5074117" lon="11.60954"><ele>149.0</ele><time>2026-04-18T08:23:19.01Z</time></trkpt><trkpt lat="43.50735" lon="11.60962"><ele>149.0</ele><time>2026-04-18T08:23:20.009Z</time></trkpt><trkpt lat="43.5072933" lon="11.6097"><ele>149.0</ele><time>2026-04-18T08:23:21.011Z</time></trkpt><trkpt lat="43.5072333" lon="11.6097833"><ele>149.0</ele><time>2026-04-18T08:23:22.009Z</time></trkpt><trkpt lat="43.5071767" lon="11.6098683"><ele>149.0</ele><time>2026-04-18T08:23:23.01Z</time></trkpt><trkpt lat="43.50712" lon="11.6099583"><ele>149.0</ele><time>2026-04-18T08:23:24.008Z</time></trkpt><trkpt lat="43.5070633" lon="11.6100467"><ele>149.0</ele><time>2026-04-18T08:23:25.011Z</time></trkpt><trkpt lat="43.507005" lon="11.6101333"><ele>149.0</ele><time>2026-04-18T08:23:26.011Z</time></trkpt><trkpt lat="43.5069483" lon="11.6102233"><ele>149.0</ele><time>2026-04-18T08:23:27.01Z</time></trkpt><trkpt lat="43.5068933" lon="11.6103117"><ele>149.0</ele><time>2026-04-18T08:23:28.01Z</time></trkpt><trkpt lat="43.5068367" lon="11.6103983"><ele>149.0</ele><time>2026-04-18T08:23:29.01Z</time></trkpt><trkpt lat="43.50678" lon="11.6104833"><ele>149.0</ele><time>2026-04-18T08:23:30.007Z</time></trkpt><trkpt lat="43.5067233" lon="11.6105683"><ele>149.0</ele><time>2026-04-18T08:23:31.01Z</time></trkpt><trkpt lat="43.506665" lon="11.610655"><ele>149.0</ele><time>2026-04-18T08:23:32.009Z</time></trkpt><trkpt lat="43.5066083" lon="11.6107367"><ele>149.0</ele><time>2026-04-18T08:23:33.01Z</time></trkpt><trkpt lat="43.506555" lon="11.6108167"><ele>149.0</ele><time>2026-04-18T08:23:34.008Z</time></trkpt><trkpt lat="43.5065" lon="11.6109"><ele>149.0</ele><time>2026-04-18T08:23:35.012Z</time></trkpt><trkpt lat="43.5064483" lon="11.6109833"><ele>149.0</ele><time>2026-04-18T08:23:36.01Z</time></trkpt><trkpt lat="43.506395" lon="11.6110683"><ele>149.0</ele><time>2026-04-18T08:23:37.01Z</time></trkpt><trkpt lat="43.5063417" lon="11.61115"><ele>149.0</ele><time>2026-04-18T08:23:38.011Z</time></trkpt><trkpt lat="43.5062833" lon="11.6112333"><ele>149.0</ele><time>2026-04-18T08:23:39.01Z</time></trkpt><trkpt lat="43.5062283" lon="11.6113117"><ele>149.0</ele><time>2026-04-18T08:23:40.009Z</time></trkpt><trkpt lat="43.5061733" lon="11.6113967"><ele>149.33333333333331</ele><time>2026-04-18T08:23:41.01Z</time></trkpt><trkpt lat="43.50612" lon="11.6114833"><ele>149.66666666666666</ele><time>2026-04-18T08:23:42.011Z</time></trkpt><trkpt lat="43.50607" lon="11.6115633"><ele>150.0</ele><time>2026-04-18T08:23:43.009Z</time></trkpt><trkpt lat="43.5060183" lon="11.611645"><ele>150.33333333333334</ele><time>2026-04-18T08:23:44.01Z</time></trkpt><trkpt lat="43.505965" lon="11.61173"><ele>150.66666666666669</ele><time>2026-04-18T08:23:45.01Z</time></trkpt><trkpt lat="43.50591" lon="11.6118167"><ele>151.0</ele><time>2026-04-18T08:23:46.01Z</time></trkpt><trkpt lat="43.50585" lon="11.6118967"><ele>151.0</ele><time>2026-04-18T08:23:47.008Z</time></trkpt><trkpt lat="43.5057933" lon="11.6119783"><ele>151.0</ele><time>2026-04-18T08:23:48.007Z</time></trkpt><trkpt lat="43.5057317" lon="11.6120583"><ele>151.0</ele><time>2026-04-18T08:23:49.009Z</time></trkpt><trkpt lat="43.50567" lon="11.612135"><ele>151.0</ele><time>2026-04-18T08:23:50.01Z</time></trkpt><trkpt lat="43.5056017" lon="11.6122"><ele>151.0</ele><time>2026-04-18T08:23:51.01Z</time></trkpt><trkpt lat="43.5055317" lon="11.612255"><ele>151.0</ele><time>2026-04-18T08:23:52.009Z</time></trkpt><trkpt lat="43.505455" lon="11.6123033"><ele>150.83333333333334</ele><time>2026-04-18T08:23:53.009Z</time></trkpt><trkpt lat="43.5053733" lon="11.612345"><ele>150.66666666666669</ele><time>2026-04-18T08:23:54.01Z</time></trkpt><trkpt lat="43.5052967" lon="11.6123833"><ele>150.5</ele><time>2026-04-18T08:23:55.01Z</time></trkpt><trkpt lat="43.50522" lon="11.6124117"><ele>150.33333333333334</ele><time>2026-04-18T08:23:56.009Z</time></trkpt><trkpt lat="43.50514" lon="11.61243"><ele>150.16666666666666</ele><time>2026-04-18T08:23:57.008Z</time></trkpt><trkpt lat="43.50506" lon="11.6124383"><ele>150.0</ele><time>2026-04-18T08:23:58.009Z</time></trkpt><trkpt lat="43.504975" lon="11.6124367"><ele>150.0</ele><time>2026-04-18T08:23:59.009Z</time></trkpt><trkpt lat="43.504895" lon="11.6124317"><ele>150.0</ele><time>2026-04-18T08:24:00.009Z</time></trkpt><trkpt lat="43.504815" lon="11.6124167"><ele>150.0</ele><time>2026-04-18T08:24:01.009Z</time></trkpt><trkpt lat="43.5047367" lon="11.612395"><ele>150.0</ele><time>2026-04-18T08:24:02.011Z</time></trkpt><trkpt lat="43.5046633" lon="11.6123683"><ele>150.0</ele><time>2026-04-18T08:24:03.009Z</time></trkpt><trkpt lat="43.5045867" lon="11.61233"><ele>150.0</ele><time>2026-04-18T08:24:04.009Z</time></trkpt><trkpt lat="43.5045167" lon="11.6122817"><ele>150.16666666666666</ele><time>2026-04-18T08:24:05.01Z</time></trkpt><trkpt lat="43.5044517" lon="11.6122283"><ele>150.33333333333334</ele><time>2026-04-18T08:24:06.009Z</time></trkpt><trkpt lat="43.504385" lon="11.6121733"><ele>150.5</ele><time>2026-04-18T08:24:07.011Z</time></trkpt><trkpt lat="43.5043233" lon="11.6121133"><ele>150.66666666666669</ele><time>2026-04-18T08:24:08.009Z</time></trkpt><trkpt lat="43.504265" lon="11.6120517"><ele>150.83333333333334</ele><time>2026-04-18T08:24:09.01Z</time></trkpt><trkpt lat="43.504205" lon="11.6119883"><ele>151.0</ele><time>2026-04-18T08:24:10.01Z</time></trkpt><trkpt lat="43.5041433" lon="11.61192"><ele>151.00000000000003</ele><time>2026-04-18T08:24:11.009Z</time></trkpt><trkpt lat="43.5040817" lon="11.6118533"><ele>151.0</ele><time>2026-04-18T08:24:12.008Z</time></trkpt><trkpt lat="43.50402" lon="11.6117867"><ele>151.0</ele><time>2026-04-18T08:24:13.011Z</time></trkpt><trkpt lat="43.503965" lon="11.611715"><ele>151.0</ele><time>2026-04-18T08:24:14.007Z</time></trkpt><trkpt lat="43.50392" lon="11.6116433"><ele>151.0</ele><time>2026-04-18T08:24:15.007Z</time></trkpt><trkpt lat="43.5038917" lon="11.6115633"><ele>151.00000000000003</ele><time>2026-04-18T08:24:16.008Z</time></trkpt><trkpt lat="43.5038767" lon="11.6114683"><ele>151.0</ele><time>2026-04-18T08:24:17.012Z</time></trkpt><trkpt lat="43.5038733" lon="11.61137"><ele>151.0</ele><time>2026-04-18T08:24:18.01Z</time></trkpt><trkpt lat="43.5038767" lon="11.6112633"><ele>151.0</ele><time>2026-04-18T08:24:19.01Z</time></trkpt><trkpt lat="43.5038833" lon="11.6111567"><ele>151.0</ele><time>2026-04-18T08:24:20.009Z</time></trkpt><trkpt lat="43.5038933" lon="11.6110433"><ele>151.0</ele><time>2026-04-18T08:24:21.009Z</time></trkpt><trkpt lat="43.5039" lon="11.61093"><ele>151.0</ele><time>2026-04-18T08:24:22.01Z</time></trkpt><trkpt lat="43.503905" lon="11.6108183"><ele>151.0</ele><time>2026-04-18T08:24:23.01Z</time></trkpt><trkpt lat="43.5039067" lon="11.6107033"><ele>151.0</ele><time>2026-04-18T08:24:24.012Z</time></trkpt><trkpt lat="43.5038917" lon="11.6105983"><ele>151.0</ele><time>2026-04-18T08:24:25.01Z</time></trkpt><trkpt lat="43.5038533" lon="11.61051"><ele>151.0</ele><time>2026-04-18T08:24:26.011Z</time></trkpt><trkpt lat="43.5038017" lon="11.61045"><ele>151.0</ele><time>2026-04-18T08:24:27.01Z</time></trkpt><trkpt lat="43.5037417" lon="11.6104183"><ele>151.0</ele><time>2026-04-18T08:24:28.009Z</time></trkpt><trkpt lat="43.5036267" lon="11.6104917"><ele>151.0</ele><time>2026-04-18T08:24:30.01Z</time></trkpt><trkpt lat="43.50358" lon="11.6105717"><ele>150.83333333333334</ele><time>2026-04-18T08:24:31.01Z</time></trkpt><trkpt lat="43.5035483" lon="11.610665"><ele>150.66666666666669</ele><time>2026-04-18T08:24:32.012Z</time></trkpt><trkpt lat="43.5035333" lon="11.6107717"><ele>150.5</ele><time>2026-04-18T08:24:33.009Z</time></trkpt><trkpt lat="43.503525" lon="11.6108767"><ele>150.33333333333334</ele><time>2026-04-18T08:24:34.008Z</time></trkpt><trkpt lat="43.50352" lon="11.6109833"><ele>150.16666666666666</ele><time>2026-04-18T08:24:35.012Z</time></trkpt><trkpt lat="43.503515" lon="11.6110917"><ele>150.0</ele><time>2026-04-18T08:24:36.01Z</time></trkpt><trkpt lat="43.5035083" lon="11.6112"><ele>149.85714285714283</ele><time>2026-04-18T08:24:37.011Z</time></trkpt><trkpt lat="43.503505" lon="11.6112983"><ele>149.71428571428572</ele><time>2026-04-18T08:24:38.01Z</time></trkpt><trkpt lat="43.50351" lon="11.6113967"><ele>149.57142857142856</ele><time>2026-04-18T08:24:39.009Z</time></trkpt><trkpt lat="43.5035217" lon="11.611495"><ele>149.42857142857142</ele><time>2026-04-18T08:24:40.009Z</time></trkpt><trkpt lat="43.5035467" lon="11.611585"><ele>149.28571428571428</ele><time>2026-04-18T08:24:41.009Z</time></trkpt><trkpt lat="43.5035867" lon="11.61166"><ele>149.14285714285714</ele><time>2026-04-18T08:24:42.011Z</time></trkpt><trkpt lat="43.5036383" lon="11.6117117"><ele>149.0</ele><time>2026-04-18T08:24:43.012Z</time></trkpt><trkpt lat="43.5036983" lon="11.6117433"><ele>149.28571428571428</ele><time>2026-04-18T08:24:44.009Z</time></trkpt><trkpt lat="43.5037633" lon="11.611755"><ele>149.57142857142856</ele><time>2026-04-18T08:24:45.008Z</time></trkpt><trkpt lat="43.50383" lon="11.6117767"><ele>149.85714285714286</ele><time>2026-04-18T08:24:46.009Z</time></trkpt><trkpt lat="43.5039" lon="11.6118083"><ele>150.14285714285714</ele><time>2026-04-18T08:24:47.01Z</time></trkpt><trkpt lat="43.5039633" lon="11.61185"><ele>150.42857142857144</ele><time>2026-04-18T08:24:48.009Z</time></trkpt><trkpt lat="43.50402" lon="11.6119033"><ele>150.71428571428572</ele><time>2026-04-18T08:24:49.009Z</time></trkpt><trkpt lat="43.50407" lon="11.61196"><ele>151.0</ele><time>2026-04-18T08:24:50.009Z</time></trkpt><trkpt lat="43.504125" lon="11.6120233"><ele>151.14285714285717</ele><time>2026-04-18T08:24:51.009Z</time></trkpt><trkpt lat="43.50418" lon="11.6120867"><ele>151.28571428571428</ele><time>2026-04-18T08:24:52.009Z</time></trkpt><trkpt lat="43.5042317" lon="11.6121483"><ele>151.42857142857144</ele><time>2026-04-18T08:24:53.008Z</time></trkpt><trkpt lat="43.5042883" lon="11.612205"><ele>151.57142857142858</ele><time>2026-04-18T08:24:54.012Z</time></trkpt><trkpt lat="43.5043467" lon="11.6122633"><ele>151.71428571428572</ele><time>2026-04-18T08:24:55.01Z</time></trkpt><trkpt lat="43.504405" lon="11.6123167"><ele>151.85714285714286</ele><time>2026-04-18T08:24:56.009Z</time></trkpt><trkpt lat="43.5044667" lon="11.6123617"><ele>152.0</ele><time>2026-04-18T08:24:57.011Z</time></trkpt><trkpt lat="43.5045317" lon="11.612405"><ele>151.7142857142857</ele><time>2026-04-18T08:24:58.01Z</time></trkpt><trkpt lat="43.5045983" lon="11.6124417"><ele>151.42857142857144</ele><time>2026-04-18T08:24:59.011Z</time></trkpt><trkpt lat="43.5046683" lon="11.6124733"><ele>151.14285714285714</ele><time>2026-04-18T08:25:00.008Z</time></trkpt><trkpt lat="43.50474" lon="11.6124967"><ele>150.85714285714283</ele><time>2026-04-18T08:25:01.011Z</time></trkpt><trkpt lat="43.5048133" lon="11.6125167"><ele>150.57142857142856</ele><time>2026-04-18T08:25:02.012Z</time></trkpt><trkpt lat="43.5048817" lon="11.6125317"><ele>150.28571428571428</ele><time>2026-04-18T08:25:03.011Z</time></trkpt><trkpt lat="43.5049533" lon="11.6125383"><ele>150.0</ele><time>2026-04-18T08:25:04.01Z</time></trkpt><trkpt lat="43.505025" lon="11.6125383"><ele>149.99999999999997</ele><time>2026-04-18T08:25:05.011Z</time></trkpt><trkpt lat="43.505095" lon="11.612535"><ele>150.0</ele><time>2026-04-18T08:25:06.011Z</time></trkpt><trkpt lat="43.5051667" lon="11.6125233"><ele>150.0</ele><time>2026-04-18T08:25:07.011Z</time></trkpt><trkpt lat="43.5052367" lon="11.6125017"><ele>150.0</ele><time>2026-04-18T08:25:08.008Z</time></trkpt><trkpt lat="43.5053083" lon="11.612475"><ele>150.0</ele><time>2026-04-18T08:25:09.012Z</time></trkpt><trkpt lat="43.50538" lon="11.6124417"><ele>149.99999999999997</ele><time>2026-04-18T08:25:10.01Z</time></trkpt><trkpt lat="43.50545" lon="11.6124017"><ele>150.0</ele><time>2026-04-18T08:25:11.009Z</time></trkpt><trkpt lat="43.505515" lon="11.6123583"><ele>149.83333333333334</ele><time>2026-04-18T08:25:12.01Z</time></trkpt><trkpt lat="43.505575" lon="11.6123067"><ele>149.66666666666666</ele><time>2026-04-18T08:25:13.009Z</time></trkpt><trkpt lat="43.5056367" lon="11.61225"><ele>149.5</ele><time>2026-04-18T08:25:14.013Z</time></trkpt><trkpt lat="43.5057017" lon="11.6121833"><ele>149.33333333333331</ele><time>2026-04-18T08:25:15.01Z</time></trkpt><trkpt lat="43.5057617" lon="11.612115"><ele>149.16666666666666</ele><time>2026-04-18T08:25:16.009Z</time></trkpt><trkpt lat="43.50582" lon="11.6120433"><ele>149.0</ele><time>2026-04-18T08:25:17.011Z</time></trkpt><trkpt lat="43.5058767" lon="11.6119683"><ele>149.33333333333331</ele><time>2026-04-18T08:25:18.01Z</time></trkpt><trkpt lat="43.5059333" lon="11.6118883"><ele>149.66666666666666</ele><time>2026-04-18T08:25:19.009Z</time></trkpt><trkpt lat="43.5059917" lon="11.6118083"><ele>150.0</ele><time>2026-04-18T08:25:20.009Z</time></trkpt><trkpt lat="43.50605" lon="11.611725"><ele>150.33333333333334</ele><time>2026-04-18T08:25:21.008Z</time></trkpt><trkpt lat="43.5061067" lon="11.611645"><ele>150.66666666666669</ele><time>2026-04-18T08:25:22.01Z</time></trkpt><trkpt lat="43.5061633" lon="11.6115583"><ele>151.0</ele><time>2026-04-18T08:25:23.01Z</time></trkpt><trkpt lat="43.5062217" lon="11.6114717"><ele>150.66666666666669</ele><time>2026-04-18T08:25:24.01Z</time></trkpt><trkpt lat="43.5062767" lon="11.6113833"><ele>150.33333333333334</ele><time>2026-04-18T08:25:25.01Z</time></trkpt><trkpt lat="43.5063317" lon="11.6113"><ele>150.0</ele><time>2026-04-18T08:25:26.012Z</time></trkpt><trkpt lat="43.5063867" lon="11.61122"><ele>149.66666666666666</ele><time>2026-04-18T08:25:27.009Z</time></trkpt><trkpt lat="43.5064417" lon="11.6111383"><ele>149.33333333333331</ele><time>2026-04-18T08:25:28.01Z</time></trkpt><trkpt lat="43.5064967" lon="11.6110533"><ele>149.0</ele><time>2026-04-18T08:25:29.01Z</time></trkpt><trkpt lat="43.5065533" lon="11.6109667"><ele>149.0</ele><time>2026-04-18T08:25:30.011Z</time></trkpt><trkpt lat="43.5066083" lon="11.6108817"><ele>149.0</ele><time>2026-04-18T08:25:31.011Z</time></trkpt><trkpt lat="43.5066667" lon="11.6107967"><ele>149.0</ele><time>2026-04-18T08:25:32.01Z</time></trkpt><trkpt lat="43.5067217" lon="11.6107083"><ele>149.0</ele><time>2026-04-18T08:25:33.011Z</time></trkpt><trkpt lat="43.5067767" lon="11.6106217"><ele>149.0</ele><time>2026-04-18T08:25:34.01Z</time></trkpt><trkpt lat="43.50683" lon="11.610535"><ele>149.0</ele><time>2026-04-18T08:25:35.011Z</time></trkpt><trkpt lat="43.5068867" lon="11.6104467"><ele>149.0</ele><time>2026-04-18T08:25:36.01Z</time></trkpt><trkpt lat="43.5069433" lon="11.61036"><ele>149.0</ele><time>2026-04-18T08:25:37.01Z</time></trkpt><trkpt lat="43.507" lon="11.61027"><ele>149.0</ele><time>2026-04-18T08:25:38.01Z</time></trkpt><trkpt lat="43.5070567" lon="11.6101817"><ele>149.0</ele><time>2026-04-18T08:25:39.01Z</time></trkpt><trkpt lat="43.5071133" lon="11.6100967"><ele>149.0</ele><time>2026-04-18T08:25:40.011Z</time></trkpt><trkpt lat="43.50717" lon="11.6100133"><ele>149.0</ele><time>2026-04-18T08:25:41.01Z</time></trkpt><trkpt lat="43.5072283" lon="11.6099283"><ele>149.0</ele><time>2026-04-18T08:25:42.01Z</time></trkpt><trkpt lat="43.507285" lon="11.609845"><ele>149.0</ele><time>2026-04-18T08:25:43.009Z</time></trkpt><trkpt lat="43.507345" lon="11.6097583"><ele>149.0</ele><time>2026-04-18T08:25:44.01Z</time></trkpt><trkpt lat="43.507405" lon="11.609675"><ele>149.0</ele><time>2026-04-18T08:25:45.01Z</time></trkpt><trkpt lat="43.5074667" lon="11.609595"><ele>149.0</ele><time>2026-04-18T08:25:46.01Z</time></trkpt><trkpt lat="43.5075317" lon="11.609515"><ele>149.0</ele><time>2026-04-18T08:25:47.011Z</time></trkpt><trkpt lat="43.5076" lon="11.609435"><ele>149.0</ele><time>2026-04-18T08:25:48.011Z</time></trkpt><trkpt lat="43.5076683" lon="11.6093567"><ele>149.0</ele><time>2026-04-18T08:25:49.009Z</time></trkpt><trkpt lat="43.50774" lon="11.6092817"><ele>149.0</ele><time>2026-04-18T08:25:50.012Z</time></trkpt><trkpt lat="43.5078117" lon="11.6092083"><ele>149.0</ele><time>2026-04-18T08:25:51.01Z</time></trkpt><trkpt lat="43.5078867" lon="11.609135"><ele>149.0</ele><time>2026-04-18T08:25:52.01Z</time></trkpt><trkpt lat="43.5079617" lon="11.6090667"><ele>148.66666666666666</ele><time>2026-04-18T08:25:53.011Z</time></trkpt><trkpt lat="43.508035" lon="11.6090033"><ele>148.33333333333331</ele><time>2026-04-18T08:25:54.009Z</time></trkpt><trkpt lat="43.5081083" lon="11.60894"><ele>148.0</ele><time>2026-04-18T08:25:55.01Z</time></trkpt><trkpt lat="43.5081817" lon="11.6088833"><ele>147.66666666666666</ele><time>2026-04-18T08:25:56.009Z</time></trkpt><trkpt lat="43.5082567" lon="11.6088283"><ele>147.33333333333334</ele><time>2026-04-18T08:25:57.009Z</time></trkpt><trkpt lat="43.5083367" lon="11.6087733"><ele>147.0</ele><time>2026-04-18T08:25:58.009Z</time></trkpt><trkpt lat="43.508415" lon="11.6087183"><ele>147.0</ele><time>2026-04-18T08:25:59.01Z</time></trkpt><trkpt lat="43.5084883" lon="11.6086683"><ele>147.0</ele><time>2026-04-18T08:26:00.014Z</time></trkpt><trkpt lat="43.5085667" lon="11.6086167"><ele>147.0</ele><time>2026-04-18T08:26:01.013Z</time></trkpt><trkpt lat="43.5086433" lon="11.608565"><ele>147.0</ele><time>2026-04-18T08:26:02.009Z</time></trkpt><trkpt lat="43.50872" lon="11.6085183"><ele>147.0</ele><time>2026-04-18T08:26:03.01Z</time></trkpt><trkpt lat="43.5087983" lon="11.6084717"><ele>147.0</ele><time>2026-04-18T08:26:04.01Z</time></trkpt><trkpt lat="43.5088717" lon="11.6084283"><ele>147.71428571428572</ele><time>2026-04-18T08:26:05.008Z</time></trkpt><trkpt lat="43.508945" lon="11.6083867"><ele>148.42857142857144</ele><time>2026-04-18T08:26:06.009Z</time></trkpt><trkpt lat="43.5090167" lon="11.6083517"><ele>149.14285714285714</ele><time>2026-04-18T08:26:07.009Z</time></trkpt><trkpt lat="43.50909" lon="11.6083083"><ele>149.85714285714286</ele><time>2026-04-18T08:26:08.011Z</time></trkpt><trkpt lat="43.509155" lon="11.608265"><ele>150.57142857142858</ele><time>2026-04-18T08:26:09.01Z</time></trkpt><trkpt lat="43.5092183" lon="11.60822"><ele>151.28571428571428</ele><time>2026-04-18T08:26:10.011Z</time></trkpt><trkpt lat="43.50928" lon="11.60818"><ele>152.0</ele><time>2026-04-18T08:26:11.01Z</time></trkpt><trkpt lat="43.509345" lon="11.6081417"><ele>152.0</ele><time>2026-04-18T08:26:12.011Z</time></trkpt><trkpt lat="43.5094067" lon="11.6081017"><ele>152.0</ele><time>2026-04-18T08:26:13.01Z</time></trkpt><trkpt lat="43.509465" lon="11.6080633"><ele>152.0</ele><time>2026-04-18T08:26:14.01Z</time></trkpt><trkpt lat="43.50953" lon="11.6080267"><ele>152.0</ele><time>2026-04-18T08:26:15.012Z</time></trkpt><trkpt lat="43.5095933" lon="11.6079833"><ele>152.0</ele><time>2026-04-18T08:26:16.011Z</time></trkpt><trkpt lat="43.5096567" lon="11.6079433"><ele>152.0</ele><time>2026-04-18T08:26:17.008Z</time></trkpt><trkpt lat="43.5097233" lon="11.6079067"><ele>152.0</ele><time>2026-04-18T08:26:18.009Z</time></trkpt><trkpt lat="43.5097867" lon="11.6078683"><ele>151.57142857142856</ele><time>2026-04-18T08:26:19.012Z</time></trkpt><trkpt lat="43.5098517" lon="11.6078267"><ele>151.14285714285717</ele><time>2026-04-18T08:26:20.01Z</time></trkpt><trkpt lat="43.50992" lon="11.6077867"><ele>150.71428571428572</ele><time>2026-04-18T08:26:21.01Z</time></trkpt><trkpt lat="43.50999" lon="11.6077417"><ele>150.28571428571428</ele><time>2026-04-18T08:26:22.01Z</time></trkpt><trkpt lat="43.5100567" lon="11.6076983"><ele>149.85714285714283</ele><time>2026-04-18T08:26:23.01Z</time></trkpt><trkpt lat="43.5101217" lon="11.607655"><ele>149.42857142857142</ele><time>2026-04-18T08:26:24.009Z</time></trkpt><trkpt lat="43.5101867" lon="11.6076133"><ele>149.0</ele><time>2026-04-18T08:26:25.009Z</time></trkpt><trkpt lat="43.510255" lon="11.60757"><ele>149.0</ele><time>2026-04-18T08:26:26.01Z</time></trkpt><trkpt lat="43.510325" lon="11.6075283"><ele>149.0</ele><time>2026-04-18T08:26:27.012Z</time></trkpt><trkpt lat="43.5103967" lon="11.607485"><ele>149.0</ele><time>2026-04-18T08:26:28.01Z</time></trkpt><trkpt lat="43.51047" lon="11.6074433"><ele>149.0</ele><time>2026-04-18T08:26:29.01Z</time></trkpt><trkpt lat="43.5105417" lon="11.607395"><ele>149.0</ele><time>2026-04-18T08:26:30.009Z</time></trkpt><trkpt lat="43.5106167" lon="11.6073483"><ele>149.0</ele><time>2026-04-18T08:26:31.013Z</time></trkpt><trkpt lat="43.5106933" lon="11.6073017"><ele>148.66666666666666</ele><time>2026-04-18T08:26:32.011Z</time></trkpt><trkpt lat="43.5107667" lon="11.607255"><ele>148.33333333333331</ele><time>2026-04-18T08:26:33.009Z</time></trkpt><trkpt lat="43.5108383" lon="11.6072117"><ele>148.0</ele><time>2026-04-18T08:26:34.009Z</time></trkpt><trkpt lat="43.5109133" lon="11.6071667"><ele>147.66666666666666</ele><time>2026-04-18T08:26:35.011Z</time></trkpt><trkpt lat="43.5109917" lon="11.60712"><ele>147.33333333333334</ele><time>2026-04-18T08:26:36.01Z</time></trkpt><trkpt lat="43.511065" lon="11.607075"><ele>147.0</ele><time>2026-04-18T08:26:37.011Z</time></trkpt><trkpt lat="43.51114" lon="11.60703"><ele>147.16666666666666</ele><time>2026-04-18T08:26:38.01Z</time></trkpt><trkpt lat="43.5112133" lon="11.60698"><ele>147.33333333333334</ele><time>2026-04-18T08:26:39.01Z</time></trkpt><trkpt lat="43.5112867" lon="11.6069283"><ele>147.5</ele><time>2026-04-18T08:26:40.009Z</time></trkpt><trkpt lat="43.51136" lon="11.6068767"><ele>147.66666666666669</ele><time>2026-04-18T08:26:41.012Z</time></trkpt><trkpt lat="43.511435" lon="11.606825"><ele>147.83333333333334</ele><time>2026-04-18T08:26:42.011Z</time></trkpt><trkpt lat="43.51151" lon="11.60677"><ele>148.0</ele><time>2026-04-18T08:26:43.009Z</time></trkpt><trkpt lat="43.511585" lon="11.606715"><ele>148.0</ele><time>2026-04-18T08:26:44.009Z</time></trkpt><trkpt lat="43.5116583" lon="11.6066533"><ele>148.0</ele><time>2026-04-18T08:26:45.01Z</time></trkpt><trkpt lat="43.5117267" lon="11.6065983"><ele>148.0</ele><time>2026-04-18T08:26:46.011Z</time></trkpt><trkpt lat="43.5117967" lon="11.60654"><ele>148.0</ele><time>2026-04-18T08:26:47.013Z</time></trkpt><trkpt lat="43.5118633" lon="11.6064833"><ele>148.0</ele><time>2026-04-18T08:26:48.011Z</time></trkpt><trkpt lat="43.5119283" lon="11.6064233"><ele>148.0</ele><time>2026-04-18T08:26:49.009Z</time></trkpt><trkpt lat="43.5119933" lon="11.6063617"><ele>148.0</ele><time>2026-04-18T08:26:50.01Z</time></trkpt><trkpt lat="43.5120583" lon="11.6063017"><ele>148.0</ele><time>2026-04-18T08:26:51.011Z</time></trkpt><trkpt lat="43.51212" lon="11.606235"><ele>148.0</ele><time>2026-04-18T08:26:52.011Z</time></trkpt><trkpt lat="43.5121833" lon="11.6061633"><ele>148.0</ele><time>2026-04-18T08:26:53.01Z</time></trkpt><trkpt lat="43.5122467" lon="11.6060917"><ele>148.0</ele><time>2026-04-18T08:26:54.011Z</time></trkpt><trkpt lat="43.5123117" lon="11.60602"><ele>148.0</ele><time>2026-04-18T08:26:55.009Z</time></trkpt><trkpt lat="43.5123783" lon="11.6059433"><ele>147.83333333333334</ele><time>2026-04-18T08:26:56.013Z</time></trkpt><trkpt lat="43.51244" lon="11.6058683"><ele>147.66666666666669</ele><time>2026-04-18T08:26:57.011Z</time></trkpt><trkpt lat="43.5125" lon="11.605795"><ele>147.5</ele><time>2026-04-18T08:26:58.01Z</time></trkpt><trkpt lat="43.51256" lon="11.6057167"><ele>147.33333333333334</ele><time>2026-04-18T08:26:59.012Z</time></trkpt><trkpt lat="43.512615" lon="11.6056417"><ele>147.16666666666666</ele><time>2026-04-18T08:27:00.01Z</time></trkpt><trkpt lat="43.51267" lon="11.605565"><ele>147.0</ele><time>2026-04-18T08:27:01.009Z</time></trkpt><trkpt lat="43.5127217" lon="11.6054867"><ele>147.0</ele><time>2026-04-18T08:27:02.01Z</time></trkpt><trkpt lat="43.5127767" lon="11.605405"><ele>147.0</ele><time>2026-04-18T08:27:03.012Z</time></trkpt><trkpt lat="43.51283" lon="11.6053233"><ele>147.0</ele><time>2026-04-18T08:27:04.011Z</time></trkpt><trkpt lat="43.5128833" lon="11.60524"><ele>147.0</ele><time>2026-04-18T08:27:05.008Z</time></trkpt><trkpt lat="43.5129367" lon="11.6051567"><ele>147.0</ele><time>2026-04-18T08:27:06.011Z</time></trkpt><trkpt lat="43.5129833" lon="11.6050717"><ele>147.0</ele><time>2026-04-18T08:27:07.01Z</time></trkpt><trkpt lat="43.51303" lon="11.6049867"><ele>146.83333333333334</ele><time>2026-04-18T08:27:08.01Z</time></trkpt><trkpt lat="43.51308" lon="11.6048983"><ele>146.66666666666666</ele><time>2026-04-18T08:27:09.012Z</time></trkpt><trkpt lat="43.5131283" lon="11.60481"><ele>146.5</ele><time>2026-04-18T08:27:10.008Z</time></trkpt><trkpt lat="43.5131767" lon="11.60472"><ele>146.33333333333331</ele><time>2026-04-18T08:27:11.012Z</time></trkpt><trkpt lat="43.5132267" lon="11.6046267"><ele>146.16666666666666</ele><time>2026-04-18T08:27:12.01Z</time></trkpt><trkpt lat="43.513275" lon="11.6045333"><ele>146.0</ele><time>2026-04-18T08:27:13.009Z</time></trkpt><trkpt lat="43.513325" lon="11.6044367"><ele>145.83333333333331</ele><time>2026-04-18T08:27:14.01Z</time></trkpt><trkpt lat="43.5133717" lon="11.60434"><ele>145.66666666666666</ele><time>2026-04-18T08:27:15.011Z</time></trkpt><trkpt lat="43.5134217" lon="11.6042417"><ele>145.5</ele><time>2026-04-18T08:27:16.011Z</time></trkpt><trkpt lat="43.51347" lon="11.604145"><ele>145.33333333333334</ele><time>2026-04-18T08:27:17.01Z</time></trkpt><trkpt lat="43.513515" lon="11.6040517"><ele>145.16666666666669</ele><time>2026-04-18T08:27:18.009Z</time></trkpt><trkpt lat="43.5135633" lon="11.603955"><ele>145.0</ele><time>2026-04-18T08:27:19.011Z</time></trkpt><trkpt lat="43.5136133" lon="11.6038633"><ele>145.0</ele><time>2026-04-18T08:27:20.01Z</time></trkpt><trkpt lat="43.5136617" lon="11.60377"><ele>145.0</ele><time>2026-04-18T08:27:21.01Z</time></trkpt><trkpt lat="43.51371" lon="11.603675"><ele>145.0</ele><time>2026-04-18T08:27:22.009Z</time></trkpt><trkpt lat="43.5137567" lon="11.60358"><ele>145.0</ele><time>2026-04-18T08:27:23.009Z</time></trkpt><trkpt lat="43.5138033" lon="11.6034783"><ele>145.0</ele><time>2026-04-18T08:27:24.01Z</time></trkpt><trkpt lat="43.51385" lon="11.60338"><ele>145.0</ele><time>2026-04-18T08:27:25.01Z</time></trkpt><trkpt lat="43.5138983" lon="11.6032867"><ele>145.33333333333334</ele><time>2026-04-18T08:27:26.013Z</time></trkpt><trkpt lat="43.51395" lon="11.60319"><ele>145.66666666666669</ele><time>2026-04-18T08:27:27.009Z</time></trkpt><trkpt lat="43.5139983" lon="11.6030933"><ele>146.0</ele><time>2026-04-18T08:27:28.011Z</time></trkpt><trkpt lat="43.5140433" lon="11.603"><ele>146.33333333333334</ele><time>2026-04-18T08:27:29.008Z</time></trkpt><trkpt lat="43.5140917" lon="11.6029067"><ele>146.66666666666666</ele><time>2026-04-18T08:27:30.011Z</time></trkpt><trkpt lat="43.51414" lon="11.602815"><ele>147.0</ele><time>2026-04-18T08:27:31.01Z</time></trkpt><trkpt lat="43.51419" lon="11.6027233"><ele>147.0</ele><time>2026-04-18T08:27:32.009Z</time></trkpt><trkpt lat="43.5142417" lon="11.6026333"><ele>147.0</ele><time>2026-04-18T08:27:33.01Z</time></trkpt><trkpt lat="43.5142933" lon="11.6025467"><ele>147.0</ele><time>2026-04-18T08:27:34.011Z</time></trkpt><trkpt lat="43.5143467" lon="11.60246"><ele>147.0</ele><time>2026-04-18T08:27:35.01Z</time></trkpt><trkpt lat="43.5144033" lon="11.60237"><ele>147.0</ele><time>2026-04-18T08:27:36.009Z</time></trkpt><trkpt lat="43.5144617" lon="11.602285"><ele>147.0</ele><time>2026-04-18T08:27:37.012Z</time></trkpt><trkpt lat="43.5145233" lon="11.602205"><ele>146.83333333333334</ele><time>2026-04-18T08:27:38.01Z</time></trkpt><trkpt lat="43.5145867" lon="11.602125"><ele>146.66666666666666</ele><time>2026-04-18T08:27:39.011Z</time></trkpt><trkpt lat="43.51465" lon="11.60205"><ele>146.5</ele><time>2026-04-18T08:27:40.01Z</time></trkpt><trkpt lat="43.5147167" lon="11.6019767"><ele>146.33333333333331</ele><time>2026-04-18T08:27:41.009Z</time></trkpt><trkpt lat="43.5147817" lon="11.6019083"><ele>146.16666666666666</ele><time>2026-04-18T08:27:42.01Z</time></trkpt><trkpt lat="43.5148483" lon="11.6018433"><ele>146.0</ele><time>2026-04-18T08:27:43.009Z</time></trkpt><trkpt lat="43.5149183" lon="11.601785"><ele>145.83333333333331</ele><time>2026-04-18T08:27:44.011Z</time></trkpt><trkpt lat="43.51499" lon="11.6017283"><ele>145.66666666666666</ele><time>2026-04-18T08:27:45.008Z</time></trkpt><trkpt lat="43.51506" lon="11.60167"><ele>145.5</ele><time>2026-04-18T08:27:46.01Z</time></trkpt><trkpt lat="43.5151317" lon="11.6016183"><ele>145.33333333333334</ele><time>2026-04-18T08:27:47.01Z</time></trkpt><trkpt lat="43.5152033" lon="11.6015733"><ele>145.16666666666669</ele><time>2026-04-18T08:27:48.01Z</time></trkpt><trkpt lat="43.5152767" lon="11.60153"><ele>145.0</ele><time>2026-04-18T08:27:49.011Z</time></trkpt><trkpt lat="43.5153517" lon="11.601485"><ele>144.83333333333334</ele><time>2026-04-18T08:27:50.01Z</time></trkpt><trkpt lat="43.515425" lon="11.6014417"><ele>144.66666666666669</ele><time>2026-04-18T08:27:51.01Z</time></trkpt><trkpt lat="43.5155033" lon="11.6013983"><ele>144.5</ele><time>2026-04-18T08:27:52.012Z</time></trkpt><trkpt lat="43.5155833" lon="11.6013567"><ele>144.33333333333334</ele><time>2026-04-18T08:27:53.01Z</time></trkpt><trkpt lat="43.5156617" lon="11.60131"><ele>144.16666666666666</ele><time>2026-04-18T08:27:54.01Z</time></trkpt><trkpt lat="43.5157383" lon="11.6012667"><ele>144.0</ele><time>2026-04-18T08:27:55.009Z</time></trkpt><trkpt lat="43.5158117" lon="11.6012217"><ele>144.0</ele><time>2026-04-18T08:27:56.01Z</time></trkpt><trkpt lat="43.515885" lon="11.6011717"><ele>144.0</ele><time>2026-04-18T08:27:57.01Z</time></trkpt><trkpt lat="43.51596" lon="11.6011217"><ele>144.0</ele><time>2026-04-18T08:27:58.01Z</time></trkpt><trkpt lat="43.5160333" lon="11.601075"><ele>144.0</ele><time>2026-04-18T08:27:59.011Z</time></trkpt><trkpt lat="43.51611" lon="11.60103"><ele>144.0</ele><time>2026-04-18T08:28:00.01Z</time></trkpt><trkpt lat="43.51619" lon="11.60099"><ele>144.0</ele><time>2026-04-18T08:28:01.01Z</time></trkpt><trkpt lat="43.5162717" lon="11.6009617"><ele>144.5</ele><time>2026-04-18T08:28:02.011Z</time></trkpt><trkpt lat="43.516355" lon="11.6009383"><ele>145.0</ele><time>2026-04-18T08:28:03.01Z</time></trkpt><trkpt lat="43.5164367" lon="11.6009183"><ele>145.5</ele><time>2026-04-18T08:28:04.011Z</time></trkpt><trkpt lat="43.5165133" lon="11.6008883"><ele>146.0</ele><time>2026-04-18T08:28:05.012Z</time></trkpt><trkpt lat="43.5165867" lon="11.60084"><ele>146.5</ele><time>2026-04-18T08:28:06.011Z</time></trkpt><trkpt lat="43.5166483" lon="11.6007717"><ele>147.0</ele><time>2026-04-18T08:28:07.008Z</time></trkpt><trkpt lat="43.5167" lon="11.6006867"><ele>147.0</ele><time>2026-04-18T08:28:08.011Z</time></trkpt><trkpt lat="43.5167467" lon="11.6005967"><ele>147.0</ele><time>2026-04-18T08:28:09.011Z</time></trkpt><trkpt lat="43.5167983" lon="11.6005067"><ele>147.0</ele><time>2026-04-18T08:28:10.01Z</time></trkpt><trkpt lat="43.516855" lon="11.60042"><ele>147.0</ele><time>2026-04-18T08:28:11.011Z</time></trkpt><trkpt lat="43.5169133" lon="11.6003383"><ele>147.0</ele><time>2026-04-18T08:28:12.009Z</time></trkpt><trkpt lat="43.5169733" lon="11.600265"><ele>147.0</ele><time>2026-04-18T08:28:13.009Z</time></trkpt><trkpt lat="43.5170367" lon="11.600195"><ele>146.83333333333334</ele><time>2026-04-18T08:28:14.011Z</time></trkpt><trkpt lat="43.5171" lon="11.6001283"><ele>146.66666666666666</ele><time>2026-04-18T08:28:15.011Z</time></trkpt><trkpt lat="43.51716" lon="11.6000583"><ele>146.5</ele><time>2026-04-18T08:28:16.009Z</time></trkpt><trkpt lat="43.5172167" lon="11.5999817"><ele>146.33333333333331</ele><time>2026-04-18T08:28:17.01Z</time></trkpt><trkpt lat="43.5172683" lon="11.5999017"><ele>146.16666666666666</ele><time>2026-04-18T08:28:18.011Z</time></trkpt><trkpt lat="43.5173183" lon="11.5998217"><ele>146.0</ele><time>2026-04-18T08:28:19.011Z</time></trkpt><trkpt lat="43.517365" lon="11.5997333"><ele>146.0</ele><time>2026-04-18T08:28:20.013Z</time></trkpt><trkpt lat="43.5174083" lon="11.5996433"><ele>146.0</ele><time>2026-04-18T08:28:21.014Z</time></trkpt><trkpt lat="43.517445" lon="11.5995467"><ele>146.0</ele><time>2026-04-18T08:28:22.01Z</time></trkpt><trkpt lat="43.51748" lon="11.599445"><ele>146.0</ele><time>2026-04-18T08:28:23.01Z</time></trkpt><trkpt lat="43.5175067" lon="11.5993467"><ele>146.0</ele><time>2026-04-18T08:28:24.009Z</time></trkpt><trkpt lat="43.5175283" lon="11.5992417"><ele>146.0</ele><time>2026-04-18T08:28:25.011Z</time></trkpt><trkpt lat="43.517545" lon="11.5991367"><ele>145.83333333333331</ele><time>2026-04-18T08:28:26.01Z</time></trkpt><trkpt lat="43.5175583" lon="11.59903"><ele>145.66666666666666</ele><time>2026-04-18T08:28:27.011Z</time></trkpt><trkpt lat="43.51757" lon="11.5989183"><ele>145.5</ele><time>2026-04-18T08:28:28.01Z</time></trkpt><trkpt lat="43.5175817" lon="11.598805"><ele>145.33333333333334</ele><time>2026-04-18T08:28:29.009Z</time></trkpt><trkpt lat="43.5175917" lon="11.5986933"><ele>145.16666666666669</ele><time>2026-04-18T08:28:30.008Z</time></trkpt><trkpt lat="43.5176" lon="11.59858"><ele>145.0</ele><time>2026-04-18T08:28:31.009Z</time></trkpt><trkpt lat="43.5176067" lon="11.5984683"><ele>145.0</ele><time>2026-04-18T08:28:32.01Z</time></trkpt><trkpt lat="43.5176133" lon="11.5983583"><ele>145.0</ele><time>2026-04-18T08:28:33.011Z</time></trkpt><trkpt lat="43.5176233" lon="11.5982483"><ele>145.0</ele><time>2026-04-18T08:28:34.009Z</time></trkpt><trkpt lat="43.5176367" lon="11.5981383"><ele>145.0</ele><time>2026-04-18T08:28:35.01Z</time></trkpt><trkpt lat="43.51765" lon="11.5980317"><ele>145.0</ele><time>2026-04-18T08:28:36.01Z</time></trkpt><trkpt lat="43.5176667" lon="11.5979267"><ele>145.0</ele><time>2026-04-18T08:28:37.01Z</time></trkpt><trkpt lat="43.5176867" lon="11.5978183"><ele>145.0</ele><time>2026-04-18T08:28:38.011Z</time></trkpt><trkpt lat="43.51771" lon="11.5977067"><ele>145.0</ele><time>2026-04-18T08:28:39.009Z</time></trkpt><trkpt lat="43.5177367" lon="11.5976"><ele>145.0</ele><time>2026-04-18T08:28:40.01Z</time></trkpt><trkpt lat="43.5177633" lon="11.5974917"><ele>145.0</ele><time>2026-04-18T08:28:41.009Z</time></trkpt><trkpt lat="43.5177933" lon="11.5973783"><ele>145.0</ele><time>2026-04-18T08:28:42.009Z</time></trkpt><trkpt lat="43.5178233" lon="11.59727"><ele>145.0</ele><time>2026-04-18T08:28:43.01Z</time></trkpt><trkpt lat="43.5178583" lon="11.59716"><ele>145.0</ele><time>2026-04-18T08:28:44.01Z</time></trkpt><trkpt lat="43.5178917" lon="11.5970583"><ele>145.0</ele><time>2026-04-18T08:28:45.011Z</time></trkpt><trkpt lat="43.5179283" lon="11.5969583"><ele>145.0</ele><time>2026-04-18T08:28:46.009Z</time></trkpt><trkpt lat="43.5179667" lon="11.5968633"><ele>145.0</ele><time>2026-04-18T08:28:47.009Z</time></trkpt><trkpt lat="43.51801" lon="11.596765"><ele>145.0</ele><time>2026-04-18T08:28:48.01Z</time></trkpt><trkpt lat="43.518055" lon="11.5966633"><ele>145.0</ele><time>2026-04-18T08:28:49.012Z</time></trkpt><trkpt lat="43.5181033" lon="11.596565"><ele>144.83333333333334</ele><time>2026-04-18T08:28:50.01Z</time></trkpt><trkpt lat="43.5181533" lon="11.5964667"><ele>144.66666666666669</ele><time>2026-04-18T08:28:51.009Z</time></trkpt><trkpt lat="43.518205" lon="11.5963733"><ele>144.5</ele><time>2026-04-18T08:28:52.009Z</time></trkpt><trkpt lat="43.51826" lon="11.5962833"><ele>144.33333333333334</ele><time>2026-04-18T08:28:53.011Z</time></trkpt><trkpt lat="43.5183167" lon="11.5961967"><ele>144.16666666666666</ele><time>2026-04-18T08:28:54.009Z</time></trkpt><trkpt lat="43.518375" lon="11.5961117"><ele>144.0</ele><time>2026-04-18T08:28:55.009Z</time></trkpt><trkpt lat="43.5184317" lon="11.5960283"><ele>144.0</ele><time>2026-04-18T08:28:56.01Z</time></trkpt><trkpt lat="43.5184917" lon="11.5959467"><ele>144.0</ele><time>2026-04-18T08:28:57.009Z</time></trkpt><trkpt lat="43.518555" lon="11.59587"><ele>144.0</ele><time>2026-04-18T08:28:58.011Z</time></trkpt><trkpt lat="43.51862" lon="11.59579"><ele>144.0</ele><time>2026-04-18T08:28:59.012Z</time></trkpt><trkpt lat="43.5186867" lon="11.5957133"><ele>144.0</ele><time>2026-04-18T08:29:00.012Z</time></trkpt><trkpt lat="43.5187533" lon="11.5956417"><ele>144.0</ele><time>2026-04-18T08:29:01.009Z</time></trkpt><trkpt lat="43.5188183" lon="11.5955733"><ele>144.0</ele><time>2026-04-18T08:29:02.011Z</time></trkpt><trkpt lat="43.518885" lon="11.5955017"><ele>144.0</ele><time>2026-04-18T08:29:03.01Z</time></trkpt><trkpt lat="43.5189517" lon="11.59543"><ele>144.0</ele><time>2026-04-18T08:29:04.009Z</time></trkpt><trkpt lat="43.5190183" lon="11.5953583"><ele>144.0</ele><time>2026-04-18T08:29:05.01Z</time></trkpt><trkpt lat="43.5190867" lon="11.595285"><ele>144.0</ele><time>2026-04-18T08:29:06.009Z</time></trkpt><trkpt lat="43.519155" lon="11.5952133"><ele>144.0</ele><time>2026-04-18T08:29:07.01Z</time></trkpt><trkpt lat="43.5192233" lon="11.5951467"><ele>144.0</ele><time>2026-04-18T08:29:08.007Z</time></trkpt><trkpt lat="43.5192933" lon="11.5950817"><ele>144.0</ele><time>2026-04-18T08:29:09.011Z</time></trkpt><trkpt lat="43.51936" lon="11.5950167"><ele>144.0</ele><time>2026-04-18T08:29:10.009Z</time></trkpt><trkpt lat="43.5194267" lon="11.59495"><ele>144.0</ele><time>2026-04-18T08:29:11.009Z</time></trkpt><trkpt lat="43.5194917" lon="11.5948833"><ele>144.0</ele><time>2026-04-18T08:29:12.01Z</time></trkpt><trkpt lat="43.5195583" lon="11.5948167"><ele>144.0</ele><time>2026-04-18T08:29:13.01Z</time></trkpt><trkpt lat="43.519625" lon="11.5947483"><ele>144.0</ele><time>2026-04-18T08:29:14.009Z</time></trkpt><trkpt lat="43.51969" lon="11.594675"><ele>144.0</ele><time>2026-04-18T08:29:15.009Z</time></trkpt><trkpt lat="43.519755" lon="11.5946017"><ele>144.0</ele><time>2026-04-18T08:29:16.01Z</time></trkpt><trkpt lat="43.519815" lon="11.594535"><ele>144.0</ele><time>2026-04-18T08:29:17.009Z</time></trkpt><trkpt lat="43.51988" lon="11.5944683"><ele>144.0</ele><time>2026-04-18T08:29:18.009Z</time></trkpt><trkpt lat="43.519945" lon="11.5944017"><ele>144.0</ele><time>2026-04-18T08:29:19.009Z</time></trkpt><trkpt lat="43.5200083" lon="11.5943333"><ele>144.00000000000003</ele><time>2026-04-18T08:29:20.011Z</time></trkpt><trkpt lat="43.52007" lon="11.594265"><ele>144.0</ele><time>2026-04-18T08:29:21.009Z</time></trkpt><trkpt lat="43.52013" lon="11.5942017"><ele>144.0</ele><time>2026-04-18T08:29:22.012Z</time></trkpt><trkpt lat="43.5201917" lon="11.5941383"><ele>144.0</ele><time>2026-04-18T08:29:23.009Z</time></trkpt><trkpt lat="43.52025" lon="11.59408"><ele>144.0</ele><time>2026-04-18T08:29:24.008Z</time></trkpt><trkpt lat="43.520305" lon="11.5940217"><ele>144.00000000000003</ele><time>2026-04-18T08:29:25.01Z</time></trkpt><trkpt lat="43.5203583" lon="11.5939683"><ele>144.0</ele><time>2026-04-18T08:29:26.01Z</time></trkpt><trkpt lat="43.5204083" lon="11.5939133"><ele>144.0</ele><time>2026-04-18T08:29:27.009Z</time></trkpt><trkpt lat="43.5204617" lon="11.59386"><ele>144.0</ele><time>2026-04-18T08:29:28.008Z</time></trkpt><trkpt lat="43.5205617" lon="11.5937683"><ele>144.0</ele><time>2026-04-18T08:29:30.009Z</time></trkpt><trkpt lat="43.520635" lon="11.5937"><ele>144.0</ele><time>2026-04-18T08:29:32.01Z</time></trkpt><trkpt lat="43.52069" lon="11.5936417"><ele>144.0</ele><time>2026-04-18T08:29:35.009Z</time></trkpt><trkpt lat="43.520775" lon="11.59353"><ele>143.6</ele><time>2026-04-18T08:29:57.009Z</time></trkpt><trkpt lat="43.5208383" lon="11.593455"><ele>143.2</ele><time>2026-04-18T08:30:00.009Z</time></trkpt><trkpt lat="43.5209017" lon="11.59339"><ele>142.79999999999998</ele><time>2026-04-18T08:30:02.01Z</time></trkpt><trkpt lat="43.5209783" lon="11.593315"><ele>142.4</ele><time>2026-04-18T08:30:04.01Z</time></trkpt><trkpt lat="43.521065" lon="11.5932283"><ele>142.0</ele><time>2026-04-18T08:30:06.01Z</time></trkpt><trkpt lat="43.52116" lon="11.5931283"><ele>142.0</ele><time>2026-04-18T08:30:08.009Z</time></trkpt><trkpt lat="43.5212583" lon="11.59303"><ele>142.0</ele><time>2026-04-18T08:30:10.009Z</time></trkpt><trkpt lat="43.5213567" lon="11.5929317"><ele>142.0</ele><time>2026-04-18T08:30:12.01Z</time></trkpt><trkpt lat="43.5214083" lon="11.59288"><ele>142.0</ele><time>2026-04-18T08:30:13.011Z</time></trkpt><trkpt lat="43.52146" lon="11.59283"><ele>142.0</ele><time>2026-04-18T08:30:14.011Z</time></trkpt><trkpt lat="43.5215567" lon="11.5927267"><ele>142.0</ele><time>2026-04-18T08:30:16.01Z</time></trkpt><trkpt lat="43.5216567" lon="11.592625"><ele>142.0</ele><time>2026-04-18T08:30:18.01Z</time></trkpt><trkpt lat="43.5217067" lon="11.59257"><ele>142.0</ele><time>2026-04-18T08:30:19.011Z</time></trkpt><trkpt lat="43.52176" lon="11.5925133"><ele>142.0</ele><time>2026-04-18T08:30:20.011Z</time></trkpt><trkpt lat="43.52181" lon="11.5924583"><ele>142.0</ele><time>2026-04-18T08:30:21.007Z</time></trkpt><trkpt lat="43.52186" lon="11.5924033"><ele>142.0</ele><time>2026-04-18T08:30:22.01Z</time></trkpt><trkpt lat="43.5219133" lon="11.5923467"><ele>142.0</ele><time>2026-04-18T08:30:23.01Z</time></trkpt><trkpt lat="43.521965" lon="11.59229"><ele>142.0</ele><time>2026-04-18T08:30:24.01Z</time></trkpt><trkpt lat="43.5220167" lon="11.592235"><ele>142.0</ele><time>2026-04-18T08:30:25.009Z</time></trkpt><trkpt lat="43.5220717" lon="11.59218"><ele>142.0</ele><time>2026-04-18T08:30:26.011Z</time></trkpt><trkpt lat="43.522125" lon="11.5921267"><ele>142.0</ele><time>2026-04-18T08:30:27.011Z</time></trkpt><trkpt lat="43.5221767" lon="11.592075"><ele>142.0</ele><time>2026-04-18T08:30:28.01Z</time></trkpt><trkpt lat="43.5222283" lon="11.5920217"><ele>142.0</ele><time>2026-04-18T08:30:29.01Z</time></trkpt><trkpt lat="43.52228" lon="11.5919667"><ele>142.28571428571428</ele><time>2026-04-18T08:30:30.012Z</time></trkpt><trkpt lat="43.522335" lon="11.5919067"><ele>142.57142857142856</ele><time>2026-04-18T08:30:31.01Z</time></trkpt><trkpt lat="43.5223867" lon="11.5918467"><ele>142.85714285714286</ele><time>2026-04-18T08:30:32.01Z</time></trkpt><trkpt lat="43.5224417" lon="11.591785"><ele>143.14285714285714</ele><time>2026-04-18T08:30:33.009Z</time></trkpt><trkpt lat="43.5224933" lon="11.5917233"><ele>143.42857142857144</ele><time>2026-04-18T08:30:34.009Z</time></trkpt><trkpt lat="43.522545" lon="11.59166"><ele>143.71428571428572</ele><time>2026-04-18T08:30:35.01Z</time></trkpt><trkpt lat="43.5225983" lon="11.591595"><ele>144.0</ele><time>2026-04-18T08:30:36.009Z</time></trkpt><trkpt lat="43.5226517" lon="11.5915317"><ele>144.00000000000003</ele><time>2026-04-18T08:30:37.01Z</time></trkpt><trkpt lat="43.5227017" lon="11.5914633"><ele>144.0</ele><time>2026-04-18T08:30:38.01Z</time></trkpt><trkpt lat="43.5227533" lon="11.5914"><ele>144.0</ele><time>2026-04-18T08:30:39.01Z</time></trkpt><trkpt lat="43.522805" lon="11.591335"><ele>144.0</ele><time>2026-04-18T08:30:40.009Z</time></trkpt><trkpt lat="43.522855" lon="11.5912683"><ele>144.0</ele><time>2026-04-18T08:30:41.009Z</time></trkpt><trkpt lat="43.5229067" lon="11.5912017"><ele>144.00000000000003</ele><time>2026-04-18T08:30:42.011Z</time></trkpt><trkpt lat="43.5229567" lon="11.5911383"><ele>144.0</ele><time>2026-04-18T08:30:43.011Z</time></trkpt><trkpt lat="43.5230067" lon="11.5910733"><ele>144.00000000000003</ele><time>2026-04-18T08:30:44.01Z</time></trkpt><trkpt lat="43.52306" lon="11.5910067"><ele>144.0</ele><time>2026-04-18T08:30:45.008Z</time></trkpt><trkpt lat="43.5231133" lon="11.59094"><ele>144.0</ele><time>2026-04-18T08:30:46.01Z</time></trkpt><trkpt lat="43.523165" lon="11.590875"><ele>144.0</ele><time>2026-04-18T08:30:47.009Z</time></trkpt><trkpt lat="43.5232183" lon="11.5908083"><ele>144.0</ele><time>2026-04-18T08:30:48.012Z</time></trkpt><trkpt lat="43.5232733" lon="11.59074"><ele>144.00000000000003</ele><time>2026-04-18T08:30:49.011Z</time></trkpt><trkpt lat="43.5233233" lon="11.59067"><ele>144.0</ele><time>2026-04-18T08:30:50.011Z</time></trkpt><trkpt lat="43.523375" lon="11.5905967"><ele>144.00000000000003</ele><time>2026-04-18T08:30:51.008Z</time></trkpt><trkpt lat="43.5234283" lon="11.5905217"><ele>144.0</ele><time>2026-04-18T08:30:52.01Z</time></trkpt><trkpt lat="43.52348" lon="11.5904533"><ele>144.0</ele><time>2026-04-18T08:30:53.013Z</time></trkpt><trkpt lat="43.5235333" lon="11.59039"><ele>144.0</ele><time>2026-04-18T08:30:54.011Z</time></trkpt><trkpt lat="43.5235933" lon="11.590335"><ele>144.0</ele><time>2026-04-18T08:30:55.009Z</time></trkpt><trkpt lat="43.52366" lon="11.5902967"><ele>144.00000000000003</ele><time>2026-04-18T08:30:56.01Z</time></trkpt><trkpt lat="43.523735" lon="11.590275"><ele>144.0</ele><time>2026-04-18T08:30:57.01Z</time></trkpt><trkpt lat="43.5238067" lon="11.5902667"><ele>143.85714285714286</ele><time>2026-04-18T08:30:58.012Z</time></trkpt><trkpt lat="43.52388" lon="11.5902633"><ele>143.71428571428572</ele><time>2026-04-18T08:30:59.009Z</time></trkpt><trkpt lat="43.5239533" lon="11.5902667"><ele>143.57142857142856</ele><time>2026-04-18T08:31:00.01Z</time></trkpt><trkpt lat="43.524025" lon="11.5902833"><ele>143.42857142857144</ele><time>2026-04-18T08:31:01.01Z</time></trkpt><trkpt lat="43.5240917" lon="11.5903217"><ele>143.28571428571428</ele><time>2026-04-18T08:31:02.011Z</time></trkpt><trkpt lat="43.52415" lon="11.5903733"><ele>143.14285714285714</ele><time>2026-04-18T08:31:03.009Z</time></trkpt><trkpt lat="43.524205" lon="11.59043"><ele>143.0</ele><time>2026-04-18T08:31:04.01Z</time></trkpt><trkpt lat="43.5242617" lon="11.5904867"><ele>142.99999999999997</ele><time>2026-04-18T08:31:05.011Z</time></trkpt><trkpt lat="43.52432" lon="11.5905517"><ele>143.0</ele><time>2026-04-18T08:31:06.01Z</time></trkpt><trkpt lat="43.5243733" lon="11.59061"><ele>143.0</ele><time>2026-04-18T08:31:07.01Z</time></trkpt><trkpt lat="43.5244283" lon="11.5906717"><ele>143.0</ele><time>2026-04-18T08:31:08.011Z</time></trkpt><trkpt lat="43.52448" lon="11.5907283"><ele>143.0</ele><time>2026-04-18T08:31:09.009Z</time></trkpt><trkpt lat="43.524535" lon="11.5907883"><ele>142.99999999999997</ele><time>2026-04-18T08:31:10.011Z</time></trkpt><trkpt lat="43.524585" lon="11.5908417"><ele>143.0</ele><time>2026-04-18T08:31:11.009Z</time></trkpt><trkpt lat="43.5246817" lon="11.5909483"><ele>142.8</ele><time>2026-04-18T08:31:13.012Z</time></trkpt><trkpt lat="43.5247767" lon="11.5910583"><ele>142.60000000000002</ele><time>2026-04-18T08:31:15.009Z</time></trkpt><trkpt lat="43.5248783" lon="11.59116"><ele>142.39999999999998</ele><time>2026-04-18T08:31:17.012Z</time></trkpt><trkpt lat="43.5249283" lon="11.5912167"><ele>142.2</ele><time>2026-04-18T08:31:18.011Z</time></trkpt><trkpt lat="43.5250167" lon="11.5913183"><ele>142.0</ele><time>2026-04-18T08:31:20.011Z</time></trkpt><trkpt lat="43.5250667" lon="11.5913717"><ele>142.0</ele><time>2026-04-18T08:31:21.011Z</time></trkpt><trkpt lat="43.525165" lon="11.5914817"><ele>142.0</ele><time>2026-04-18T08:31:23.009Z</time></trkpt><trkpt lat="43.525255" lon="11.5915817"><ele>142.0</ele><time>2026-04-18T08:31:25.01Z</time></trkpt><trkpt lat="43.52535" lon="11.5916783"><ele>142.0</ele><time>2026-04-18T08:31:27.01Z</time></trkpt><trkpt lat="43.5254483" lon="11.5917833"><ele>142.0</ele><time>2026-04-18T08:31:29.011Z</time></trkpt><trkpt lat="43.5255433" lon="11.5918867"><ele>142.0</ele><time>2026-04-18T08:31:31.009Z</time></trkpt><trkpt lat="43.52564" lon="11.5919883"><ele>142.0</ele><time>2026-04-18T08:31:33.01Z</time></trkpt><trkpt lat="43.5257383" lon="11.5920933"><ele>142.0</ele><time>2026-04-18T08:31:35.01Z</time></trkpt><trkpt lat="43.52579" lon="11.5921467"><ele>142.0</ele><time>2026-04-18T08:31:36.011Z</time></trkpt><trkpt lat="43.52584" lon="11.5922"><ele>142.33333333333334</ele><time>2026-04-18T08:31:37.011Z</time></trkpt><trkpt lat="43.52589" lon="11.592255"><ele>142.66666666666669</ele><time>2026-04-18T08:31:38.011Z</time></trkpt><trkpt lat="43.52594" lon="11.59231"><ele>143.0</ele><time>2026-04-18T08:31:39.012Z</time></trkpt><trkpt lat="43.52604" lon="11.5924167"><ele>143.33333333333334</ele><time>2026-04-18T08:31:41.011Z</time></trkpt><trkpt lat="43.5260917" lon="11.59247"><ele>143.66666666666666</ele><time>2026-04-18T08:31:42.009Z</time></trkpt><trkpt lat="43.526145" lon="11.59253"><ele>144.0</ele><time>2026-04-18T08:31:43.01Z</time></trkpt><trkpt lat="43.526195" lon="11.592585"><ele>144.14285714285717</ele><time>2026-04-18T08:31:44.01Z</time></trkpt><trkpt lat="43.5262467" lon="11.5926433"><ele>144.28571428571428</ele><time>2026-04-18T08:31:45.01Z</time></trkpt><trkpt lat="43.5262983" lon="11.5926967"><ele>144.42857142857144</ele><time>2026-04-18T08:31:46.01Z</time></trkpt><trkpt lat="43.5263483" lon="11.59275"><ele>144.57142857142858</ele><time>2026-04-18T08:31:47.011Z</time></trkpt><trkpt lat="43.5264033" lon="11.592805"><ele>144.71428571428572</ele><time>2026-04-18T08:31:48.011Z</time></trkpt><trkpt lat="43.5264533" lon="11.5928583"><ele>144.85714285714286</ele><time>2026-04-18T08:31:49.011Z</time></trkpt><trkpt lat="43.5265033" lon="11.592915"><ele>145.0</ele><time>2026-04-18T08:31:50.01Z</time></trkpt><trkpt lat="43.5265533" lon="11.5929733"><ele>145.0</ele><time>2026-04-18T08:31:51.009Z</time></trkpt><trkpt lat="43.5266017" lon="11.59303"><ele>145.0</ele><time>2026-04-18T08:31:52.01Z</time></trkpt><trkpt lat="43.5266533" lon="11.593085"><ele>145.0</ele><time>2026-04-18T08:31:53.009Z</time></trkpt><trkpt lat="43.5267033" lon="11.5931417"><ele>145.0</ele><time>2026-04-18T08:31:54.011Z</time></trkpt><trkpt lat="43.5267583" lon="11.5932017"><ele>145.0</ele><time>2026-04-18T08:31:55.009Z</time></trkpt><trkpt lat="43.52681" lon="11.59326"><ele>145.0</ele><time>2026-04-18T08:31:56.009Z</time></trkpt><trkpt lat="43.5268617" lon="11.5933217"><ele>145.0</ele><time>2026-04-18T08:31:57.008Z</time></trkpt><trkpt lat="43.526915" lon="11.5933833"><ele>145.0</ele><time>2026-04-18T08:31:58.008Z</time></trkpt><trkpt lat="43.5269717" lon="11.5934467"><ele>145.0</ele><time>2026-04-18T08:31:59.01Z</time></trkpt><trkpt lat="43.5270233" lon="11.5935117"><ele>145.0</ele><time>2026-04-18T08:32:00.012Z</time></trkpt><trkpt lat="43.5270817" lon="11.59357"><ele>145.0</ele><time>2026-04-18T08:32:01.01Z</time></trkpt><trkpt lat="43.52714" lon="11.5936167"><ele>145.0</ele><time>2026-04-18T08:32:02.01Z</time></trkpt><trkpt lat="43.5271983" lon="11.5936633"><ele>145.0</ele><time>2026-04-18T08:32:03.009Z</time></trkpt><trkpt lat="43.5272583" lon="11.5937"><ele>145.0</ele><time>2026-04-18T08:32:04.01Z</time></trkpt><trkpt lat="43.5273233" lon="11.5937233"><ele>145.14285714285714</ele><time>2026-04-18T08:32:05.012Z</time></trkpt><trkpt lat="43.5273883" lon="11.5937367"><ele>145.2857142857143</ele><time>2026-04-18T08:32:06.013Z</time></trkpt><trkpt lat="43.52746" lon="11.59374"><ele>145.42857142857144</ele><time>2026-04-18T08:32:07.011Z</time></trkpt><trkpt lat="43.52753" lon="11.5937317"><ele>145.57142857142858</ele><time>2026-04-18T08:32:08.01Z</time></trkpt><trkpt lat="43.5276083" lon="11.59371"><ele>145.71428571428572</ele><time>2026-04-18T08:32:09.007Z</time></trkpt><trkpt lat="43.527685" lon="11.5936767"><ele>145.85714285714286</ele><time>2026-04-18T08:32:10.009Z</time></trkpt><trkpt lat="43.5277583" lon="11.59363"><ele>146.0</ele><time>2026-04-18T08:32:11.008Z</time></trkpt><trkpt lat="43.5278267" lon="11.5935683"><ele>146.0</ele><time>2026-04-18T08:32:12.008Z</time></trkpt><trkpt lat="43.5278917" lon="11.593495"><ele>146.0</ele><time>2026-04-18T08:32:13.012Z</time></trkpt><trkpt lat="43.52795" lon="11.59341"><ele>146.0</ele><time>2026-04-18T08:32:14.012Z</time></trkpt><trkpt lat="43.5279983" lon="11.5933183"><ele>146.0</ele><time>2026-04-18T08:32:15.011Z</time></trkpt><trkpt lat="43.5280417" lon="11.59322"><ele>146.0</ele><time>2026-04-18T08:32:16.01Z</time></trkpt><trkpt lat="43.5280783" lon="11.5931183"><ele>146.0</ele><time>2026-04-18T08:32:17.01Z</time></trkpt><trkpt lat="43.5281067" lon="11.5930117"><ele>147.16666666666666</ele><time>2026-04-18T08:32:18.01Z</time></trkpt><trkpt lat="43.5281317" lon="11.5928983"><ele>148.33333333333331</ele><time>2026-04-18T08:32:19.009Z</time></trkpt><trkpt lat="43.5281517" lon="11.59278"><ele>149.5</ele><time>2026-04-18T08:32:20.009Z</time></trkpt><trkpt lat="43.5281717" lon="11.5926583"><ele>150.66666666666666</ele><time>2026-04-18T08:32:21.009Z</time></trkpt><trkpt lat="43.52819" lon="11.5925367"><ele>151.83333333333334</ele><time>2026-04-18T08:32:22.01Z</time></trkpt><trkpt lat="43.52821" lon="11.59242"><ele>153.0</ele><time>2026-04-18T08:32:23.009Z</time></trkpt><trkpt lat="43.5282317" lon="11.5923017"><ele>153.0</ele><time>2026-04-18T08:32:24.009Z</time></trkpt><trkpt lat="43.5282533" lon="11.5921867"><ele>153.0</ele><time>2026-04-18T08:32:25.009Z</time></trkpt><trkpt lat="43.5282733" lon="11.592075"><ele>153.0</ele><time>2026-04-18T08:32:26.012Z</time></trkpt><trkpt lat="43.5282933" lon="11.5919617"><ele>153.0</ele><time>2026-04-18T08:32:27.01Z</time></trkpt><trkpt lat="43.5283167" lon="11.5918483"><ele>153.0</ele><time>2026-04-18T08:32:28.009Z</time></trkpt><trkpt lat="43.5283417" lon="11.5917433"><ele>153.0</ele><time>2026-04-18T08:32:29.008Z</time></trkpt><trkpt lat="43.5283683" lon="11.591635"><ele>152.0</ele><time>2026-04-18T08:32:30.011Z</time></trkpt><trkpt lat="43.5283983" lon="11.5915317"><ele>151.0</ele><time>2026-04-18T08:32:31.009Z</time></trkpt><trkpt lat="43.52843" lon="11.5914317"><ele>150.0</ele><time>2026-04-18T08:32:32.011Z</time></trkpt><trkpt lat="43.5284633" lon="11.59133"><ele>149.0</ele><time>2026-04-18T08:32:33.009Z</time></trkpt><trkpt lat="43.5284983" lon="11.59123"><ele>148.0</ele><time>2026-04-18T08:32:34.01Z</time></trkpt><trkpt lat="43.5285367" lon="11.5911333"><ele>147.0</ele><time>2026-04-18T08:32:35.011Z</time></trkpt><trkpt lat="43.528575" lon="11.591035"><ele>147.0</ele><time>2026-04-18T08:32:36.009Z</time></trkpt><trkpt lat="43.5286167" lon="11.590945"><ele>147.0</ele><time>2026-04-18T08:32:37.01Z</time></trkpt><trkpt lat="43.52866" lon="11.590855"><ele>147.0</ele><time>2026-04-18T08:32:38.01Z</time></trkpt><trkpt lat="43.528705" lon="11.59077"><ele>147.0</ele><time>2026-04-18T08:32:39.01Z</time></trkpt><trkpt lat="43.5287533" lon="11.59068"><ele>147.0</ele><time>2026-04-18T08:32:40.009Z</time></trkpt><trkpt lat="43.5288033" lon="11.59059"><ele>147.0</ele><time>2026-04-18T08:32:41.009Z</time></trkpt><trkpt lat="43.52885" lon="11.5905"><ele>147.0</ele><time>2026-04-18T08:32:42.01Z</time></trkpt><trkpt lat="43.5288967" lon="11.59041"><ele>147.0</ele><time>2026-04-18T08:32:43.011Z</time></trkpt><trkpt lat="43.5289417" lon="11.5903233"><ele>147.0</ele><time>2026-04-18T08:32:44.011Z</time></trkpt><trkpt lat="43.52899" lon="11.590235"><ele>147.0</ele><time>2026-04-18T08:32:45.009Z</time></trkpt><trkpt lat="43.5290383" lon="11.5901483"><ele>147.0</ele><time>2026-04-18T08:32:46.01Z</time></trkpt><trkpt lat="43.5290883" lon="11.5900567"><ele>147.0</ele><time>2026-04-18T08:32:47.012Z</time></trkpt><trkpt lat="43.5291367" lon="11.5899667"><ele>146.83333333333334</ele><time>2026-04-18T08:32:48.009Z</time></trkpt><trkpt lat="43.529185" lon="11.5898767"><ele>146.66666666666666</ele><time>2026-04-18T08:32:49.01Z</time></trkpt><trkpt lat="43.5292333" lon="11.5897867"><ele>146.5</ele><time>2026-04-18T08:32:50.011Z</time></trkpt><trkpt lat="43.5292817" lon="11.58969"><ele>146.33333333333331</ele><time>2026-04-18T08:32:51.012Z</time></trkpt><trkpt lat="43.5293283" lon="11.589595"><ele>146.16666666666666</ele><time>2026-04-18T08:32:52.01Z</time></trkpt><trkpt lat="43.5293767" lon="11.5894983"><ele>146.0</ele><time>2026-04-18T08:32:53.009Z</time></trkpt><trkpt lat="43.5294233" lon="11.5894017"><ele>146.0</ele><time>2026-04-18T08:32:54.01Z</time></trkpt><trkpt lat="43.52947" lon="11.5893033"><ele>146.0</ele><time>2026-04-18T08:32:55.01Z</time></trkpt><trkpt lat="43.5295167" lon="11.5892067"><ele>146.0</ele><time>2026-04-18T08:32:56.008Z</time></trkpt><trkpt lat="43.529565" lon="11.58911"><ele>146.0</ele><time>2026-04-18T08:32:57.011Z</time></trkpt><trkpt lat="43.5296133" lon="11.58902"><ele>146.0</ele><time>2026-04-18T08:32:58.009Z</time></trkpt><trkpt lat="43.5296633" lon="11.5889267"><ele>146.0</ele><time>2026-04-18T08:32:59.011Z</time></trkpt><trkpt lat="43.5297133" lon="11.58883"><ele>145.83333333333331</ele><time>2026-04-18T08:33:00.007Z</time></trkpt><trkpt lat="43.5297617" lon="11.5887367"><ele>145.66666666666666</ele><time>2026-04-18T08:33:01.009Z</time></trkpt><trkpt lat="43.5298117" lon="11.5886433"><ele>145.5</ele><time>2026-04-18T08:33:02.011Z</time></trkpt><trkpt lat="43.529865" lon="11.5885517"><ele>145.33333333333334</ele><time>2026-04-18T08:33:03.01Z</time></trkpt><trkpt lat="43.5299167" lon="11.5884583"><ele>145.16666666666669</ele><time>2026-04-18T08:33:04.009Z</time></trkpt><trkpt lat="43.52997" lon="11.5883633"><ele>145.0</ele><time>2026-04-18T08:33:05.01Z</time></trkpt><trkpt lat="43.5300233" lon="11.5882733"><ele>145.0</ele><time>2026-04-18T08:33:06.009Z</time></trkpt><trkpt lat="43.530075" lon="11.5881783"><ele>145.0</ele><time>2026-04-18T08:33:07.009Z</time></trkpt><trkpt lat="43.530125" lon="11.588085"><ele>145.0</ele><time>2026-04-18T08:33:08.011Z</time></trkpt><trkpt lat="43.5301767" lon="11.5879933"><ele>145.0</ele><time>2026-04-18T08:33:09.011Z</time></trkpt><trkpt lat="43.530225" lon="11.5879017"><ele>145.0</ele><time>2026-04-18T08:33:10.009Z</time></trkpt><trkpt lat="43.5302733" lon="11.5878117"><ele>145.0</ele><time>2026-04-18T08:33:11.01Z</time></trkpt><trkpt lat="43.5303217" lon="11.5877233"><ele>145.0</ele><time>2026-04-18T08:33:12.009Z</time></trkpt><trkpt lat="43.5303717" lon="11.5876317"><ele>145.0</ele><time>2026-04-18T08:33:13.01Z</time></trkpt><trkpt lat="43.5304217" lon="11.5875433"><ele>145.0</ele><time>2026-04-18T08:33:14.011Z</time></trkpt><trkpt lat="43.5304667" lon="11.587465"><ele>145.0</ele><time>2026-04-18T08:33:15.01Z</time></trkpt><trkpt lat="43.530515" lon="11.5873783"><ele>145.0</ele><time>2026-04-18T08:33:16.01Z</time></trkpt><trkpt lat="43.5305633" lon="11.5872867"><ele>145.0</ele><time>2026-04-18T08:33:17.009Z</time></trkpt><trkpt lat="43.5306067" lon="11.5872017"><ele>144.83333333333334</ele><time>2026-04-18T08:33:18.01Z</time></trkpt><trkpt lat="43.530655" lon="11.587115"><ele>144.66666666666669</ele><time>2026-04-18T08:33:19.009Z</time></trkpt><trkpt lat="43.5307033" lon="11.5870267"><ele>144.5</ele><time>2026-04-18T08:33:20.01Z</time></trkpt><trkpt lat="43.5307533" lon="11.5869383"><ele>144.33333333333334</ele><time>2026-04-18T08:33:21.009Z</time></trkpt><trkpt lat="43.5308" lon="11.5868583"><ele>144.16666666666666</ele><time>2026-04-18T08:33:22.009Z</time></trkpt><trkpt lat="43.53085" lon="11.5867717"><ele>144.0</ele><time>2026-04-18T08:33:23.009Z</time></trkpt><trkpt lat="43.5308983" lon="11.586685"><ele>143.83333333333334</ele><time>2026-04-18T08:33:24.009Z</time></trkpt><trkpt lat="43.5309467" lon="11.5865967"><ele>143.66666666666666</ele><time>2026-04-18T08:33:25.009Z</time></trkpt><trkpt lat="43.5309933" lon="11.5865133"><ele>143.5</ele><time>2026-04-18T08:33:26.011Z</time></trkpt><trkpt lat="43.5310433" lon="11.5864267"><ele>143.33333333333331</ele><time>2026-04-18T08:33:27.008Z</time></trkpt><trkpt lat="43.531095" lon="11.5863383"><ele>143.16666666666666</ele><time>2026-04-18T08:33:28.01Z</time></trkpt><trkpt lat="43.5311417" lon="11.58625"><ele>143.0</ele><time>2026-04-18T08:33:29.008Z</time></trkpt><trkpt lat="43.5311883" lon="11.58616"><ele>143.0</ele><time>2026-04-18T08:33:30.01Z</time></trkpt><trkpt lat="43.531235" lon="11.5860683"><ele>143.0</ele><time>2026-04-18T08:33:31.01Z</time></trkpt><trkpt lat="43.5312833" lon="11.5859817"><ele>143.0</ele><time>2026-04-18T08:33:32.011Z</time></trkpt><trkpt lat="43.5313283" lon="11.5858933"><ele>143.0</ele><time>2026-04-18T08:33:33.01Z</time></trkpt><trkpt lat="43.5313783" lon="11.5858067"><ele>143.0</ele><time>2026-04-18T08:33:34.01Z</time></trkpt><trkpt lat="43.5314283" lon="11.58572"><ele>143.0</ele><time>2026-04-18T08:33:35.011Z</time></trkpt><trkpt lat="43.5314783" lon="11.585635"><ele>143.0</ele><time>2026-04-18T08:33:36.009Z</time></trkpt><trkpt lat="43.5315283" lon="11.5855467"><ele>143.0</ele><time>2026-04-18T08:33:37.01Z</time></trkpt><trkpt lat="43.5315767" lon="11.5854617"><ele>143.0</ele><time>2026-04-18T08:33:38.01Z</time></trkpt><trkpt lat="43.5316217" lon="11.5853733"><ele>143.0</ele><time>2026-04-18T08:33:39.009Z</time></trkpt><trkpt lat="43.53167" lon="11.585285"><ele>143.0</ele><time>2026-04-18T08:33:40.011Z</time></trkpt><trkpt lat="43.53172" lon="11.585205"><ele>143.0</ele><time>2026-04-18T08:33:41.008Z</time></trkpt><trkpt lat="43.5317683" lon="11.5851283"><ele>143.16666666666666</ele><time>2026-04-18T08:33:42.01Z</time></trkpt><trkpt lat="43.5318167" lon="11.585045"><ele>143.33333333333331</ele><time>2026-04-18T08:33:43.009Z</time></trkpt><trkpt lat="43.5318633" lon="11.5849583"><ele>143.5</ele><time>2026-04-18T08:33:44.01Z</time></trkpt><trkpt lat="43.5319117" lon="11.5848733"><ele>143.66666666666666</ele><time>2026-04-18T08:33:45.009Z</time></trkpt><trkpt lat="43.5319617" lon="11.5847867"><ele>143.83333333333334</ele><time>2026-04-18T08:33:46.012Z</time></trkpt><trkpt lat="43.53201" lon="11.5847033"><ele>144.0</ele><time>2026-04-18T08:33:47.01Z</time></trkpt><trkpt lat="43.5320617" lon="11.5846117"><ele>144.0</ele><time>2026-04-18T08:33:48.009Z</time></trkpt><trkpt lat="43.53211" lon="11.584525"><ele>144.0</ele><time>2026-04-18T08:33:49.01Z</time></trkpt><trkpt lat="43.53216" lon="11.5844333"><ele>144.0</ele><time>2026-04-18T08:33:50.012Z</time></trkpt><trkpt lat="43.53221" lon="11.5843433"><ele>144.0</ele><time>2026-04-18T08:33:51.009Z</time></trkpt><trkpt lat="43.5322617" lon="11.5842517"><ele>144.0</ele><time>2026-04-18T08:33:52.011Z</time></trkpt><trkpt lat="43.5323117" lon="11.5841567"><ele>144.0</ele><time>2026-04-18T08:33:53.008Z</time></trkpt><trkpt lat="43.5323617" lon="11.584065"><ele>143.83333333333334</ele><time>2026-04-18T08:33:54.01Z</time></trkpt><trkpt lat="43.5324133" lon="11.5839683"><ele>143.66666666666666</ele><time>2026-04-18T08:33:55.01Z</time></trkpt><trkpt lat="43.532465" lon="11.5838733"><ele>143.5</ele><time>2026-04-18T08:33:56.011Z</time></trkpt><trkpt lat="43.532515" lon="11.5837817"><ele>143.33333333333331</ele><time>2026-04-18T08:33:57.009Z</time></trkpt><trkpt lat="43.5325617" lon="11.58369"><ele>143.16666666666666</ele><time>2026-04-18T08:33:58.009Z</time></trkpt><trkpt lat="43.5326117" lon="11.5835967"><ele>143.0</ele><time>2026-04-18T08:33:59.011Z</time></trkpt><trkpt lat="43.5326633" lon="11.5835033"><ele>143.0</ele><time>2026-04-18T08:34:00.01Z</time></trkpt><trkpt lat="43.532715" lon="11.5834083"><ele>143.0</ele><time>2026-04-18T08:34:01.011Z</time></trkpt><trkpt lat="43.5327633" lon="11.5833133"><ele>143.0</ele><time>2026-04-18T08:34:02.009Z</time></trkpt><trkpt lat="43.5328117" lon="11.5832167"><ele>143.0</ele><time>2026-04-18T08:34:03.01Z</time></trkpt><trkpt lat="43.5328617" lon="11.5831183"><ele>143.0</ele><time>2026-04-18T08:34:04.008Z</time></trkpt><trkpt lat="43.5329133" lon="11.5830217"><ele>143.0</ele><time>2026-04-18T08:34:05.009Z</time></trkpt><trkpt lat="43.532965" lon="11.582925"><ele>143.0</ele><time>2026-04-18T08:34:06.01Z</time></trkpt><trkpt lat="43.5330167" lon="11.5828283"><ele>143.0</ele><time>2026-04-18T08:34:07.009Z</time></trkpt><trkpt lat="43.533065" lon="11.5827367"><ele>143.0</ele><time>2026-04-18T08:34:08.012Z</time></trkpt><trkpt lat="43.5331133" lon="11.5826433"><ele>143.0</ele><time>2026-04-18T08:34:09.009Z</time></trkpt><trkpt lat="43.53316" lon="11.582555"><ele>143.0</ele><time>2026-04-18T08:34:10.009Z</time></trkpt><trkpt lat="43.5332067" lon="11.5824667"><ele>143.0</ele><time>2026-04-18T08:34:11.009Z</time></trkpt><trkpt lat="43.5332533" lon="11.582375"><ele>143.0</ele><time>2026-04-18T08:34:12.011Z</time></trkpt><trkpt lat="43.5333017" lon="11.582275"><ele>143.0</ele><time>2026-04-18T08:34:13.01Z</time></trkpt><trkpt lat="43.5333483" lon="11.5821817"><ele>143.0</ele><time>2026-04-18T08:34:14.011Z</time></trkpt><trkpt lat="43.5333933" lon="11.5820917"><ele>143.0</ele><time>2026-04-18T08:34:15.009Z</time></trkpt><trkpt lat="43.53344" lon="11.5820033"><ele>143.0</ele><time>2026-04-18T08:34:16.01Z</time></trkpt><trkpt lat="43.533485" lon="11.5819117"><ele>143.0</ele><time>2026-04-18T08:34:17.01Z</time></trkpt><trkpt lat="43.5335283" lon="11.58182"><ele>143.0</ele><time>2026-04-18T08:34:18.011Z</time></trkpt><trkpt lat="43.5335733" lon="11.5817283"><ele>143.0</ele><time>2026-04-18T08:34:19.01Z</time></trkpt><trkpt lat="43.53362" lon="11.581635"><ele>143.0</ele><time>2026-04-18T08:34:20.01Z</time></trkpt><trkpt lat="43.5336683" lon="11.5815417"><ele>143.0</ele><time>2026-04-18T08:34:21.012Z</time></trkpt><trkpt lat="43.5337167" lon="11.5814533"><ele>143.0</ele><time>2026-04-18T08:34:22.011Z</time></trkpt><trkpt lat="43.533765" lon="11.5813667"><ele>143.0</ele><time>2026-04-18T08:34:23.008Z</time></trkpt><trkpt lat="43.533815" lon="11.5812783"><ele>143.0</ele><time>2026-04-18T08:34:24.009Z</time></trkpt><trkpt lat="43.533865" lon="11.5811967"><ele>143.0</ele><time>2026-04-18T08:34:25.011Z</time></trkpt><trkpt lat="43.533915" lon="11.5811167"><ele>143.0</ele><time>2026-04-18T08:34:26.009Z</time></trkpt><trkpt lat="43.533965" lon="11.58103"><ele>143.0</ele><time>2026-04-18T08:34:27.008Z</time></trkpt><trkpt lat="43.534015" lon="11.5809417"><ele>143.0</ele><time>2026-04-18T08:34:28.01Z</time></trkpt><trkpt lat="43.534065" lon="11.5808567"><ele>143.0</ele><time>2026-04-18T08:34:29.012Z</time></trkpt><trkpt lat="43.534115" lon="11.5807733"><ele>143.0</ele><time>2026-04-18T08:34:30.011Z</time></trkpt><trkpt lat="43.53417" lon="11.5806867"><ele>143.0</ele><time>2026-04-18T08:34:31.009Z</time></trkpt><trkpt lat="43.5342267" lon="11.5805983"><ele>143.0</ele><time>2026-04-18T08:34:32.01Z</time></trkpt><trkpt lat="43.5342817" lon="11.5805133"><ele>143.0</ele><time>2026-04-18T08:34:33.008Z</time></trkpt><trkpt lat="43.5343383" lon="11.580425"><ele>143.0</ele><time>2026-04-18T08:34:34.01Z</time></trkpt><trkpt lat="43.534395" lon="11.5803367"><ele>143.0</ele><time>2026-04-18T08:34:35.011Z</time></trkpt><trkpt lat="43.5344517" lon="11.5802517"><ele>143.0</ele><time>2026-04-18T08:34:36.01Z</time></trkpt><trkpt lat="43.5345117" lon="11.5801633"><ele>143.0</ele><time>2026-04-18T08:34:37.009Z</time></trkpt><trkpt lat="43.5345667" lon="11.5800733"><ele>143.0</ele><time>2026-04-18T08:34:38.012Z</time></trkpt><trkpt lat="43.53462" lon="11.5799867"><ele>143.0</ele><time>2026-04-18T08:34:39.01Z</time></trkpt><trkpt lat="43.53467" lon="11.5799017"><ele>143.0</ele><time>2026-04-18T08:34:40.01Z</time></trkpt><trkpt lat="43.5347217" lon="11.579815"><ele>143.0</ele><time>2026-04-18T08:34:41.01Z</time></trkpt><trkpt lat="43.5347733" lon="11.5797267"><ele>143.0</ele><time>2026-04-18T08:34:42.01Z</time></trkpt><trkpt lat="43.534825" lon="11.57964"><ele>143.0</ele><time>2026-04-18T08:34:43.008Z</time></trkpt><trkpt lat="43.5348767" lon="11.5795517"><ele>143.0</ele><time>2026-04-18T08:34:44.011Z</time></trkpt><trkpt lat="43.5349267" lon="11.57946"><ele>143.0</ele><time>2026-04-18T08:34:45.011Z</time></trkpt><trkpt lat="43.534975" lon="11.579375"><ele>143.0</ele><time>2026-04-18T08:34:46.008Z</time></trkpt><trkpt lat="43.5350233" lon="11.5792883"><ele>143.0</ele><time>2026-04-18T08:34:47.009Z</time></trkpt><trkpt lat="43.53507" lon="11.579205"><ele>142.66666666666666</ele><time>2026-04-18T08:34:48.009Z</time></trkpt><trkpt lat="43.5351217" lon="11.5791183"><ele>142.33333333333331</ele><time>2026-04-18T08:34:49.01Z</time></trkpt><trkpt lat="43.5351717" lon="11.5790283"><ele>142.0</ele><time>2026-04-18T08:34:50.012Z</time></trkpt><trkpt lat="43.5352233" lon="11.5789383"><ele>141.66666666666666</ele><time>2026-04-18T08:34:51.01Z</time></trkpt><trkpt lat="43.5352733" lon="11.5788433"><ele>141.33333333333334</ele><time>2026-04-18T08:34:52.011Z</time></trkpt><trkpt lat="43.5353217" lon="11.5787533"><ele>141.0</ele><time>2026-04-18T08:34:53.008Z</time></trkpt><trkpt lat="43.53537" lon="11.5786667"><ele>141.0</ele><time>2026-04-18T08:34:54.01Z</time></trkpt><trkpt lat="43.53542" lon="11.5785817"><ele>141.0</ele><time>2026-04-18T08:34:55.01Z</time></trkpt><trkpt lat="43.5354683" lon="11.578495"><ele>141.0</ele><time>2026-04-18T08:34:56.012Z</time></trkpt><trkpt lat="43.5355167" lon="11.5784083"><ele>141.0</ele><time>2026-04-18T08:34:57.01Z</time></trkpt><trkpt lat="43.535565" lon="11.5783233"><ele>141.0</ele><time>2026-04-18T08:34:58.01Z</time></trkpt><trkpt lat="43.5356133" lon="11.578235"><ele>141.0</ele><time>2026-04-18T08:34:59.01Z</time></trkpt><trkpt lat="43.53566" lon="11.578145"><ele>141.0</ele><time>2026-04-18T08:35:00.01Z</time></trkpt><trkpt lat="43.53571" lon="11.5780533"><ele>141.0</ele><time>2026-04-18T08:35:01.011Z</time></trkpt><trkpt lat="43.5357617" lon="11.5779667"><ele>141.0</ele><time>2026-04-18T08:35:02.011Z</time></trkpt><trkpt lat="43.5358133" lon="11.5778733"><ele>141.0</ele><time>2026-04-18T08:35:03.011Z</time></trkpt><trkpt lat="43.535865" lon="11.577785"><ele>141.0</ele><time>2026-04-18T08:35:04.01Z</time></trkpt><trkpt lat="43.535915" lon="11.5776967"><ele>141.0</ele><time>2026-04-18T08:35:05.01Z</time></trkpt><trkpt lat="43.5359617" lon="11.5776133"><ele>141.0</ele><time>2026-04-18T08:35:06.011Z</time></trkpt><trkpt lat="43.53601" lon="11.577525"><ele>141.0</ele><time>2026-04-18T08:35:07.012Z</time></trkpt><trkpt lat="43.5360567" lon="11.5774367"><ele>141.0</ele><time>2026-04-18T08:35:08.012Z</time></trkpt><trkpt lat="43.5361067" lon="11.5773483"><ele>141.0</ele><time>2026-04-18T08:35:09.009Z</time></trkpt><trkpt lat="43.5361567" lon="11.5772617"><ele>141.0</ele><time>2026-04-18T08:35:10.009Z</time></trkpt><trkpt lat="43.5362067" lon="11.5771733"><ele>141.0</ele><time>2026-04-18T08:35:11.01Z</time></trkpt><trkpt lat="43.5362567" lon="11.577085"><ele>141.16666666666666</ele><time>2026-04-18T08:35:12.01Z</time></trkpt><trkpt lat="43.5363067" lon="11.5769917"><ele>141.33333333333334</ele><time>2026-04-18T08:35:13.011Z</time></trkpt><trkpt lat="43.5363567" lon="11.5769"><ele>141.5</ele><time>2026-04-18T08:35:14.011Z</time></trkpt><trkpt lat="43.536405" lon="11.576815"><ele>141.66666666666669</ele><time>2026-04-18T08:35:15.012Z</time></trkpt><trkpt lat="43.5364517" lon="11.5767283"><ele>141.83333333333334</ele><time>2026-04-18T08:35:16.011Z</time></trkpt><trkpt lat="43.5365" lon="11.5766433"><ele>142.0</ele><time>2026-04-18T08:35:17.011Z</time></trkpt><trkpt lat="43.5365467" lon="11.5765567"><ele>142.0</ele><time>2026-04-18T08:35:18.01Z</time></trkpt><trkpt lat="43.5365933" lon="11.5764683"><ele>142.0</ele><time>2026-04-18T08:35:19.01Z</time></trkpt><trkpt lat="43.53664" lon="11.576385"><ele>142.0</ele><time>2026-04-18T08:35:20.011Z</time></trkpt><trkpt lat="43.53669" lon="11.5762983"><ele>142.0</ele><time>2026-04-18T08:35:21.01Z</time></trkpt><trkpt lat="43.5367383" lon="11.5762117"><ele>142.0</ele><time>2026-04-18T08:35:22.01Z</time></trkpt><trkpt lat="43.5367867" lon="11.5761267"><ele>142.0</ele><time>2026-04-18T08:35:23.011Z</time></trkpt><trkpt lat="43.536835" lon="11.5760417"><ele>141.83333333333334</ele><time>2026-04-18T08:35:24.011Z</time></trkpt><trkpt lat="43.5368833" lon="11.5759533"><ele>141.66666666666669</ele><time>2026-04-18T08:35:25.011Z</time></trkpt><trkpt lat="43.5369333" lon="11.5758617"><ele>141.5</ele><time>2026-04-18T08:35:26.01Z</time></trkpt><trkpt lat="43.5369817" lon="11.5757717"><ele>141.33333333333334</ele><time>2026-04-18T08:35:27.01Z</time></trkpt><trkpt lat="43.5370283" lon="11.5756833"><ele>141.16666666666666</ele><time>2026-04-18T08:35:28.012Z</time></trkpt><trkpt lat="43.5370733" lon="11.575595"><ele>141.0</ele><time>2026-04-18T08:35:29.012Z</time></trkpt><trkpt lat="43.5371217" lon="11.5755067"><ele>141.0</ele><time>2026-04-18T08:35:30.01Z</time></trkpt><trkpt lat="43.5371667" lon="11.57542"><ele>141.0</ele><time>2026-04-18T08:35:31.011Z</time></trkpt><trkpt lat="43.537215" lon="11.57533"><ele>141.0</ele><time>2026-04-18T08:35:32.011Z</time></trkpt><trkpt lat="43.53726" lon="11.5752433"><ele>141.0</ele><time>2026-04-18T08:35:33.01Z</time></trkpt><trkpt lat="43.5373083" lon="11.5751617"><ele>141.0</ele><time>2026-04-18T08:35:34.009Z</time></trkpt><trkpt lat="43.5373533" lon="11.5750817"><ele>141.0</ele><time>2026-04-18T08:35:35.009Z</time></trkpt><trkpt lat="43.5373983" lon="11.574995"><ele>141.0</ele><time>2026-04-18T08:35:36.008Z</time></trkpt><trkpt lat="43.537445" lon="11.5749067"><ele>141.0</ele><time>2026-04-18T08:35:37.01Z</time></trkpt><trkpt lat="43.53749" lon="11.5748183"><ele>141.0</ele><time>2026-04-18T08:35:38.01Z</time></trkpt><trkpt lat="43.537535" lon="11.57473"><ele>141.0</ele><time>2026-04-18T08:35:39.01Z</time></trkpt><trkpt lat="43.53758" lon="11.5746433"><ele>141.0</ele><time>2026-04-18T08:35:40.01Z</time></trkpt><trkpt lat="43.5376267" lon="11.57456"><ele>141.0</ele><time>2026-04-18T08:35:41.01Z</time></trkpt><trkpt lat="43.5376733" lon="11.5744817"><ele>141.33333333333334</ele><time>2026-04-18T08:35:42.009Z</time></trkpt><trkpt lat="43.53772" lon="11.5744"><ele>141.66666666666666</ele><time>2026-04-18T08:35:43.01Z</time></trkpt><trkpt lat="43.537765" lon="11.5743167"><ele>142.0</ele><time>2026-04-18T08:35:44.011Z</time></trkpt><trkpt lat="43.5378117" lon="11.5742333"><ele>142.33333333333331</ele><time>2026-04-18T08:35:45.011Z</time></trkpt><trkpt lat="43.5378583" lon="11.57415"><ele>142.66666666666666</ele><time>2026-04-18T08:35:46.009Z</time></trkpt><trkpt lat="43.537905" lon="11.5740667"><ele>143.0</ele><time>2026-04-18T08:35:47.008Z</time></trkpt><trkpt lat="43.53795" lon="11.573985"><ele>143.16666666666666</ele><time>2026-04-18T08:35:48.01Z</time></trkpt><trkpt lat="43.5379967" lon="11.5739017"><ele>143.33333333333331</ele><time>2026-04-18T08:35:49.011Z</time></trkpt><trkpt lat="43.5380433" lon="11.5738183"><ele>143.5</ele><time>2026-04-18T08:35:50.011Z</time></trkpt><trkpt lat="43.53809" lon="11.5737333"><ele>143.66666666666666</ele><time>2026-04-18T08:35:51.009Z</time></trkpt><trkpt lat="43.5381367" lon="11.5736467"><ele>143.83333333333334</ele><time>2026-04-18T08:35:52.009Z</time></trkpt><trkpt lat="43.5381833" lon="11.5735667"><ele>144.0</ele><time>2026-04-18T08:35:53.008Z</time></trkpt><trkpt lat="43.53823" lon="11.5734817"><ele>143.66666666666666</ele><time>2026-04-18T08:35:54.01Z</time></trkpt><trkpt lat="43.5382783" lon="11.5734"><ele>143.33333333333334</ele><time>2026-04-18T08:35:55.011Z</time></trkpt><trkpt lat="43.538325" lon="11.5733183"><ele>143.0</ele><time>2026-04-18T08:35:56.009Z</time></trkpt><trkpt lat="43.5383717" lon="11.5732383"><ele>142.66666666666669</ele><time>2026-04-18T08:35:57.009Z</time></trkpt><trkpt lat="43.5384183" lon="11.5731567"><ele>142.33333333333334</ele><time>2026-04-18T08:35:58.008Z</time></trkpt><trkpt lat="43.5384633" lon="11.5730733"><ele>142.0</ele><time>2026-04-18T08:35:59.009Z</time></trkpt><trkpt lat="43.53851" lon="11.5729917"><ele>142.0</ele><time>2026-04-18T08:36:00.011Z</time></trkpt><trkpt lat="43.53856" lon="11.5729017"><ele>142.0</ele><time>2026-04-18T08:36:01.009Z</time></trkpt><trkpt lat="43.5386067" lon="11.5728133"><ele>142.0</ele><time>2026-04-18T08:36:02.009Z</time></trkpt><trkpt lat="43.5386517" lon="11.5727267"><ele>142.0</ele><time>2026-04-18T08:36:03.008Z</time></trkpt><trkpt lat="43.5387017" lon="11.57264"><ele>142.0</ele><time>2026-04-18T08:36:04.008Z</time></trkpt><trkpt lat="43.5387483" lon="11.5725567"><ele>142.0</ele><time>2026-04-18T08:36:05.011Z</time></trkpt><trkpt lat="43.5387967" lon="11.5724617"><ele>142.16666666666669</ele><time>2026-04-18T08:36:06.01Z</time></trkpt><trkpt lat="43.5388467" lon="11.572375"><ele>142.33333333333334</ele><time>2026-04-18T08:36:07.009Z</time></trkpt><trkpt lat="43.5388983" lon="11.5722833"><ele>142.5</ele><time>2026-04-18T08:36:08.008Z</time></trkpt><trkpt lat="43.53895" lon="11.572195"><ele>142.66666666666666</ele><time>2026-04-18T08:36:09.01Z</time></trkpt><trkpt lat="43.5389967" lon="11.57211"><ele>142.83333333333331</ele><time>2026-04-18T08:36:10.007Z</time></trkpt><trkpt lat="43.5390533" lon="11.5720217"><ele>143.0</ele><time>2026-04-18T08:36:11.009Z</time></trkpt><trkpt lat="43.5391083" lon="11.5719333"><ele>142.33333333333331</ele><time>2026-04-18T08:36:12.011Z</time></trkpt><trkpt lat="43.5391667" lon="11.5718433"><ele>141.66666666666666</ele><time>2026-04-18T08:36:13.008Z</time></trkpt><trkpt lat="43.539225" lon="11.5717517"><ele>141.0</ele><time>2026-04-18T08:36:14.012Z</time></trkpt><trkpt lat="43.53928" lon="11.5716583"><ele>140.33333333333334</ele><time>2026-04-18T08:36:15.009Z</time></trkpt><trkpt lat="43.5393367" lon="11.5715667"><ele>139.66666666666669</ele><time>2026-04-18T08:36:16.008Z</time></trkpt><trkpt lat="43.53939" lon="11.5714833"><ele>139.0</ele><time>2026-04-18T08:36:17.009Z</time></trkpt><trkpt lat="43.5394483" lon="11.5713967"><ele>139.0</ele><time>2026-04-18T08:36:18.008Z</time></trkpt><trkpt lat="43.539505" lon="11.5713117"><ele>139.0</ele><time>2026-04-18T08:36:19.008Z</time></trkpt><trkpt lat="43.539565" lon="11.5712283"><ele>139.0</ele><time>2026-04-18T08:36:20.01Z</time></trkpt><trkpt lat="43.5396217" lon="11.5711467"><ele>139.0</ele><time>2026-04-18T08:36:21.01Z</time></trkpt><trkpt lat="43.53968" lon="11.571065"><ele>139.0</ele><time>2026-04-18T08:36:22.009Z</time></trkpt><trkpt lat="43.5397383" lon="11.5709867"><ele>139.0</ele><time>2026-04-18T08:36:23.008Z</time></trkpt><trkpt lat="43.5398017" lon="11.5709117"><ele>139.33333333333334</ele><time>2026-04-18T08:36:24.009Z</time></trkpt><trkpt lat="43.5398683" lon="11.5708483"><ele>139.66666666666669</ele><time>2026-04-18T08:36:25.012Z</time></trkpt><trkpt lat="43.5399367" lon="11.5707933"><ele>140.0</ele><time>2026-04-18T08:36:26.011Z</time></trkpt><trkpt lat="43.5400117" lon="11.57074"><ele>140.33333333333334</ele><time>2026-04-18T08:36:27.01Z</time></trkpt><trkpt lat="43.5400933" lon="11.5706967"><ele>140.66666666666666</ele><time>2026-04-18T08:36:28.009Z</time></trkpt><trkpt lat="43.540175" lon="11.57067"><ele>141.0</ele><time>2026-04-18T08:36:29.009Z</time></trkpt><trkpt lat="43.5402583" lon="11.57065"><ele>141.0</ele><time>2026-04-18T08:36:30.01Z</time></trkpt><trkpt lat="43.5403433" lon="11.5706383"><ele>141.0</ele><time>2026-04-18T08:36:31.009Z</time></trkpt><trkpt lat="43.5404317" lon="11.5706317"><ele>141.0</ele><time>2026-04-18T08:36:32.01Z</time></trkpt><trkpt lat="43.540515" lon="11.5706333"><ele>141.0</ele><time>2026-04-18T08:36:33.01Z</time></trkpt><trkpt lat="43.5405983" lon="11.570645"><ele>141.0</ele><time>2026-04-18T08:36:34.009Z</time></trkpt><trkpt lat="43.5406783" lon="11.5706617"><ele>141.0</ele><time>2026-04-18T08:36:35.008Z</time></trkpt><trkpt lat="43.54076" lon="11.57068"><ele>141.16666666666666</ele><time>2026-04-18T08:36:36.008Z</time></trkpt><trkpt lat="43.540845" lon="11.5706983"><ele>141.33333333333334</ele><time>2026-04-18T08:36:37.009Z</time></trkpt><trkpt lat="43.5409283" lon="11.5707183"><ele>141.5</ele><time>2026-04-18T08:36:38.01Z</time></trkpt><trkpt lat="43.5410083" lon="11.5707383"><ele>141.66666666666669</ele><time>2026-04-18T08:36:39.01Z</time></trkpt><trkpt lat="43.5410867" lon="11.5707583"><ele>141.83333333333334</ele><time>2026-04-18T08:36:40.009Z</time></trkpt><trkpt lat="43.5411667" lon="11.57078"><ele>142.0</ele><time>2026-04-18T08:36:41.008Z</time></trkpt><trkpt lat="43.5412467" lon="11.5708017"><ele>141.5</ele><time>2026-04-18T08:36:42.009Z</time></trkpt><trkpt lat="43.541325" lon="11.5708183"><ele>141.0</ele><time>2026-04-18T08:36:43.01Z</time></trkpt><trkpt lat="43.541405" lon="11.5708383"><ele>140.5</ele><time>2026-04-18T08:36:44.009Z</time></trkpt><trkpt lat="43.5414867" lon="11.5708567"><ele>140.0</ele><time>2026-04-18T08:36:45.009Z</time></trkpt><trkpt lat="43.5415717" lon="11.5708733"><ele>139.5</ele><time>2026-04-18T08:36:46.007Z</time></trkpt><trkpt lat="43.5416517" lon="11.57089"><ele>139.0</ele><time>2026-04-18T08:36:47.011Z</time></trkpt><trkpt lat="43.541735" lon="11.5709083"><ele>139.0</ele><time>2026-04-18T08:36:48.01Z</time></trkpt><trkpt lat="43.541815" lon="11.5709283"><ele>139.0</ele><time>2026-04-18T08:36:49.007Z</time></trkpt><trkpt lat="43.5418933" lon="11.5709467"><ele>139.0</ele><time>2026-04-18T08:36:50.011Z</time></trkpt><trkpt lat="43.54197" lon="11.5709683"><ele>139.0</ele><time>2026-04-18T08:36:51.009Z</time></trkpt><trkpt lat="43.542045" lon="11.57099"><ele>139.0</ele><time>2026-04-18T08:36:52.006Z</time></trkpt><trkpt lat="43.54212" lon="11.571005"><ele>139.0</ele><time>2026-04-18T08:36:53.009Z</time></trkpt><trkpt lat="43.5421933" lon="11.57102"><ele>139.28571428571428</ele><time>2026-04-18T08:36:54.01Z</time></trkpt><trkpt lat="43.542265" lon="11.5710367"><ele>139.57142857142858</ele><time>2026-04-18T08:36:55.009Z</time></trkpt><trkpt lat="43.5423383" lon="11.571055"><ele>139.85714285714286</ele><time>2026-04-18T08:36:56.009Z</time></trkpt><trkpt lat="43.54241" lon="11.571075"><ele>140.14285714285714</ele><time>2026-04-18T08:36:57.009Z</time></trkpt><trkpt lat="43.5424867" lon="11.571095"><ele>140.42857142857142</ele><time>2026-04-18T08:36:58.009Z</time></trkpt><trkpt lat="43.54256" lon="11.571115"><ele>140.71428571428572</ele><time>2026-04-18T08:36:59.008Z</time></trkpt><trkpt lat="43.54263" lon="11.5711333"><ele>141.0</ele><time>2026-04-18T08:37:00.01Z</time></trkpt><trkpt lat="43.5426967" lon="11.571155"><ele>141.0</ele><time>2026-04-18T08:37:01.01Z</time></trkpt><trkpt lat="43.54277" lon="11.5711767"><ele>141.0</ele><time>2026-04-18T08:37:02.009Z</time></trkpt><trkpt lat="43.5428483" lon="11.5711983"><ele>141.0</ele><time>2026-04-18T08:37:03.008Z</time></trkpt><trkpt lat="43.54292" lon="11.5712183"><ele>141.0</ele><time>2026-04-18T08:37:04.006Z</time></trkpt><trkpt lat="43.5429933" lon="11.5712333"><ele>141.0</ele><time>2026-04-18T08:37:05.01Z</time></trkpt><trkpt lat="43.54307" lon="11.5712467"><ele>141.0</ele><time>2026-04-18T08:37:06.009Z</time></trkpt><trkpt lat="43.5431467" lon="11.5712667"><ele>140.66666666666666</ele><time>2026-04-18T08:37:07.008Z</time></trkpt><trkpt lat="43.543225" lon="11.571285"><ele>140.33333333333334</ele><time>2026-04-18T08:37:08.009Z</time></trkpt><trkpt lat="43.5433083" lon="11.5713"><ele>140.0</ele><time>2026-04-18T08:37:09.009Z</time></trkpt><trkpt lat="43.54339" lon="11.5713167"><ele>139.66666666666669</ele><time>2026-04-18T08:37:10.009Z</time></trkpt><trkpt lat="43.54347" lon="11.5713333"><ele>139.33333333333334</ele><time>2026-04-18T08:37:11.009Z</time></trkpt><trkpt lat="43.54355" lon="11.57135"><ele>139.0</ele><time>2026-04-18T08:37:12.009Z</time></trkpt><trkpt lat="43.5436383" lon="11.5713717"><ele>139.4</ele><time>2026-04-18T08:37:13.011Z</time></trkpt><trkpt lat="43.5437283" lon="11.5713967"><ele>139.8</ele><time>2026-04-18T08:37:14.009Z</time></trkpt><trkpt lat="43.5438183" lon="11.5714217"><ele>140.2</ele><time>2026-04-18T08:37:15.011Z</time></trkpt><trkpt lat="43.5439083" lon="11.571445"><ele>140.6</ele><time>2026-04-18T08:37:16.009Z</time></trkpt><trkpt lat="43.5439983" lon="11.5714667"><ele>141.0</ele><time>2026-04-18T08:37:17.009Z</time></trkpt><trkpt lat="43.544085" lon="11.5714883"><ele>141.0</ele><time>2026-04-18T08:37:18.01Z</time></trkpt><trkpt lat="43.5441733" lon="11.5715117"><ele>141.0</ele><time>2026-04-18T08:37:19.01Z</time></trkpt><trkpt lat="43.5442617" lon="11.5715517"><ele>141.0</ele><time>2026-04-18T08:37:20.012Z</time></trkpt><trkpt lat="43.5443383" lon="11.5716183"><ele>141.0</ele><time>2026-04-18T08:37:21.008Z</time></trkpt><trkpt lat="43.5444033" lon="11.5717033"><ele>141.0</ele><time>2026-04-18T08:37:22.008Z</time></trkpt><trkpt lat="43.54446" lon="11.5717983"><ele>141.0</ele><time>2026-04-18T08:37:23.01Z</time></trkpt><trkpt lat="43.5445133" lon="11.5718933"><ele>141.0</ele><time>2026-04-18T08:37:24.01Z</time></trkpt><trkpt lat="43.5445667" lon="11.5719833"><ele>141.0</ele><time>2026-04-18T08:37:25.009Z</time></trkpt><trkpt lat="43.5446167" lon="11.57207"><ele>141.0</ele><time>2026-04-18T08:37:26.01Z</time></trkpt><trkpt lat="43.5446633" lon="11.572155"><ele>141.0</ele><time>2026-04-18T08:37:27.007Z</time></trkpt><trkpt lat="43.5447117" lon="11.572235"><ele>141.0</ele><time>2026-04-18T08:37:28.01Z</time></trkpt><trkpt lat="43.5447533" lon="11.572315"><ele>142.16666666666666</ele><time>2026-04-18T08:37:29.01Z</time></trkpt><trkpt lat="43.5448017" lon="11.572405"><ele>143.33333333333334</ele><time>2026-04-18T08:37:30.01Z</time></trkpt><trkpt lat="43.5448483" lon="11.5724867"><ele>144.5</ele><time>2026-04-18T08:37:31.011Z</time></trkpt><trkpt lat="43.5448967" lon="11.5725633"><ele>145.66666666666669</ele><time>2026-04-18T08:37:32.01Z</time></trkpt><trkpt lat="43.5449417" lon="11.5726467"><ele>146.83333333333334</ele><time>2026-04-18T08:37:33.01Z</time></trkpt><trkpt lat="43.5449867" lon="11.5727317"><ele>148.0</ele><time>2026-04-18T08:37:34.007Z</time></trkpt><trkpt lat="43.5450367" lon="11.57282"><ele>147.5</ele><time>2026-04-18T08:37:35.01Z</time></trkpt><trkpt lat="43.545085" lon="11.572905"><ele>147.0</ele><time>2026-04-18T08:37:36.011Z</time></trkpt><trkpt lat="43.545135" lon="11.5729917"><ele>146.5</ele><time>2026-04-18T08:37:37.01Z</time></trkpt><trkpt lat="43.5451867" lon="11.5730767"><ele>146.0</ele><time>2026-04-18T08:37:38.01Z</time></trkpt><trkpt lat="43.5452367" lon="11.573165"><ele>145.5</ele><time>2026-04-18T08:37:39.01Z</time></trkpt><trkpt lat="43.545285" lon="11.5732533"><ele>145.0</ele><time>2026-04-18T08:37:40.008Z</time></trkpt><trkpt lat="43.545335" lon="11.5733383"><ele>144.33333333333334</ele><time>2026-04-18T08:37:41.01Z</time></trkpt><trkpt lat="43.545385" lon="11.5734167"><ele>143.66666666666669</ele><time>2026-04-18T08:37:42.009Z</time></trkpt><trkpt lat="43.5454417" lon="11.5734867"><ele>143.0</ele><time>2026-04-18T08:37:43.01Z</time></trkpt><trkpt lat="43.5455067" lon="11.5735483"><ele>142.33333333333334</ele><time>2026-04-18T08:37:44.01Z</time></trkpt><trkpt lat="43.5455783" lon="11.5735883"><ele>141.66666666666666</ele><time>2026-04-18T08:37:45.009Z</time></trkpt><trkpt lat="43.5456533" lon="11.5736033"><ele>141.0</ele><time>2026-04-18T08:37:46.008Z</time></trkpt><trkpt lat="43.5457233" lon="11.5735867"><ele>141.0</ele><time>2026-04-18T08:37:47.01Z</time></trkpt><trkpt lat="43.54579" lon="11.57354"><ele>141.0</ele><time>2026-04-18T08:37:48.009Z</time></trkpt><trkpt lat="43.54585" lon="11.57347"><ele>141.0</ele><time>2026-04-18T08:37:49.01Z</time></trkpt><trkpt lat="43.5459" lon="11.57338"><ele>141.0</ele><time>2026-04-18T08:37:50.01Z</time></trkpt><trkpt lat="43.5459433" lon="11.57328"><ele>141.0</ele><time>2026-04-18T08:37:51.011Z</time></trkpt><trkpt lat="43.54599" lon="11.57318"><ele>141.0</ele><time>2026-04-18T08:37:52.01Z</time></trkpt><trkpt lat="43.54604" lon="11.57308"><ele>141.0</ele><time>2026-04-18T08:37:53.007Z</time></trkpt><trkpt lat="43.5460817" lon="11.5729767"><ele>141.0</ele><time>2026-04-18T08:37:54.01Z</time></trkpt><trkpt lat="43.546115" lon="11.57287"><ele>141.0</ele><time>2026-04-18T08:37:55.008Z</time></trkpt><trkpt lat="43.5461433" lon="11.5727633"><ele>141.0</ele><time>2026-04-18T08:37:56.011Z</time></trkpt><trkpt lat="43.5461667" lon="11.572655"><ele>141.0</ele><time>2026-04-18T08:37:57.009Z</time></trkpt><trkpt lat="43.5461883" lon="11.5725467"><ele>141.0</ele><time>2026-04-18T08:37:58.009Z</time></trkpt><trkpt lat="43.54621" lon="11.5724367"><ele>141.0</ele><time>2026-04-18T08:37:59.01Z</time></trkpt><trkpt lat="43.5462317" lon="11.572325"><ele>141.0</ele><time>2026-04-18T08:38:00.009Z</time></trkpt><trkpt lat="43.5462483" lon="11.572215"><ele>141.0</ele><time>2026-04-18T08:38:01.009Z</time></trkpt><trkpt lat="43.5462617" lon="11.5721033"><ele>141.0</ele><time>2026-04-18T08:38:02.012Z</time></trkpt><trkpt lat="43.546275" lon="11.57199"><ele>141.0</ele><time>2026-04-18T08:38:03.013Z</time></trkpt><trkpt lat="43.5462867" lon="11.5718767"><ele>141.0</ele><time>2026-04-18T08:38:04.011Z</time></trkpt><trkpt lat="43.5462967" lon="11.5717617"><ele>141.0</ele><time>2026-04-18T08:38:05.01Z</time></trkpt><trkpt lat="43.5463067" lon="11.5716467"><ele>141.0</ele><time>2026-04-18T08:38:06.009Z</time></trkpt><trkpt lat="43.54632" lon="11.5715267"><ele>141.0</ele><time>2026-04-18T08:38:07.009Z</time></trkpt><trkpt lat="43.5463317" lon="11.5714067"><ele>141.0</ele><time>2026-04-18T08:38:08.012Z</time></trkpt><trkpt lat="43.5463417" lon="11.57128"><ele>141.0</ele><time>2026-04-18T08:38:09.01Z</time></trkpt><trkpt lat="43.5463517" lon="11.571155"><ele>141.0</ele><time>2026-04-18T08:38:10.008Z</time></trkpt><trkpt lat="43.5463567" lon="11.57103"><ele>141.4</ele><time>2026-04-18T08:38:11.009Z</time></trkpt><trkpt lat="43.54636" lon="11.5709083"><ele>141.8</ele><time>2026-04-18T08:38:12.008Z</time></trkpt><trkpt lat="43.5463717" lon="11.5707767"><ele>142.20000000000002</ele><time>2026-04-18T08:38:13.009Z</time></trkpt><trkpt lat="43.546395" lon="11.570645"><ele>142.6</ele><time>2026-04-18T08:38:14.01Z</time></trkpt><trkpt lat="43.5464233" lon="11.5705217"><ele>143.0</ele><time>2026-04-18T08:38:15.008Z</time></trkpt><trkpt lat="43.5464583" lon="11.5704017"><ele>142.8</ele><time>2026-04-18T08:38:16.009Z</time></trkpt><trkpt lat="43.5464967" lon="11.5702783"><ele>142.60000000000002</ele><time>2026-04-18T08:38:17.009Z</time></trkpt><trkpt lat="43.546535" lon="11.5701583"><ele>142.39999999999998</ele><time>2026-04-18T08:38:18.009Z</time></trkpt><trkpt lat="43.5465767" lon="11.57004"><ele>142.2</ele><time>2026-04-18T08:38:19.011Z</time></trkpt><trkpt lat="43.5466167" lon="11.5699267"><ele>142.0</ele><time>2026-04-18T08:38:20.01Z</time></trkpt><trkpt lat="43.5466667" lon="11.5698"><ele>142.0</ele><time>2026-04-18T08:38:21.011Z</time></trkpt><trkpt lat="43.5467117" lon="11.56968"><ele>142.0</ele><time>2026-04-18T08:38:22.009Z</time></trkpt><trkpt lat="43.546755" lon="11.5695667"><ele>142.0</ele><time>2026-04-18T08:38:23.009Z</time></trkpt><trkpt lat="43.5468" lon="11.5694533"><ele>142.0</ele><time>2026-04-18T08:38:24.009Z</time></trkpt><trkpt lat="43.5468483" lon="11.5693417"><ele>142.0</ele><time>2026-04-18T08:38:25.007Z</time></trkpt><trkpt lat="43.5469" lon="11.56923"><ele>142.2</ele><time>2026-04-18T08:38:26.01Z</time></trkpt><trkpt lat="43.54695" lon="11.5691183"><ele>142.39999999999998</ele><time>2026-04-18T08:38:27.01Z</time></trkpt><trkpt lat="43.5469983" lon="11.569"><ele>142.60000000000002</ele><time>2026-04-18T08:38:28.009Z</time></trkpt><trkpt lat="43.5470483" lon="11.5688817"><ele>142.8</ele><time>2026-04-18T08:38:29.007Z</time></trkpt><trkpt lat="43.547095" lon="11.5687683"><ele>143.0</ele><time>2026-04-18T08:38:30.008Z</time></trkpt><trkpt lat="43.54714" lon="11.5686517"><ele>142.6</ele><time>2026-04-18T08:38:31.008Z</time></trkpt><trkpt lat="43.5471867" lon="11.5685367"><ele>142.20000000000002</ele><time>2026-04-18T08:38:32.009Z</time></trkpt><trkpt lat="43.54723" lon="11.5684233"><ele>141.8</ele><time>2026-04-18T08:38:33.008Z</time></trkpt><trkpt lat="43.5472717" lon="11.5683033"><ele>141.4</ele><time>2026-04-18T08:38:34.01Z</time></trkpt><trkpt lat="43.5473133" lon="11.5681917"><ele>141.0</ele><time>2026-04-18T08:38:35.008Z</time></trkpt><trkpt lat="43.5473567" lon="11.5680767"><ele>141.0</ele><time>2026-04-18T08:38:36.01Z</time></trkpt><trkpt lat="43.5473983" lon="11.5679617"><ele>141.0</ele><time>2026-04-18T08:38:37.009Z</time></trkpt><trkpt lat="43.5474417" lon="11.567845"><ele>141.0</ele><time>2026-04-18T08:38:38.009Z</time></trkpt><trkpt lat="43.54749" lon="11.5677267"><ele>141.0</ele><time>2026-04-18T08:38:39.011Z</time></trkpt><trkpt lat="43.54754" lon="11.5676133"><ele>141.0</ele><time>2026-04-18T08:38:40.011Z</time></trkpt><trkpt lat="43.5475867" lon="11.5674967"><ele>141.0</ele><time>2026-04-18T08:38:41.013Z</time></trkpt><trkpt lat="43.5476317" lon="11.5673783"><ele>141.0</ele><time>2026-04-18T08:38:42.011Z</time></trkpt><trkpt lat="43.54768" lon="11.5672583"><ele>141.0</ele><time>2026-04-18T08:38:43.01Z</time></trkpt><trkpt lat="43.5477283" lon="11.5671383"><ele>141.0</ele><time>2026-04-18T08:38:44.012Z</time></trkpt><trkpt lat="43.5477717" lon="11.56702"><ele>141.0</ele><time>2026-04-18T08:38:45.012Z</time></trkpt><trkpt lat="43.5478133" lon="11.5669017"><ele>141.0</ele><time>2026-04-18T08:38:46.011Z</time></trkpt><trkpt lat="43.54786" lon="11.5667833"><ele>141.0</ele><time>2026-04-18T08:38:47.011Z</time></trkpt><trkpt lat="43.5479083" lon="11.566665"><ele>141.0</ele><time>2026-04-18T08:38:48.012Z</time></trkpt><trkpt lat="43.5479517" lon="11.5665433"><ele>141.0</ele><time>2026-04-18T08:38:49.013Z</time></trkpt><trkpt lat="43.5479967" lon="11.5664217"><ele>141.0</ele><time>2026-04-18T08:38:50.014Z</time></trkpt><trkpt lat="43.5480383" lon="11.5663017"><ele>141.0</ele><time>2026-04-18T08:38:51.009Z</time></trkpt><trkpt lat="43.5480833" lon="11.5661817"><ele>141.0</ele><time>2026-04-18T08:38:52.008Z</time></trkpt><trkpt lat="43.5481267" lon="11.56606"><ele>141.0</ele><time>2026-04-18T08:38:53.009Z</time></trkpt><trkpt lat="43.5481717" lon="11.5659417"><ele>141.0</ele><time>2026-04-18T08:38:54.011Z</time></trkpt><trkpt lat="43.5482167" lon="11.565825"><ele>141.0</ele><time>2026-04-18T08:38:55.01Z</time></trkpt><trkpt lat="43.5482617" lon="11.5657017"><ele>141.0</ele><time>2026-04-18T08:38:56.013Z</time></trkpt><trkpt lat="43.5483083" lon="11.56558"><ele>141.0</ele><time>2026-04-18T08:38:57.009Z</time></trkpt><trkpt lat="43.5483533" lon="11.5654583"><ele>141.0</ele><time>2026-04-18T08:38:58.012Z</time></trkpt><trkpt lat="43.5484" lon="11.565335"><ele>141.0</ele><time>2026-04-18T08:38:59.01Z</time></trkpt><trkpt lat="43.548445" lon="11.56521"><ele>141.0</ele><time>2026-04-18T08:39:00.011Z</time></trkpt><trkpt lat="43.5484917" lon="11.5650883"><ele>141.0</ele><time>2026-04-18T08:39:01.009Z</time></trkpt><trkpt lat="43.5485367" lon="11.5649683"><ele>141.0</ele><time>2026-04-18T08:39:02.011Z</time></trkpt><trkpt lat="43.548585" lon="11.56485"><ele>141.0</ele><time>2026-04-18T08:39:03.012Z</time></trkpt><trkpt lat="43.5486317" lon="11.5647317"><ele>141.0</ele><time>2026-04-18T08:39:04.008Z</time></trkpt><trkpt lat="43.5486783" lon="11.5646117"><ele>141.0</ele><time>2026-04-18T08:39:05.009Z</time></trkpt><trkpt lat="43.548725" lon="11.5644883"><ele>141.0</ele><time>2026-04-18T08:39:06.011Z</time></trkpt><trkpt lat="43.5487717" lon="11.5643683"><ele>141.0</ele><time>2026-04-18T08:39:07.009Z</time></trkpt><trkpt lat="43.5488183" lon="11.5642433"><ele>141.0</ele><time>2026-04-18T08:39:08.01Z</time></trkpt><trkpt lat="43.548865" lon="11.56412"><ele>141.0</ele><time>2026-04-18T08:39:09.01Z</time></trkpt><trkpt lat="43.5489083" lon="11.5639983"><ele>141.0</ele><time>2026-04-18T08:39:10.01Z</time></trkpt><trkpt lat="43.54895" lon="11.5638733"><ele>141.0</ele><time>2026-04-18T08:39:11.012Z</time></trkpt><trkpt lat="43.5489967" lon="11.5637617"><ele>141.0</ele><time>2026-04-18T08:39:12.01Z</time></trkpt><trkpt lat="43.549045" lon="11.5636467"><ele>141.0</ele><time>2026-04-18T08:39:13.011Z</time></trkpt><trkpt lat="43.5490917" lon="11.563525"><ele>141.0</ele><time>2026-04-18T08:39:14.012Z</time></trkpt><trkpt lat="43.5491367" lon="11.5634033"><ele>141.0</ele><time>2026-04-18T08:39:15.012Z</time></trkpt><trkpt lat="43.5491817" lon="11.56328"><ele>140.8</ele><time>2026-04-18T08:39:16.011Z</time></trkpt><trkpt lat="43.5492283" lon="11.5631617"><ele>140.6</ele><time>2026-04-18T08:39:17.012Z</time></trkpt><trkpt lat="43.5492733" lon="11.5630433"><ele>140.4</ele><time>2026-04-18T08:39:18.013Z</time></trkpt><trkpt lat="43.5493167" lon="11.5629283"><ele>140.2</ele><time>2026-04-18T08:39:19.009Z</time></trkpt><trkpt lat="43.5493583" lon="11.562815"><ele>140.0</ele><time>2026-04-18T08:39:20.009Z</time></trkpt><trkpt lat="43.5494" lon="11.5627017"><ele>140.16666666666666</ele><time>2026-04-18T08:39:21.008Z</time></trkpt><trkpt lat="43.54944" lon="11.5625883"><ele>140.33333333333331</ele><time>2026-04-18T08:39:22.009Z</time></trkpt><trkpt lat="43.54948" lon="11.5624783"><ele>140.5</ele><time>2026-04-18T08:39:23.011Z</time></trkpt><trkpt lat="43.549515" lon="11.5623683"><ele>140.66666666666666</ele><time>2026-04-18T08:39:24.01Z</time></trkpt><trkpt lat="43.54955" lon="11.5622633"><ele>140.83333333333334</ele><time>2026-04-18T08:39:25.008Z</time></trkpt><trkpt lat="43.5495867" lon="11.56216"><ele>141.0</ele><time>2026-04-18T08:39:26.009Z</time></trkpt><trkpt lat="43.5496233" lon="11.5620567"><ele>141.0</ele><time>2026-04-18T08:39:27.008Z</time></trkpt><trkpt lat="43.5496617" lon="11.5619517"><ele>141.0</ele><time>2026-04-18T08:39:28.009Z</time></trkpt><trkpt lat="43.5496983" lon="11.5618417"><ele>141.0</ele><time>2026-04-18T08:39:29.011Z</time></trkpt><trkpt lat="43.5497317" lon="11.5617367"><ele>141.0</ele><time>2026-04-18T08:39:30.009Z</time></trkpt><trkpt lat="43.549765" lon="11.561635"><ele>141.0</ele><time>2026-04-18T08:39:31.011Z</time></trkpt><trkpt lat="43.5497983" lon="11.5615333"><ele>141.0</ele><time>2026-04-18T08:39:32.009Z</time></trkpt><trkpt lat="43.5498317" lon="11.5614233"><ele>141.0</ele><time>2026-04-18T08:39:33.011Z</time></trkpt><trkpt lat="43.5498617" lon="11.561315"><ele>141.0</ele><time>2026-04-18T08:39:34.01Z</time></trkpt><trkpt lat="43.54989" lon="11.5612067"><ele>141.0</ele><time>2026-04-18T08:39:35.01Z</time></trkpt><trkpt lat="43.5499217" lon="11.5611017"><ele>141.0</ele><time>2026-04-18T08:39:36.01Z</time></trkpt><trkpt lat="43.5499517" lon="11.561"><ele>141.0</ele><time>2026-04-18T08:39:37.01Z</time></trkpt><trkpt lat="43.5499817" lon="11.560895"><ele>141.0</ele><time>2026-04-18T08:39:38.012Z</time></trkpt><trkpt lat="43.5500117" lon="11.5607983"><ele>140.83333333333334</ele><time>2026-04-18T08:39:39.012Z</time></trkpt><trkpt lat="43.5500417" lon="11.5606967"><ele>140.66666666666666</ele><time>2026-04-18T08:39:40.009Z</time></trkpt><trkpt lat="43.5500717" lon="11.560595"><ele>140.5</ele><time>2026-04-18T08:39:41.01Z</time></trkpt><trkpt lat="43.5501017" lon="11.5604933"><ele>140.33333333333331</ele><time>2026-04-18T08:39:42.009Z</time></trkpt><trkpt lat="43.5501333" lon="11.56039"><ele>140.16666666666666</ele><time>2026-04-18T08:39:43.011Z</time></trkpt><trkpt lat="43.550165" lon="11.5602883"><ele>140.0</ele><time>2026-04-18T08:39:44.011Z</time></trkpt><trkpt lat="43.5501933" lon="11.560185"><ele>140.0</ele><time>2026-04-18T08:39:45.01Z</time></trkpt><trkpt lat="43.5502217" lon="11.56009"><ele>140.0</ele><time>2026-04-18T08:39:46.011Z</time></trkpt><trkpt lat="43.5502517" lon="11.55999"><ele>140.0</ele><time>2026-04-18T08:39:47.009Z</time></trkpt><trkpt lat="43.5502817" lon="11.5598917"><ele>140.0</ele><time>2026-04-18T08:39:48.01Z</time></trkpt><trkpt lat="43.5503117" lon="11.5597983"><ele>140.0</ele><time>2026-04-18T08:39:49.011Z</time></trkpt><trkpt lat="43.55034" lon="11.5597"><ele>140.0</ele><time>2026-04-18T08:39:50.013Z</time></trkpt><trkpt lat="43.5503683" lon="11.5596"><ele>140.16666666666666</ele><time>2026-04-18T08:39:51.009Z</time></trkpt><trkpt lat="43.5503967" lon="11.5594933"><ele>140.33333333333331</ele><time>2026-04-18T08:39:52.01Z</time></trkpt><trkpt lat="43.5504233" lon="11.55939"><ele>140.5</ele><time>2026-04-18T08:39:53.009Z</time></trkpt><trkpt lat="43.550455" lon="11.5592867"><ele>140.66666666666666</ele><time>2026-04-18T08:39:54.014Z</time></trkpt><trkpt lat="43.5504867" lon="11.5591817"><ele>140.83333333333334</ele><time>2026-04-18T08:39:55.012Z</time></trkpt><trkpt lat="43.55052" lon="11.5590817"><ele>141.0</ele><time>2026-04-18T08:39:56.01Z</time></trkpt><trkpt lat="43.5505533" lon="11.55899"><ele>141.0</ele><time>2026-04-18T08:39:57.009Z</time></trkpt><trkpt lat="43.5505967" lon="11.5589017"><ele>141.0</ele><time>2026-04-18T08:39:58.01Z</time></trkpt><trkpt lat="43.5506533" lon="11.55883"><ele>141.0</ele><time>2026-04-18T08:39:59.01Z</time></trkpt><trkpt lat="43.55073" lon="11.5587917"><ele>141.0</ele><time>2026-04-18T08:40:00.012Z</time></trkpt><trkpt lat="43.550805" lon="11.558765"><ele>141.0</ele><time>2026-04-18T08:40:01.011Z</time></trkpt><trkpt lat="43.5508783" lon="11.5587283"><ele>141.0</ele><time>2026-04-18T08:40:02.008Z</time></trkpt><trkpt lat="43.550945" lon="11.5586733"><ele>141.0</ele><time>2026-04-18T08:40:03.009Z</time></trkpt><trkpt lat="43.5510017" lon="11.5585983"><ele>141.0</ele><time>2026-04-18T08:40:04.009Z</time></trkpt><trkpt lat="43.55105" lon="11.55852"><ele>141.0</ele><time>2026-04-18T08:40:05.011Z</time></trkpt><trkpt lat="43.551095" lon="11.5584383"><ele>141.0</ele><time>2026-04-18T08:40:06.01Z</time></trkpt><trkpt lat="43.5511367" lon="11.5583583"><ele>141.0</ele><time>2026-04-18T08:40:07.011Z</time></trkpt><trkpt lat="43.55118" lon="11.558275"><ele>141.0</ele><time>2026-04-18T08:40:08.011Z</time></trkpt><trkpt lat="43.5512217" lon="11.5581917"><ele>141.0</ele><time>2026-04-18T08:40:09.011Z</time></trkpt><trkpt lat="43.551265" lon="11.55811"><ele>140.85714285714286</ele><time>2026-04-18T08:40:10.011Z</time></trkpt><trkpt lat="43.551305" lon="11.5580317"><ele>140.71428571428572</ele><time>2026-04-18T08:40:11.011Z</time></trkpt><trkpt lat="43.5513433" lon="11.557955"><ele>140.57142857142856</ele><time>2026-04-18T08:40:12.009Z</time></trkpt><trkpt lat="43.5513817" lon="11.5578833"><ele>140.42857142857144</ele><time>2026-04-18T08:40:13.007Z</time></trkpt><trkpt lat="43.55142" lon="11.5578067"><ele>140.28571428571428</ele><time>2026-04-18T08:40:14.011Z</time></trkpt><trkpt lat="43.55146" lon="11.55773"><ele>140.14285714285714</ele><time>2026-04-18T08:40:15.009Z</time></trkpt><trkpt lat="43.551495" lon="11.5576517"><ele>140.0</ele><time>2026-04-18T08:40:16.01Z</time></trkpt><trkpt lat="43.551525" lon="11.5575717"><ele>140.0</ele><time>2026-04-18T08:40:17.011Z</time></trkpt><trkpt lat="43.55156" lon="11.5574083"><ele>140.0</ele><time>2026-04-18T08:40:19.013Z</time></trkpt><trkpt lat="43.55158" lon="11.5572483"><ele>140.0</ele><time>2026-04-18T08:40:21.01Z</time></trkpt><trkpt lat="43.55159" lon="11.5570833"><ele>140.0</ele><time>2026-04-18T08:40:23.012Z</time></trkpt><trkpt lat="43.551585" lon="11.5569933"><ele>140.0</ele><time>2026-04-18T08:40:24.009Z</time></trkpt><trkpt lat="43.551575" lon="11.5569017"><ele>140.0</ele><time>2026-04-18T08:40:25.01Z</time></trkpt><trkpt lat="43.5515567" lon="11.5568117"><ele>140.0</ele><time>2026-04-18T08:40:26.011Z</time></trkpt><trkpt lat="43.55153" lon="11.5567167"><ele>140.0</ele><time>2026-04-18T08:40:27.01Z</time></trkpt><trkpt lat="43.5514983" lon="11.5566217"><ele>140.0</ele><time>2026-04-18T08:40:28.01Z</time></trkpt><trkpt lat="43.55146" lon="11.5565217"><ele>140.0</ele><time>2026-04-18T08:40:29.013Z</time></trkpt><trkpt lat="43.5514167" lon="11.55642"><ele>140.0</ele><time>2026-04-18T08:40:30.011Z</time></trkpt><trkpt lat="43.5513733" lon="11.556315"><ele>140.0</ele><time>2026-04-18T08:40:31.011Z</time></trkpt><trkpt lat="43.5513317" lon="11.5562067"><ele>140.0</ele><time>2026-04-18T08:40:32.012Z</time></trkpt><trkpt lat="43.5512917" lon="11.5560967"><ele>140.0</ele><time>2026-04-18T08:40:33.014Z</time></trkpt><trkpt lat="43.5512617" lon="11.5559817"><ele>140.0</ele><time>2026-04-18T08:40:34.012Z</time></trkpt><trkpt lat="43.55124" lon="11.5558583"><ele>140.0</ele><time>2026-04-18T08:40:35.013Z</time></trkpt><trkpt lat="43.5512317" lon="11.5557367"><ele>140.0</ele><time>2026-04-18T08:40:36.012Z</time></trkpt><trkpt lat="43.5512333" lon="11.555615"><ele>140.0</ele><time>2026-04-18T08:40:37.01Z</time></trkpt><trkpt lat="43.5512467" lon="11.5555"><ele>140.0</ele><time>2026-04-18T08:40:38.011Z</time></trkpt><trkpt lat="43.5512733" lon="11.5553867"><ele>140.0</ele><time>2026-04-18T08:40:39.006Z</time></trkpt><trkpt lat="43.5513033" lon="11.5552783"><ele>140.0</ele><time>2026-04-18T08:40:40.011Z</time></trkpt><trkpt lat="43.5513283" lon="11.5551717"><ele>140.0</ele><time>2026-04-18T08:40:41.01Z</time></trkpt><trkpt lat="43.5513533" lon="11.5550667"><ele>140.0</ele><time>2026-04-18T08:40:42.01Z</time></trkpt><trkpt lat="43.551375" lon="11.554965"><ele>140.0</ele><time>2026-04-18T08:40:43.012Z</time></trkpt><trkpt lat="43.5513967" lon="11.5548617"><ele>140.0</ele><time>2026-04-18T08:40:44.01Z</time></trkpt><trkpt lat="43.5514217" lon="11.554755"><ele>140.0</ele><time>2026-04-18T08:40:45.009Z</time></trkpt><trkpt lat="43.5514467" lon="11.554645"><ele>140.0</ele><time>2026-04-18T08:40:46.009Z</time></trkpt><trkpt lat="43.5514767" lon="11.5545367"><ele>140.0</ele><time>2026-04-18T08:40:47.011Z</time></trkpt><trkpt lat="43.5515033" lon="11.5544267"><ele>140.0</ele><time>2026-04-18T08:40:48.01Z</time></trkpt><trkpt lat="43.5515317" lon="11.554315"><ele>140.0</ele><time>2026-04-18T08:40:49.009Z</time></trkpt><trkpt lat="43.5515583" lon="11.5542083"><ele>140.0</ele><time>2026-04-18T08:40:50.011Z</time></trkpt><trkpt lat="43.5515883" lon="11.5541017"><ele>140.0</ele><time>2026-04-18T08:40:51.01Z</time></trkpt><trkpt lat="43.551625" lon="11.55399"><ele>140.0</ele><time>2026-04-18T08:40:52.009Z</time></trkpt><trkpt lat="43.5516633" lon="11.5538817"><ele>140.0</ele><time>2026-04-18T08:40:53.011Z</time></trkpt><trkpt lat="43.5517067" lon="11.5537783"><ele>140.0</ele><time>2026-04-18T08:40:54.012Z</time></trkpt><trkpt lat="43.55175" lon="11.5536767"><ele>139.66666666666666</ele><time>2026-04-18T08:40:55.01Z</time></trkpt><trkpt lat="43.5517967" lon="11.5535767"><ele>139.33333333333331</ele><time>2026-04-18T08:40:56.01Z</time></trkpt><trkpt lat="43.5518467" lon="11.5534767"><ele>139.0</ele><time>2026-04-18T08:40:57.008Z</time></trkpt><trkpt lat="43.5518967" lon="11.5533867"><ele>138.66666666666666</ele><time>2026-04-18T08:40:58.012Z</time></trkpt><trkpt lat="43.55195" lon="11.5532983"><ele>138.33333333333334</ele><time>2026-04-18T08:40:59.011Z</time></trkpt><trkpt lat="43.5520033" lon="11.5532133"><ele>138.0</ele><time>2026-04-18T08:41:00.01Z</time></trkpt><trkpt lat="43.552055" lon="11.5531267"><ele>137.83333333333334</ele><time>2026-04-18T08:41:01.009Z</time></trkpt><trkpt lat="43.5521083" lon="11.5530433"><ele>137.66666666666666</ele><time>2026-04-18T08:41:02.01Z</time></trkpt><trkpt lat="43.5521633" lon="11.5529583"><ele>137.5</ele><time>2026-04-18T08:41:03.01Z</time></trkpt><trkpt lat="43.5522183" lon="11.5528767"><ele>137.33333333333331</ele><time>2026-04-18T08:41:04.009Z</time></trkpt><trkpt lat="43.5522767" lon="11.5527917"><ele>137.16666666666666</ele><time>2026-04-18T08:41:05.011Z</time></trkpt><trkpt lat="43.5523333" lon="11.5527067"><ele>137.0</ele><time>2026-04-18T08:41:06.011Z</time></trkpt><trkpt lat="43.5523883" lon="11.5526167"><ele>137.0</ele><time>2026-04-18T08:41:07.012Z</time></trkpt><trkpt lat="43.552445" lon="11.55253"><ele>137.0</ele><time>2026-04-18T08:41:08.01Z</time></trkpt><trkpt lat="43.5524967" lon="11.5524433"><ele>137.0</ele><time>2026-04-18T08:41:09.009Z</time></trkpt><trkpt lat="43.5525517" lon="11.552355"><ele>137.0</ele><time>2026-04-18T08:41:10.012Z</time></trkpt><trkpt lat="43.5526117" lon="11.5522667"><ele>137.0</ele><time>2026-04-18T08:41:11.012Z</time></trkpt><trkpt lat="43.5526717" lon="11.5521783"><ele>137.0</ele><time>2026-04-18T08:41:12.01Z</time></trkpt><trkpt lat="43.552735" lon="11.552095"><ele>137.16666666666666</ele><time>2026-04-18T08:41:13.009Z</time></trkpt><trkpt lat="43.5527933" lon="11.5520117"><ele>137.33333333333331</ele><time>2026-04-18T08:41:14.013Z</time></trkpt><trkpt lat="43.5528517" lon="11.55193"><ele>137.5</ele><time>2026-04-18T08:41:15.012Z</time></trkpt><trkpt lat="43.5529083" lon="11.551845"><ele>137.66666666666666</ele><time>2026-04-18T08:41:16.01Z</time></trkpt><trkpt lat="43.5529667" lon="11.55176"><ele>137.83333333333334</ele><time>2026-04-18T08:41:17.012Z</time></trkpt><trkpt lat="43.5530233" lon="11.551675"><ele>138.0</ele><time>2026-04-18T08:41:18.01Z</time></trkpt><trkpt lat="43.55308" lon="11.5515883"><ele>138.0</ele><time>2026-04-18T08:41:19.011Z</time></trkpt><trkpt lat="43.553135" lon="11.5515017"><ele>138.0</ele><time>2026-04-18T08:41:20.011Z</time></trkpt><trkpt lat="43.55319" lon="11.551415"><ele>138.0</ele><time>2026-04-18T08:41:21.01Z</time></trkpt><trkpt lat="43.5532417" lon="11.55133"><ele>138.0</ele><time>2026-04-18T08:41:22.01Z</time></trkpt><trkpt lat="43.5532933" lon="11.5512433"><ele>138.0</ele><time>2026-04-18T08:41:23.009Z</time></trkpt><trkpt lat="43.5533467" lon="11.5511567"><ele>138.0</ele><time>2026-04-18T08:41:24.008Z</time></trkpt><trkpt lat="43.5534" lon="11.55107"><ele>137.83333333333334</ele><time>2026-04-18T08:41:25.012Z</time></trkpt><trkpt lat="43.55345" lon="11.5509817"><ele>137.66666666666666</ele><time>2026-04-18T08:41:26.011Z</time></trkpt><trkpt lat="43.5535" lon="11.550895"><ele>137.5</ele><time>2026-04-18T08:41:27.01Z</time></trkpt><trkpt lat="43.55355" lon="11.5508083"><ele>137.33333333333331</ele><time>2026-04-18T08:41:28.012Z</time></trkpt><trkpt lat="43.5536033" lon="11.5507183"><ele>137.16666666666666</ele><time>2026-04-18T08:41:29.012Z</time></trkpt><trkpt lat="43.553655" lon="11.55063"><ele>137.0</ele><time>2026-04-18T08:41:30.013Z</time></trkpt><trkpt lat="43.5537083" lon="11.5505367"><ele>137.0</ele><time>2026-04-18T08:41:31.012Z</time></trkpt><trkpt lat="43.5537583" lon="11.5504433"><ele>137.0</ele><time>2026-04-18T08:41:32.01Z</time></trkpt><trkpt lat="43.55381" lon="11.55035"><ele>137.0</ele><time>2026-04-18T08:41:33.011Z</time></trkpt><trkpt lat="43.5538633" lon="11.550255"><ele>137.0</ele><time>2026-04-18T08:41:34.009Z</time></trkpt><trkpt lat="43.553915" lon="11.550165"><ele>137.0</ele><time>2026-04-18T08:41:35.01Z</time></trkpt><trkpt lat="43.5539633" lon="11.550075"><ele>137.0</ele><time>2026-04-18T08:41:36.009Z</time></trkpt><trkpt lat="43.554015" lon="11.549985"><ele>136.83333333333331</ele><time>2026-04-18T08:41:37.012Z</time></trkpt><trkpt lat="43.5540683" lon="11.5498933"><ele>136.66666666666666</ele><time>2026-04-18T08:41:38.01Z</time></trkpt><trkpt lat="43.5541217" lon="11.5498"><ele>136.5</ele><time>2026-04-18T08:41:39.012Z</time></trkpt><trkpt lat="43.554175" lon="11.5497083"><ele>136.33333333333334</ele><time>2026-04-18T08:41:40.009Z</time></trkpt><trkpt lat="43.5542267" lon="11.5496133"><ele>136.16666666666669</ele><time>2026-04-18T08:41:41.011Z</time></trkpt><trkpt lat="43.55428" lon="11.5495167"><ele>136.0</ele><time>2026-04-18T08:41:42.011Z</time></trkpt><trkpt lat="43.5543333" lon="11.549425"><ele>135.66666666666669</ele><time>2026-04-18T08:41:43.009Z</time></trkpt><trkpt lat="43.5543883" lon="11.54933"><ele>135.33333333333334</ele><time>2026-04-18T08:41:44.01Z</time></trkpt><trkpt lat="43.5544417" lon="11.5492333"><ele>135.0</ele><time>2026-04-18T08:41:45.01Z</time></trkpt><trkpt lat="43.5544983" lon="11.549135"><ele>134.66666666666666</ele><time>2026-04-18T08:41:46.014Z</time></trkpt><trkpt lat="43.5545533" lon="11.5490367"><ele>134.33333333333331</ele><time>2026-04-18T08:41:47.009Z</time></trkpt><trkpt lat="43.554605" lon="11.548945"><ele>134.0</ele><time>2026-04-18T08:41:48.008Z</time></trkpt><trkpt lat="43.55466" lon="11.5488517"><ele>134.5</ele><time>2026-04-18T08:41:49.012Z</time></trkpt><trkpt lat="43.5547133" lon="11.5487583"><ele>135.0</ele><time>2026-04-18T08:41:50.01Z</time></trkpt><trkpt lat="43.554765" lon="11.548665"><ele>135.5</ele><time>2026-04-18T08:41:51.009Z</time></trkpt><trkpt lat="43.5548167" lon="11.5485717"><ele>136.0</ele><time>2026-04-18T08:41:52.011Z</time></trkpt><trkpt lat="43.5548683" lon="11.5484833"><ele>136.5</ele><time>2026-04-18T08:41:53.01Z</time></trkpt><trkpt lat="43.5549167" lon="11.54839"><ele>137.0</ele><time>2026-04-18T08:41:54.007Z</time></trkpt><trkpt lat="43.5549667" lon="11.5483"><ele>137.0</ele><time>2026-04-18T08:41:55.008Z</time></trkpt><trkpt lat="43.5550167" lon="11.548205"><ele>137.0</ele><time>2026-04-18T08:41:56.009Z</time></trkpt><trkpt lat="43.5550667" lon="11.5481167"><ele>137.0</ele><time>2026-04-18T08:41:57.009Z</time></trkpt><trkpt lat="43.5551167" lon="11.5480267"><ele>137.0</ele><time>2026-04-18T08:41:58.007Z</time></trkpt><trkpt lat="43.5551667" lon="11.547935"><ele>137.0</ele><time>2026-04-18T08:41:59.009Z</time></trkpt><trkpt lat="43.5552167" lon="11.547845"><ele>137.0</ele><time>2026-04-18T08:42:00.01Z</time></trkpt><trkpt lat="43.5552617" lon="11.547755"><ele>136.83333333333331</ele><time>2026-04-18T08:42:01.009Z</time></trkpt><trkpt lat="43.55531" lon="11.5476567"><ele>136.66666666666666</ele><time>2026-04-18T08:42:02.009Z</time></trkpt><trkpt lat="43.55536" lon="11.5475617"><ele>136.5</ele><time>2026-04-18T08:42:03.01Z</time></trkpt><trkpt lat="43.5554117" lon="11.5474717"><ele>136.33333333333334</ele><time>2026-04-18T08:42:04.009Z</time></trkpt><trkpt lat="43.5554617" lon="11.5473783"><ele>136.16666666666669</ele><time>2026-04-18T08:42:05.01Z</time></trkpt><trkpt lat="43.555515" lon="11.547285"><ele>136.0</ele><time>2026-04-18T08:42:06.009Z</time></trkpt><trkpt lat="43.5555717" lon="11.547185"><ele>137.4</ele><time>2026-04-18T08:42:07.011Z</time></trkpt><trkpt lat="43.5556317" lon="11.5470833"><ele>138.8</ele><time>2026-04-18T08:42:08.009Z</time></trkpt><trkpt lat="43.555695" lon="11.54697"><ele>140.20000000000002</ele><time>2026-04-18T08:42:09.007Z</time></trkpt><trkpt lat="43.5557583" lon="11.54686"><ele>141.6</ele><time>2026-04-18T08:42:10.009Z</time></trkpt><trkpt lat="43.555825" lon="11.546745"><ele>143.0</ele><time>2026-04-18T08:42:11.01Z</time></trkpt><trkpt lat="43.5558917" lon="11.5466267"><ele>143.0</ele><time>2026-04-18T08:42:12.01Z</time></trkpt><trkpt lat="43.555955" lon="11.546515"><ele>143.0</ele><time>2026-04-18T08:42:13.01Z</time></trkpt><trkpt lat="43.5560183" lon="11.546405"><ele>143.0</ele><time>2026-04-18T08:42:14.009Z</time></trkpt><trkpt lat="43.55608" lon="11.5463"><ele>143.0</ele><time>2026-04-18T08:42:15.009Z</time></trkpt><trkpt lat="43.55614" lon="11.5461967"><ele>143.0</ele><time>2026-04-18T08:42:16.01Z</time></trkpt><trkpt lat="43.5562" lon="11.5460917"><ele>143.6</ele><time>2026-04-18T08:42:17.01Z</time></trkpt><trkpt lat="43.5562617" lon="11.5459833"><ele>144.20000000000002</ele><time>2026-04-18T08:42:18.01Z</time></trkpt><trkpt lat="43.5563217" lon="11.545875"><ele>144.8</ele><time>2026-04-18T08:42:19.01Z</time></trkpt><trkpt lat="43.5563783" lon="11.54578"><ele>145.4</ele><time>2026-04-18T08:42:20.009Z</time></trkpt><trkpt lat="43.5564333" lon="11.5456867"><ele>146.0</ele><time>2026-04-18T08:42:21.009Z</time></trkpt><trkpt lat="43.5564883" lon="11.545595"><ele>146.0</ele><time>2026-04-18T08:42:22.01Z</time></trkpt><trkpt lat="43.556545" lon="11.5455017"><ele>146.0</ele><time>2026-04-18T08:42:23.007Z</time></trkpt><trkpt lat="43.5566067" lon="11.54541"><ele>146.0</ele><time>2026-04-18T08:42:24.009Z</time></trkpt><trkpt lat="43.5566667" lon="11.5453167"><ele>146.0</ele><time>2026-04-18T08:42:25.008Z</time></trkpt><trkpt lat="43.5567283" lon="11.5452283"><ele>146.0</ele><time>2026-04-18T08:42:26.009Z</time></trkpt><trkpt lat="43.55679" lon="11.54514"><ele>146.0</ele><time>2026-04-18T08:42:27.01Z</time></trkpt><trkpt lat="43.5568517" lon="11.54505"><ele>145.0</ele><time>2026-04-18T08:42:28.01Z</time></trkpt><trkpt lat="43.5569167" lon="11.5449567"><ele>144.0</ele><time>2026-04-18T08:42:29.01Z</time></trkpt><trkpt lat="43.556985" lon="11.544865"><ele>143.0</ele><time>2026-04-18T08:42:30.01Z</time></trkpt><trkpt lat="43.5570533" lon="11.5447767"><ele>142.0</ele><time>2026-04-18T08:42:31.01Z</time></trkpt><trkpt lat="43.5571217" lon="11.54469"><ele>141.0</ele><time>2026-04-18T08:42:32.01Z</time></trkpt><trkpt lat="43.55719" lon="11.5446067"><ele>140.8</ele><time>2026-04-18T08:42:33.011Z</time></trkpt><trkpt lat="43.5572583" lon="11.5445217"><ele>140.6</ele><time>2026-04-18T08:42:34.008Z</time></trkpt><trkpt lat="43.557325" lon="11.5444367"><ele>140.4</ele><time>2026-04-18T08:42:35.009Z</time></trkpt><trkpt lat="43.5573917" lon="11.544345"><ele>140.2</ele><time>2026-04-18T08:42:36.008Z</time></trkpt><trkpt lat="43.5574567" lon="11.5442567"><ele>140.0</ele><time>2026-04-18T08:42:37.011Z</time></trkpt><trkpt lat="43.5575233" lon="11.544175"><ele>140.0</ele><time>2026-04-18T08:42:38.009Z</time></trkpt><trkpt lat="43.5575883" lon="11.5440867"><ele>140.0</ele><time>2026-04-18T08:42:39.009Z</time></trkpt><trkpt lat="43.557655" lon="11.5440017"><ele>140.0</ele><time>2026-04-18T08:42:40.012Z</time></trkpt><trkpt lat="43.5577217" lon="11.5439183"><ele>140.0</ele><time>2026-04-18T08:42:41.008Z</time></trkpt><trkpt lat="43.5577883" lon="11.5438267"><ele>140.0</ele><time>2026-04-18T08:42:42.009Z</time></trkpt><trkpt lat="43.557855" lon="11.5437417"><ele>139.4</ele><time>2026-04-18T08:42:43.008Z</time></trkpt><trkpt lat="43.5579217" lon="11.543655"><ele>138.8</ele><time>2026-04-18T08:42:44.011Z</time></trkpt><trkpt lat="43.5579917" lon="11.543565"><ele>138.2</ele><time>2026-04-18T08:42:45.01Z</time></trkpt><trkpt lat="43.5580617" lon="11.5434817"><ele>137.6</ele><time>2026-04-18T08:42:46.009Z</time></trkpt><trkpt lat="43.5581317" lon="11.5434017"><ele>137.0</ele><time>2026-04-18T08:42:47.009Z</time></trkpt><trkpt lat="43.5582033" lon="11.543325"><ele>137.0</ele><time>2026-04-18T08:42:48.01Z</time></trkpt><trkpt lat="43.558275" lon="11.54325"><ele>137.0</ele><time>2026-04-18T08:42:49.01Z</time></trkpt><trkpt lat="43.55835" lon="11.5431767"><ele>137.0</ele><time>2026-04-18T08:42:50.009Z</time></trkpt><trkpt lat="43.5584283" lon="11.5431067"><ele>137.0</ele><time>2026-04-18T08:42:51.01Z</time></trkpt><trkpt lat="43.5585083" lon="11.543045"><ele>137.0</ele><time>2026-04-18T08:42:52.008Z</time></trkpt><trkpt lat="43.5585883" lon="11.5429883"><ele>137.0</ele><time>2026-04-18T08:42:53.01Z</time></trkpt><trkpt lat="43.5586667" lon="11.5429317"><ele>137.0</ele><time>2026-04-18T08:42:54.009Z</time></trkpt><trkpt lat="43.5587483" lon="11.54288"><ele>137.0</ele><time>2026-04-18T08:42:55.009Z</time></trkpt><trkpt lat="43.558835" lon="11.5428333"><ele>137.0</ele><time>2026-04-18T08:42:56.009Z</time></trkpt><trkpt lat="43.5589233" lon="11.5427933"><ele>137.0</ele><time>2026-04-18T08:42:57.01Z</time></trkpt><trkpt lat="43.5590117" lon="11.54276"><ele>137.0</ele><time>2026-04-18T08:42:58.01Z</time></trkpt><trkpt lat="43.5591033" lon="11.5427283"><ele>137.0</ele><time>2026-04-18T08:42:59.009Z</time></trkpt><trkpt lat="43.5591967" lon="11.5426967"><ele>137.0</ele><time>2026-04-18T08:43:00.008Z</time></trkpt><trkpt lat="43.5592883" lon="11.5426717"><ele>137.0</ele><time>2026-04-18T08:43:01.009Z</time></trkpt><trkpt lat="43.55938" lon="11.5426533"><ele>137.0</ele><time>2026-04-18T08:43:02.009Z</time></trkpt><trkpt lat="43.55947" lon="11.5426367"><ele>136.66666666666666</ele><time>2026-04-18T08:43:03.008Z</time></trkpt><trkpt lat="43.55956" lon="11.5426267"><ele>136.33333333333331</ele><time>2026-04-18T08:43:04.008Z</time></trkpt><trkpt lat="43.5596483" lon="11.5426217"><ele>136.0</ele><time>2026-04-18T08:43:05.008Z</time></trkpt><trkpt lat="43.5597283" lon="11.5426183"><ele>135.66666666666666</ele><time>2026-04-18T08:43:06.01Z</time></trkpt><trkpt lat="43.5598183" lon="11.5426183"><ele>135.33333333333334</ele><time>2026-04-18T08:43:07.011Z</time></trkpt><trkpt lat="43.559905" lon="11.54262"><ele>135.0</ele><time>2026-04-18T08:43:08.011Z</time></trkpt><trkpt lat="43.559995" lon="11.5426183"><ele>135.0</ele><time>2026-04-18T08:43:09.009Z</time></trkpt><trkpt lat="43.5600833" lon="11.54262"><ele>135.0</ele><time>2026-04-18T08:43:10.011Z</time></trkpt><trkpt lat="43.5601683" lon="11.5426267"><ele>135.0</ele><time>2026-04-18T08:43:11.01Z</time></trkpt><trkpt lat="43.560255" lon="11.5426317"><ele>135.0</ele><time>2026-04-18T08:43:12.011Z</time></trkpt><trkpt lat="43.5603467" lon="11.5426367"><ele>135.0</ele><time>2026-04-18T08:43:13.008Z</time></trkpt><trkpt lat="43.5604367" lon="11.5426367"><ele>135.0</ele><time>2026-04-18T08:43:14.009Z</time></trkpt><trkpt lat="43.5605283" lon="11.54264"><ele>134.83333333333334</ele><time>2026-04-18T08:43:15.008Z</time></trkpt><trkpt lat="43.560615" lon="11.5426433"><ele>134.66666666666666</ele><time>2026-04-18T08:43:16.011Z</time></trkpt><trkpt lat="43.5607" lon="11.5426467"><ele>134.5</ele><time>2026-04-18T08:43:17.009Z</time></trkpt><trkpt lat="43.5607867" lon="11.5426467"><ele>134.33333333333331</ele><time>2026-04-18T08:43:18.01Z</time></trkpt><trkpt lat="43.560875" lon="11.5426483"><ele>134.16666666666666</ele><time>2026-04-18T08:43:19.01Z</time></trkpt><trkpt lat="43.5609583" lon="11.54265"><ele>134.0</ele><time>2026-04-18T08:43:20.01Z</time></trkpt><trkpt lat="43.561035" lon="11.5426583"><ele>134.0</ele><time>2026-04-18T08:43:21.012Z</time></trkpt><trkpt lat="43.5611117" lon="11.542665"><ele>134.0</ele><time>2026-04-18T08:43:22.01Z</time></trkpt><trkpt lat="43.5611867" lon="11.5426717"><ele>134.0</ele><time>2026-04-18T08:43:23.011Z</time></trkpt><trkpt lat="43.5612617" lon="11.5426833"><ele>134.0</ele><time>2026-04-18T08:43:24.009Z</time></trkpt><trkpt lat="43.5613383" lon="11.5426967"><ele>134.0</ele><time>2026-04-18T08:43:25.01Z</time></trkpt><trkpt lat="43.5614167" lon="11.54271"><ele>134.0</ele><time>2026-04-18T08:43:26.009Z</time></trkpt><trkpt lat="43.5615" lon="11.542715"><ele>134.16666666666666</ele><time>2026-04-18T08:43:27.007Z</time></trkpt><trkpt lat="43.561575" lon="11.5427333"><ele>134.33333333333331</ele><time>2026-04-18T08:43:28.007Z</time></trkpt><trkpt lat="43.5616567" lon="11.5427483"><ele>134.5</ele><time>2026-04-18T08:43:29.008Z</time></trkpt><trkpt lat="43.56174" lon="11.5427583"><ele>134.66666666666666</ele><time>2026-04-18T08:43:30.007Z</time></trkpt><trkpt lat="43.5618233" lon="11.5427683"><ele>134.83333333333334</ele><time>2026-04-18T08:43:31.007Z</time></trkpt><trkpt lat="43.561905" lon="11.5427817"><ele>135.0</ele><time>2026-04-18T08:43:32.007Z</time></trkpt><trkpt lat="43.5619867" lon="11.5427933"><ele>135.0</ele><time>2026-04-18T08:43:33.008Z</time></trkpt><trkpt lat="43.56207" lon="11.542805"><ele>135.0</ele><time>2026-04-18T08:43:34.007Z</time></trkpt><trkpt lat="43.5621517" lon="11.542815"><ele>135.0</ele><time>2026-04-18T08:43:35.007Z</time></trkpt><trkpt lat="43.5622267" lon="11.54283"><ele>135.0</ele><time>2026-04-18T08:43:36.011Z</time></trkpt><trkpt lat="43.5623067" lon="11.54284"><ele>135.0</ele><time>2026-04-18T08:43:37.012Z</time></trkpt><trkpt lat="43.5623817" lon="11.5428567"><ele>135.0</ele><time>2026-04-18T08:43:38.011Z</time></trkpt><trkpt lat="43.5624583" lon="11.5428683"><ele>135.16666666666666</ele><time>2026-04-18T08:43:39.011Z</time></trkpt><trkpt lat="43.5625317" lon="11.5428817"><ele>135.33333333333334</ele><time>2026-04-18T08:43:40.009Z</time></trkpt><trkpt lat="43.5626083" lon="11.5429"><ele>135.5</ele><time>2026-04-18T08:43:41.009Z</time></trkpt><trkpt lat="43.5626867" lon="11.5429217"><ele>135.66666666666669</ele><time>2026-04-18T08:43:42.008Z</time></trkpt><trkpt lat="43.5627667" lon="11.5429417"><ele>135.83333333333334</ele><time>2026-04-18T08:43:43.009Z</time></trkpt><trkpt lat="43.5628433" lon="11.5429617"><ele>136.0</ele><time>2026-04-18T08:43:44.012Z</time></trkpt><trkpt lat="43.56292" lon="11.54298"><ele>136.16666666666669</ele><time>2026-04-18T08:43:45.01Z</time></trkpt><trkpt lat="43.5629983" lon="11.5429983"><ele>136.33333333333334</ele><time>2026-04-18T08:43:46.009Z</time></trkpt><trkpt lat="43.563075" lon="11.5430217"><ele>136.5</ele><time>2026-04-18T08:43:47.009Z</time></trkpt><trkpt lat="43.5631467" lon="11.5430517"><ele>136.66666666666666</ele><time>2026-04-18T08:43:48.01Z</time></trkpt><trkpt lat="43.5632167" lon="11.5430983"><ele>136.83333333333331</ele><time>2026-04-18T08:43:49.01Z</time></trkpt><trkpt lat="43.5632783" lon="11.5431533"><ele>137.0</ele><time>2026-04-18T08:43:50.01Z</time></trkpt><trkpt lat="43.563335" lon="11.5432117"><ele>137.00000000000003</ele><time>2026-04-18T08:43:51.01Z</time></trkpt><trkpt lat="43.5633967" lon="11.543255"><ele>137.0</ele><time>2026-04-18T08:43:52.009Z</time></trkpt><trkpt lat="43.563465" lon="11.5432717"><ele>137.0</ele><time>2026-04-18T08:43:53.011Z</time></trkpt><trkpt lat="43.563535" lon="11.5432633"><ele>137.0</ele><time>2026-04-18T08:43:54.009Z</time></trkpt><trkpt lat="43.5636033" lon="11.5432317"><ele>137.0</ele><time>2026-04-18T08:43:55.01Z</time></trkpt><trkpt lat="43.5636667" lon="11.5431833"><ele>137.00000000000003</ele><time>2026-04-18T08:43:56.01Z</time></trkpt><trkpt lat="43.5637217" lon="11.5431283"><ele>137.0</ele><time>2026-04-18T08:43:57.01Z</time></trkpt><trkpt lat="43.5637867" lon="11.5430817"><ele>137.0</ele><time>2026-04-18T08:43:58.01Z</time></trkpt><trkpt lat="43.56386" lon="11.543055"><ele>137.0</ele><time>2026-04-18T08:43:59.009Z</time></trkpt><trkpt lat="43.5639367" lon="11.5430467"><ele>137.0</ele><time>2026-04-18T08:44:00.008Z</time></trkpt><trkpt lat="43.5640167" lon="11.54305"><ele>137.0</ele><time>2026-04-18T08:44:01.009Z</time></trkpt><trkpt lat="43.56409" lon="11.5430533"><ele>137.0</ele><time>2026-04-18T08:44:02.01Z</time></trkpt><trkpt lat="43.5641683" lon="11.5430567"><ele>137.0</ele><time>2026-04-18T08:44:03.009Z</time></trkpt><trkpt lat="43.5642417" lon="11.5430583"><ele>137.00000000000003</ele><time>2026-04-18T08:44:04.009Z</time></trkpt><trkpt lat="43.5643133" lon="11.5430633"><ele>137.0</ele><time>2026-04-18T08:44:05.01Z</time></trkpt><trkpt lat="43.5643833" lon="11.5430667"><ele>137.0</ele><time>2026-04-18T08:44:06.009Z</time></trkpt><trkpt lat="43.564455" lon="11.5430717"><ele>137.0</ele><time>2026-04-18T08:44:07.01Z</time></trkpt><trkpt lat="43.5645217" lon="11.543075"><ele>137.0</ele><time>2026-04-18T08:44:08.01Z</time></trkpt><trkpt lat="43.5645867" lon="11.5430783"><ele>137.00000000000003</ele><time>2026-04-18T08:44:09.011Z</time></trkpt><trkpt lat="43.564655" lon="11.5430817"><ele>137.0</ele><time>2026-04-18T08:44:10.009Z</time></trkpt><trkpt lat="43.5647233" lon="11.5430817"><ele>137.16666666666666</ele><time>2026-04-18T08:44:11.009Z</time></trkpt><trkpt lat="43.56479" lon="11.5430833"><ele>137.33333333333331</ele><time>2026-04-18T08:44:12.01Z</time></trkpt><trkpt lat="43.564855" lon="11.543085"><ele>137.5</ele><time>2026-04-18T08:44:13.009Z</time></trkpt><trkpt lat="43.5649233" lon="11.5430883"><ele>137.66666666666666</ele><time>2026-04-18T08:44:14.011Z</time></trkpt><trkpt lat="43.56505" lon="11.5431017"><ele>137.83333333333334</ele><time>2026-04-18T08:44:16.008Z</time></trkpt><trkpt lat="43.5651133" lon="11.5431083"><ele>138.0</ele><time>2026-04-18T08:44:17.01Z</time></trkpt><trkpt lat="43.5651783" lon="11.543115"><ele>138.0</ele><time>2026-04-18T08:44:18.009Z</time></trkpt><trkpt lat="43.5652417" lon="11.54312"><ele>138.0</ele><time>2026-04-18T08:44:19.011Z</time></trkpt><trkpt lat="43.5653667" lon="11.5431283"><ele>138.0</ele><time>2026-04-18T08:44:21.009Z</time></trkpt><trkpt lat="43.5654867" lon="11.5431433"><ele>138.0</ele><time>2026-04-18T08:44:23.014Z</time></trkpt><trkpt lat="43.5656083" lon="11.543165"><ele>138.0</ele><time>2026-04-18T08:44:25.009Z</time></trkpt><trkpt lat="43.5656717" lon="11.543175"><ele>138.83333333333334</ele><time>2026-04-18T08:44:26.01Z</time></trkpt><trkpt lat="43.5657933" lon="11.543195"><ele>139.66666666666666</ele><time>2026-04-18T08:44:28.01Z</time></trkpt><trkpt lat="43.565865" lon="11.543205"><ele>140.5</ele><time>2026-04-18T08:44:29.009Z</time></trkpt><trkpt lat="43.56593" lon="11.5432117"><ele>141.33333333333331</ele><time>2026-04-18T08:44:30.009Z</time></trkpt><trkpt lat="43.565995" lon="11.54322"><ele>142.16666666666666</ele><time>2026-04-18T08:44:31.01Z</time></trkpt><trkpt lat="43.566065" lon="11.5432283"><ele>143.0</ele><time>2026-04-18T08:44:32.01Z</time></trkpt><trkpt lat="43.566135" lon="11.54324"><ele>143.28571428571428</ele><time>2026-04-18T08:44:33.011Z</time></trkpt><trkpt lat="43.5662017" lon="11.5432533"><ele>143.57142857142856</ele><time>2026-04-18T08:44:34.009Z</time></trkpt><trkpt lat="43.5662683" lon="11.5432633"><ele>143.85714285714286</ele><time>2026-04-18T08:44:35.01Z</time></trkpt><trkpt lat="43.566335" lon="11.543275"><ele>144.14285714285714</ele><time>2026-04-18T08:44:36.011Z</time></trkpt><trkpt lat="43.5663983" lon="11.543275"><ele>144.42857142857144</ele><time>2026-04-18T08:44:37.01Z</time></trkpt><trkpt lat="43.5664683" lon="11.5432817"><ele>144.71428571428572</ele><time>2026-04-18T08:44:38.011Z</time></trkpt><trkpt lat="43.5665333" lon="11.54329"><ele>145.0</ele><time>2026-04-18T08:44:39.009Z</time></trkpt><trkpt lat="43.5666567" lon="11.5432967"><ele>145.0</ele><time>2026-04-18T08:44:41.011Z</time></trkpt><trkpt lat="43.56672" lon="11.5433033"><ele>145.0</ele><time>2026-04-18T08:44:42.01Z</time></trkpt><trkpt lat="43.5667833" lon="11.5433083"><ele>145.0</ele><time>2026-04-18T08:44:43.01Z</time></trkpt><trkpt lat="43.5668467" lon="11.5433117"><ele>145.0</ele><time>2026-04-18T08:44:44.01Z</time></trkpt><trkpt lat="43.5669683" lon="11.5433233"><ele>145.0</ele><time>2026-04-18T08:44:46.013Z</time></trkpt><trkpt lat="43.5670333" lon="11.5433267"><ele>145.0</ele><time>2026-04-18T08:44:47.012Z</time></trkpt><trkpt lat="43.5671017" lon="11.5433333"><ele>145.0</ele><time>2026-04-18T08:44:48.009Z</time></trkpt><trkpt lat="43.56717" lon="11.543345"><ele>144.33333333333334</ele><time>2026-04-18T08:44:49.01Z</time></trkpt><trkpt lat="43.5672367" lon="11.5433467"><ele>143.66666666666669</ele><time>2026-04-18T08:44:50.01Z</time></trkpt><trkpt lat="43.567305" lon="11.5433483"><ele>143.0</ele><time>2026-04-18T08:44:51.011Z</time></trkpt><trkpt lat="43.5673683" lon="11.54334"><ele>142.33333333333334</ele><time>2026-04-18T08:44:52.009Z</time></trkpt><trkpt lat="43.5674317" lon="11.54333"><ele>141.66666666666666</ele><time>2026-04-18T08:44:53.01Z</time></trkpt><trkpt lat="43.567495" lon="11.54332"><ele>141.0</ele><time>2026-04-18T08:44:54.01Z</time></trkpt><trkpt lat="43.5676217" lon="11.5433067"><ele>141.0</ele><time>2026-04-18T08:44:56.01Z</time></trkpt><trkpt lat="43.567685" lon="11.5432933"><ele>141.0</ele><time>2026-04-18T08:44:57.013Z</time></trkpt><trkpt lat="43.56781" lon="11.54328"><ele>141.0</ele><time>2026-04-18T08:44:59.009Z</time></trkpt><trkpt lat="43.5678783" lon="11.5432667"><ele>141.0</ele><time>2026-04-18T08:45:00.009Z</time></trkpt><trkpt lat="43.5679517" lon="11.543245"><ele>141.0</ele><time>2026-04-18T08:45:01.009Z</time></trkpt><trkpt lat="43.56802" lon="11.5432233"><ele>141.0</ele><time>2026-04-18T08:45:02.011Z</time></trkpt><trkpt lat="43.5680883" lon="11.5432033"><ele>140.57142857142858</ele><time>2026-04-18T08:45:03.009Z</time></trkpt><trkpt lat="43.5681567" lon="11.5431817"><ele>140.14285714285714</ele><time>2026-04-18T08:45:04.01Z</time></trkpt><trkpt lat="43.5682233" lon="11.543165"><ele>139.71428571428572</ele><time>2026-04-18T08:45:05.009Z</time></trkpt><trkpt lat="43.5682933" lon="11.5431483"><ele>139.28571428571428</ele><time>2026-04-18T08:45:06.01Z</time></trkpt><trkpt lat="43.56836" lon="11.5431317"><ele>138.85714285714286</ele><time>2026-04-18T08:45:07.013Z</time></trkpt><trkpt lat="43.5684267" lon="11.5431133"><ele>138.42857142857144</ele><time>2026-04-18T08:45:08.011Z</time></trkpt><trkpt lat="43.5684933" lon="11.543095"><ele>138.0</ele><time>2026-04-18T08:45:09.012Z</time></trkpt><trkpt lat="43.56856" lon="11.5430767"><ele>138.0</ele><time>2026-04-18T08:45:10.011Z</time></trkpt><trkpt lat="43.56863" lon="11.5430583"><ele>138.0</ele><time>2026-04-18T08:45:11.012Z</time></trkpt><trkpt lat="43.5687017" lon="11.5430417"><ele>138.0</ele><time>2026-04-18T08:45:12.012Z</time></trkpt><trkpt lat="43.568775" lon="11.5430283"><ele>138.0</ele><time>2026-04-18T08:45:13.009Z</time></trkpt><trkpt lat="43.56885" lon="11.5430183"><ele>138.0</ele><time>2026-04-18T08:45:14.012Z</time></trkpt><trkpt lat="43.56893" lon="11.54301"><ele>138.0</ele><time>2026-04-18T08:45:15.011Z</time></trkpt><trkpt lat="43.5690083" lon="11.5430083"><ele>138.0</ele><time>2026-04-18T08:45:16.01Z</time></trkpt><trkpt lat="43.56917" lon="11.5430217"><ele>138.0</ele><time>2026-04-18T08:45:18.008Z</time></trkpt><trkpt lat="43.569255" lon="11.543035"><ele>138.0</ele><time>2026-04-18T08:45:19.011Z</time></trkpt><trkpt lat="43.5693467" lon="11.5430533"><ele>138.0</ele><time>2026-04-18T08:45:20.011Z</time></trkpt><trkpt lat="43.5694417" lon="11.5430783"><ele>138.0</ele><time>2026-04-18T08:45:21.01Z</time></trkpt><trkpt lat="43.5695383" lon="11.5431133"><ele>137.6</ele><time>2026-04-18T08:45:22.01Z</time></trkpt><trkpt lat="43.569635" lon="11.54315"><ele>137.20000000000002</ele><time>2026-04-18T08:45:23.011Z</time></trkpt><trkpt lat="43.5697333" lon="11.5431833"><ele>136.8</ele><time>2026-04-18T08:45:24.011Z</time></trkpt><trkpt lat="43.5698333" lon="11.5432117"><ele>136.4</ele><time>2026-04-18T08:45:25.012Z</time></trkpt><trkpt lat="43.5699383" lon="11.5432283"><ele>136.0</ele><time>2026-04-18T08:45:26.012Z</time></trkpt><trkpt lat="43.5700367" lon="11.54323"><ele>136.0</ele><time>2026-04-18T08:45:27.011Z</time></trkpt><trkpt lat="43.57013" lon="11.54322"><ele>136.0</ele><time>2026-04-18T08:45:28.012Z</time></trkpt><trkpt lat="43.5702183" lon="11.5431983"><ele>136.0</ele><time>2026-04-18T08:45:29.011Z</time></trkpt><trkpt lat="43.5703033" lon="11.5431633"><ele>136.0</ele><time>2026-04-18T08:45:30.011Z</time></trkpt><trkpt lat="43.570385" lon="11.5431183"><ele>136.0</ele><time>2026-04-18T08:45:31.012Z</time></trkpt><trkpt lat="43.5704583" lon="11.5430667"><ele>136.0</ele><time>2026-04-18T08:45:32.01Z</time></trkpt><trkpt lat="43.5705283" lon="11.5430083"><ele>136.0</ele><time>2026-04-18T08:45:33.011Z</time></trkpt><trkpt lat="43.57059" lon="11.54295"><ele>136.0</ele><time>2026-04-18T08:45:34.011Z</time></trkpt><trkpt lat="43.57065" lon="11.5428867"><ele>136.0</ele><time>2026-04-18T08:45:35.012Z</time></trkpt><trkpt lat="43.5707083" lon="11.54282"><ele>136.0</ele><time>2026-04-18T08:45:36.011Z</time></trkpt><trkpt lat="43.57077" lon="11.5427533"><ele>136.0</ele><time>2026-04-18T08:45:37.01Z</time></trkpt><trkpt lat="43.5708317" lon="11.5426867"><ele>136.0</ele><time>2026-04-18T08:45:38.01Z</time></trkpt><trkpt lat="43.5708883" lon="11.5426233"><ele>136.14285714285714</ele><time>2026-04-18T08:45:39.012Z</time></trkpt><trkpt lat="43.5709433" lon="11.5425583"><ele>136.28571428571428</ele><time>2026-04-18T08:45:40.011Z</time></trkpt><trkpt lat="43.570995" lon="11.542495"><ele>136.42857142857144</ele><time>2026-04-18T08:45:41.011Z</time></trkpt><trkpt lat="43.5710433" lon="11.5424333"><ele>136.57142857142856</ele><time>2026-04-18T08:45:42.01Z</time></trkpt><trkpt lat="43.57109" lon="11.54237"><ele>136.71428571428572</ele><time>2026-04-18T08:45:43.011Z</time></trkpt><trkpt lat="43.5711383" lon="11.5423133"><ele>136.85714285714286</ele><time>2026-04-18T08:45:44.012Z</time></trkpt><trkpt lat="43.57119" lon="11.5422583"><ele>137.0</ele><time>2026-04-18T08:45:45.011Z</time></trkpt><trkpt lat="43.5712417" lon="11.542205"><ele>137.00000000000003</ele><time>2026-04-18T08:45:46.01Z</time></trkpt><trkpt lat="43.5712967" lon="11.542155"><ele>137.0</ele><time>2026-04-18T08:45:47.011Z</time></trkpt><trkpt lat="43.5713533" lon="11.5421017"><ele>137.0</ele><time>2026-04-18T08:45:48.01Z</time></trkpt><trkpt lat="43.5714117" lon="11.5420433"><ele>137.0</ele><time>2026-04-18T08:45:49.01Z</time></trkpt><trkpt lat="43.5714733" lon="11.54199"><ele>137.0</ele><time>2026-04-18T08:45:50.01Z</time></trkpt><trkpt lat="43.5715333" lon="11.541935"><ele>137.00000000000003</ele><time>2026-04-18T08:45:51.009Z</time></trkpt><trkpt lat="43.5715917" lon="11.5418883"><ele>137.0</ele><time>2026-04-18T08:45:52.012Z</time></trkpt><trkpt lat="43.5716517" lon="11.5418383"><ele>137.00000000000003</ele><time>2026-04-18T08:45:53.009Z</time></trkpt><trkpt lat="43.5717083" lon="11.5417867"><ele>137.0</ele><time>2026-04-18T08:45:54.011Z</time></trkpt><trkpt lat="43.571765" lon="11.54174"><ele>137.0</ele><time>2026-04-18T08:45:55.013Z</time></trkpt><trkpt lat="43.57182" lon="11.54169"><ele>137.0</ele><time>2026-04-18T08:45:56.012Z</time></trkpt><trkpt lat="43.5718733" lon="11.5416367"><ele>137.0</ele><time>2026-04-18T08:45:57.013Z</time></trkpt><trkpt lat="43.571925" lon="11.54158"><ele>137.00000000000003</ele><time>2026-04-18T08:45:58.011Z</time></trkpt><trkpt lat="43.5719833" lon="11.5415267"><ele>137.0</ele><time>2026-04-18T08:45:59.013Z</time></trkpt><trkpt lat="43.5720383" lon="11.5414717"><ele>137.00000000000003</ele><time>2026-04-18T08:46:00.012Z</time></trkpt><trkpt lat="43.572095" lon="11.54141"><ele>137.0</ele><time>2026-04-18T08:46:01.012Z</time></trkpt><trkpt lat="43.5721517" lon="11.541345"><ele>137.0</ele><time>2026-04-18T08:46:02.013Z</time></trkpt><trkpt lat="43.57221" lon="11.54128"><ele>137.0</ele><time>2026-04-18T08:46:03.012Z</time></trkpt><trkpt lat="43.5722617" lon="11.54122"><ele>137.0</ele><time>2026-04-18T08:46:04.012Z</time></trkpt><trkpt lat="43.572315" lon="11.5411567"><ele>137.00000000000003</ele><time>2026-04-18T08:46:05.01Z</time></trkpt><trkpt lat="43.5723683" lon="11.5410917"><ele>137.0</ele><time>2026-04-18T08:46:06.012Z</time></trkpt><trkpt lat="43.5724233" lon="11.54102"><ele>136.71428571428572</ele><time>2026-04-18T08:46:07.013Z</time></trkpt><trkpt lat="43.5724733" lon="11.5409483"><ele>136.42857142857144</ele><time>2026-04-18T08:46:08.012Z</time></trkpt><trkpt lat="43.572525" lon="11.54088"><ele>136.14285714285714</ele><time>2026-04-18T08:46:09.012Z</time></trkpt><trkpt lat="43.5725733" lon="11.540805"><ele>135.85714285714286</ele><time>2026-04-18T08:46:10.012Z</time></trkpt><trkpt lat="43.5726217" lon="11.5407317"><ele>135.57142857142856</ele><time>2026-04-18T08:46:11.011Z</time></trkpt><trkpt lat="43.57267" lon="11.540655"><ele>135.28571428571428</ele><time>2026-04-18T08:46:12.012Z</time></trkpt><trkpt lat="43.5727167" lon="11.5405783"><ele>135.0</ele><time>2026-04-18T08:46:13.013Z</time></trkpt><trkpt lat="43.5727617" lon="11.5405083"><ele>135.0</ele><time>2026-04-18T08:46:14.013Z</time></trkpt><trkpt lat="43.5728067" lon="11.5404367"><ele>135.0</ele><time>2026-04-18T08:46:15.011Z</time></trkpt><trkpt lat="43.5728517" lon="11.5403667"><ele>135.0</ele><time>2026-04-18T08:46:16.008Z</time></trkpt><trkpt lat="43.5728967" lon="11.5402983"><ele>135.0</ele><time>2026-04-18T08:46:17.011Z</time></trkpt><trkpt lat="43.5729417" lon="11.5402333"><ele>135.0</ele><time>2026-04-18T08:46:18.01Z</time></trkpt><trkpt lat="43.5729867" lon="11.5401617"><ele>135.0</ele><time>2026-04-18T08:46:19.01Z</time></trkpt><trkpt lat="43.57303" lon="11.5400883"><ele>135.0</ele><time>2026-04-18T08:46:20.01Z</time></trkpt><trkpt lat="43.5730783" lon="11.5400167"><ele>135.0</ele><time>2026-04-18T08:46:21.01Z</time></trkpt><trkpt lat="43.5731283" lon="11.5399433"><ele>135.0</ele><time>2026-04-18T08:46:22.01Z</time></trkpt><trkpt lat="43.5731767" lon="11.53988"><ele>135.0</ele><time>2026-04-18T08:46:23.013Z</time></trkpt><trkpt lat="43.5732283" lon="11.5398133"><ele>135.0</ele><time>2026-04-18T08:46:24.012Z</time></trkpt><trkpt lat="43.5732783" lon="11.5397517"><ele>135.0</ele><time>2026-04-18T08:46:25.011Z</time></trkpt><trkpt lat="43.5733283" lon="11.5396883"><ele>135.0</ele><time>2026-04-18T08:46:26.012Z</time></trkpt><trkpt lat="43.5733783" lon="11.5396233"><ele>135.0</ele><time>2026-04-18T08:46:27.01Z</time></trkpt><trkpt lat="43.57343" lon="11.5395633"><ele>135.0</ele><time>2026-04-18T08:46:28.011Z</time></trkpt><trkpt lat="43.57348" lon="11.5394983"><ele>135.0</ele><time>2026-04-18T08:46:29.012Z</time></trkpt><trkpt lat="43.5735317" lon="11.5394367"><ele>135.0</ele><time>2026-04-18T08:46:30.01Z</time></trkpt><trkpt lat="43.5735833" lon="11.5393717"><ele>135.0</ele><time>2026-04-18T08:46:31.01Z</time></trkpt><trkpt lat="43.5736333" lon="11.53931"><ele>135.0</ele><time>2026-04-18T08:46:32.01Z</time></trkpt><trkpt lat="43.573685" lon="11.539245"><ele>135.0</ele><time>2026-04-18T08:46:33.01Z</time></trkpt><trkpt lat="43.5737333" lon="11.539185"><ele>135.0</ele><time>2026-04-18T08:46:34.01Z</time></trkpt><trkpt lat="43.5738267" lon="11.53907"><ele>135.14285714285714</ele><time>2026-04-18T08:46:36.01Z</time></trkpt><trkpt lat="43.5738767" lon="11.5390083"><ele>135.28571428571428</ele><time>2026-04-18T08:46:37.013Z</time></trkpt><trkpt lat="43.5739267" lon="11.5389533"><ele>135.42857142857142</ele><time>2026-04-18T08:46:38.012Z</time></trkpt><trkpt lat="43.573975" lon="11.5388933"><ele>135.57142857142856</ele><time>2026-04-18T08:46:39.01Z</time></trkpt><trkpt lat="43.5740233" lon="11.538835"><ele>135.71428571428572</ele><time>2026-04-18T08:46:40.013Z</time></trkpt><trkpt lat="43.5740717" lon="11.5387767"><ele>135.85714285714283</ele><time>2026-04-18T08:46:41.011Z</time></trkpt><trkpt lat="43.57412" lon="11.5387183"><ele>136.0</ele><time>2026-04-18T08:46:42.012Z</time></trkpt><trkpt lat="43.57417" lon="11.5386583"><ele>135.99999999999997</ele><time>2026-04-18T08:46:43.011Z</time></trkpt><trkpt lat="43.57422" lon="11.5385933"><ele>136.0</ele><time>2026-04-18T08:46:44.013Z</time></trkpt><trkpt lat="43.57427" lon="11.5385267"><ele>136.0</ele><time>2026-04-18T08:46:45.012Z</time></trkpt><trkpt lat="43.57432" lon="11.5384667"><ele>136.0</ele><time>2026-04-18T08:46:46.012Z</time></trkpt><trkpt lat="43.57437" lon="11.5384067"><ele>136.0</ele><time>2026-04-18T08:46:47.012Z</time></trkpt><trkpt lat="43.5744217" lon="11.5383467"><ele>135.99999999999997</ele><time>2026-04-18T08:46:48.013Z</time></trkpt><trkpt lat="43.5744717" lon="11.5382883"><ele>136.0</ele><time>2026-04-18T08:46:49.012Z</time></trkpt><trkpt lat="43.5745233" lon="11.5382267"><ele>136.42857142857142</ele><time>2026-04-18T08:46:50.012Z</time></trkpt><trkpt lat="43.5745717" lon="11.5381683"><ele>136.85714285714286</ele><time>2026-04-18T08:46:51.013Z</time></trkpt><trkpt lat="43.574625" lon="11.53811"><ele>137.28571428571428</ele><time>2026-04-18T08:46:52.012Z</time></trkpt><trkpt lat="43.57468" lon="11.5380517"><ele>137.71428571428572</ele><time>2026-04-18T08:46:53.013Z</time></trkpt><trkpt lat="43.5747317" lon="11.53799"><ele>138.14285714285714</ele><time>2026-04-18T08:46:54.013Z</time></trkpt><trkpt lat="43.57479" lon="11.5379283"><ele>138.57142857142856</ele><time>2026-04-18T08:46:55.013Z</time></trkpt><trkpt lat="43.574845" lon="11.537865"><ele>139.0</ele><time>2026-04-18T08:46:56.014Z</time></trkpt><trkpt lat="43.5749" lon="11.5378033"><ele>139.0</ele><time>2026-04-18T08:46:57.013Z</time></trkpt><trkpt lat="43.5749533" lon="11.5377383"><ele>139.0</ele><time>2026-04-18T08:46:58.013Z</time></trkpt><trkpt lat="43.5750083" lon="11.537675"><ele>139.0</ele><time>2026-04-18T08:46:59.015Z</time></trkpt><trkpt lat="43.575065" lon="11.53761"><ele>139.0</ele><time>2026-04-18T08:47:00.012Z</time></trkpt><trkpt lat="43.5751183" lon="11.5375467"><ele>139.0</ele><time>2026-04-18T08:47:01.012Z</time></trkpt><trkpt lat="43.5751733" lon="11.5374833"><ele>139.0</ele><time>2026-04-18T08:47:02.013Z</time></trkpt><trkpt lat="43.57523" lon="11.5374217"><ele>139.0</ele><time>2026-04-18T08:47:03.011Z</time></trkpt><trkpt lat="43.575285" lon="11.5373583"><ele>139.0</ele><time>2026-04-18T08:47:04.013Z</time></trkpt><trkpt lat="43.5753417" lon="11.5372917"><ele>139.0</ele><time>2026-04-18T08:47:05.013Z</time></trkpt><trkpt lat="43.5753967" lon="11.537225"><ele>139.0</ele><time>2026-04-18T08:47:06.012Z</time></trkpt><trkpt lat="43.5754517" lon="11.53716"><ele>139.0</ele><time>2026-04-18T08:47:07.011Z</time></trkpt><trkpt lat="43.575505" lon="11.5370967"><ele>139.0</ele><time>2026-04-18T08:47:08.01Z</time></trkpt><trkpt lat="43.57556" lon="11.537035"><ele>139.0</ele><time>2026-04-18T08:47:09.012Z</time></trkpt><trkpt lat="43.575615" lon="11.53697"><ele>139.0</ele><time>2026-04-18T08:47:10.01Z</time></trkpt><trkpt lat="43.5756717" lon="11.5369083"><ele>139.0</ele><time>2026-04-18T08:47:11.01Z</time></trkpt><trkpt lat="43.5757267" lon="11.536845"><ele>139.0</ele><time>2026-04-18T08:47:12.011Z</time></trkpt><trkpt lat="43.5757783" lon="11.5367817"><ele>139.0</ele><time>2026-04-18T08:47:13.009Z</time></trkpt><trkpt lat="43.5758267" lon="11.5367217"><ele>139.0</ele><time>2026-04-18T08:47:14.008Z</time></trkpt><trkpt lat="43.5758767" lon="11.5366633"><ele>139.0</ele><time>2026-04-18T08:47:15.011Z</time></trkpt><trkpt lat="43.5759267" lon="11.536605"><ele>139.0</ele><time>2026-04-18T08:47:16.01Z</time></trkpt><trkpt lat="43.5760233" lon="11.536495"><ele>139.0</ele><time>2026-04-18T08:47:18.009Z</time></trkpt><trkpt lat="43.57612" lon="11.5363833"><ele>139.0</ele><time>2026-04-18T08:47:20.012Z</time></trkpt><trkpt lat="43.5762183" lon="11.5362683"><ele>139.0</ele><time>2026-04-18T08:47:22.011Z</time></trkpt><trkpt lat="43.5762683" lon="11.5362133"><ele>139.0</ele><time>2026-04-18T08:47:23.009Z</time></trkpt><trkpt lat="43.5763217" lon="11.53615"><ele>139.0</ele><time>2026-04-18T08:47:24.01Z</time></trkpt><trkpt lat="43.57637" lon="11.53609"><ele>138.42857142857142</ele><time>2026-04-18T08:47:25.008Z</time></trkpt><trkpt lat="43.5764217" lon="11.5360333"><ele>137.85714285714286</ele><time>2026-04-18T08:47:26.01Z</time></trkpt><trkpt lat="43.5764733" lon="11.535975"><ele>137.28571428571428</ele><time>2026-04-18T08:47:27.01Z</time></trkpt><trkpt lat="43.576525" lon="11.5359133"><ele>136.71428571428572</ele><time>2026-04-18T08:47:28.01Z</time></trkpt><trkpt lat="43.57658" lon="11.5358517"><ele>136.14285714285714</ele><time>2026-04-18T08:47:29.009Z</time></trkpt><trkpt lat="43.5766367" lon="11.535785"><ele>135.57142857142856</ele><time>2026-04-18T08:47:30.011Z</time></trkpt><trkpt lat="43.5766933" lon="11.5357167"><ele>135.0</ele><time>2026-04-18T08:47:31.011Z</time></trkpt><trkpt lat="43.5767517" lon="11.53565"><ele>135.0</ele><time>2026-04-18T08:47:32.011Z</time></trkpt><trkpt lat="43.5768133" lon="11.5355817"><ele>135.0</ele><time>2026-04-18T08:47:33.009Z</time></trkpt><trkpt lat="43.5768733" lon="11.535515"><ele>135.0</ele><time>2026-04-18T08:47:34.009Z</time></trkpt><trkpt lat="43.57693" lon="11.53545"><ele>135.0</ele><time>2026-04-18T08:47:35.01Z</time></trkpt><trkpt lat="43.5769883" lon="11.5353833"><ele>135.0</ele><time>2026-04-18T08:47:36.009Z</time></trkpt><trkpt lat="43.5770467" lon="11.5353133"><ele>135.0</ele><time>2026-04-18T08:47:37.009Z</time></trkpt><trkpt lat="43.5771083" lon="11.535235"><ele>135.14285714285714</ele><time>2026-04-18T08:47:38.01Z</time></trkpt><trkpt lat="43.5771667" lon="11.5351633"><ele>135.28571428571428</ele><time>2026-04-18T08:47:39.01Z</time></trkpt><trkpt lat="43.577225" lon="11.535095"><ele>135.42857142857142</ele><time>2026-04-18T08:47:40.01Z</time></trkpt><trkpt lat="43.5772833" lon="11.5350233"><ele>135.57142857142856</ele><time>2026-04-18T08:47:41.011Z</time></trkpt><trkpt lat="43.5773383" lon="11.53496"><ele>135.71428571428572</ele><time>2026-04-18T08:47:42.009Z</time></trkpt><trkpt lat="43.5773933" lon="11.5348967"><ele>135.85714285714283</ele><time>2026-04-18T08:47:43.009Z</time></trkpt><trkpt lat="43.5774467" lon="11.5348367"><ele>136.0</ele><time>2026-04-18T08:47:44.011Z</time></trkpt><trkpt lat="43.5774983" lon="11.5347833"><ele>136.0</ele><time>2026-04-18T08:47:45.009Z</time></trkpt><trkpt lat="43.5775517" lon="11.534735"><ele>136.0</ele><time>2026-04-18T08:47:46.011Z</time></trkpt><trkpt lat="43.577665" lon="11.5346783"><ele>136.0</ele><time>2026-04-18T08:47:48.01Z</time></trkpt><trkpt lat="43.5777933" lon="11.5346567"><ele>136.0</ele><time>2026-04-18T08:47:50.011Z</time></trkpt><trkpt lat="43.5778567" lon="11.5346317"><ele>136.0</ele><time>2026-04-18T08:47:51.009Z</time></trkpt><trkpt lat="43.577915" lon="11.534585"><ele>136.0</ele><time>2026-04-18T08:47:52.012Z</time></trkpt><trkpt lat="43.5779867" lon="11.5344467"><ele>136.14285714285714</ele><time>2026-04-18T08:47:54.01Z</time></trkpt><trkpt lat="43.5780117" lon="11.53436"><ele>136.28571428571428</ele><time>2026-04-18T08:47:55.01Z</time></trkpt><trkpt lat="43.5780217" lon="11.5342717"><ele>136.42857142857144</ele><time>2026-04-18T08:47:56.01Z</time></trkpt><trkpt lat="43.5780217" lon="11.5341783"><ele>136.57142857142856</ele><time>2026-04-18T08:47:57.01Z</time></trkpt><trkpt lat="43.578015" lon="11.5340817"><ele>136.71428571428572</ele><time>2026-04-18T08:47:58.009Z</time></trkpt><trkpt lat="43.578015" lon="11.5339817"><ele>136.85714285714286</ele><time>2026-04-18T08:47:59.009Z</time></trkpt><trkpt lat="43.5780317" lon="11.5338883"><ele>137.0</ele><time>2026-04-18T08:48:00.009Z</time></trkpt><trkpt lat="43.5780617" lon="11.5337967"><ele>136.42857142857144</ele><time>2026-04-18T08:48:01.009Z</time></trkpt><trkpt lat="43.578095" lon="11.53371"><ele>135.85714285714286</ele><time>2026-04-18T08:48:02.01Z</time></trkpt><trkpt lat="43.57813" lon="11.5336233"><ele>135.28571428571428</ele><time>2026-04-18T08:48:03.011Z</time></trkpt><trkpt lat="43.5781667" lon="11.5335417"><ele>134.71428571428572</ele><time>2026-04-18T08:48:04.009Z</time></trkpt><trkpt lat="43.5782" lon="11.5334633"><ele>134.14285714285714</ele><time>2026-04-18T08:48:05.01Z</time></trkpt><trkpt lat="43.578235" lon="11.5333833"><ele>133.57142857142858</ele><time>2026-04-18T08:48:06.01Z</time></trkpt><trkpt lat="43.5782733" lon="11.5332967"><ele>133.0</ele><time>2026-04-18T08:48:07.012Z</time></trkpt><trkpt lat="43.57831" lon="11.5332183"><ele>133.0</ele><time>2026-04-18T08:48:08.009Z</time></trkpt><trkpt lat="43.5783467" lon="11.5331417"><ele>133.0</ele><time>2026-04-18T08:48:09.011Z</time></trkpt><trkpt lat="43.5783833" lon="11.5330667"><ele>133.0</ele><time>2026-04-18T08:48:10.009Z</time></trkpt><trkpt lat="43.5784217" lon="11.5329883"><ele>133.0</ele><time>2026-04-18T08:48:11.011Z</time></trkpt><trkpt lat="43.5784633" lon="11.53291"><ele>133.0</ele><time>2026-04-18T08:48:12.012Z</time></trkpt><trkpt lat="43.578505" lon="11.5328333"><ele>133.0</ele><time>2026-04-18T08:48:13.01Z</time></trkpt><trkpt lat="43.5785483" lon="11.5327567"><ele>133.0</ele><time>2026-04-18T08:48:14.011Z</time></trkpt><trkpt lat="43.5785917" lon="11.53268"><ele>133.0</ele><time>2026-04-18T08:48:15.009Z</time></trkpt><trkpt lat="43.5786333" lon="11.5326033"><ele>133.0</ele><time>2026-04-18T08:48:16.01Z</time></trkpt><trkpt lat="43.578675" lon="11.532525"><ele>133.0</ele><time>2026-04-18T08:48:17.01Z</time></trkpt><trkpt lat="43.5787167" lon="11.5324483"><ele>133.0</ele><time>2026-04-18T08:48:18.009Z</time></trkpt><trkpt lat="43.5787583" lon="11.5323683"><ele>133.0</ele><time>2026-04-18T08:48:19.012Z</time></trkpt><trkpt lat="43.5788017" lon="11.5322883"><ele>133.0</ele><time>2026-04-18T08:48:20.011Z</time></trkpt><trkpt lat="43.5788467" lon="11.5322067"><ele>133.0</ele><time>2026-04-18T08:48:21.01Z</time></trkpt><trkpt lat="43.57889" lon="11.5321233"><ele>132.71428571428572</ele><time>2026-04-18T08:48:22.009Z</time></trkpt><trkpt lat="43.578935" lon="11.5320417"><ele>132.42857142857144</ele><time>2026-04-18T08:48:23.011Z</time></trkpt><trkpt lat="43.5789783" lon="11.5319567"><ele>132.14285714285714</ele><time>2026-04-18T08:48:24.009Z</time></trkpt><trkpt lat="43.57902" lon="11.5318767"><ele>131.85714285714286</ele><time>2026-04-18T08:48:25.009Z</time></trkpt><trkpt lat="43.5790633" lon="11.5317917"><ele>131.57142857142858</ele><time>2026-04-18T08:48:26.009Z</time></trkpt><trkpt lat="43.5791067" lon="11.5317117"><ele>131.28571428571428</ele><time>2026-04-18T08:48:27.01Z</time></trkpt><trkpt lat="43.5791483" lon="11.53163"><ele>131.0</ele><time>2026-04-18T08:48:28.009Z</time></trkpt><trkpt lat="43.5791933" lon="11.5315433"><ele>131.0</ele><time>2026-04-18T08:48:29.009Z</time></trkpt><trkpt lat="43.5792367" lon="11.53146"><ele>131.0</ele><time>2026-04-18T08:48:30.009Z</time></trkpt><trkpt lat="43.5792783" lon="11.5313833"><ele>131.0</ele><time>2026-04-18T08:48:31.009Z</time></trkpt><trkpt lat="43.5793183" lon="11.5313067"><ele>131.0</ele><time>2026-04-18T08:48:32.011Z</time></trkpt><trkpt lat="43.57936" lon="11.5312267"><ele>131.0</ele><time>2026-04-18T08:48:33.012Z</time></trkpt><trkpt lat="43.5794017" lon="11.53115"><ele>131.0</ele><time>2026-04-18T08:48:34.009Z</time></trkpt><trkpt lat="43.57944" lon="11.5310783"><ele>131.0</ele><time>2026-04-18T08:48:35.01Z</time></trkpt><trkpt lat="43.57948" lon="11.5310067"><ele>130.71428571428572</ele><time>2026-04-18T08:48:36.009Z</time></trkpt><trkpt lat="43.57952" lon="11.5309317"><ele>130.42857142857144</ele><time>2026-04-18T08:48:37.009Z</time></trkpt><trkpt lat="43.5795583" lon="11.53086"><ele>130.14285714285714</ele><time>2026-04-18T08:48:38.011Z</time></trkpt><trkpt lat="43.5795967" lon="11.5307833"><ele>129.85714285714286</ele><time>2026-04-18T08:48:39.01Z</time></trkpt><trkpt lat="43.5796383" lon="11.5307133"><ele>129.57142857142856</ele><time>2026-04-18T08:48:40.011Z</time></trkpt><trkpt lat="43.5796817" lon="11.5306383"><ele>129.28571428571428</ele><time>2026-04-18T08:48:41.01Z</time></trkpt><trkpt lat="43.579725" lon="11.5305617"><ele>129.0</ele><time>2026-04-18T08:48:42.009Z</time></trkpt><trkpt lat="43.57977" lon="11.5304917"><ele>128.99999999999997</ele><time>2026-04-18T08:48:43.01Z</time></trkpt><trkpt lat="43.579815" lon="11.53042"><ele>129.0</ele><time>2026-04-18T08:48:44.01Z</time></trkpt><trkpt lat="43.5798633" lon="11.5303517"><ele>129.0</ele><time>2026-04-18T08:48:45.011Z</time></trkpt><trkpt lat="43.5799167" lon="11.5302833"><ele>129.0</ele><time>2026-04-18T08:48:46.009Z</time></trkpt><trkpt lat="43.57997" lon="11.53022"><ele>129.0</ele><time>2026-04-18T08:48:47.008Z</time></trkpt><trkpt lat="43.580025" lon="11.530155"><ele>128.99999999999997</ele><time>2026-04-18T08:48:48.01Z</time></trkpt><trkpt lat="43.5800783" lon="11.5300933"><ele>129.0</ele><time>2026-04-18T08:48:49.01Z</time></trkpt><trkpt lat="43.5801367" lon="11.5300383"><ele>128.99999999999997</ele><time>2026-04-18T08:48:50.011Z</time></trkpt><trkpt lat="43.580195" lon="11.52999"><ele>129.0</ele><time>2026-04-18T08:48:51.01Z</time></trkpt><trkpt lat="43.580255" lon="11.52994"><ele>129.0</ele><time>2026-04-18T08:48:52.01Z</time></trkpt><trkpt lat="43.5803133" lon="11.5298933"><ele>129.0</ele><time>2026-04-18T08:48:53.01Z</time></trkpt><trkpt lat="43.5803717" lon="11.5298467"><ele>129.0</ele><time>2026-04-18T08:48:54.009Z</time></trkpt><trkpt lat="43.58043" lon="11.529795"><ele>128.99999999999997</ele><time>2026-04-18T08:48:55.01Z</time></trkpt><trkpt lat="43.5804883" lon="11.5297433"><ele>129.0</ele><time>2026-04-18T08:48:56.013Z</time></trkpt><trkpt lat="43.580545" lon="11.529685"><ele>128.99999999999997</ele><time>2026-04-18T08:48:57.012Z</time></trkpt><trkpt lat="43.5806" lon="11.5296267"><ele>129.0</ele><time>2026-04-18T08:48:58.009Z</time></trkpt><trkpt lat="43.580655" lon="11.5295633"><ele>129.0</ele><time>2026-04-18T08:48:59.01Z</time></trkpt><trkpt lat="43.580705" lon="11.5294967"><ele>129.0</ele><time>2026-04-18T08:49:00.012Z</time></trkpt><trkpt lat="43.5807483" lon="11.5294267"><ele>129.0</ele><time>2026-04-18T08:49:01.012Z</time></trkpt><trkpt lat="43.5807933" lon="11.5293583"><ele>128.99999999999997</ele><time>2026-04-18T08:49:02.011Z</time></trkpt><trkpt lat="43.5808383" lon="11.5292867"><ele>129.0</ele><time>2026-04-18T08:49:03.01Z</time></trkpt><trkpt lat="43.58088" lon="11.52921"><ele>128.99999999999997</ele><time>2026-04-18T08:49:04.009Z</time></trkpt><trkpt lat="43.5809167" lon="11.5291317"><ele>129.0</ele><time>2026-04-18T08:49:05.008Z</time></trkpt><trkpt lat="43.58095" lon="11.529055"><ele>129.0</ele><time>2026-04-18T08:49:06.011Z</time></trkpt><trkpt lat="43.5809833" lon="11.5289733"><ele>129.0</ele><time>2026-04-18T08:49:07.011Z</time></trkpt><trkpt lat="43.581015" lon="11.52889"><ele>129.0</ele><time>2026-04-18T08:49:08.01Z</time></trkpt><trkpt lat="43.581045" lon="11.528805"><ele>128.99999999999997</ele><time>2026-04-18T08:49:09.012Z</time></trkpt><trkpt lat="43.5810733" lon="11.5287233"><ele>129.0</ele><time>2026-04-18T08:49:10.01Z</time></trkpt><trkpt lat="43.5811033" lon="11.5286383"><ele>129.28571428571428</ele><time>2026-04-18T08:49:11.01Z</time></trkpt><trkpt lat="43.5811317" lon="11.5285517"><ele>129.57142857142856</ele><time>2026-04-18T08:49:12.012Z</time></trkpt><trkpt lat="43.5811617" lon="11.5284667"><ele>129.85714285714286</ele><time>2026-04-18T08:49:13.01Z</time></trkpt><trkpt lat="43.5811917" lon="11.5283783"><ele>130.14285714285714</ele><time>2026-04-18T08:49:14.01Z</time></trkpt><trkpt lat="43.5812183" lon="11.5282933"><ele>130.42857142857144</ele><time>2026-04-18T08:49:15.011Z</time></trkpt><trkpt lat="43.5812483" lon="11.5282083"><ele>130.71428571428572</ele><time>2026-04-18T08:49:16.011Z</time></trkpt><trkpt lat="43.5812783" lon="11.528125"><ele>131.0</ele><time>2026-04-18T08:49:17.012Z</time></trkpt><trkpt lat="43.581305" lon="11.52804"><ele>131.42857142857144</ele><time>2026-04-18T08:49:18.012Z</time></trkpt><trkpt lat="43.5813317" lon="11.5279567"><ele>131.85714285714286</ele><time>2026-04-18T08:49:19.012Z</time></trkpt><trkpt lat="43.5813617" lon="11.5278733"><ele>132.28571428571428</ele><time>2026-04-18T08:49:20.01Z</time></trkpt><trkpt lat="43.58139" lon="11.5277917"><ele>132.71428571428572</ele><time>2026-04-18T08:49:21.012Z</time></trkpt><trkpt lat="43.58142" lon="11.5277067"><ele>133.14285714285714</ele><time>2026-04-18T08:49:22.011Z</time></trkpt><trkpt lat="43.5814517" lon="11.5276217"><ele>133.57142857142858</ele><time>2026-04-18T08:49:23.009Z</time></trkpt><trkpt lat="43.5814833" lon="11.5275317"><ele>134.0</ele><time>2026-04-18T08:49:24.011Z</time></trkpt><trkpt lat="43.5815167" lon="11.5274467"><ele>134.0</ele><time>2026-04-18T08:49:25.011Z</time></trkpt><trkpt lat="43.58155" lon="11.52736"><ele>134.0</ele><time>2026-04-18T08:49:26.011Z</time></trkpt><trkpt lat="43.5815833" lon="11.5272717"><ele>134.0</ele><time>2026-04-18T08:49:27.011Z</time></trkpt><trkpt lat="43.5816183" lon="11.52718"><ele>134.0</ele><time>2026-04-18T08:49:28.01Z</time></trkpt><trkpt lat="43.581655" lon="11.52709"><ele>134.0</ele><time>2026-04-18T08:49:29.01Z</time></trkpt><trkpt lat="43.5816917" lon="11.527005"><ele>134.0</ele><time>2026-04-18T08:49:30.012Z</time></trkpt><trkpt lat="43.5817267" lon="11.526925"><ele>134.0</ele><time>2026-04-18T08:49:31.009Z</time></trkpt><trkpt lat="43.581765" lon="11.52684"><ele>133.85714285714286</ele><time>2026-04-18T08:49:32.011Z</time></trkpt><trkpt lat="43.5818" lon="11.526755"><ele>133.71428571428572</ele><time>2026-04-18T08:49:33.009Z</time></trkpt><trkpt lat="43.5818333" lon="11.52667"><ele>133.57142857142856</ele><time>2026-04-18T08:49:34.01Z</time></trkpt><trkpt lat="43.5818717" lon="11.5265833"><ele>133.42857142857144</ele><time>2026-04-18T08:49:35.009Z</time></trkpt><trkpt lat="43.5819117" lon="11.5265"><ele>133.28571428571428</ele><time>2026-04-18T08:49:36.009Z</time></trkpt><trkpt lat="43.58195" lon="11.5264217"><ele>133.14285714285714</ele><time>2026-04-18T08:49:37.01Z</time></trkpt><trkpt lat="43.5819883" lon="11.5263417"><ele>133.0</ele><time>2026-04-18T08:49:38.011Z</time></trkpt><trkpt lat="43.5820283" lon="11.5262633"><ele>133.28571428571428</ele><time>2026-04-18T08:49:39.01Z</time></trkpt><trkpt lat="43.5820667" lon="11.5261833"><ele>133.57142857142856</ele><time>2026-04-18T08:49:40.012Z</time></trkpt><trkpt lat="43.5821033" lon="11.5261083"><ele>133.85714285714286</ele><time>2026-04-18T08:49:41.009Z</time></trkpt><trkpt lat="43.5821417" lon="11.526035"><ele>134.14285714285714</ele><time>2026-04-18T08:49:42.011Z</time></trkpt><trkpt lat="43.58218" lon="11.52596"><ele>134.42857142857142</ele><time>2026-04-18T08:49:43.009Z</time></trkpt><trkpt lat="43.58222" lon="11.5258833"><ele>134.71428571428572</ele><time>2026-04-18T08:49:44.01Z</time></trkpt><trkpt lat="43.58226" lon="11.525805"><ele>135.0</ele><time>2026-04-18T08:49:45.011Z</time></trkpt><trkpt lat="43.5823" lon="11.5257267"><ele>135.0</ele><time>2026-04-18T08:49:46.011Z</time></trkpt><trkpt lat="43.5823383" lon="11.5256567"><ele>135.0</ele><time>2026-04-18T08:49:47.011Z</time></trkpt><trkpt lat="43.5823783" lon="11.5255833"><ele>135.0</ele><time>2026-04-18T08:49:48.01Z</time></trkpt><trkpt lat="43.58242" lon="11.5255083"><ele>135.0</ele><time>2026-04-18T08:49:49.012Z</time></trkpt><trkpt lat="43.5824633" lon="11.52543"><ele>135.0</ele><time>2026-04-18T08:49:50.01Z</time></trkpt><trkpt lat="43.5825067" lon="11.52535"><ele>135.0</ele><time>2026-04-18T08:49:51.011Z</time></trkpt><trkpt lat="43.58255" lon="11.5252733"><ele>135.0</ele><time>2026-04-18T08:49:52.01Z</time></trkpt><trkpt lat="43.5825983" lon="11.525195"><ele>134.57142857142856</ele><time>2026-04-18T08:49:53.01Z</time></trkpt><trkpt lat="43.582645" lon="11.5251167"><ele>134.14285714285714</ele><time>2026-04-18T08:49:54.01Z</time></trkpt><trkpt lat="43.5826917" lon="11.52504"><ele>133.71428571428572</ele><time>2026-04-18T08:49:55.011Z</time></trkpt><trkpt lat="43.5827367" lon="11.5249683"><ele>133.28571428571428</ele><time>2026-04-18T08:49:56.011Z</time></trkpt><trkpt lat="43.5827833" lon="11.5248917"><ele>132.85714285714286</ele><time>2026-04-18T08:49:57.011Z</time></trkpt><trkpt lat="43.58283" lon="11.524815"><ele>132.42857142857142</ele><time>2026-04-18T08:49:58.011Z</time></trkpt><trkpt lat="43.5828767" lon="11.5247433"><ele>132.0</ele><time>2026-04-18T08:49:59.01Z</time></trkpt><trkpt lat="43.5829233" lon="11.524675"><ele>132.16666666666666</ele><time>2026-04-18T08:50:00.011Z</time></trkpt><trkpt lat="43.582975" lon="11.5246033"><ele>132.33333333333334</ele><time>2026-04-18T08:50:01.011Z</time></trkpt><trkpt lat="43.5830267" lon="11.5245267"><ele>132.5</ele><time>2026-04-18T08:50:02.01Z</time></trkpt><trkpt lat="43.5830783" lon="11.52445"><ele>132.66666666666669</ele><time>2026-04-18T08:50:03.01Z</time></trkpt><trkpt lat="43.58313" lon="11.5243683"><ele>132.83333333333334</ele><time>2026-04-18T08:50:04.01Z</time></trkpt><trkpt lat="43.583185" lon="11.52429"><ele>133.0</ele><time>2026-04-18T08:50:05.01Z</time></trkpt><trkpt lat="43.583235" lon="11.524215"><ele>133.0</ele><time>2026-04-18T08:50:06.013Z</time></trkpt><trkpt lat="43.583285" lon="11.52414"><ele>133.0</ele><time>2026-04-18T08:50:07.01Z</time></trkpt><trkpt lat="43.583335" lon="11.5240667"><ele>133.0</ele><time>2026-04-18T08:50:08.01Z</time></trkpt><trkpt lat="43.5833867" lon="11.523995"><ele>133.0</ele><time>2026-04-18T08:50:09.01Z</time></trkpt><trkpt lat="43.5834383" lon="11.5239233"><ele>133.0</ele><time>2026-04-18T08:50:10.011Z</time></trkpt><trkpt lat="43.5834883" lon="11.52385"><ele>133.0</ele><time>2026-04-18T08:50:11.012Z</time></trkpt><trkpt lat="43.5835433" lon="11.5237767"><ele>133.0</ele><time>2026-04-18T08:50:12.009Z</time></trkpt><trkpt lat="43.5835967" lon="11.5237"><ele>133.0</ele><time>2026-04-18T08:50:13.01Z</time></trkpt><trkpt lat="43.5836483" lon="11.5236233"><ele>133.0</ele><time>2026-04-18T08:50:14.011Z</time></trkpt><trkpt lat="43.5837017" lon="11.5235483"><ele>133.0</ele><time>2026-04-18T08:50:15.012Z</time></trkpt><trkpt lat="43.583755" lon="11.5234683"><ele>133.0</ele><time>2026-04-18T08:50:16.01Z</time></trkpt><trkpt lat="43.5838117" lon="11.5233933"><ele>133.0</ele><time>2026-04-18T08:50:17.01Z</time></trkpt><trkpt lat="43.5838667" lon="11.5233217"><ele>133.0</ele><time>2026-04-18T08:50:18.01Z</time></trkpt><trkpt lat="43.5839183" lon="11.52325"><ele>133.33333333333334</ele><time>2026-04-18T08:50:19.012Z</time></trkpt><trkpt lat="43.5839733" lon="11.5231783"><ele>133.66666666666669</ele><time>2026-04-18T08:50:20.012Z</time></trkpt><trkpt lat="43.5840283" lon="11.5231067"><ele>134.0</ele><time>2026-04-18T08:50:21.012Z</time></trkpt><trkpt lat="43.5840833" lon="11.52303"><ele>134.33333333333334</ele><time>2026-04-18T08:50:22.011Z</time></trkpt><trkpt lat="43.5841383" lon="11.5229517"><ele>134.66666666666666</ele><time>2026-04-18T08:50:23.012Z</time></trkpt><trkpt lat="43.58419" lon="11.5228767"><ele>135.0</ele><time>2026-04-18T08:50:24.013Z</time></trkpt><trkpt lat="43.5842417" lon="11.5228"><ele>134.33333333333334</ele><time>2026-04-18T08:50:25.011Z</time></trkpt><trkpt lat="43.584295" lon="11.5227217"><ele>133.66666666666666</ele><time>2026-04-18T08:50:26.013Z</time></trkpt><trkpt lat="43.5843467" lon="11.5226483"><ele>133.0</ele><time>2026-04-18T08:50:27.011Z</time></trkpt><trkpt lat="43.5843983" lon="11.522575"><ele>132.33333333333331</ele><time>2026-04-18T08:50:28.011Z</time></trkpt><trkpt lat="43.5844533" lon="11.5225"><ele>131.66666666666666</ele><time>2026-04-18T08:50:29.009Z</time></trkpt><trkpt lat="43.5845083" lon="11.5224233"><ele>131.0</ele><time>2026-04-18T08:50:30.01Z</time></trkpt><trkpt lat="43.5845617" lon="11.52235"><ele>131.14285714285714</ele><time>2026-04-18T08:50:31.011Z</time></trkpt><trkpt lat="43.584615" lon="11.5222767"><ele>131.2857142857143</ele><time>2026-04-18T08:50:32.01Z</time></trkpt><trkpt lat="43.5846617" lon="11.52221"><ele>131.42857142857144</ele><time>2026-04-18T08:50:33.01Z</time></trkpt><trkpt lat="43.5847133" lon="11.5221367"><ele>131.57142857142858</ele><time>2026-04-18T08:50:34.01Z</time></trkpt><trkpt lat="43.5847633" lon="11.52206"><ele>131.71428571428572</ele><time>2026-04-18T08:50:35.011Z</time></trkpt><trkpt lat="43.5848133" lon="11.521985"><ele>131.85714285714286</ele><time>2026-04-18T08:50:36.009Z</time></trkpt><trkpt lat="43.5848633" lon="11.5219117"><ele>132.0</ele><time>2026-04-18T08:50:37.011Z</time></trkpt><trkpt lat="43.5849183" lon="11.5218333"><ele>132.0</ele><time>2026-04-18T08:50:38.011Z</time></trkpt><trkpt lat="43.58497" lon="11.52176"><ele>132.0</ele><time>2026-04-18T08:50:39.011Z</time></trkpt><trkpt lat="43.5850233" lon="11.521685"><ele>132.0</ele><time>2026-04-18T08:50:40.011Z</time></trkpt><trkpt lat="43.5850733" lon="11.5216183"><ele>132.0</ele><time>2026-04-18T08:50:41.01Z</time></trkpt><trkpt lat="43.5851233" lon="11.521545"><ele>132.0</ele><time>2026-04-18T08:50:42.014Z</time></trkpt><trkpt lat="43.585175" lon="11.52147"><ele>132.0</ele><time>2026-04-18T08:50:43.01Z</time></trkpt><trkpt lat="43.585225" lon="11.521395"><ele>132.0</ele><time>2026-04-18T08:50:44.011Z</time></trkpt><trkpt lat="43.5852767" lon="11.5213233"><ele>132.0</ele><time>2026-04-18T08:50:45.011Z</time></trkpt><trkpt lat="43.58533" lon="11.52125"><ele>132.0</ele><time>2026-04-18T08:50:46.013Z</time></trkpt><trkpt lat="43.5853833" lon="11.521175"><ele>132.0</ele><time>2026-04-18T08:50:47.011Z</time></trkpt><trkpt lat="43.585435" lon="11.5211033"><ele>132.0</ele><time>2026-04-18T08:50:48.011Z</time></trkpt><trkpt lat="43.5854883" lon="11.5210267"><ele>132.0</ele><time>2026-04-18T08:50:49.012Z</time></trkpt><trkpt lat="43.58554" lon="11.5209533"><ele>132.0</ele><time>2026-04-18T08:50:50.012Z</time></trkpt><trkpt lat="43.5855933" lon="11.52088"><ele>132.33333333333334</ele><time>2026-04-18T08:50:51.011Z</time></trkpt><trkpt lat="43.5856467" lon="11.5208067"><ele>132.66666666666666</ele><time>2026-04-18T08:50:52.011Z</time></trkpt><trkpt lat="43.5857" lon="11.5207333"><ele>133.0</ele><time>2026-04-18T08:50:53.012Z</time></trkpt><trkpt lat="43.5857533" lon="11.52066"><ele>133.33333333333331</ele><time>2026-04-18T08:50:54.011Z</time></trkpt><trkpt lat="43.5858067" lon="11.520585"><ele>133.66666666666666</ele><time>2026-04-18T08:50:55.011Z</time></trkpt><trkpt lat="43.5858583" lon="11.52051"><ele>134.0</ele><time>2026-04-18T08:50:56.01Z</time></trkpt><trkpt lat="43.5859133" lon="11.5204383"><ele>133.71428571428572</ele><time>2026-04-18T08:50:57.009Z</time></trkpt><trkpt lat="43.5859667" lon="11.520365"><ele>133.42857142857142</ele><time>2026-04-18T08:50:58.012Z</time></trkpt><trkpt lat="43.58602" lon="11.5202917"><ele>133.14285714285714</ele><time>2026-04-18T08:50:59.01Z</time></trkpt><trkpt lat="43.5860717" lon="11.52022"><ele>132.85714285714286</ele><time>2026-04-18T08:51:00.011Z</time></trkpt><trkpt lat="43.5861233" lon="11.5201483"><ele>132.57142857142858</ele><time>2026-04-18T08:51:01.012Z</time></trkpt><trkpt lat="43.5861767" lon="11.520075"><ele>132.28571428571428</ele><time>2026-04-18T08:51:02.01Z</time></trkpt><trkpt lat="43.58623" lon="11.5200033"><ele>132.0</ele><time>2026-04-18T08:51:03.009Z</time></trkpt><trkpt lat="43.5862833" lon="11.5199317"><ele>132.0</ele><time>2026-04-18T08:51:04.01Z</time></trkpt><trkpt lat="43.5863367" lon="11.5198567"><ele>132.0</ele><time>2026-04-18T08:51:05.009Z</time></trkpt><trkpt lat="43.58639" lon="11.519785"><ele>132.0</ele><time>2026-04-18T08:51:06.01Z</time></trkpt><trkpt lat="43.5864433" lon="11.5197083"><ele>132.0</ele><time>2026-04-18T08:51:07.012Z</time></trkpt><trkpt lat="43.5864933" lon="11.5196367"><ele>132.0</ele><time>2026-04-18T08:51:08.013Z</time></trkpt><trkpt lat="43.5865467" lon="11.5195617"><ele>132.0</ele><time>2026-04-18T08:51:09.012Z</time></trkpt><trkpt lat="43.5866" lon="11.5194867"><ele>131.66666666666666</ele><time>2026-04-18T08:51:10.009Z</time></trkpt><trkpt lat="43.586655" lon="11.5194067"><ele>131.33333333333334</ele><time>2026-04-18T08:51:11.01Z</time></trkpt><trkpt lat="43.5867083" lon="11.51933"><ele>131.0</ele><time>2026-04-18T08:51:12.011Z</time></trkpt><trkpt lat="43.5867617" lon="11.51925"><ele>130.66666666666669</ele><time>2026-04-18T08:51:13.012Z</time></trkpt><trkpt lat="43.5868133" lon="11.5191717"><ele>130.33333333333334</ele><time>2026-04-18T08:51:14.011Z</time></trkpt><trkpt lat="43.586865" lon="11.519095"><ele>130.0</ele><time>2026-04-18T08:51:15.01Z</time></trkpt><trkpt lat="43.5869183" lon="11.5190233"><ele>130.0</ele><time>2026-04-18T08:51:16.01Z</time></trkpt><trkpt lat="43.5869717" lon="11.5189517"><ele>130.0</ele><time>2026-04-18T08:51:17.012Z</time></trkpt><trkpt lat="43.587025" lon="11.5188767"><ele>130.0</ele><time>2026-04-18T08:51:18.01Z</time></trkpt><trkpt lat="43.5870783" lon="11.5188033"><ele>130.0</ele><time>2026-04-18T08:51:19.01Z</time></trkpt><trkpt lat="43.5871317" lon="11.51873"><ele>130.0</ele><time>2026-04-18T08:51:20.01Z</time></trkpt><trkpt lat="43.587185" lon="11.5186517"><ele>130.0</ele><time>2026-04-18T08:51:21.01Z</time></trkpt><trkpt lat="43.58724" lon="11.518575"><ele>130.14285714285717</ele><time>2026-04-18T08:51:22.011Z</time></trkpt><trkpt lat="43.587295" lon="11.5184967"><ele>130.28571428571428</ele><time>2026-04-18T08:51:23.01Z</time></trkpt><trkpt lat="43.5873433" lon="11.51842"><ele>130.42857142857144</ele><time>2026-04-18T08:51:24.011Z</time></trkpt><trkpt lat="43.5873933" lon="11.518345"><ele>130.57142857142858</ele><time>2026-04-18T08:51:25.011Z</time></trkpt><trkpt lat="43.587445" lon="11.51827"><ele>130.71428571428572</ele><time>2026-04-18T08:51:26.011Z</time></trkpt><trkpt lat="43.587495" lon="11.5181983"><ele>130.85714285714286</ele><time>2026-04-18T08:51:27.01Z</time></trkpt><trkpt lat="43.587545" lon="11.5181233"><ele>131.0</ele><time>2026-04-18T08:51:28.012Z</time></trkpt><trkpt lat="43.5875933" lon="11.5180467"><ele>131.0</ele><time>2026-04-18T08:51:29.011Z</time></trkpt><trkpt lat="43.587645" lon="11.5179717"><ele>131.0</ele><time>2026-04-18T08:51:30.012Z</time></trkpt><trkpt lat="43.5876967" lon="11.5178983"><ele>131.0</ele><time>2026-04-18T08:51:31.009Z</time></trkpt><trkpt lat="43.5877517" lon="11.5178283"><ele>131.0</ele><time>2026-04-18T08:51:32.011Z</time></trkpt><trkpt lat="43.587805" lon="11.5177583"><ele>131.0</ele><time>2026-04-18T08:51:33.01Z</time></trkpt><trkpt lat="43.587855" lon="11.5176867"><ele>131.0</ele><time>2026-04-18T08:51:34.013Z</time></trkpt><trkpt lat="43.5879067" lon="11.5176183"><ele>131.0</ele><time>2026-04-18T08:51:35.012Z</time></trkpt><trkpt lat="43.58796" lon="11.51755"><ele>131.14285714285714</ele><time>2026-04-18T08:51:36.009Z</time></trkpt><trkpt lat="43.5880133" lon="11.51748"><ele>131.2857142857143</ele><time>2026-04-18T08:51:37.011Z</time></trkpt><trkpt lat="43.5880633" lon="11.5174083"><ele>131.42857142857144</ele><time>2026-04-18T08:51:38.011Z</time></trkpt><trkpt lat="43.5881133" lon="11.5173383"><ele>131.57142857142858</ele><time>2026-04-18T08:51:39.013Z</time></trkpt><trkpt lat="43.588165" lon="11.5172667"><ele>131.71428571428572</ele><time>2026-04-18T08:51:40.01Z</time></trkpt><trkpt lat="43.5882167" lon="11.5171933"><ele>131.85714285714286</ele><time>2026-04-18T08:51:41.009Z</time></trkpt><trkpt lat="43.58827" lon="11.51712"><ele>132.0</ele><time>2026-04-18T08:51:42.009Z</time></trkpt><trkpt lat="43.5883233" lon="11.5170483"><ele>132.0</ele><time>2026-04-18T08:51:43.01Z</time></trkpt><trkpt lat="43.5883767" lon="11.516975"><ele>132.0</ele><time>2026-04-18T08:51:44.01Z</time></trkpt><trkpt lat="43.5884267" lon="11.5169033"><ele>132.0</ele><time>2026-04-18T08:51:45.01Z</time></trkpt><trkpt lat="43.5884767" lon="11.516835"><ele>132.0</ele><time>2026-04-18T08:51:46.01Z</time></trkpt><trkpt lat="43.5885283" lon="11.5167683"><ele>132.0</ele><time>2026-04-18T08:51:47.009Z</time></trkpt><trkpt lat="43.58858" lon="11.5166983"><ele>132.0</ele><time>2026-04-18T08:51:48.011Z</time></trkpt><trkpt lat="43.58863" lon="11.5166283"><ele>132.0</ele><time>2026-04-18T08:51:49.012Z</time></trkpt><trkpt lat="43.58868" lon="11.5165567"><ele>132.33333333333334</ele><time>2026-04-18T08:51:50.012Z</time></trkpt><trkpt lat="43.5887317" lon="11.51648"><ele>132.66666666666666</ele><time>2026-04-18T08:51:51.011Z</time></trkpt><trkpt lat="43.588785" lon="11.5164033"><ele>133.0</ele><time>2026-04-18T08:51:52.011Z</time></trkpt><trkpt lat="43.5888383" lon="11.516325"><ele>133.33333333333331</ele><time>2026-04-18T08:51:53.011Z</time></trkpt><trkpt lat="43.58889" lon="11.5162483"><ele>133.66666666666666</ele><time>2026-04-18T08:51:54.011Z</time></trkpt><trkpt lat="43.5889417" lon="11.51617"><ele>134.0</ele><time>2026-04-18T08:51:55.012Z</time></trkpt><trkpt lat="43.588995" lon="11.5160933"><ele>134.0</ele><time>2026-04-18T08:51:56.012Z</time></trkpt><trkpt lat="43.5890483" lon="11.5160183"><ele>134.0</ele><time>2026-04-18T08:51:57.012Z</time></trkpt><trkpt lat="43.5891017" lon="11.5159467"><ele>134.0</ele><time>2026-04-18T08:51:58.011Z</time></trkpt><trkpt lat="43.589155" lon="11.5158783"><ele>134.0</ele><time>2026-04-18T08:51:59.011Z</time></trkpt><trkpt lat="43.58921" lon="11.5158133"><ele>134.0</ele><time>2026-04-18T08:52:00.011Z</time></trkpt><trkpt lat="43.589265" lon="11.5157467"><ele>134.0</ele><time>2026-04-18T08:52:01.012Z</time></trkpt><trkpt lat="43.589325" lon="11.51568"><ele>134.0</ele><time>2026-04-18T08:52:02.011Z</time></trkpt><trkpt lat="43.5893833" lon="11.5156183"><ele>134.0</ele><time>2026-04-18T08:52:03.011Z</time></trkpt><trkpt lat="43.589445" lon="11.5155567"><ele>134.0</ele><time>2026-04-18T08:52:04.013Z</time></trkpt><trkpt lat="43.58951" lon="11.5155"><ele>134.0</ele><time>2026-04-18T08:52:05.01Z</time></trkpt><trkpt lat="43.589575" lon="11.515445"><ele>134.0</ele><time>2026-04-18T08:52:06.012Z</time></trkpt><trkpt lat="43.5896433" lon="11.51539"><ele>134.0</ele><time>2026-04-18T08:52:07.011Z</time></trkpt><trkpt lat="43.5897117" lon="11.5153417"><ele>134.0</ele><time>2026-04-18T08:52:08.011Z</time></trkpt><trkpt lat="43.5897817" lon="11.5152933"><ele>133.66666666666666</ele><time>2026-04-18T08:52:09.01Z</time></trkpt><trkpt lat="43.5898517" lon="11.5152533"><ele>133.33333333333331</ele><time>2026-04-18T08:52:10.011Z</time></trkpt><trkpt lat="43.5899217" lon="11.5152183"><ele>133.0</ele><time>2026-04-18T08:52:11.011Z</time></trkpt><trkpt lat="43.5899967" lon="11.5151867"><ele>132.66666666666666</ele><time>2026-04-18T08:52:12.01Z</time></trkpt><trkpt lat="43.5900683" lon="11.51516"><ele>132.33333333333334</ele><time>2026-04-18T08:52:13.009Z</time></trkpt><trkpt lat="43.5901467" lon="11.51514"><ele>132.0</ele><time>2026-04-18T08:52:14.012Z</time></trkpt><trkpt lat="43.5902233" lon="11.5151267"><ele>132.0</ele><time>2026-04-18T08:52:15.011Z</time></trkpt><trkpt lat="43.5903" lon="11.5151217"><ele>132.0</ele><time>2026-04-18T08:52:16.013Z</time></trkpt><trkpt lat="43.5903767" lon="11.51512"><ele>132.0</ele><time>2026-04-18T08:52:17.012Z</time></trkpt><trkpt lat="43.590455" lon="11.5151267"><ele>132.0</ele><time>2026-04-18T08:52:18.013Z</time></trkpt><trkpt lat="43.590535" lon="11.5151367"><ele>132.0</ele><time>2026-04-18T08:52:19.01Z</time></trkpt><trkpt lat="43.5906133" lon="11.5151533"><ele>132.0</ele><time>2026-04-18T08:52:20.011Z</time></trkpt><trkpt lat="43.5906867" lon="11.5151783"><ele>131.83333333333334</ele><time>2026-04-18T08:52:21.01Z</time></trkpt><trkpt lat="43.5907633" lon="11.515205"><ele>131.66666666666666</ele><time>2026-04-18T08:52:22.01Z</time></trkpt><trkpt lat="43.5908367" lon="11.5152367"><ele>131.5</ele><time>2026-04-18T08:52:23.011Z</time></trkpt><trkpt lat="43.59091" lon="11.5152733"><ele>131.33333333333331</ele><time>2026-04-18T08:52:24.01Z</time></trkpt><trkpt lat="43.5909767" lon="11.5153183"><ele>131.16666666666666</ele><time>2026-04-18T08:52:25.009Z</time></trkpt><trkpt lat="43.591045" lon="11.5153683"><ele>131.0</ele><time>2026-04-18T08:52:26.011Z</time></trkpt><trkpt lat="43.59111" lon="11.51542"><ele>131.66666666666666</ele><time>2026-04-18T08:52:27.009Z</time></trkpt><trkpt lat="43.591175" lon="11.5154783"><ele>132.33333333333331</ele><time>2026-04-18T08:52:28.01Z</time></trkpt><trkpt lat="43.59124" lon="11.5155383"><ele>133.0</ele><time>2026-04-18T08:52:29.008Z</time></trkpt><trkpt lat="43.5913017" lon="11.5156"><ele>133.66666666666666</ele><time>2026-04-18T08:52:30.009Z</time></trkpt><trkpt lat="43.5913617" lon="11.5156633"><ele>134.33333333333334</ele><time>2026-04-18T08:52:31.008Z</time></trkpt><trkpt lat="43.5914217" lon="11.5157283"><ele>135.0</ele><time>2026-04-18T08:52:32.011Z</time></trkpt><trkpt lat="43.59148" lon="11.5157917"><ele>135.0</ele><time>2026-04-18T08:52:33.009Z</time></trkpt><trkpt lat="43.5915383" lon="11.5158567"><ele>135.0</ele><time>2026-04-18T08:52:34.011Z</time></trkpt><trkpt lat="43.591595" lon="11.5159233"><ele>135.0</ele><time>2026-04-18T08:52:35.01Z</time></trkpt><trkpt lat="43.5916533" lon="11.5159883"><ele>135.0</ele><time>2026-04-18T08:52:36.008Z</time></trkpt><trkpt lat="43.5917117" lon="11.516055"><ele>135.0</ele><time>2026-04-18T08:52:37.01Z</time></trkpt><trkpt lat="43.59177" lon="11.5161217"><ele>135.0</ele><time>2026-04-18T08:52:38.009Z</time></trkpt><trkpt lat="43.5918267" lon="11.5161917"><ele>135.0</ele><time>2026-04-18T08:52:39.009Z</time></trkpt><trkpt lat="43.591885" lon="11.5162667"><ele>135.0</ele><time>2026-04-18T08:52:40.009Z</time></trkpt><trkpt lat="43.59194" lon="11.5163383"><ele>135.0</ele><time>2026-04-18T08:52:41.01Z</time></trkpt><trkpt lat="43.5919933" lon="11.5164083"><ele>135.0</ele><time>2026-04-18T08:52:42.012Z</time></trkpt><trkpt lat="43.592045" lon="11.516475"><ele>135.0</ele><time>2026-04-18T08:52:43.009Z</time></trkpt><trkpt lat="43.5921" lon="11.516525"><ele>135.0</ele><time>2026-04-18T08:52:44.009Z</time></trkpt><trkpt lat="43.5921667" lon="11.5165667"><ele>135.0</ele><time>2026-04-18T08:52:45.009Z</time></trkpt><trkpt lat="43.5922383" lon="11.51659"><ele>134.66666666666666</ele><time>2026-04-18T08:52:46.011Z</time></trkpt><trkpt lat="43.592315" lon="11.5166017"><ele>134.33333333333334</ele><time>2026-04-18T08:52:47.011Z</time></trkpt><trkpt lat="43.5923917" lon="11.5166083"><ele>134.0</ele><time>2026-04-18T08:52:48.009Z</time></trkpt><trkpt lat="43.5924667" lon="11.5166183"><ele>133.66666666666669</ele><time>2026-04-18T08:52:49.009Z</time></trkpt><trkpt lat="43.5925417" lon="11.5166333"><ele>133.33333333333334</ele><time>2026-04-18T08:52:50.01Z</time></trkpt><trkpt lat="43.5926133" lon="11.516645"><ele>133.0</ele><time>2026-04-18T08:52:51.011Z</time></trkpt><trkpt lat="43.59269" lon="11.5166517"><ele>133.0</ele><time>2026-04-18T08:52:52.009Z</time></trkpt><trkpt lat="43.59277" lon="11.5166417"><ele>133.0</ele><time>2026-04-18T08:52:53.009Z</time></trkpt><trkpt lat="43.5928433" lon="11.516615"><ele>133.0</ele><time>2026-04-18T08:52:54.01Z</time></trkpt><trkpt lat="43.592915" lon="11.516575"><ele>133.0</ele><time>2026-04-18T08:52:55.009Z</time></trkpt><trkpt lat="43.5929817" lon="11.5165233"><ele>133.0</ele><time>2026-04-18T08:52:56.01Z</time></trkpt><trkpt lat="43.593045" lon="11.5164633"><ele>133.0</ele><time>2026-04-18T08:52:57.01Z</time></trkpt><trkpt lat="43.5931083" lon="11.5164017"><ele>132.83333333333334</ele><time>2026-04-18T08:52:58.009Z</time></trkpt><trkpt lat="43.5931717" lon="11.5163467"><ele>132.66666666666669</ele><time>2026-04-18T08:52:59.01Z</time></trkpt><trkpt lat="43.5932433" lon="11.51631"><ele>132.5</ele><time>2026-04-18T08:53:00.009Z</time></trkpt><trkpt lat="43.5933183" lon="11.516305"><ele>132.33333333333334</ele><time>2026-04-18T08:53:01.009Z</time></trkpt><trkpt lat="43.5933983" lon="11.5163267"><ele>132.16666666666666</ele><time>2026-04-18T08:53:02.011Z</time></trkpt><trkpt lat="43.59348" lon="11.5163717"><ele>132.0</ele><time>2026-04-18T08:53:03.01Z</time></trkpt><trkpt lat="43.593555" lon="11.51642"><ele>132.0</ele><time>2026-04-18T08:53:04.011Z</time></trkpt><trkpt lat="43.5936267" lon="11.5164683"><ele>132.0</ele><time>2026-04-18T08:53:05.011Z</time></trkpt><trkpt lat="43.5937" lon="11.5165217"><ele>132.0</ele><time>2026-04-18T08:53:06.01Z</time></trkpt><trkpt lat="43.59377" lon="11.5165733"><ele>132.0</ele><time>2026-04-18T08:53:07.011Z</time></trkpt><trkpt lat="43.5938383" lon="11.51662"><ele>132.0</ele><time>2026-04-18T08:53:08.01Z</time></trkpt><trkpt lat="43.59391" lon="11.5166567"><ele>132.0</ele><time>2026-04-18T08:53:09.009Z</time></trkpt><trkpt lat="43.59398" lon="11.51669"><ele>132.28571428571428</ele><time>2026-04-18T08:53:10.009Z</time></trkpt><trkpt lat="43.5940517" lon="11.516715"><ele>132.57142857142858</ele><time>2026-04-18T08:53:11.01Z</time></trkpt><trkpt lat="43.5941283" lon="11.5167317"><ele>132.85714285714286</ele><time>2026-04-18T08:53:12.011Z</time></trkpt><trkpt lat="43.5942" lon="11.51675"><ele>133.14285714285714</ele><time>2026-04-18T08:53:13.011Z</time></trkpt><trkpt lat="43.5942717" lon="11.5167683"><ele>133.42857142857142</ele><time>2026-04-18T08:53:14.011Z</time></trkpt><trkpt lat="43.5943417" lon="11.5167783"><ele>133.71428571428572</ele><time>2026-04-18T08:53:15.011Z</time></trkpt><trkpt lat="43.5944117" lon="11.51679"><ele>134.0</ele><time>2026-04-18T08:53:16.009Z</time></trkpt><trkpt lat="43.5944783" lon="11.5167933"><ele>134.75</ele><time>2026-04-18T08:53:17.01Z</time></trkpt><trkpt lat="43.5946033" lon="11.5167817"><ele>135.5</ele><time>2026-04-18T08:53:19.01Z</time></trkpt><trkpt lat="43.59472" lon="11.51676"><ele>136.25</ele><time>2026-04-18T08:53:21.01Z</time></trkpt><trkpt lat="43.594825" lon="11.51673"><ele>137.0</ele><time>2026-04-18T08:53:23.01Z</time></trkpt><trkpt lat="43.59493" lon="11.516705"><ele>137.0</ele><time>2026-04-18T08:53:25.009Z</time></trkpt><trkpt lat="43.5950333" lon="11.5166917"><ele>137.0</ele><time>2026-04-18T08:53:27.009Z</time></trkpt><trkpt lat="43.595125" lon="11.5166867"><ele>137.0</ele><time>2026-04-18T08:53:29.009Z</time></trkpt><trkpt lat="43.5952367" lon="11.5166733"><ele>137.0</ele><time>2026-04-18T08:53:31.012Z</time></trkpt><trkpt lat="43.5953367" lon="11.516665"><ele>137.0</ele><time>2026-04-18T08:53:33.011Z</time></trkpt><trkpt lat="43.5954433" lon="11.516655"><ele>137.2857142857143</ele><time>2026-04-18T08:53:35.01Z</time></trkpt><trkpt lat="43.5955117" lon="11.5166517"><ele>137.57142857142858</ele><time>2026-04-18T08:53:36.01Z</time></trkpt><trkpt lat="43.59558" lon="11.5166483"><ele>137.85714285714286</ele><time>2026-04-18T08:53:37.011Z</time></trkpt><trkpt lat="43.595655" lon="11.5166483"><ele>138.14285714285717</ele><time>2026-04-18T08:53:38.01Z</time></trkpt><trkpt lat="43.595725" lon="11.5166433"><ele>138.42857142857144</ele><time>2026-04-18T08:53:39.012Z</time></trkpt><trkpt lat="43.595805" lon="11.516625"><ele>138.71428571428572</ele><time>2026-04-18T08:53:40.01Z</time></trkpt><trkpt lat="43.5958767" lon="11.5165983"><ele>139.0</ele><time>2026-04-18T08:53:41.01Z</time></trkpt><trkpt lat="43.59595" lon="11.516565"><ele>139.0</ele><time>2026-04-18T08:53:42.009Z</time></trkpt><trkpt lat="43.5960217" lon="11.516525"><ele>139.0</ele><time>2026-04-18T08:53:43.011Z</time></trkpt><trkpt lat="43.5961033" lon="11.5164883"><ele>139.0</ele><time>2026-04-18T08:53:44.011Z</time></trkpt><trkpt lat="43.596175" lon="11.5164483"><ele>139.0</ele><time>2026-04-18T08:53:45.012Z</time></trkpt><trkpt lat="43.5962433" lon="11.5164067"><ele>139.0</ele><time>2026-04-18T08:53:46.011Z</time></trkpt><trkpt lat="43.5963133" lon="11.5163683"><ele>139.0</ele><time>2026-04-18T08:53:47.011Z</time></trkpt><trkpt lat="43.596385" lon="11.5163267"><ele>139.0</ele><time>2026-04-18T08:53:48.01Z</time></trkpt><trkpt lat="43.5964517" lon="11.5162867"><ele>139.0</ele><time>2026-04-18T08:53:49.01Z</time></trkpt><trkpt lat="43.5965167" lon="11.5162433"><ele>139.0</ele><time>2026-04-18T08:53:50.01Z</time></trkpt><trkpt lat="43.5965767" lon="11.5161933"><ele>139.0</ele><time>2026-04-18T08:53:51.01Z</time></trkpt><trkpt lat="43.5966383" lon="11.5161383"><ele>139.0</ele><time>2026-04-18T08:53:52.01Z</time></trkpt><trkpt lat="43.5967017" lon="11.51608"><ele>139.0</ele><time>2026-04-18T08:53:53.01Z</time></trkpt><trkpt lat="43.5967633" lon="11.5160283"><ele>139.0</ele><time>2026-04-18T08:53:54.009Z</time></trkpt><trkpt lat="43.59683" lon="11.5159767"><ele>139.0</ele><time>2026-04-18T08:53:55.01Z</time></trkpt><trkpt lat="43.5968983" lon="11.5159233"><ele>139.0</ele><time>2026-04-18T08:53:56.009Z</time></trkpt><trkpt lat="43.5969683" lon="11.5158667"><ele>139.0</ele><time>2026-04-18T08:53:57.009Z</time></trkpt><trkpt lat="43.59703" lon="11.5158133"><ele>139.0</ele><time>2026-04-18T08:53:58.009Z</time></trkpt><trkpt lat="43.5970933" lon="11.5157483"><ele>139.0</ele><time>2026-04-18T08:53:59.01Z</time></trkpt><trkpt lat="43.59716" lon="11.5156817"><ele>139.0</ele><time>2026-04-18T08:54:00.009Z</time></trkpt><trkpt lat="43.5972383" lon="11.5156133"><ele>139.0</ele><time>2026-04-18T08:54:01.009Z</time></trkpt><trkpt lat="43.59732" lon="11.5155483"><ele>139.0</ele><time>2026-04-18T08:54:02.011Z</time></trkpt><trkpt lat="43.5974" lon="11.5154817"><ele>139.0</ele><time>2026-04-18T08:54:03.011Z</time></trkpt><trkpt lat="43.59748" lon="11.5154083"><ele>139.0</ele><time>2026-04-18T08:54:04.009Z</time></trkpt><trkpt lat="43.5975617" lon="11.5153317"><ele>139.0</ele><time>2026-04-18T08:54:05.014Z</time></trkpt><trkpt lat="43.5976417" lon="11.5152567"><ele>138.4</ele><time>2026-04-18T08:54:06.012Z</time></trkpt><trkpt lat="43.59772" lon="11.515185"><ele>137.8</ele><time>2026-04-18T08:54:07.011Z</time></trkpt><trkpt lat="43.5977917" lon="11.515105"><ele>137.2</ele><time>2026-04-18T08:54:08.011Z</time></trkpt><trkpt lat="43.59787" lon="11.5150283"><ele>136.6</ele><time>2026-04-18T08:54:09.011Z</time></trkpt><trkpt lat="43.5979417" lon="11.5149633"><ele>136.0</ele><time>2026-04-18T08:54:10.013Z</time></trkpt><trkpt lat="43.59801" lon="11.514895"><ele>136.0</ele><time>2026-04-18T08:54:11.01Z</time></trkpt><trkpt lat="43.598085" lon="11.5148217"><ele>136.0</ele><time>2026-04-18T08:54:12.01Z</time></trkpt><trkpt lat="43.5981617" lon="11.514745"><ele>136.0</ele><time>2026-04-18T08:54:13.011Z</time></trkpt><trkpt lat="43.59823" lon="11.514675"><ele>136.0</ele><time>2026-04-18T08:54:14.01Z</time></trkpt><trkpt lat="43.5982967" lon="11.5146033"><ele>136.0</ele><time>2026-04-18T08:54:15.012Z</time></trkpt><trkpt lat="43.598365" lon="11.5145317"><ele>136.0</ele><time>2026-04-18T08:54:16.011Z</time></trkpt><trkpt lat="43.5984333" lon="11.5144583"><ele>136.16666666666669</ele><time>2026-04-18T08:54:17.012Z</time></trkpt><trkpt lat="43.5985017" lon="11.514385"><ele>136.33333333333334</ele><time>2026-04-18T08:54:18.011Z</time></trkpt><trkpt lat="43.5985683" lon="11.5143167"><ele>136.5</ele><time>2026-04-18T08:54:19.01Z</time></trkpt><trkpt lat="43.5986433" lon="11.5142617"><ele>136.66666666666666</ele><time>2026-04-18T08:54:20.01Z</time></trkpt><trkpt lat="43.5987183" lon="11.51421"><ele>136.83333333333331</ele><time>2026-04-18T08:54:21.011Z</time></trkpt><trkpt lat="43.5987967" lon="11.51416"><ele>137.0</ele><time>2026-04-18T08:54:22.009Z</time></trkpt><trkpt lat="43.5988717" lon="11.5141083"><ele>137.0</ele><time>2026-04-18T08:54:23.011Z</time></trkpt><trkpt lat="43.5989467" lon="11.514055"><ele>137.0</ele><time>2026-04-18T08:54:24.011Z</time></trkpt><trkpt lat="43.5990267" lon="11.5140017"><ele>137.0</ele><time>2026-04-18T08:54:25.011Z</time></trkpt><trkpt lat="43.5991033" lon="11.513945"><ele>137.0</ele><time>2026-04-18T08:54:26.01Z</time></trkpt><trkpt lat="43.5991733" lon="11.5138867"><ele>137.0</ele><time>2026-04-18T08:54:27.009Z</time></trkpt><trkpt lat="43.59924" lon="11.51383"><ele>137.0</ele><time>2026-04-18T08:54:28.01Z</time></trkpt><trkpt lat="43.5993083" lon="11.513775"><ele>136.66666666666666</ele><time>2026-04-18T08:54:29.01Z</time></trkpt><trkpt lat="43.5993783" lon="11.51372"><ele>136.33333333333331</ele><time>2026-04-18T08:54:30.011Z</time></trkpt><trkpt lat="43.5994483" lon="11.5136633"><ele>136.0</ele><time>2026-04-18T08:54:31.012Z</time></trkpt><trkpt lat="43.5995167" lon="11.5136017"><ele>135.66666666666666</ele><time>2026-04-18T08:54:32.013Z</time></trkpt><trkpt lat="43.5995867" lon="11.5135367"><ele>135.33333333333334</ele><time>2026-04-18T08:54:33.011Z</time></trkpt><trkpt lat="43.5996567" lon="11.5134683"><ele>135.0</ele><time>2026-04-18T08:54:34.01Z</time></trkpt><trkpt lat="43.5997217" lon="11.5134017"><ele>135.0</ele><time>2026-04-18T08:54:35.01Z</time></trkpt><trkpt lat="43.599785" lon="11.513335"><ele>135.0</ele><time>2026-04-18T08:54:36.01Z</time></trkpt><trkpt lat="43.5998467" lon="11.5132733"><ele>135.0</ele><time>2026-04-18T08:54:37.011Z</time></trkpt><trkpt lat="43.5999083" lon="11.5132083"><ele>135.0</ele><time>2026-04-18T08:54:38.013Z</time></trkpt><trkpt lat="43.59997" lon="11.5131417"><ele>135.0</ele><time>2026-04-18T08:54:39.013Z</time></trkpt><trkpt lat="43.6000383" lon="11.51307"><ele>135.0</ele><time>2026-04-18T08:54:40.012Z</time></trkpt><trkpt lat="43.6001067" lon="11.5130067"><ele>135.0</ele><time>2026-04-18T08:54:41.011Z</time></trkpt><trkpt lat="43.60017" lon="11.5129467"><ele>135.0</ele><time>2026-04-18T08:54:42.011Z</time></trkpt><trkpt lat="43.6002383" lon="11.5128817"><ele>135.0</ele><time>2026-04-18T08:54:43.011Z</time></trkpt><trkpt lat="43.6003033" lon="11.5128183"><ele>135.0</ele><time>2026-04-18T08:54:44.01Z</time></trkpt><trkpt lat="43.6003683" lon="11.512755"><ele>135.0</ele><time>2026-04-18T08:54:45.01Z</time></trkpt><trkpt lat="43.600435" lon="11.512685"><ele>135.0</ele><time>2026-04-18T08:54:46.011Z</time></trkpt><trkpt lat="43.6005" lon="11.5126133"><ele>134.83333333333334</ele><time>2026-04-18T08:54:47.011Z</time></trkpt><trkpt lat="43.6005617" lon="11.51254"><ele>134.66666666666666</ele><time>2026-04-18T08:54:48.012Z</time></trkpt><trkpt lat="43.60062" lon="11.512465"><ele>134.5</ele><time>2026-04-18T08:54:49.011Z</time></trkpt><trkpt lat="43.60068" lon="11.5123867"><ele>134.33333333333331</ele><time>2026-04-18T08:54:50.011Z</time></trkpt><trkpt lat="43.60074" lon="11.5123117"><ele>134.16666666666666</ele><time>2026-04-18T08:54:51.012Z</time></trkpt><trkpt lat="43.6008033" lon="11.5122317"><ele>134.0</ele><time>2026-04-18T08:54:52.009Z</time></trkpt><trkpt lat="43.6008667" lon="11.512145"><ele>133.66666666666666</ele><time>2026-04-18T08:54:53.011Z</time></trkpt><trkpt lat="43.6009233" lon="11.51206"><ele>133.33333333333331</ele><time>2026-04-18T08:54:54.012Z</time></trkpt><trkpt lat="43.60098" lon="11.5119783"><ele>133.0</ele><time>2026-04-18T08:54:55.013Z</time></trkpt><trkpt lat="43.6010383" lon="11.5119"><ele>132.66666666666666</ele><time>2026-04-18T08:54:56.01Z</time></trkpt><trkpt lat="43.6011" lon="11.51182"><ele>132.33333333333334</ele><time>2026-04-18T08:54:57.011Z</time></trkpt><trkpt lat="43.6011633" lon="11.5117433"><ele>132.0</ele><time>2026-04-18T08:54:58.011Z</time></trkpt><trkpt lat="43.60123" lon="11.5116717"><ele>132.0</ele><time>2026-04-18T08:54:59.012Z</time></trkpt><trkpt lat="43.6012967" lon="11.51161"><ele>132.0</ele><time>2026-04-18T08:55:00.011Z</time></trkpt><trkpt lat="43.6013633" lon="11.5115517"><ele>132.0</ele><time>2026-04-18T08:55:01.011Z</time></trkpt><trkpt lat="43.6014367" lon="11.51149"><ele>132.0</ele><time>2026-04-18T08:55:02.012Z</time></trkpt><trkpt lat="43.6015067" lon="11.5114367"><ele>132.0</ele><time>2026-04-18T08:55:03.01Z</time></trkpt><trkpt lat="43.60158" lon="11.511385"><ele>132.0</ele><time>2026-04-18T08:55:04.009Z</time></trkpt><trkpt lat="43.6016533" lon="11.5113267"><ele>132.0</ele><time>2026-04-18T08:55:05.01Z</time></trkpt><trkpt lat="43.6017233" lon="11.511265"><ele>132.0</ele><time>2026-04-18T08:55:06.01Z</time></trkpt><trkpt lat="43.601795" lon="11.511205"><ele>132.0</ele><time>2026-04-18T08:55:07.01Z</time></trkpt><trkpt lat="43.601865" lon="11.5111467"><ele>132.0</ele><time>2026-04-18T08:55:08.01Z</time></trkpt><trkpt lat="43.6019367" lon="11.51109"><ele>132.0</ele><time>2026-04-18T08:55:09.013Z</time></trkpt><trkpt lat="43.60201" lon="11.5110317"><ele>132.0</ele><time>2026-04-18T08:55:10.011Z</time></trkpt><trkpt lat="43.602085" lon="11.5109783"><ele>131.83333333333334</ele><time>2026-04-18T08:55:11.01Z</time></trkpt><trkpt lat="43.6021617" lon="11.5109217"><ele>131.66666666666666</ele><time>2026-04-18T08:55:12.011Z</time></trkpt><trkpt lat="43.6022367" lon="11.5108617"><ele>131.5</ele><time>2026-04-18T08:55:13.012Z</time></trkpt><trkpt lat="43.602315" lon="11.5108"><ele>131.33333333333331</ele><time>2026-04-18T08:55:14.011Z</time></trkpt><trkpt lat="43.6023917" lon="11.5107383"><ele>131.16666666666666</ele><time>2026-04-18T08:55:15.011Z</time></trkpt><trkpt lat="43.60247" lon="11.5106767"><ele>131.0</ele><time>2026-04-18T08:55:16.01Z</time></trkpt><trkpt lat="43.60255" lon="11.510615"><ele>131.0</ele><time>2026-04-18T08:55:17.01Z</time></trkpt><trkpt lat="43.60263" lon="11.510555"><ele>131.0</ele><time>2026-04-18T08:55:18.011Z</time></trkpt><trkpt lat="43.602705" lon="11.5104933"><ele>131.0</ele><time>2026-04-18T08:55:19.011Z</time></trkpt><trkpt lat="43.60277" lon="11.510425"><ele>131.0</ele><time>2026-04-18T08:55:20.013Z</time></trkpt><trkpt lat="43.6028333" lon="11.5103433"><ele>131.0</ele><time>2026-04-18T08:55:21.01Z</time></trkpt><trkpt lat="43.6028883" lon="11.510255"><ele>131.0</ele><time>2026-04-18T08:55:22.014Z</time></trkpt><trkpt lat="43.6029433" lon="11.51016"><ele>130.83333333333331</ele><time>2026-04-18T08:55:23.011Z</time></trkpt><trkpt lat="43.6029917" lon="11.51006"><ele>130.66666666666666</ele><time>2026-04-18T08:55:24.012Z</time></trkpt><trkpt lat="43.603035" lon="11.509955"><ele>130.5</ele><time>2026-04-18T08:55:25.011Z</time></trkpt><trkpt lat="43.60308" lon="11.5098483"><ele>130.33333333333334</ele><time>2026-04-18T08:55:26.012Z</time></trkpt><trkpt lat="43.6031233" lon="11.5097417"><ele>130.16666666666669</ele><time>2026-04-18T08:55:27.011Z</time></trkpt><trkpt lat="43.6031683" lon="11.5096383"><ele>130.0</ele><time>2026-04-18T08:55:28.011Z</time></trkpt><trkpt lat="43.6032133" lon="11.509535"><ele>130.0</ele><time>2026-04-18T08:55:29.012Z</time></trkpt><trkpt lat="43.6032567" lon="11.5094317"><ele>130.0</ele><time>2026-04-18T08:55:30.012Z</time></trkpt><trkpt lat="43.6033083" lon="11.5093283"><ele>130.0</ele><time>2026-04-18T08:55:31.01Z</time></trkpt><trkpt lat="43.6033617" lon="11.5092333"><ele>130.0</ele><time>2026-04-18T08:55:32.011Z</time></trkpt><trkpt lat="43.60342" lon="11.5091483"><ele>130.0</ele><time>2026-04-18T08:55:33.011Z</time></trkpt><trkpt lat="43.60348" lon="11.5090767"><ele>130.0</ele><time>2026-04-18T08:55:34.01Z</time></trkpt><trkpt lat="43.6035467" lon="11.509"><ele>130.0</ele><time>2026-04-18T08:55:35.01Z</time></trkpt><trkpt lat="43.6036083" lon="11.508925"><ele>130.0</ele><time>2026-04-18T08:55:36.01Z</time></trkpt><trkpt lat="43.6036717" lon="11.5088467"><ele>130.0</ele><time>2026-04-18T08:55:37.009Z</time></trkpt><trkpt lat="43.60373" lon="11.50876"><ele>130.0</ele><time>2026-04-18T08:55:38.01Z</time></trkpt><trkpt lat="43.6037867" lon="11.5086717"><ele>130.0</ele><time>2026-04-18T08:55:39.012Z</time></trkpt><trkpt lat="43.6038383" lon="11.508575"><ele>130.0</ele><time>2026-04-18T08:55:40.011Z</time></trkpt><trkpt lat="43.6038833" lon="11.50848"><ele>130.16666666666669</ele><time>2026-04-18T08:55:41.012Z</time></trkpt><trkpt lat="43.6039217" lon="11.5083817"><ele>130.33333333333334</ele><time>2026-04-18T08:55:42.012Z</time></trkpt><trkpt lat="43.60396" lon="11.5082767"><ele>130.5</ele><time>2026-04-18T08:55:43.011Z</time></trkpt><trkpt lat="43.6039917" lon="11.5081767"><ele>130.66666666666666</ele><time>2026-04-18T08:55:44.011Z</time></trkpt><trkpt lat="43.6040233" lon="11.5080683"><ele>130.83333333333331</ele><time>2026-04-18T08:55:45.011Z</time></trkpt><trkpt lat="43.6040517" lon="11.507965"><ele>131.0</ele><time>2026-04-18T08:55:46.011Z</time></trkpt><trkpt lat="43.60408" lon="11.5078633"><ele>131.0</ele><time>2026-04-18T08:55:47.011Z</time></trkpt><trkpt lat="43.6041067" lon="11.5077633"><ele>131.0</ele><time>2026-04-18T08:55:48.01Z</time></trkpt><trkpt lat="43.60413" lon="11.5076633"><ele>131.0</ele><time>2026-04-18T08:55:49.01Z</time></trkpt><trkpt lat="43.604155" lon="11.50756"><ele>131.0</ele><time>2026-04-18T08:55:50.01Z</time></trkpt><trkpt lat="43.6041767" lon="11.5074567"><ele>131.0</ele><time>2026-04-18T08:55:51.013Z</time></trkpt><trkpt lat="43.6041983" lon="11.5073533"><ele>131.0</ele><time>2026-04-18T08:55:52.01Z</time></trkpt><trkpt lat="43.60422" lon="11.5072483"><ele>131.0</ele><time>2026-04-18T08:55:53.01Z</time></trkpt><trkpt lat="43.6042367" lon="11.5071433"><ele>131.0</ele><time>2026-04-18T08:55:54.011Z</time></trkpt><trkpt lat="43.604255" lon="11.5070383"><ele>131.0</ele><time>2026-04-18T08:55:55.012Z</time></trkpt><trkpt lat="43.604275" lon="11.5069317"><ele>131.0</ele><time>2026-04-18T08:55:56.011Z</time></trkpt><trkpt lat="43.6042967" lon="11.506825"><ele>131.0</ele><time>2026-04-18T08:55:57.008Z</time></trkpt><trkpt lat="43.6043217" lon="11.5067167"><ele>131.0</ele><time>2026-04-18T08:55:58.01Z</time></trkpt><trkpt lat="43.6043467" lon="11.5066033"><ele>130.5</ele><time>2026-04-18T08:55:59.01Z</time></trkpt><trkpt lat="43.6043717" lon="11.5064983"><ele>130.0</ele><time>2026-04-18T08:56:00.011Z</time></trkpt><trkpt lat="43.6044067" lon="11.5063917"><ele>129.5</ele><time>2026-04-18T08:56:01.011Z</time></trkpt><trkpt lat="43.604445" lon="11.5062933"><ele>129.0</ele><time>2026-04-18T08:56:02.013Z</time></trkpt><trkpt lat="43.604495" lon="11.5061983"><ele>128.5</ele><time>2026-04-18T08:56:03.011Z</time></trkpt><trkpt lat="43.6045483" lon="11.5061117"><ele>128.0</ele><time>2026-04-18T08:56:04.009Z</time></trkpt><trkpt lat="43.604605" lon="11.5060267"><ele>129.16666666666666</ele><time>2026-04-18T08:56:05.01Z</time></trkpt><trkpt lat="43.6046633" lon="11.5059433"><ele>130.33333333333331</ele><time>2026-04-18T08:56:06.011Z</time></trkpt><trkpt lat="43.60472" lon="11.5058617"><ele>131.5</ele><time>2026-04-18T08:56:07.011Z</time></trkpt><trkpt lat="43.6047767" lon="11.5057783"><ele>132.66666666666666</ele><time>2026-04-18T08:56:08.01Z</time></trkpt><trkpt lat="43.6048317" lon="11.5056933"><ele>133.83333333333334</ele><time>2026-04-18T08:56:09.01Z</time></trkpt><trkpt lat="43.6048867" lon="11.50561"><ele>135.0</ele><time>2026-04-18T08:56:10.01Z</time></trkpt><trkpt lat="43.6049417" lon="11.5055283"><ele>135.0</ele><time>2026-04-18T08:56:11.011Z</time></trkpt><trkpt lat="43.6049983" lon="11.505445"><ele>135.0</ele><time>2026-04-18T08:56:12.012Z</time></trkpt><trkpt lat="43.6050517" lon="11.5053633"><ele>135.0</ele><time>2026-04-18T08:56:13.013Z</time></trkpt><trkpt lat="43.6051067" lon="11.505285"><ele>135.0</ele><time>2026-04-18T08:56:14.01Z</time></trkpt><trkpt lat="43.6051617" lon="11.5052033"><ele>135.0</ele><time>2026-04-18T08:56:15.011Z</time></trkpt><trkpt lat="43.60522" lon="11.5051267"><ele>135.0</ele><time>2026-04-18T08:56:16.011Z</time></trkpt><trkpt lat="43.60528" lon="11.50505"><ele>134.33333333333334</ele><time>2026-04-18T08:56:17.01Z</time></trkpt><trkpt lat="43.60534" lon="11.50497"><ele>133.66666666666666</ele><time>2026-04-18T08:56:18.01Z</time></trkpt><trkpt lat="43.6053983" lon="11.50489"><ele>133.0</ele><time>2026-04-18T08:56:19.01Z</time></trkpt><trkpt lat="43.6054583" lon="11.5048083"><ele>132.33333333333331</ele><time>2026-04-18T08:56:20.011Z</time></trkpt><trkpt lat="43.60552" lon="11.50473"><ele>131.66666666666666</ele><time>2026-04-18T08:56:21.011Z</time></trkpt><trkpt lat="43.6055783" lon="11.5046517"><ele>131.0</ele><time>2026-04-18T08:56:22.011Z</time></trkpt><trkpt lat="43.6056383" lon="11.504575"><ele>131.0</ele><time>2026-04-18T08:56:23.013Z</time></trkpt><trkpt lat="43.6056983" lon="11.5044983"><ele>131.0</ele><time>2026-04-18T08:56:24.012Z</time></trkpt><trkpt lat="43.6057567" lon="11.5044283"><ele>131.0</ele><time>2026-04-18T08:56:25.011Z</time></trkpt><trkpt lat="43.6058133" lon="11.5043567"><ele>131.0</ele><time>2026-04-18T08:56:26.011Z</time></trkpt><trkpt lat="43.60587" lon="11.5042883"><ele>131.0</ele><time>2026-04-18T08:56:27.01Z</time></trkpt><trkpt lat="43.6059333" lon="11.504225"><ele>131.0</ele><time>2026-04-18T08:56:28.01Z</time></trkpt><trkpt lat="43.6059883" lon="11.50417"><ele>131.0</ele><time>2026-04-18T08:56:29.013Z</time></trkpt><trkpt lat="43.6060483" lon="11.5041117"><ele>131.0</ele><time>2026-04-18T08:56:30.013Z</time></trkpt><trkpt lat="43.606115" lon="11.5040533"><ele>131.0</ele><time>2026-04-18T08:56:31.011Z</time></trkpt><trkpt lat="43.6061717" lon="11.5039983"><ele>131.0</ele><time>2026-04-18T08:56:32.012Z</time></trkpt><trkpt lat="43.606235" lon="11.5039433"><ele>131.0</ele><time>2026-04-18T08:56:33.012Z</time></trkpt><trkpt lat="43.6062983" lon="11.5038867"><ele>131.0</ele><time>2026-04-18T08:56:34.012Z</time></trkpt><trkpt lat="43.606365" lon="11.5038283"><ele>130.71428571428572</ele><time>2026-04-18T08:56:35.01Z</time></trkpt><trkpt lat="43.60643" lon="11.5037767"><ele>130.42857142857144</ele><time>2026-04-18T08:56:36.01Z</time></trkpt><trkpt lat="43.6065" lon="11.5037317"><ele>130.14285714285714</ele><time>2026-04-18T08:56:37.01Z</time></trkpt><trkpt lat="43.6065683" lon="11.5036867"><ele>129.85714285714286</ele><time>2026-04-18T08:56:38.012Z</time></trkpt><trkpt lat="43.6066317" lon="11.5036567"><ele>129.57142857142856</ele><time>2026-04-18T08:56:39.01Z</time></trkpt><trkpt lat="43.6067017" lon="11.5036267"><ele>129.28571428571428</ele><time>2026-04-18T08:56:40.01Z</time></trkpt><trkpt lat="43.606775" lon="11.5036017"><ele>129.0</ele><time>2026-04-18T08:56:41.01Z</time></trkpt><trkpt lat="43.60685" lon="11.50358"><ele>128.99999999999997</ele><time>2026-04-18T08:56:42.011Z</time></trkpt><trkpt lat="43.6069217" lon="11.5035633"><ele>129.0</ele><time>2026-04-18T08:56:43.013Z</time></trkpt><trkpt lat="43.6069967" lon="11.5035467"><ele>129.0</ele><time>2026-04-18T08:56:44.011Z</time></trkpt><trkpt lat="43.6070667" lon="11.5035367"><ele>129.0</ele><time>2026-04-18T08:56:45.01Z</time></trkpt><trkpt lat="43.6071367" lon="11.5035233"><ele>129.0</ele><time>2026-04-18T08:56:46.01Z</time></trkpt><trkpt lat="43.60721" lon="11.5035133"><ele>128.99999999999997</ele><time>2026-04-18T08:56:47.011Z</time></trkpt><trkpt lat="43.6072833" lon="11.50351"><ele>129.0</ele><time>2026-04-18T08:56:48.012Z</time></trkpt><trkpt lat="43.6073583" lon="11.5035117"><ele>129.16666666666666</ele><time>2026-04-18T08:56:49.01Z</time></trkpt><trkpt lat="43.6074333" lon="11.5035117"><ele>129.33333333333334</ele><time>2026-04-18T08:56:50.011Z</time></trkpt><trkpt lat="43.6075133" lon="11.5035133"><ele>129.5</ele><time>2026-04-18T08:56:51.01Z</time></trkpt><trkpt lat="43.6075933" lon="11.5035117"><ele>129.66666666666669</ele><time>2026-04-18T08:56:52.011Z</time></trkpt><trkpt lat="43.60767" lon="11.503505"><ele>129.83333333333334</ele><time>2026-04-18T08:56:53.014Z</time></trkpt><trkpt lat="43.6077483" lon="11.50349"><ele>130.0</ele><time>2026-04-18T08:56:54.011Z</time></trkpt><trkpt lat="43.607825" lon="11.503465"><ele>129.5</ele><time>2026-04-18T08:56:55.01Z</time></trkpt><trkpt lat="43.6079033" lon="11.50343"><ele>129.0</ele><time>2026-04-18T08:56:56.011Z</time></trkpt><trkpt lat="43.6079867" lon="11.5033833"><ele>128.5</ele><time>2026-04-18T08:56:57.013Z</time></trkpt><trkpt lat="43.60807" lon="11.5033267"><ele>128.0</ele><time>2026-04-18T08:56:58.01Z</time></trkpt><trkpt lat="43.6081483" lon="11.503265"><ele>127.50000000000001</ele><time>2026-04-18T08:56:59.011Z</time></trkpt><trkpt lat="43.608225" lon="11.5032033"><ele>127.0</ele><time>2026-04-18T08:57:00.01Z</time></trkpt><trkpt lat="43.6083017" lon="11.5031417"><ele>127.00000000000001</ele><time>2026-04-18T08:57:01.011Z</time></trkpt><trkpt lat="43.6083783" lon="11.5030767"><ele>127.0</ele><time>2026-04-18T08:57:02.011Z</time></trkpt><trkpt lat="43.6084583" lon="11.5030117"><ele>127.0</ele><time>2026-04-18T08:57:03.01Z</time></trkpt><trkpt lat="43.608535" lon="11.5029467"><ele>127.0</ele><time>2026-04-18T08:57:04.012Z</time></trkpt><trkpt lat="43.6086083" lon="11.5028817"><ele>127.00000000000001</ele><time>2026-04-18T08:57:05.011Z</time></trkpt><trkpt lat="43.6086783" lon="11.502815"><ele>127.0</ele><time>2026-04-18T08:57:06.011Z</time></trkpt><trkpt lat="43.6087467" lon="11.5027433"><ele>127.00000000000001</ele><time>2026-04-18T08:57:07.01Z</time></trkpt><trkpt lat="43.6088133" lon="11.5026717"><ele>127.0</ele><time>2026-04-18T08:57:08.01Z</time></trkpt><trkpt lat="43.6088767" lon="11.502595"><ele>127.0</ele><time>2026-04-18T08:57:09.013Z</time></trkpt><trkpt lat="43.6089367" lon="11.502515"><ele>127.0</ele><time>2026-04-18T08:57:10.012Z</time></trkpt><trkpt lat="43.608995" lon="11.5024383"><ele>127.00000000000001</ele><time>2026-04-18T08:57:11.01Z</time></trkpt><trkpt lat="43.60906" lon="11.5023633"><ele>127.0</ele><time>2026-04-18T08:57:12.011Z</time></trkpt><trkpt lat="43.6091267" lon="11.5022933"><ele>127.00000000000001</ele><time>2026-04-18T08:57:13.01Z</time></trkpt><trkpt lat="43.6091967" lon="11.50223"><ele>127.0</ele><time>2026-04-18T08:57:14.01Z</time></trkpt><trkpt lat="43.6092733" lon="11.5021733"><ele>127.0</ele><time>2026-04-18T08:57:15.011Z</time></trkpt><trkpt lat="43.6093467" lon="11.5021233"><ele>127.0</ele><time>2026-04-18T08:57:16.011Z</time></trkpt><trkpt lat="43.6094183" lon="11.5020717"><ele>127.00000000000001</ele><time>2026-04-18T08:57:17.009Z</time></trkpt><trkpt lat="43.6094933" lon="11.502025"><ele>127.0</ele><time>2026-04-18T08:57:18.01Z</time></trkpt><trkpt lat="43.6095717" lon="11.501985"><ele>126.83333333333334</ele><time>2026-04-18T08:57:19.009Z</time></trkpt><trkpt lat="43.6096483" lon="11.50195"><ele>126.66666666666667</ele><time>2026-04-18T08:57:20.01Z</time></trkpt><trkpt lat="43.6097267" lon="11.501915"><ele>126.5</ele><time>2026-04-18T08:57:21.012Z</time></trkpt><trkpt lat="43.6098067" lon="11.50188"><ele>126.33333333333334</ele><time>2026-04-18T08:57:22.011Z</time></trkpt><trkpt lat="43.609885" lon="11.501845"><ele>126.16666666666667</ele><time>2026-04-18T08:57:23.009Z</time></trkpt><trkpt lat="43.609965" lon="11.501805"><ele>126.0</ele><time>2026-04-18T08:57:24.01Z</time></trkpt><trkpt lat="43.6100467" lon="11.501765"><ele>126.0</ele><time>2026-04-18T08:57:25.013Z</time></trkpt><trkpt lat="43.6101267" lon="11.5017267"><ele>126.0</ele><time>2026-04-18T08:57:26.011Z</time></trkpt><trkpt lat="43.6102083" lon="11.5016883"><ele>126.0</ele><time>2026-04-18T08:57:27.009Z</time></trkpt><trkpt lat="43.6102933" lon="11.5016533"><ele>126.0</ele><time>2026-04-18T08:57:28.01Z</time></trkpt><trkpt lat="43.6103767" lon="11.5016117"><ele>126.0</ele><time>2026-04-18T08:57:29.01Z</time></trkpt><trkpt lat="43.6104617" lon="11.5015667"><ele>126.0</ele><time>2026-04-18T08:57:30.01Z</time></trkpt><trkpt lat="43.6105433" lon="11.501525"><ele>126.16666666666667</ele><time>2026-04-18T08:57:31.01Z</time></trkpt><trkpt lat="43.610625" lon="11.5014833"><ele>126.33333333333334</ele><time>2026-04-18T08:57:32.009Z</time></trkpt><trkpt lat="43.6107033" lon="11.5014433"><ele>126.5</ele><time>2026-04-18T08:57:33.009Z</time></trkpt><trkpt lat="43.61078" lon="11.5014083"><ele>126.66666666666667</ele><time>2026-04-18T08:57:34.009Z</time></trkpt><trkpt lat="43.61086" lon="11.5013717"><ele>126.83333333333334</ele><time>2026-04-18T08:57:35.009Z</time></trkpt><trkpt lat="43.6109417" lon="11.5013317"><ele>127.0</ele><time>2026-04-18T08:57:36.009Z</time></trkpt><trkpt lat="43.61102" lon="11.5012967"><ele>127.00000000000001</ele><time>2026-04-18T08:57:37.009Z</time></trkpt><trkpt lat="43.6110983" lon="11.5012617"><ele>127.0</ele><time>2026-04-18T08:57:38.01Z</time></trkpt><trkpt lat="43.6111767" lon="11.501225"><ele>127.0</ele><time>2026-04-18T08:57:39.01Z</time></trkpt><trkpt lat="43.611255" lon="11.5011883"><ele>127.0</ele><time>2026-04-18T08:57:40.01Z</time></trkpt><trkpt lat="43.6113333" lon="11.501155"><ele>127.00000000000001</ele><time>2026-04-18T08:57:41.01Z</time></trkpt><trkpt lat="43.6114117" lon="11.501125"><ele>127.0</ele><time>2026-04-18T08:57:42.01Z</time></trkpt><trkpt lat="43.6114917" lon="11.501095"><ele>126.50000000000001</ele><time>2026-04-18T08:57:43.009Z</time></trkpt><trkpt lat="43.6115667" lon="11.5010683"><ele>126.0</ele><time>2026-04-18T08:57:44.009Z</time></trkpt><trkpt lat="43.61164" lon="11.5010433"><ele>125.5</ele><time>2026-04-18T08:57:45.01Z</time></trkpt><trkpt lat="43.6117183" lon="11.5010167"><ele>125.0</ele><time>2026-04-18T08:57:46.011Z</time></trkpt><trkpt lat="43.6117967" lon="11.5009917"><ele>124.50000000000001</ele><time>2026-04-18T08:57:47.01Z</time></trkpt><trkpt lat="43.611875" lon="11.500965"><ele>124.0</ele><time>2026-04-18T08:57:48.01Z</time></trkpt><trkpt lat="43.611955" lon="11.5009383"><ele>124.33333333333334</ele><time>2026-04-18T08:57:49.01Z</time></trkpt><trkpt lat="43.612035" lon="11.5009167"><ele>124.66666666666667</ele><time>2026-04-18T08:57:50.01Z</time></trkpt><trkpt lat="43.6121133" lon="11.5008933"><ele>125.0</ele><time>2026-04-18T08:57:51.012Z</time></trkpt><trkpt lat="43.6121917" lon="11.50087"><ele>125.33333333333334</ele><time>2026-04-18T08:57:52.009Z</time></trkpt><trkpt lat="43.6122683" lon="11.5008467"><ele>125.66666666666667</ele><time>2026-04-18T08:57:53.011Z</time></trkpt><trkpt lat="43.6123467" lon="11.5008233"><ele>126.0</ele><time>2026-04-18T08:57:54.011Z</time></trkpt><trkpt lat="43.6124317" lon="11.5007933"><ele>126.0</ele><time>2026-04-18T08:57:55.01Z</time></trkpt><trkpt lat="43.6125133" lon="11.5007683"><ele>126.0</ele><time>2026-04-18T08:57:56.011Z</time></trkpt><trkpt lat="43.612595" lon="11.500745"><ele>126.0</ele><time>2026-04-18T08:57:57.009Z</time></trkpt><trkpt lat="43.6126733" lon="11.5007233"><ele>126.0</ele><time>2026-04-18T08:57:58.009Z</time></trkpt><trkpt lat="43.6127533" lon="11.5007"><ele>126.0</ele><time>2026-04-18T08:57:59.009Z</time></trkpt><trkpt lat="43.6128317" lon="11.5006767"><ele>126.0</ele><time>2026-04-18T08:58:00.009Z</time></trkpt><trkpt lat="43.6129117" lon="11.5006533"><ele>126.0</ele><time>2026-04-18T08:58:01.011Z</time></trkpt><trkpt lat="43.61299" lon="11.50063"><ele>126.0</ele><time>2026-04-18T08:58:02.01Z</time></trkpt><trkpt lat="43.6130633" lon="11.50061"><ele>126.0</ele><time>2026-04-18T08:58:03.01Z</time></trkpt><trkpt lat="43.6131383" lon="11.5005917"><ele>126.0</ele><time>2026-04-18T08:58:04.01Z</time></trkpt><trkpt lat="43.613205" lon="11.5005733"><ele>126.0</ele><time>2026-04-18T08:58:05.008Z</time></trkpt><trkpt lat="43.6132767" lon="11.5005567"><ele>126.0</ele><time>2026-04-18T08:58:06.008Z</time></trkpt><trkpt lat="43.6133483" lon="11.500535"><ele>126.0</ele><time>2026-04-18T08:58:07.011Z</time></trkpt><trkpt lat="43.6134183" lon="11.5005133"><ele>126.0</ele><time>2026-04-18T08:58:08.009Z</time></trkpt><trkpt lat="43.6134883" lon="11.5004883"><ele>126.0</ele><time>2026-04-18T08:58:09.009Z</time></trkpt><trkpt lat="43.613555" lon="11.5004617"><ele>126.0</ele><time>2026-04-18T08:58:10.008Z</time></trkpt><trkpt lat="43.61362" lon="11.5004317"><ele>126.0</ele><time>2026-04-18T08:58:11.01Z</time></trkpt><trkpt lat="43.6136817" lon="11.500405"><ele>126.0</ele><time>2026-04-18T08:58:12.009Z</time></trkpt><trkpt lat="43.6137433" lon="11.5003783"><ele>126.0</ele><time>2026-04-18T08:58:13.009Z</time></trkpt><trkpt lat="43.6138033" lon="11.5003517"><ele>126.0</ele><time>2026-04-18T08:58:14.009Z</time></trkpt><trkpt lat="43.613865" lon="11.5003233"><ele>125.71428571428572</ele><time>2026-04-18T08:58:15.01Z</time></trkpt><trkpt lat="43.6139283" lon="11.5002933"><ele>125.42857142857143</ele><time>2026-04-18T08:58:16.009Z</time></trkpt><trkpt lat="43.61399" lon="11.5002617"><ele>125.14285714285714</ele><time>2026-04-18T08:58:17.011Z</time></trkpt><trkpt lat="43.61406" lon="11.5002283"><ele>124.85714285714286</ele><time>2026-04-18T08:58:18.01Z</time></trkpt><trkpt lat="43.6141317" lon="11.50019"><ele>124.57142857142858</ele><time>2026-04-18T08:58:19.012Z</time></trkpt><trkpt lat="43.6142033" lon="11.5001517"><ele>124.28571428571429</ele><time>2026-04-18T08:58:20.012Z</time></trkpt><trkpt lat="43.614275" lon="11.5001133"><ele>124.0</ele><time>2026-04-18T08:58:21.011Z</time></trkpt><trkpt lat="43.6143467" lon="11.5000717"><ele>124.00000000000001</ele><time>2026-04-18T08:58:22.009Z</time></trkpt><trkpt lat="43.6144183" lon="11.5000317"><ele>124.0</ele><time>2026-04-18T08:58:23.012Z</time></trkpt><trkpt lat="43.61449" lon="11.4999917"><ele>124.0</ele><time>2026-04-18T08:58:24.012Z</time></trkpt><trkpt lat="43.6145633" lon="11.4999517"><ele>124.0</ele><time>2026-04-18T08:58:25.01Z</time></trkpt><trkpt lat="43.614635" lon="11.499915"><ele>124.00000000000001</ele><time>2026-04-18T08:58:26.01Z</time></trkpt><trkpt lat="43.6147067" lon="11.4998767"><ele>124.0</ele><time>2026-04-18T08:58:27.009Z</time></trkpt><trkpt lat="43.6147783" lon="11.49984"><ele>124.16666666666667</ele><time>2026-04-18T08:58:28.009Z</time></trkpt><trkpt lat="43.614845" lon="11.4998017"><ele>124.33333333333334</ele><time>2026-04-18T08:58:29.011Z</time></trkpt><trkpt lat="43.6149467" lon="11.4997433"><ele>124.5</ele><time>2026-04-18T08:58:31.01Z</time></trkpt><trkpt lat="43.6150067" lon="11.499715"><ele>124.66666666666666</ele><time>2026-04-18T08:58:33.008Z</time></trkpt><trkpt lat="43.6150817" lon="11.4996717"><ele>124.83333333333333</ele><time>2026-04-18T08:58:37.01Z</time></trkpt><trkpt lat="43.6151467" lon="11.4996317"><ele>125.0</ele><time>2026-04-18T08:58:41.01Z</time></trkpt><trkpt lat="43.6152133" lon="11.4995917"><ele>125.0</ele><time>2026-04-18T08:58:46.009Z</time></trkpt><trkpt lat="43.6152967" lon="11.4995983"><ele>125.0</ele><time>2026-04-18T08:58:50.01Z</time></trkpt><trkpt lat="43.615385" lon="11.4995633"><ele>125.0</ele><time>2026-04-18T08:58:53.009Z</time></trkpt><trkpt lat="43.6154517" lon="11.4994783"><ele>125.0</ele><time>2026-04-18T08:58:55.011Z</time></trkpt><trkpt lat="43.6155283" lon="11.4993817"><ele>125.0</ele><time>2026-04-18T08:58:57.01Z</time></trkpt><trkpt lat="43.61561" lon="11.499285"><ele>125.0</ele><time>2026-04-18T08:58:59.009Z</time></trkpt><trkpt lat="43.6156933" lon="11.4991833"><ele>125.0</ele><time>2026-04-18T08:59:01.009Z</time></trkpt><trkpt lat="43.6157767" lon="11.4990767"><ele>125.0</ele><time>2026-04-18T08:59:03.01Z</time></trkpt><trkpt lat="43.6158667" lon="11.49897"><ele>125.0</ele><time>2026-04-18T08:59:05.009Z</time></trkpt><trkpt lat="43.6159633" lon="11.498855"><ele>124.99999999999999</ele><time>2026-04-18T08:59:07.01Z</time></trkpt><trkpt lat="43.616015" lon="11.4987917"><ele>125.0</ele><time>2026-04-18T08:59:08.009Z</time></trkpt><trkpt lat="43.6160667" lon="11.49873"><ele>125.0</ele><time>2026-04-18T08:59:09.009Z</time></trkpt><trkpt lat="43.616115" lon="11.4986733"><ele>125.0</ele><time>2026-04-18T08:59:10.009Z</time></trkpt><trkpt lat="43.6161633" lon="11.4986167"><ele>124.99999999999999</ele><time>2026-04-18T08:59:11.009Z</time></trkpt><trkpt lat="43.6162567" lon="11.49851"><ele>125.0</ele><time>2026-04-18T08:59:13.011Z</time></trkpt><trkpt lat="43.6163517" lon="11.4983983"><ele>124.99999999999999</ele><time>2026-04-18T08:59:15.012Z</time></trkpt><trkpt lat="43.6164" lon="11.49834"><ele>125.0</ele><time>2026-04-18T08:59:16.009Z</time></trkpt><trkpt lat="43.6164917" lon="11.4982333"><ele>125.0</ele><time>2026-04-18T08:59:18.008Z</time></trkpt><trkpt lat="43.6165883" lon="11.498125"><ele>125.0</ele><time>2026-04-18T08:59:20.011Z</time></trkpt><trkpt lat="43.61664" lon="11.498065"><ele>124.99999999999999</ele><time>2026-04-18T08:59:21.011Z</time></trkpt><trkpt lat="43.6166917" lon="11.4980033"><ele>125.0</ele><time>2026-04-18T08:59:22.009Z</time></trkpt><trkpt lat="43.6167433" lon="11.4979433"><ele>125.14285714285714</ele><time>2026-04-18T08:59:23.011Z</time></trkpt><trkpt lat="43.6167933" lon="11.4978817"><ele>125.28571428571429</ele><time>2026-04-18T08:59:24.009Z</time></trkpt><trkpt lat="43.6168467" lon="11.4978167"><ele>125.42857142857143</ele><time>2026-04-18T08:59:25.01Z</time></trkpt><trkpt lat="43.6168983" lon="11.4977517"><ele>125.57142857142857</ele><time>2026-04-18T08:59:26.011Z</time></trkpt><trkpt lat="43.6169533" lon="11.4976883"><ele>125.71428571428572</ele><time>2026-04-18T08:59:27.011Z</time></trkpt><trkpt lat="43.6170117" lon="11.4976233"><ele>125.85714285714286</ele><time>2026-04-18T08:59:28.01Z</time></trkpt><trkpt lat="43.61707" lon="11.4975583"><ele>126.0</ele><time>2026-04-18T08:59:29.009Z</time></trkpt><trkpt lat="43.6171233" lon="11.497495"><ele>126.0</ele><time>2026-04-18T08:59:30.009Z</time></trkpt><trkpt lat="43.6171767" lon="11.4974317"><ele>126.0</ele><time>2026-04-18T08:59:31.01Z</time></trkpt><trkpt lat="43.6172283" lon="11.49737"><ele>126.0</ele><time>2026-04-18T08:59:32.01Z</time></trkpt><trkpt lat="43.6172817" lon="11.49731"><ele>126.0</ele><time>2026-04-18T08:59:33.011Z</time></trkpt><trkpt lat="43.617335" lon="11.49725"><ele>126.0</ele><time>2026-04-18T08:59:34.011Z</time></trkpt><trkpt lat="43.61739" lon="11.4971883"><ele>126.0</ele><time>2026-04-18T08:59:35.011Z</time></trkpt><trkpt lat="43.6174433" lon="11.4971283"><ele>126.0</ele><time>2026-04-18T08:59:36.011Z</time></trkpt><trkpt lat="43.6174967" lon="11.4970733"><ele>125.85714285714286</ele><time>2026-04-18T08:59:37.011Z</time></trkpt><trkpt lat="43.6175533" lon="11.4970133"><ele>125.71428571428572</ele><time>2026-04-18T08:59:38.012Z</time></trkpt><trkpt lat="43.6176133" lon="11.4969517"><ele>125.57142857142857</ele><time>2026-04-18T08:59:39.01Z</time></trkpt><trkpt lat="43.6176717" lon="11.4968933"><ele>125.42857142857143</ele><time>2026-04-18T08:59:40.009Z</time></trkpt><trkpt lat="43.6177283" lon="11.4968417"><ele>125.28571428571429</ele><time>2026-04-18T08:59:41.011Z</time></trkpt><trkpt lat="43.61779" lon="11.4967917"><ele>125.14285714285714</ele><time>2026-04-18T08:59:42.01Z</time></trkpt><trkpt lat="43.617855" lon="11.496745"><ele>125.0</ele><time>2026-04-18T08:59:43.008Z</time></trkpt><trkpt lat="43.6179183" lon="11.4967017"><ele>125.0</ele><time>2026-04-18T08:59:44.011Z</time></trkpt><trkpt lat="43.617985" lon="11.49666"><ele>125.0</ele><time>2026-04-18T08:59:45.011Z</time></trkpt><trkpt lat="43.6180483" lon="11.4966283"><ele>125.0</ele><time>2026-04-18T08:59:46.009Z</time></trkpt><trkpt lat="43.618115" lon="11.496595"><ele>125.0</ele><time>2026-04-18T08:59:47.011Z</time></trkpt><trkpt lat="43.61818" lon="11.4965617"><ele>125.0</ele><time>2026-04-18T08:59:48.009Z</time></trkpt><trkpt lat="43.61825" lon="11.4965333"><ele>125.0</ele><time>2026-04-18T08:59:49.012Z</time></trkpt><trkpt lat="43.618315" lon="11.4965117"><ele>125.0</ele><time>2026-04-18T08:59:50.011Z</time></trkpt><trkpt lat="43.6183783" lon="11.4964917"><ele>124.99999999999999</ele><time>2026-04-18T08:59:51.011Z</time></trkpt><trkpt lat="43.6185067" lon="11.4964517"><ele>125.0</ele><time>2026-04-18T08:59:53.01Z</time></trkpt><trkpt lat="43.61858" lon="11.49643"><ele>125.0</ele><time>2026-04-18T08:59:54.011Z</time></trkpt><trkpt lat="43.6186567" lon="11.49641"><ele>125.0</ele><time>2026-04-18T08:59:55.011Z</time></trkpt><trkpt lat="43.6187317" lon="11.4963933"><ele>124.99999999999999</ele><time>2026-04-18T08:59:56.011Z</time></trkpt><trkpt lat="43.6188083" lon="11.496385"><ele>125.0</ele><time>2026-04-18T08:59:57.012Z</time></trkpt><trkpt lat="43.6188833" lon="11.496375"><ele>125.71428571428571</ele><time>2026-04-18T08:59:58.01Z</time></trkpt><trkpt lat="43.6189567" lon="11.496365"><ele>126.42857142857144</ele><time>2026-04-18T08:59:59.01Z</time></trkpt><trkpt lat="43.6190283" lon="11.4963533"><ele>127.14285714285715</ele><time>2026-04-18T09:00:00.011Z</time></trkpt><trkpt lat="43.6190983" lon="11.4963433"><ele>127.85714285714286</ele><time>2026-04-18T09:00:01.01Z</time></trkpt><trkpt lat="43.6191683" lon="11.4963383"><ele>128.57142857142858</ele><time>2026-04-18T09:00:02.013Z</time></trkpt><trkpt lat="43.6192433" lon="11.49633"><ele>129.2857142857143</ele><time>2026-04-18T09:00:03.01Z</time></trkpt><trkpt lat="43.61932" lon="11.49632"><ele>130.0</ele><time>2026-04-18T09:00:04.01Z</time></trkpt><trkpt lat="43.619395" lon="11.49631"><ele>130.0</ele><time>2026-04-18T09:00:05.012Z</time></trkpt><trkpt lat="43.61947" lon="11.4963017"><ele>130.0</ele><time>2026-04-18T09:00:06.011Z</time></trkpt><trkpt lat="43.6195467" lon="11.4962933"><ele>130.0</ele><time>2026-04-18T09:00:07.01Z</time></trkpt><trkpt lat="43.6196217" lon="11.496285"><ele>130.0</ele><time>2026-04-18T09:00:08.011Z</time></trkpt><trkpt lat="43.6196967" lon="11.4962767"><ele>130.0</ele><time>2026-04-18T09:00:09.013Z</time></trkpt><trkpt lat="43.6197683" lon="11.4962717"><ele>130.0</ele><time>2026-04-18T09:00:10.009Z</time></trkpt><trkpt lat="43.6198433" lon="11.4962633"><ele>129.83333333333334</ele><time>2026-04-18T09:00:11.011Z</time></trkpt><trkpt lat="43.6199217" lon="11.4962533"><ele>129.66666666666669</ele><time>2026-04-18T09:00:12.01Z</time></trkpt><trkpt lat="43.62" lon="11.4962467"><ele>129.5</ele><time>2026-04-18T09:00:13.011Z</time></trkpt><trkpt lat="43.6200783" lon="11.49624"><ele>129.33333333333334</ele><time>2026-04-18T09:00:14.011Z</time></trkpt><trkpt lat="43.6201567" lon="11.496235"><ele>129.16666666666666</ele><time>2026-04-18T09:00:15.009Z</time></trkpt><trkpt lat="43.6202367" lon="11.496225"><ele>129.0</ele><time>2026-04-18T09:00:16.01Z</time></trkpt><trkpt lat="43.6203167" lon="11.4962133"><ele>128.33333333333334</ele><time>2026-04-18T09:00:17.01Z</time></trkpt><trkpt lat="43.6203917" lon="11.4962033"><ele>127.66666666666666</ele><time>2026-04-18T09:00:18.011Z</time></trkpt><trkpt lat="43.6204717" lon="11.4961967"><ele>127.0</ele><time>2026-04-18T09:00:19.011Z</time></trkpt><trkpt lat="43.62055" lon="11.49619"><ele>126.33333333333333</ele><time>2026-04-18T09:00:20.011Z</time></trkpt><trkpt lat="43.6206283" lon="11.4961783"><ele>125.66666666666666</ele><time>2026-04-18T09:00:21.011Z</time></trkpt><trkpt lat="43.62071" lon="11.4961617"><ele>125.0</ele><time>2026-04-18T09:00:22.011Z</time></trkpt><trkpt lat="43.6207917" lon="11.49614"><ele>124.99999999999999</ele><time>2026-04-18T09:00:23.011Z</time></trkpt><trkpt lat="43.6208717" lon="11.4961133"><ele>125.0</ele><time>2026-04-18T09:00:24.01Z</time></trkpt><trkpt lat="43.62095" lon="11.4960733"><ele>125.0</ele><time>2026-04-18T09:00:25.01Z</time></trkpt><trkpt lat="43.6210283" lon="11.4960233"><ele>125.0</ele><time>2026-04-18T09:00:26.012Z</time></trkpt><trkpt lat="43.621105" lon="11.495975"><ele>124.99999999999999</ele><time>2026-04-18T09:00:27.012Z</time></trkpt><trkpt lat="43.62118" lon="11.4959283"><ele>125.0</ele><time>2026-04-18T09:00:28.01Z</time></trkpt><trkpt lat="43.6212533" lon="11.4958783"><ele>125.33333333333333</ele><time>2026-04-18T09:00:29.009Z</time></trkpt><trkpt lat="43.6213333" lon="11.4958317"><ele>125.66666666666666</ele><time>2026-04-18T09:00:30.011Z</time></trkpt><trkpt lat="43.6214117" lon="11.4957817"><ele>126.0</ele><time>2026-04-18T09:00:31.011Z</time></trkpt><trkpt lat="43.62149" lon="11.4957283"><ele>126.33333333333334</ele><time>2026-04-18T09:00:32.01Z</time></trkpt><trkpt lat="43.6215617" lon="11.4956767"><ele>126.66666666666667</ele><time>2026-04-18T09:00:33.012Z</time></trkpt><trkpt lat="43.6216333" lon="11.4956267"><ele>127.0</ele><time>2026-04-18T09:00:34.011Z</time></trkpt><trkpt lat="43.6217017" lon="11.495575"><ele>127.00000000000001</ele><time>2026-04-18T09:00:35.01Z</time></trkpt><trkpt lat="43.6217717" lon="11.495525"><ele>127.0</ele><time>2026-04-18T09:00:36.011Z</time></trkpt><trkpt lat="43.62184" lon="11.495475"><ele>127.0</ele><time>2026-04-18T09:00:37.011Z</time></trkpt><trkpt lat="43.6219067" lon="11.49542"><ele>127.0</ele><time>2026-04-18T09:00:38.011Z</time></trkpt><trkpt lat="43.62197" lon="11.4953617"><ele>127.00000000000001</ele><time>2026-04-18T09:00:39.012Z</time></trkpt><trkpt lat="43.6220433" lon="11.4953033"><ele>127.0</ele><time>2026-04-18T09:00:40.012Z</time></trkpt><trkpt lat="43.6221117" lon="11.4952367"><ele>127.00000000000001</ele><time>2026-04-18T09:00:41.011Z</time></trkpt><trkpt lat="43.62217" lon="11.4951633"><ele>127.0</ele><time>2026-04-18T09:00:42.011Z</time></trkpt><trkpt lat="43.6222267" lon="11.495085"><ele>127.0</ele><time>2026-04-18T09:00:43.009Z</time></trkpt><trkpt lat="43.62228" lon="11.495005"><ele>127.0</ele><time>2026-04-18T09:00:44.012Z</time></trkpt><trkpt lat="43.6223317" lon="11.49492"><ele>127.00000000000001</ele><time>2026-04-18T09:00:45.009Z</time></trkpt><trkpt lat="43.62238" lon="11.49483"><ele>127.0</ele><time>2026-04-18T09:00:46.011Z</time></trkpt><trkpt lat="43.6224217" lon="11.4947417"><ele>127.00000000000001</ele><time>2026-04-18T09:00:47.009Z</time></trkpt><trkpt lat="43.6224617" lon="11.4946467"><ele>127.0</ele><time>2026-04-18T09:00:48.009Z</time></trkpt><trkpt lat="43.6225" lon="11.4945483"><ele>127.0</ele><time>2026-04-18T09:00:49.009Z</time></trkpt><trkpt lat="43.6225367" lon="11.4944467"><ele>127.0</ele><time>2026-04-18T09:00:50.011Z</time></trkpt><trkpt lat="43.6225717" lon="11.4943417"><ele>127.00000000000001</ele><time>2026-04-18T09:00:51.009Z</time></trkpt><trkpt lat="43.6226033" lon="11.4942383"><ele>127.0</ele><time>2026-04-18T09:00:52.009Z</time></trkpt><trkpt lat="43.62263" lon="11.494135"><ele>126.33333333333334</ele><time>2026-04-18T09:00:53.011Z</time></trkpt><trkpt lat="43.6226533" lon="11.4940317"><ele>125.66666666666667</ele><time>2026-04-18T09:00:54.009Z</time></trkpt><trkpt lat="43.6226733" lon="11.4939317"><ele>125.0</ele><time>2026-04-18T09:00:55.012Z</time></trkpt><trkpt lat="43.6226917" lon="11.4938283"><ele>124.33333333333334</ele><time>2026-04-18T09:00:56.009Z</time></trkpt><trkpt lat="43.6227067" lon="11.4937267"><ele>123.66666666666667</ele><time>2026-04-18T09:00:57.01Z</time></trkpt><trkpt lat="43.62272" lon="11.4936217"><ele>123.0</ele><time>2026-04-18T09:00:58.009Z</time></trkpt><trkpt lat="43.6227317" lon="11.4935117"><ele>123.0</ele><time>2026-04-18T09:00:59.01Z</time></trkpt><trkpt lat="43.622735" lon="11.493405"><ele>123.0</ele><time>2026-04-18T09:01:00.011Z</time></trkpt><trkpt lat="43.6227383" lon="11.4932983"><ele>123.0</ele><time>2026-04-18T09:01:01.01Z</time></trkpt><trkpt lat="43.62274" lon="11.49319"><ele>123.0</ele><time>2026-04-18T09:01:02.011Z</time></trkpt><trkpt lat="43.622735" lon="11.4930833"><ele>123.0</ele><time>2026-04-18T09:01:03.009Z</time></trkpt><trkpt lat="43.622725" lon="11.492975"><ele>123.0</ele><time>2026-04-18T09:01:04.009Z</time></trkpt><trkpt lat="43.62271" lon="11.49287"><ele>123.0</ele><time>2026-04-18T09:01:05.01Z</time></trkpt><trkpt lat="43.6226933" lon="11.4927633"><ele>123.0</ele><time>2026-04-18T09:01:06.011Z</time></trkpt><trkpt lat="43.6226733" lon="11.49266"><ele>123.0</ele><time>2026-04-18T09:01:07.009Z</time></trkpt><trkpt lat="43.6226517" lon="11.4925633"><ele>123.0</ele><time>2026-04-18T09:01:08.01Z</time></trkpt><trkpt lat="43.62263" lon="11.4924583"><ele>123.0</ele><time>2026-04-18T09:01:09.01Z</time></trkpt><trkpt lat="43.622605" lon="11.492355"><ele>123.0</ele><time>2026-04-18T09:01:10.011Z</time></trkpt><trkpt lat="43.62258" lon="11.4922533"><ele>123.0</ele><time>2026-04-18T09:01:11.011Z</time></trkpt><trkpt lat="43.6225533" lon="11.4921483"><ele>123.0</ele><time>2026-04-18T09:01:12.008Z</time></trkpt><trkpt lat="43.622525" lon="11.49205"><ele>123.0</ele><time>2026-04-18T09:01:13.012Z</time></trkpt><trkpt lat="43.6225" lon="11.4919483"><ele>123.0</ele><time>2026-04-18T09:01:14.011Z</time></trkpt><trkpt lat="43.6224767" lon="11.4918483"><ele>123.0</ele><time>2026-04-18T09:01:15.011Z</time></trkpt><trkpt lat="43.6224517" lon="11.4917467"><ele>123.0</ele><time>2026-04-18T09:01:16.011Z</time></trkpt><trkpt lat="43.6224283" lon="11.4916433"><ele>123.0</ele><time>2026-04-18T09:01:17.01Z</time></trkpt><trkpt lat="43.6224033" lon="11.491535"><ele>123.0</ele><time>2026-04-18T09:01:18.01Z</time></trkpt><trkpt lat="43.6223783" lon="11.4914267"><ele>123.0</ele><time>2026-04-18T09:01:19.009Z</time></trkpt><trkpt lat="43.62235" lon="11.491325"><ele>123.0</ele><time>2026-04-18T09:01:20.009Z</time></trkpt><trkpt lat="43.6223217" lon="11.491215"><ele>123.0</ele><time>2026-04-18T09:01:21.011Z</time></trkpt><trkpt lat="43.6222917" lon="11.4910983"><ele>123.0</ele><time>2026-04-18T09:01:22.01Z</time></trkpt><trkpt lat="43.6222633" lon="11.4909817"><ele>123.0</ele><time>2026-04-18T09:01:23.01Z</time></trkpt><trkpt lat="43.6222333" lon="11.490865"><ele>123.00000000000001</ele><time>2026-04-18T09:01:24.012Z</time></trkpt><trkpt lat="43.6222033" lon="11.4907417"><ele>123.00000000000001</ele><time>2026-04-18T09:01:25.01Z</time></trkpt><trkpt lat="43.622175" lon="11.4906267"><ele>123.0</ele><time>2026-04-18T09:01:26.011Z</time></trkpt><trkpt lat="43.62215" lon="11.4905067"><ele>123.0</ele><time>2026-04-18T09:01:27.012Z</time></trkpt><trkpt lat="43.622125" lon="11.49039"><ele>123.16666666666667</ele><time>2026-04-18T09:01:28.011Z</time></trkpt><trkpt lat="43.6221" lon="11.4902833"><ele>123.33333333333334</ele><time>2026-04-18T09:01:29.011Z</time></trkpt><trkpt lat="43.622075" lon="11.4901717"><ele>123.5</ele><time>2026-04-18T09:01:30.01Z</time></trkpt><trkpt lat="43.62205" lon="11.4900617"><ele>123.66666666666667</ele><time>2026-04-18T09:01:31.01Z</time></trkpt><trkpt lat="43.622025" lon="11.4899517"><ele>123.83333333333334</ele><time>2026-04-18T09:01:32.013Z</time></trkpt><trkpt lat="43.622" lon="11.4898467"><ele>124.0</ele><time>2026-04-18T09:01:33.011Z</time></trkpt><trkpt lat="43.621975" lon="11.4897383"><ele>123.83333333333334</ele><time>2026-04-18T09:01:34.011Z</time></trkpt><trkpt lat="43.6219467" lon="11.4896267"><ele>123.66666666666667</ele><time>2026-04-18T09:01:35.01Z</time></trkpt><trkpt lat="43.6219167" lon="11.4895183"><ele>123.5</ele><time>2026-04-18T09:01:36.01Z</time></trkpt><trkpt lat="43.6218883" lon="11.4894083"><ele>123.33333333333334</ele><time>2026-04-18T09:01:37.01Z</time></trkpt><trkpt lat="43.6218617" lon="11.4893033"><ele>123.16666666666667</ele><time>2026-04-18T09:01:38.009Z</time></trkpt><trkpt lat="43.6218367" lon="11.4891983"><ele>123.0</ele><time>2026-04-18T09:01:39.011Z</time></trkpt><trkpt lat="43.6218117" lon="11.4890917"><ele>123.0</ele><time>2026-04-18T09:01:40.01Z</time></trkpt><trkpt lat="43.6217883" lon="11.4889833"><ele>123.0</ele><time>2026-04-18T09:01:41.01Z</time></trkpt><trkpt lat="43.6217633" lon="11.4888767"><ele>123.0</ele><time>2026-04-18T09:01:42.01Z</time></trkpt><trkpt lat="43.6217417" lon="11.4887633"><ele>123.0</ele><time>2026-04-18T09:01:43.01Z</time></trkpt><trkpt lat="43.6217183" lon="11.4886483"><ele>123.0</ele><time>2026-04-18T09:01:44.01Z</time></trkpt><trkpt lat="43.6216967" lon="11.48854"><ele>123.0</ele><time>2026-04-18T09:01:45.008Z</time></trkpt><trkpt lat="43.6216767" lon="11.48843"><ele>123.0</ele><time>2026-04-18T09:01:46.011Z</time></trkpt><trkpt lat="43.6216567" lon="11.48832"><ele>123.0</ele><time>2026-04-18T09:01:47.012Z</time></trkpt><trkpt lat="43.6216433" lon="11.48821"><ele>123.0</ele><time>2026-04-18T09:01:48.012Z</time></trkpt><trkpt lat="43.6216333" lon="11.4880967"><ele>123.0</ele><time>2026-04-18T09:01:49.012Z</time></trkpt><trkpt lat="43.621625" lon="11.4879783"><ele>123.0</ele><time>2026-04-18T09:01:50.011Z</time></trkpt><trkpt lat="43.6216217" lon="11.4878633"><ele>123.0</ele><time>2026-04-18T09:01:51.01Z</time></trkpt><trkpt lat="43.6216233" lon="11.4877467"><ele>123.16666666666667</ele><time>2026-04-18T09:01:52.01Z</time></trkpt><trkpt lat="43.62163" lon="11.4876317"><ele>123.33333333333334</ele><time>2026-04-18T09:01:53.011Z</time></trkpt><trkpt lat="43.6216433" lon="11.4875083"><ele>123.5</ele><time>2026-04-18T09:01:54.012Z</time></trkpt><trkpt lat="43.62166" lon="11.4873933"><ele>123.66666666666667</ele><time>2026-04-18T09:01:55.012Z</time></trkpt><trkpt lat="43.6216817" lon="11.4872783"><ele>123.83333333333334</ele><time>2026-04-18T09:01:56.011Z</time></trkpt><trkpt lat="43.6217033" lon="11.487165"><ele>124.0</ele><time>2026-04-18T09:01:57.01Z</time></trkpt><trkpt lat="43.62173" lon="11.4870517"><ele>124.00000000000001</ele><time>2026-04-18T09:01:58.013Z</time></trkpt><trkpt lat="43.62176" lon="11.48694"><ele>124.0</ele><time>2026-04-18T09:01:59.01Z</time></trkpt><trkpt lat="43.6217933" lon="11.4868317"><ele>124.0</ele><time>2026-04-18T09:02:00.009Z</time></trkpt><trkpt lat="43.6218333" lon="11.4867283"><ele>124.0</ele><time>2026-04-18T09:02:01.009Z</time></trkpt><trkpt lat="43.6218783" lon="11.4866217"><ele>124.00000000000001</ele><time>2026-04-18T09:02:02.012Z</time></trkpt><trkpt lat="43.6219267" lon="11.48652"><ele>124.0</ele><time>2026-04-18T09:02:03.012Z</time></trkpt><trkpt lat="43.6219717" lon="11.48642"><ele>124.00000000000001</ele><time>2026-04-18T09:02:04.012Z</time></trkpt><trkpt lat="43.62202" lon="11.4863183"><ele>124.0</ele><time>2026-04-18T09:02:05.013Z</time></trkpt><trkpt lat="43.6220667" lon="11.4862217"><ele>124.0</ele><time>2026-04-18T09:02:06.01Z</time></trkpt><trkpt lat="43.6221133" lon="11.4861217"><ele>124.0</ele><time>2026-04-18T09:02:07.008Z</time></trkpt><trkpt lat="43.6221617" lon="11.486025"><ele>124.00000000000001</ele><time>2026-04-18T09:02:08.014Z</time></trkpt><trkpt lat="43.6222083" lon="11.4859233"><ele>124.0</ele><time>2026-04-18T09:02:09.012Z</time></trkpt><trkpt lat="43.6222567" lon="11.4858267"><ele>124.16666666666667</ele><time>2026-04-18T09:02:10.01Z</time></trkpt><trkpt lat="43.6223017" lon="11.4857317"><ele>124.33333333333334</ele><time>2026-04-18T09:02:11.01Z</time></trkpt><trkpt lat="43.62235" lon="11.485635"><ele>124.5</ele><time>2026-04-18T09:02:12.008Z</time></trkpt><trkpt lat="43.6223983" lon="11.4855383"><ele>124.66666666666666</ele><time>2026-04-18T09:02:13.01Z</time></trkpt><trkpt lat="43.6224467" lon="11.48544"><ele>124.83333333333333</ele><time>2026-04-18T09:02:14.01Z</time></trkpt><trkpt lat="43.6224933" lon="11.4853467"><ele>125.0</ele><time>2026-04-18T09:02:15.009Z</time></trkpt><trkpt lat="43.6225383" lon="11.4852517"><ele>124.83333333333333</ele><time>2026-04-18T09:02:16.009Z</time></trkpt><trkpt lat="43.622585" lon="11.4851533"><ele>124.66666666666666</ele><time>2026-04-18T09:02:17.01Z</time></trkpt><trkpt lat="43.622635" lon="11.485055"><ele>124.5</ele><time>2026-04-18T09:02:18.01Z</time></trkpt><trkpt lat="43.62268" lon="11.484955"><ele>124.33333333333334</ele><time>2026-04-18T09:02:19.009Z</time></trkpt><trkpt lat="43.6227283" lon="11.4848567"><ele>124.16666666666667</ele><time>2026-04-18T09:02:20.009Z</time></trkpt><trkpt lat="43.622775" lon="11.4847583"><ele>124.0</ele><time>2026-04-18T09:02:21.009Z</time></trkpt><trkpt lat="43.6228217" lon="11.4846633"><ele>124.00000000000001</ele><time>2026-04-18T09:02:22.01Z</time></trkpt><trkpt lat="43.6228683" lon="11.48457"><ele>124.0</ele><time>2026-04-18T09:02:23.01Z</time></trkpt><trkpt lat="43.6229117" lon="11.4844833"><ele>124.0</ele><time>2026-04-18T09:02:24.011Z</time></trkpt><trkpt lat="43.62296" lon="11.484395"><ele>124.0</ele><time>2026-04-18T09:02:25.012Z</time></trkpt><trkpt lat="43.623" lon="11.4843033"><ele>124.00000000000001</ele><time>2026-04-18T09:02:26.01Z</time></trkpt><trkpt lat="43.623045" lon="11.4842117"><ele>124.0</ele><time>2026-04-18T09:02:27.01Z</time></trkpt><trkpt lat="43.62309" lon="11.4841217"><ele>124.00000000000001</ele><time>2026-04-18T09:02:28.009Z</time></trkpt><trkpt lat="43.623135" lon="11.4840333"><ele>124.0</ele><time>2026-04-18T09:02:29.01Z</time></trkpt><trkpt lat="43.6231833" lon="11.483945"><ele>124.0</ele><time>2026-04-18T09:02:30.01Z</time></trkpt><trkpt lat="43.6232267" lon="11.48386"><ele>124.0</ele><time>2026-04-18T09:02:31.008Z</time></trkpt><trkpt lat="43.6232683" lon="11.4837767"><ele>124.00000000000001</ele><time>2026-04-18T09:02:32.012Z</time></trkpt><trkpt lat="43.6233083" lon="11.4836933"><ele>124.0</ele><time>2026-04-18T09:02:33.009Z</time></trkpt><trkpt lat="43.6233483" lon="11.4836083"><ele>124.00000000000001</ele><time>2026-04-18T09:02:34.01Z</time></trkpt><trkpt lat="43.62339" lon="11.48352"><ele>124.0</ele><time>2026-04-18T09:02:35.008Z</time></trkpt><trkpt lat="43.6234333" lon="11.4834283"><ele>124.0</ele><time>2026-04-18T09:02:36.01Z</time></trkpt><trkpt lat="43.6234783" lon="11.4833383"><ele>124.0</ele><time>2026-04-18T09:02:37.01Z</time></trkpt><trkpt lat="43.6235217" lon="11.48325"><ele>124.00000000000001</ele><time>2026-04-18T09:02:38.009Z</time></trkpt><trkpt lat="43.6235667" lon="11.4831583"><ele>124.0</ele><time>2026-04-18T09:02:39.008Z</time></trkpt><trkpt lat="43.6236083" lon="11.4830717"><ele>124.14285714285715</ele><time>2026-04-18T09:02:40.008Z</time></trkpt><trkpt lat="43.6236483" lon="11.482985"><ele>124.2857142857143</ele><time>2026-04-18T09:02:41.011Z</time></trkpt><trkpt lat="43.6236867" lon="11.4828983"><ele>124.42857142857143</ele><time>2026-04-18T09:02:42.011Z</time></trkpt><trkpt lat="43.6237267" lon="11.4828117"><ele>124.57142857142858</ele><time>2026-04-18T09:02:43.009Z</time></trkpt><trkpt lat="43.623765" lon="11.482725"><ele>124.71428571428572</ele><time>2026-04-18T09:02:44.01Z</time></trkpt><trkpt lat="43.6238083" lon="11.4826383"><ele>124.85714285714286</ele><time>2026-04-18T09:02:45.009Z</time></trkpt><trkpt lat="43.6238533" lon="11.482555"><ele>125.0</ele><time>2026-04-18T09:02:46.011Z</time></trkpt><trkpt lat="43.62389" lon="11.4824767"><ele>125.14285714285714</ele><time>2026-04-18T09:02:47.01Z</time></trkpt><trkpt lat="43.623925" lon="11.4823933"><ele>125.28571428571429</ele><time>2026-04-18T09:02:48.01Z</time></trkpt><trkpt lat="43.6239533" lon="11.482315"><ele>125.42857142857143</ele><time>2026-04-18T09:02:49.01Z</time></trkpt><trkpt lat="43.62399" lon="11.4822017"><ele>125.57142857142857</ele><time>2026-04-18T09:02:51.009Z</time></trkpt><trkpt lat="43.6240233" lon="11.4821217"><ele>125.71428571428572</ele><time>2026-04-18T09:02:54.009Z</time></trkpt><trkpt lat="43.6240783" lon="11.4820433"><ele>125.85714285714286</ele><time>2026-04-18T09:02:57.009Z</time></trkpt><trkpt lat="43.62414" lon="11.4819817"><ele>126.0</ele><time>2026-04-18T09:02:59.008Z</time></trkpt><trkpt lat="43.6241933" lon="11.4819017"><ele>126.4</ele><time>2026-04-18T09:03:01.012Z</time></trkpt><trkpt lat="43.6241983" lon="11.4818033"><ele>126.8</ele><time>2026-04-18T09:03:03.01Z</time></trkpt><trkpt lat="43.6241567" lon="11.4816967"><ele>127.20000000000002</ele><time>2026-04-18T09:03:05.011Z</time></trkpt><trkpt lat="43.62407" lon="11.4815967"><ele>127.60000000000001</ele><time>2026-04-18T09:03:07.009Z</time></trkpt><trkpt lat="43.62397" lon="11.481525"><ele>128.0</ele><time>2026-04-18T09:03:09.01Z</time></trkpt><trkpt lat="43.6238833" lon="11.4814017"><ele>128.0</ele><time>2026-04-18T09:03:11.009Z</time></trkpt><trkpt lat="43.6238467" lon="11.4813267"><ele>127.99999999999999</ele><time>2026-04-18T09:03:12.015Z</time></trkpt><trkpt lat="43.62381" lon="11.4812533"><ele>128.0</ele><time>2026-04-18T09:03:13.01Z</time></trkpt><trkpt lat="43.62377" lon="11.48118"><ele>128.0</ele><time>2026-04-18T09:03:14.01Z</time></trkpt><trkpt lat="43.623725" lon="11.4811067"><ele>127.99999999999999</ele><time>2026-04-18T09:03:15.009Z</time></trkpt><trkpt lat="43.623685" lon="11.4810333"><ele>128.0</ele><time>2026-04-18T09:03:16.01Z</time></trkpt><trkpt lat="43.6236433" lon="11.480965"><ele>128.0</ele><time>2026-04-18T09:03:17.01Z</time></trkpt><trkpt lat="43.623605" lon="11.4808717"><ele>127.28571428571428</ele><time>2026-04-18T09:03:18.012Z</time></trkpt><trkpt lat="43.623565" lon="11.4807833"><ele>126.57142857142856</ele><time>2026-04-18T09:03:19.009Z</time></trkpt><trkpt lat="43.623525" lon="11.4807"><ele>125.85714285714286</ele><time>2026-04-18T09:03:20.009Z</time></trkpt><trkpt lat="43.6234817" lon="11.4806217"><ele>125.14285714285714</ele><time>2026-04-18T09:03:21.01Z</time></trkpt><trkpt lat="43.6234333" lon="11.4805433"><ele>124.42857142857143</ele><time>2026-04-18T09:03:22.01Z</time></trkpt><trkpt lat="43.623385" lon="11.4804717"><ele>123.71428571428572</ele><time>2026-04-18T09:03:23.011Z</time></trkpt><trkpt lat="43.6233417" lon="11.480405"><ele>123.00000000000001</ele><time>2026-04-18T09:03:24.01Z</time></trkpt><trkpt lat="43.6232767" lon="11.4802983"><ele>122.5</ele><time>2026-04-18T09:03:26.01Z</time></trkpt><trkpt lat="43.623215" lon="11.4801933"><ele>122.0</ele><time>2026-04-18T09:03:28.011Z</time></trkpt><trkpt lat="43.6231483" lon="11.4800867"><ele>121.5</ele><time>2026-04-18T09:03:30.009Z</time></trkpt><trkpt lat="43.6230767" lon="11.47996"><ele>121.0</ele><time>2026-04-18T09:03:32.011Z</time></trkpt><trkpt lat="43.623035" lon="11.47989"><ele>120.5</ele><time>2026-04-18T09:03:33.012Z</time></trkpt><trkpt lat="43.6229933" lon="11.4798233"><ele>120.0</ele><time>2026-04-18T09:03:34.01Z</time></trkpt><trkpt lat="43.6229517" lon="11.479755"><ele>120.0</ele><time>2026-04-18T09:03:35.01Z</time></trkpt><trkpt lat="43.6229117" lon="11.47968"><ele>120.0</ele><time>2026-04-18T09:03:36.01Z</time></trkpt><trkpt lat="43.6228717" lon="11.4796067"><ele>120.0</ele><time>2026-04-18T09:03:37.011Z</time></trkpt><trkpt lat="43.6228333" lon="11.479535"><ele>120.0</ele><time>2026-04-18T09:03:38.011Z</time></trkpt><trkpt lat="43.6227917" lon="11.4794633"><ele>120.0</ele><time>2026-04-18T09:03:39.012Z</time></trkpt><trkpt lat="43.6227517" lon="11.4793933"><ele>120.0</ele><time>2026-04-18T09:03:40.009Z</time></trkpt><trkpt lat="43.62271" lon="11.479325"><ele>120.0</ele><time>2026-04-18T09:03:41.009Z</time></trkpt><trkpt lat="43.6226267" lon="11.4791867"><ele>120.28571428571429</ele><time>2026-04-18T09:03:43.01Z</time></trkpt><trkpt lat="43.622585" lon="11.4791117"><ele>120.57142857142856</ele><time>2026-04-18T09:03:44.01Z</time></trkpt><trkpt lat="43.6225433" lon="11.479035"><ele>120.85714285714285</ele><time>2026-04-18T09:03:45.01Z</time></trkpt><trkpt lat="43.62251" lon="11.4789533"><ele>121.14285714285714</ele><time>2026-04-18T09:03:46.009Z</time></trkpt><trkpt lat="43.6224983" lon="11.47886"><ele>121.42857142857142</ele><time>2026-04-18T09:03:47.01Z</time></trkpt><trkpt lat="43.6225067" lon="11.47876"><ele>121.7142857142857</ele><time>2026-04-18T09:03:48.009Z</time></trkpt><trkpt lat="43.6225317" lon="11.478655"><ele>121.99999999999999</ele><time>2026-04-18T09:03:49.01Z</time></trkpt><trkpt lat="43.622565" lon="11.4785533"><ele>122.16666666666666</ele><time>2026-04-18T09:03:50.01Z</time></trkpt><trkpt lat="43.6226033" lon="11.47845"><ele>122.33333333333333</ele><time>2026-04-18T09:03:51.009Z</time></trkpt><trkpt lat="43.6226567" lon="11.4783517"><ele>122.5</ele><time>2026-04-18T09:03:52.008Z</time></trkpt><trkpt lat="43.622725" lon="11.4782667"><ele>122.66666666666666</ele><time>2026-04-18T09:03:53.012Z</time></trkpt><trkpt lat="43.6227967" lon="11.4781917"><ele>122.83333333333333</ele><time>2026-04-18T09:03:54.01Z</time></trkpt><trkpt lat="43.6228717" lon="11.478115"><ele>123.0</ele><time>2026-04-18T09:03:55.01Z</time></trkpt><trkpt lat="43.6229483" lon="11.47804"><ele>123.0</ele><time>2026-04-18T09:03:56.01Z</time></trkpt><trkpt lat="43.6230233" lon="11.4779633"><ele>123.0</ele><time>2026-04-18T09:03:57.009Z</time></trkpt><trkpt lat="43.623095" lon="11.4778867"><ele>123.0</ele><time>2026-04-18T09:03:58.011Z</time></trkpt><trkpt lat="43.6231633" lon="11.4778133"><ele>123.0</ele><time>2026-04-18T09:03:59.01Z</time></trkpt><trkpt lat="43.62323" lon="11.4777467"><ele>123.0</ele><time>2026-04-18T09:04:00.009Z</time></trkpt><trkpt lat="43.623295" lon="11.4776767"><ele>123.0</ele><time>2026-04-18T09:04:01.008Z</time></trkpt><trkpt lat="43.623355" lon="11.4776083"><ele>123.0</ele><time>2026-04-18T09:04:02.01Z</time></trkpt><trkpt lat="43.6234133" lon="11.4775383"><ele>123.0</ele><time>2026-04-18T09:04:03.012Z</time></trkpt><trkpt lat="43.6234717" lon="11.4774667"><ele>123.0</ele><time>2026-04-18T09:04:04.01Z</time></trkpt><trkpt lat="43.6235283" lon="11.4773933"><ele>123.0</ele><time>2026-04-18T09:04:05.01Z</time></trkpt><trkpt lat="43.6235833" lon="11.47732"><ele>123.0</ele><time>2026-04-18T09:04:06.008Z</time></trkpt><trkpt lat="43.6236367" lon="11.47725"><ele>123.0</ele><time>2026-04-18T09:04:07.011Z</time></trkpt><trkpt lat="43.62369" lon="11.4771767"><ele>122.83333333333333</ele><time>2026-04-18T09:04:08.01Z</time></trkpt><trkpt lat="43.6237467" lon="11.4771017"><ele>122.66666666666666</ele><time>2026-04-18T09:04:09.012Z</time></trkpt><trkpt lat="43.6238" lon="11.4770267"><ele>122.5</ele><time>2026-04-18T09:04:10.012Z</time></trkpt><trkpt lat="43.623855" lon="11.476945"><ele>122.33333333333333</ele><time>2026-04-18T09:04:11.012Z</time></trkpt><trkpt lat="43.62391" lon="11.4768633"><ele>122.16666666666666</ele><time>2026-04-18T09:04:12.009Z</time></trkpt><trkpt lat="43.6239667" lon="11.4767783"><ele>122.0</ele><time>2026-04-18T09:04:13.009Z</time></trkpt><trkpt lat="43.6240217" lon="11.4766933"><ele>121.99999999999999</ele><time>2026-04-18T09:04:14.011Z</time></trkpt><trkpt lat="43.624075" lon="11.4766083"><ele>122.0</ele><time>2026-04-18T09:04:15.01Z</time></trkpt><trkpt lat="43.6241283" lon="11.4765217"><ele>122.0</ele><time>2026-04-18T09:04:16.01Z</time></trkpt><trkpt lat="43.6241833" lon="11.47643"><ele>122.0</ele><time>2026-04-18T09:04:17.01Z</time></trkpt><trkpt lat="43.6242367" lon="11.4763383"><ele>121.99999999999999</ele><time>2026-04-18T09:04:18.009Z</time></trkpt><trkpt lat="43.6242883" lon="11.476245"><ele>122.0</ele><time>2026-04-18T09:04:19.01Z</time></trkpt><trkpt lat="43.6243367" lon="11.4761533"><ele>122.16666666666666</ele><time>2026-04-18T09:04:20.011Z</time></trkpt><trkpt lat="43.6243833" lon="11.4760633"><ele>122.33333333333333</ele><time>2026-04-18T09:04:21.011Z</time></trkpt><trkpt lat="43.62443" lon="11.475975"><ele>122.5</ele><time>2026-04-18T09:04:22.011Z</time></trkpt><trkpt lat="43.624475" lon="11.475885"><ele>122.66666666666666</ele><time>2026-04-18T09:04:23.009Z</time></trkpt><trkpt lat="43.62452" lon="11.475795"><ele>122.83333333333333</ele><time>2026-04-18T09:04:24.011Z</time></trkpt><trkpt lat="43.624565" lon="11.4757017"><ele>123.0</ele><time>2026-04-18T09:04:25.011Z</time></trkpt><trkpt lat="43.6246117" lon="11.4756067"><ele>123.0</ele><time>2026-04-18T09:04:26.01Z</time></trkpt><trkpt lat="43.6246567" lon="11.4755133"><ele>123.0</ele><time>2026-04-18T09:04:27.01Z</time></trkpt><trkpt lat="43.6247033" lon="11.4754183"><ele>123.0</ele><time>2026-04-18T09:04:28.009Z</time></trkpt><trkpt lat="43.6247467" lon="11.4753267"><ele>123.0</ele><time>2026-04-18T09:04:29.007Z</time></trkpt><trkpt lat="43.6247883" lon="11.4752367"><ele>123.0</ele><time>2026-04-18T09:04:30.011Z</time></trkpt><trkpt lat="43.6248317" lon="11.475145"><ele>123.0</ele><time>2026-04-18T09:04:31.009Z</time></trkpt><trkpt lat="43.6248767" lon="11.47505"><ele>123.0</ele><time>2026-04-18T09:04:32.009Z</time></trkpt><trkpt lat="43.6249217" lon="11.4749583"><ele>123.0</ele><time>2026-04-18T09:04:33.011Z</time></trkpt><trkpt lat="43.624965" lon="11.474865"><ele>123.0</ele><time>2026-04-18T09:04:34.009Z</time></trkpt><trkpt lat="43.6250067" lon="11.474775"><ele>123.0</ele><time>2026-04-18T09:04:35.011Z</time></trkpt><trkpt lat="43.62505" lon="11.4746783"><ele>123.0</ele><time>2026-04-18T09:04:36.011Z</time></trkpt><trkpt lat="43.6250967" lon="11.474575"><ele>123.0</ele><time>2026-04-18T09:04:37.008Z</time></trkpt><trkpt lat="43.6251417" lon="11.4744733"><ele>122.66666666666667</ele><time>2026-04-18T09:04:38.01Z</time></trkpt><trkpt lat="43.62519" lon="11.4743717"><ele>122.33333333333334</ele><time>2026-04-18T09:04:39.01Z</time></trkpt><trkpt lat="43.6252383" lon="11.4742667"><ele>122.0</ele><time>2026-04-18T09:04:40.01Z</time></trkpt><trkpt lat="43.6252883" lon="11.47416"><ele>121.66666666666667</ele><time>2026-04-18T09:04:41.01Z</time></trkpt><trkpt lat="43.6253367" lon="11.4740583"><ele>121.33333333333334</ele><time>2026-04-18T09:04:42.01Z</time></trkpt><trkpt lat="43.6253833" lon="11.4739583"><ele>121.0</ele><time>2026-04-18T09:04:43.009Z</time></trkpt><trkpt lat="43.6254283" lon="11.4738583"><ele>121.33333333333334</ele><time>2026-04-18T09:04:44.011Z</time></trkpt><trkpt lat="43.6254733" lon="11.4737583"><ele>121.66666666666667</ele><time>2026-04-18T09:04:45.011Z</time></trkpt><trkpt lat="43.62552" lon="11.47366"><ele>122.0</ele><time>2026-04-18T09:04:46.01Z</time></trkpt><trkpt lat="43.6255633" lon="11.4735633"><ele>122.33333333333334</ele><time>2026-04-18T09:04:47.01Z</time></trkpt><trkpt lat="43.6256067" lon="11.473465"><ele>122.66666666666667</ele><time>2026-04-18T09:04:48.011Z</time></trkpt><trkpt lat="43.625655" lon="11.4733683"><ele>123.0</ele><time>2026-04-18T09:04:49.009Z</time></trkpt><trkpt lat="43.6257033" lon="11.4732683"><ele>123.0</ele><time>2026-04-18T09:04:50.011Z</time></trkpt><trkpt lat="43.625755" lon="11.4731633"><ele>123.00000000000001</ele><time>2026-04-18T09:04:51.011Z</time></trkpt><trkpt lat="43.6258033" lon="11.4730583"><ele>123.00000000000001</ele><time>2026-04-18T09:04:52.011Z</time></trkpt><trkpt lat="43.6258533" lon="11.4729533"><ele>123.0</ele><time>2026-04-18T09:04:53.012Z</time></trkpt><trkpt lat="43.6259033" lon="11.4728517"><ele>123.0</ele><time>2026-04-18T09:04:54.01Z</time></trkpt><trkpt lat="43.6259517" lon="11.47275"><ele>122.83333333333333</ele><time>2026-04-18T09:04:55.009Z</time></trkpt><trkpt lat="43.626" lon="11.4726483"><ele>122.66666666666666</ele><time>2026-04-18T09:04:56.01Z</time></trkpt><trkpt lat="43.6260483" lon="11.4725433"><ele>122.5</ele><time>2026-04-18T09:04:57.009Z</time></trkpt><trkpt lat="43.6260933" lon="11.47244"><ele>122.33333333333333</ele><time>2026-04-18T09:04:58.01Z</time></trkpt><trkpt lat="43.6261333" lon="11.4723367"><ele>122.16666666666666</ele><time>2026-04-18T09:04:59.009Z</time></trkpt><trkpt lat="43.6261717" lon="11.4722367"><ele>122.0</ele><time>2026-04-18T09:05:00.008Z</time></trkpt><trkpt lat="43.626205" lon="11.4721383"><ele>121.83333333333333</ele><time>2026-04-18T09:05:01.01Z</time></trkpt><trkpt lat="43.62624" lon="11.4720367"><ele>121.66666666666666</ele><time>2026-04-18T09:05:02.011Z</time></trkpt><trkpt lat="43.62627" lon="11.4719383"><ele>121.5</ele><time>2026-04-18T09:05:03.009Z</time></trkpt><trkpt lat="43.626295" lon="11.471835"><ele>121.33333333333334</ele><time>2026-04-18T09:05:04.009Z</time></trkpt><trkpt lat="43.6263183" lon="11.4717267"><ele>121.16666666666667</ele><time>2026-04-18T09:05:05.008Z</time></trkpt><trkpt lat="43.626335" lon="11.4716183"><ele>121.0</ele><time>2026-04-18T09:05:06.009Z</time></trkpt><trkpt lat="43.62635" lon="11.4715083"><ele>121.00000000000001</ele><time>2026-04-18T09:05:07.008Z</time></trkpt><trkpt lat="43.6263617" lon="11.4713967"><ele>121.0</ele><time>2026-04-18T09:05:08.01Z</time></trkpt><trkpt lat="43.6263733" lon="11.4712833"><ele>121.0</ele><time>2026-04-18T09:05:09.009Z</time></trkpt><trkpt lat="43.6263817" lon="11.4711667"><ele>121.0</ele><time>2026-04-18T09:05:10.01Z</time></trkpt><trkpt lat="43.6263867" lon="11.47104"><ele>121.00000000000001</ele><time>2026-04-18T09:05:11.009Z</time></trkpt><trkpt lat="43.6263833" lon="11.4709117"><ele>121.0</ele><time>2026-04-18T09:05:12.009Z</time></trkpt><trkpt lat="43.6263783" lon="11.470775"><ele>121.0</ele><time>2026-04-18T09:05:13.009Z</time></trkpt><trkpt lat="43.6263667" lon="11.470635"><ele>121.0</ele><time>2026-04-18T09:05:14.012Z</time></trkpt><trkpt lat="43.6263483" lon="11.470495"><ele>121.0</ele><time>2026-04-18T09:05:15.01Z</time></trkpt><trkpt lat="43.626325" lon="11.4703517"><ele>121.0</ele><time>2026-04-18T09:05:16.009Z</time></trkpt><trkpt lat="43.6262967" lon="11.4702083"><ele>121.0</ele><time>2026-04-18T09:05:17.012Z</time></trkpt><trkpt lat="43.626265" lon="11.470065"><ele>121.0</ele><time>2026-04-18T09:05:18.011Z</time></trkpt><trkpt lat="43.62623" lon="11.46992"><ele>121.0</ele><time>2026-04-18T09:05:19.013Z</time></trkpt><trkpt lat="43.6261933" lon="11.4697767"><ele>121.0</ele><time>2026-04-18T09:05:20.011Z</time></trkpt><trkpt lat="43.6261533" lon="11.4696383"><ele>121.0</ele><time>2026-04-18T09:05:21.012Z</time></trkpt><trkpt lat="43.62611" lon="11.469505"><ele>121.0</ele><time>2026-04-18T09:05:22.012Z</time></trkpt><trkpt lat="43.6260717" lon="11.4693717"><ele>121.0</ele><time>2026-04-18T09:05:23.013Z</time></trkpt><trkpt lat="43.62604" lon="11.4692383"><ele>121.0</ele><time>2026-04-18T09:05:24.011Z</time></trkpt><trkpt lat="43.6260033" lon="11.4691"><ele>121.0</ele><time>2026-04-18T09:05:25.011Z</time></trkpt><trkpt lat="43.6259767" lon="11.4689667"><ele>121.0</ele><time>2026-04-18T09:05:26.011Z</time></trkpt><trkpt lat="43.62595" lon="11.4688433"><ele>121.0</ele><time>2026-04-18T09:05:27.013Z</time></trkpt><trkpt lat="43.6259267" lon="11.4687167"><ele>121.00000000000001</ele><time>2026-04-18T09:05:28.009Z</time></trkpt><trkpt lat="43.6259067" lon="11.4685967"><ele>121.0</ele><time>2026-04-18T09:05:29.013Z</time></trkpt><trkpt lat="43.6258933" lon="11.468485"><ele>121.0</ele><time>2026-04-18T09:05:30.013Z</time></trkpt><trkpt lat="43.6258833" lon="11.468375"><ele>121.0</ele><time>2026-04-18T09:05:31.011Z</time></trkpt><trkpt lat="43.6258833" lon="11.4682683"><ele>121.00000000000001</ele><time>2026-04-18T09:05:32.011Z</time></trkpt><trkpt lat="43.625895" lon="11.4681683"><ele>121.0</ele><time>2026-04-18T09:05:33.011Z</time></trkpt><trkpt lat="43.6259183" lon="11.4680717"><ele>121.00000000000001</ele><time>2026-04-18T09:05:34.012Z</time></trkpt><trkpt lat="43.6259583" lon="11.4679883"><ele>121.0</ele><time>2026-04-18T09:05:35.01Z</time></trkpt><trkpt lat="43.6260033" lon="11.4679183"><ele>121.0</ele><time>2026-04-18T09:05:36.009Z</time></trkpt><trkpt lat="43.626065" lon="11.4677733"><ele>121.0</ele><time>2026-04-18T09:05:38.011Z</time></trkpt><trkpt lat="43.626045" lon="11.46763"><ele>121.00000000000001</ele><time>2026-04-18T09:05:40.012Z</time></trkpt><trkpt lat="43.6260067" lon="11.4675583"><ele>121.0</ele><time>2026-04-18T09:05:41.012Z</time></trkpt><trkpt lat="43.62588" lon="11.4675283"><ele>121.16666666666667</ele><time>2026-04-18T09:05:43.009Z</time></trkpt><trkpt lat="43.6258083" lon="11.4675467"><ele>121.33333333333334</ele><time>2026-04-18T09:05:44.012Z</time></trkpt><trkpt lat="43.625735" lon="11.4675667"><ele>121.5</ele><time>2026-04-18T09:05:45.009Z</time></trkpt><trkpt lat="43.62566" lon="11.46757"><ele>121.66666666666666</ele><time>2026-04-18T09:05:46.011Z</time></trkpt><trkpt lat="43.6255867" lon="11.4675467"><ele>121.83333333333333</ele><time>2026-04-18T09:05:47.009Z</time></trkpt><trkpt lat="43.6255183" lon="11.467505"><ele>122.0</ele><time>2026-04-18T09:05:48.013Z</time></trkpt><trkpt lat="43.6254467" lon="11.4674633"><ele>121.99999999999999</ele><time>2026-04-18T09:05:49.012Z</time></trkpt><trkpt lat="43.62538" lon="11.46742"><ele>122.0</ele><time>2026-04-18T09:05:50.01Z</time></trkpt><trkpt lat="43.6253117" lon="11.4673767"><ele>121.99999999999999</ele><time>2026-04-18T09:05:51.009Z</time></trkpt><trkpt lat="43.6252433" lon="11.4673383"><ele>121.99999999999999</ele><time>2026-04-18T09:05:52.01Z</time></trkpt><trkpt lat="43.625175" lon="11.4673017"><ele>122.0</ele><time>2026-04-18T09:05:53.01Z</time></trkpt><trkpt lat="43.6251067" lon="11.4672633"><ele>121.99999999999999</ele><time>2026-04-18T09:05:54.01Z</time></trkpt><trkpt lat="43.6250433" lon="11.467225"><ele>121.99999999999999</ele><time>2026-04-18T09:05:55.01Z</time></trkpt><trkpt lat="43.6249783" lon="11.4671883"><ele>122.16666666666666</ele><time>2026-04-18T09:05:56.01Z</time></trkpt><trkpt lat="43.624915" lon="11.4671583"><ele>122.33333333333333</ele><time>2026-04-18T09:05:57.011Z</time></trkpt><trkpt lat="43.6248517" lon="11.4671283"><ele>122.5</ele><time>2026-04-18T09:05:58.009Z</time></trkpt><trkpt lat="43.62479" lon="11.4670967"><ele>122.66666666666666</ele><time>2026-04-18T09:05:59.012Z</time></trkpt><trkpt lat="43.62468" lon="11.467025"><ele>122.83333333333333</ele><time>2026-04-18T09:06:01.011Z</time></trkpt><trkpt lat="43.6245917" lon="11.4669583"><ele>123.0</ele><time>2026-04-18T09:06:03.011Z</time></trkpt><trkpt lat="43.6245233" lon="11.4668933"><ele>123.0</ele><time>2026-04-18T09:06:05.012Z</time></trkpt><trkpt lat="43.62445" lon="11.4668017"><ele>122.0</ele><time>2026-04-18T09:06:07.01Z</time></trkpt><trkpt lat="43.62437" lon="11.46674"><ele>122.0</ele><time>2026-04-18T09:06:09.015Z</time></trkpt><trkpt lat="43.6242883" lon="11.4667567"><ele>122.0</ele><time>2026-04-18T09:06:11.012Z</time></trkpt><trkpt lat="43.62422" lon="11.4667717"><ele>122.0</ele><time>2026-04-18T09:06:13.009Z</time></trkpt><trkpt lat="43.6241467" lon="11.466755"><ele>122.0</ele><time>2026-04-18T09:06:16.01Z</time></trkpt></trkseg></trk></gpx>